<?xml version='1.0' encoding='UTF-8'?><gpx version="1.1" creator="JPX - https://github.com/jenetics/jpx" xmlns="http://www.topografix.com/GPX/1/1"><trk><trkseg><trkpt lat="37.75817127519186" lon="15.170293817181596"><ele>198.0</ele><time>2026-05-02T13:06:24Z</time></trkpt><trkpt lat="37.75823020173129" lon="15.170341620968227"><ele>198.0</ele><time>2026-05-02T13:06:27Z</time></trkpt><trkpt lat="37.75830358207816" lon="15.170426525539224"><ele>198.0</ele><time>2026-05-02T13:06:29Z</time></trkpt><trkpt lat="37.75838472813159" lon="15.170531227643034"><ele>198.0</ele><time>2026-05-02T13:06:31Z</time></trkpt><trkpt lat="37.75843570994433" lon="15.17058680290138"><ele>198.0</ele><time>2026-05-02T13:06:32Z</time></trkpt><trkpt lat="37.758482075180915" lon="15.170643539792108"><ele>198.0</ele><time>2026-05-02T13:06:33Z</time></trkpt><trkpt lat="37.75851538618798" lon="15.170732280926352"><ele>197.0</ele><time>2026-05-02T13:06:34Z</time></trkpt><trkpt lat="37.7585750894842" lon="15.170802941787665"><ele>196.0</ele><time>2026-05-02T13:06:35Z</time></trkpt><trkpt lat="37.758637167916994" lon="15.17087809202311"><ele>195.0</ele><time>2026-05-02T13:06:36Z</time></trkpt><trkpt lat="37.75869562017728" lon="15.170948881570107"><ele>194.0</ele><time>2026-05-02T13:06:37Z</time></trkpt><trkpt lat="37.75875303021702" lon="15.171018622726901"><ele>193.0</ele><time>2026-05-02T13:06:38Z</time></trkpt><trkpt lat="37.758816054456815" lon="15.171095183949406"><ele>192.0</ele><time>2026-05-02T13:06:39Z</time></trkpt><trkpt lat="37.75887302428183" lon="15.171164390303495"><ele>192.0</ele><time>2026-05-02T13:06:40Z</time></trkpt><trkpt lat="37.75893492082497" lon="15.171239581605215"><ele>192.0</ele><time>2026-05-02T13:06:41Z</time></trkpt><trkpt lat="37.759003417575755" lon="15.171321697003558"><ele>192.0</ele><time>2026-05-02T13:06:42Z</time></trkpt><trkpt lat="37.75906778483437" lon="15.171400967670433"><ele>192.0</ele><time>2026-05-02T13:06:43Z</time></trkpt><trkpt lat="37.75912805859974" lon="15.171473431309652"><ele>192.0</ele><time>2026-05-02T13:06:44Z</time></trkpt><trkpt lat="37.7591924679647" lon="15.17152345022402"><ele>192.0</ele><time>2026-05-02T13:06:45Z</time></trkpt><trkpt lat="37.759243225324084" lon="15.171585572291766"><ele>191.14285714285714</ele><time>2026-05-02T13:06:45.999Z</time></trkpt><trkpt lat="37.759283081886196" lon="15.171658398359067"><ele>190.28571428571428</ele><time>2026-05-02T13:06:46.999Z</time></trkpt><trkpt lat="37.759336714335205" lon="15.171722012661066"><ele>189.42857142857144</ele><time>2026-05-02T13:06:47.999Z</time></trkpt><trkpt lat="37.75939292227807" lon="15.171787861331195"><ele>188.57142857142856</ele><time>2026-05-02T13:06:48.999Z</time></trkpt><trkpt lat="37.759461325653845" lon="15.171841339229877"><ele>187.71428571428572</ele><time>2026-05-02T13:06:49.999Z</time></trkpt><trkpt lat="37.75950345434607" lon="15.171917597428262"><ele>186.85714285714286</ele><time>2026-05-02T13:06:50.999Z</time></trkpt><trkpt lat="37.759556292652526" lon="15.171978225935316"><ele>186.0</ele><time>2026-05-02T13:06:51.999Z</time></trkpt><trkpt lat="37.759608936022985" lon="15.172038815473078"><ele>186.0</ele><time>2026-05-02T13:06:52.999Z</time></trkpt><trkpt lat="37.75966297669674" lon="15.172101013227488"><ele>186.0</ele><time>2026-05-02T13:06:53.999Z</time></trkpt><trkpt lat="37.75971608699334" lon="15.172163315207037"><ele>186.0</ele><time>2026-05-02T13:06:54.999Z</time></trkpt><trkpt lat="37.759782731886176" lon="15.172219448146048"><ele>186.0</ele><time>2026-05-02T13:06:55.999Z</time></trkpt><trkpt lat="37.759837217862895" lon="15.172310843031715"><ele>186.0</ele><time>2026-05-02T13:06:56.999Z</time></trkpt><trkpt lat="37.75990144578828" lon="15.172392608258365"><ele>186.0</ele><time>2026-05-02T13:06:57.999Z</time></trkpt><trkpt lat="37.75996387459034" lon="15.172467896669982"><ele>184.8</ele><time>2026-05-02T13:06:58.999Z</time></trkpt><trkpt lat="37.76003518069592" lon="15.172544331016493"><ele>183.60000000000002</ele><time>2026-05-02T13:06:59.999Z</time></trkpt><trkpt lat="37.76010370034765" lon="15.172627179620767"><ele>182.4</ele><time>2026-05-02T13:07:00.999Z</time></trkpt><trkpt lat="37.76017228796059" lon="15.172714869079263"><ele>181.2</ele><time>2026-05-02T13:07:01.999Z</time></trkpt><trkpt lat="37.76024620500818" lon="15.172802223756308"><ele>180.0</ele><time>2026-05-02T13:07:02.999Z</time></trkpt><trkpt lat="37.760317736792885" lon="15.172890345162935"><ele>180.0</ele><time>2026-05-02T13:07:03.999Z</time></trkpt><trkpt lat="37.76039545359601" lon="15.172975925555281"><ele>180.0</ele><time>2026-05-02T13:07:04.999Z</time></trkpt><trkpt lat="37.76046940524394" lon="15.173055432029056"><ele>180.0</ele><time>2026-05-02T13:07:05.999Z</time></trkpt><trkpt lat="37.760537515411656" lon="15.173144584446177"><ele>180.0</ele><time>2026-05-02T13:07:06.999Z</time></trkpt><trkpt lat="37.76060820189439" lon="15.173224799734601"><ele>180.0</ele><time>2026-05-02T13:07:07.999Z</time></trkpt><trkpt lat="37.7606748565007" lon="15.173306300587234"><ele>178.6</ele><time>2026-05-02T13:07:08.999Z</time></trkpt><trkpt lat="37.76074762724504" lon="15.173395868290168"><ele>177.2</ele><time>2026-05-02T13:07:09.999Z</time></trkpt><trkpt lat="37.760811010460095" lon="15.173494233781529"><ele>175.8</ele><time>2026-05-02T13:07:10.999Z</time></trkpt><trkpt lat="37.76088916228457" lon="15.173584551607687"><ele>174.4</ele><time>2026-05-02T13:07:11.999Z</time></trkpt><trkpt lat="37.760977109031316" lon="15.173706019929485"><ele>173.0</ele><time>2026-05-02T13:07:12.999Z</time></trkpt><trkpt lat="37.7610728134842" lon="15.173826830361614"><ele>172.5</ele><time>2026-05-02T13:07:13.999Z</time></trkpt><trkpt lat="37.76116169286461" lon="15.173944448122898"><ele>172.0</ele><time>2026-05-02T13:07:14.999Z</time></trkpt><trkpt lat="37.76125347979409" lon="15.174050352692106"><ele>171.5</ele><time>2026-05-02T13:07:15.999Z</time></trkpt><trkpt lat="37.76134415937418" lon="15.174156414755783"><ele>171.0</ele><time>2026-05-02T13:07:16.999Z</time></trkpt><trkpt lat="37.7614288389385" lon="15.174261622431423"><ele>170.0</ele><time>2026-05-02T13:07:17.999Z</time></trkpt><trkpt lat="37.76151186482481" lon="15.174373147447357"><ele>169.0</ele><time>2026-05-02T13:07:18.999Z</time></trkpt><trkpt lat="37.761596992812606" lon="15.174481566173442"><ele>168.0</ele><time>2026-05-02T13:07:19.999Z</time></trkpt><trkpt lat="37.76168393546761" lon="15.174588688266759"><ele>167.0</ele><time>2026-05-02T13:07:20.999Z</time></trkpt><trkpt lat="37.76177178998703" lon="15.174697511166514"><ele>167.0</ele><time>2026-05-02T13:07:21.999Z</time></trkpt><trkpt lat="37.761860576728964" lon="15.174804083158978"><ele>167.0</ele><time>2026-05-02T13:07:22.999Z</time></trkpt><trkpt lat="37.76194744306909" lon="15.174908285361592"><ele>167.0</ele><time>2026-05-02T13:07:23.999Z</time></trkpt><trkpt lat="37.76203142809806" lon="15.175003218242251"><ele>167.0</ele><time>2026-05-02T13:07:24.999Z</time></trkpt><trkpt lat="37.762124555420705" lon="15.175108191413615"><ele>166.75</ele><time>2026-05-02T13:07:25.999Z</time></trkpt><trkpt lat="37.7622145766722" lon="15.175212685161148"><ele>166.5</ele><time>2026-05-02T13:07:26.999Z</time></trkpt><trkpt lat="37.76231462433379" lon="15.175282192348048"><ele>166.25</ele><time>2026-05-02T13:07:27.999Z</time></trkpt><trkpt lat="37.76242701510707" lon="15.175324347050035"><ele>166.0</ele><time>2026-05-02T13:07:28.999Z</time></trkpt><trkpt lat="37.76255799925338" lon="15.175352597011834"><ele>166.0</ele><time>2026-05-02T13:07:29.999Z</time></trkpt><trkpt lat="37.76269495269817" lon="15.175358608279192"><ele>166.0</ele><time>2026-05-02T13:07:30.999Z</time></trkpt><trkpt lat="37.762838313444696" lon="15.175369793197262"><ele>166.0</ele><time>2026-05-02T13:07:31.998Z</time></trkpt><trkpt lat="37.76298046296389" lon="15.175393869819779"><ele>166.0</ele><time>2026-05-02T13:07:32.998Z</time></trkpt><trkpt lat="37.76312120422831" lon="15.175467250258258"><ele>167.33333333333334</ele><time>2026-05-02T13:07:33.998Z</time></trkpt><trkpt lat="37.76326756803955" lon="15.175537172615218"><ele>168.66666666666666</ele><time>2026-05-02T13:07:34.998Z</time></trkpt><trkpt lat="37.76342457730467" lon="15.175613696902682"><ele>170.0</ele><time>2026-05-02T13:07:35.998Z</time></trkpt><trkpt lat="37.76355711983029" lon="15.17571155361076"><ele>170.75</ele><time>2026-05-02T13:07:36.998Z</time></trkpt><trkpt lat="37.76367312116737" lon="15.175838199762984"><ele>171.5</ele><time>2026-05-02T13:07:37.998Z</time></trkpt><trkpt lat="37.76377545086472" lon="15.175963691614687"><ele>172.25</ele><time>2026-05-02T13:07:38.998Z</time></trkpt><trkpt lat="37.76388764118902" lon="15.17605836387821"><ele>173.0</ele><time>2026-05-02T13:07:39.998Z</time></trkpt><trkpt lat="37.76400226670066" lon="15.176140459579889"><ele>173.0</ele><time>2026-05-02T13:07:40.998Z</time></trkpt><trkpt lat="37.7641221285736" lon="15.176200608046551"><ele>173.0</ele><time>2026-05-02T13:07:41.998Z</time></trkpt><trkpt lat="37.764228184107246" lon="15.176282874036598"><ele>173.0</ele><time>2026-05-02T13:07:42.998Z</time></trkpt><trkpt lat="37.76432957867986" lon="15.17637009494371"><ele>173.0</ele><time>2026-05-02T13:07:43.998Z</time></trkpt><trkpt lat="37.76443314568561" lon="15.176461508225094"><ele>171.2</ele><time>2026-05-02T13:07:44.998Z</time></trkpt><trkpt lat="37.76453194031664" lon="15.176548709191959"><ele>169.4</ele><time>2026-05-02T13:07:45.998Z</time></trkpt><trkpt lat="37.76462394638907" lon="15.176618307185215"><ele>167.6</ele><time>2026-05-02T13:07:46.998Z</time></trkpt><trkpt lat="37.76470865925032" lon="15.176650971027575"><ele>165.79999999999998</ele><time>2026-05-02T13:07:47.998Z</time></trkpt><trkpt lat="37.764793005967476" lon="15.176663646032829"><ele>164.0</ele><time>2026-05-02T13:07:48.998Z</time></trkpt><trkpt lat="37.764886280219464" lon="15.176630964647073"><ele>164.0</ele><time>2026-05-02T13:07:49.998Z</time></trkpt><trkpt lat="37.764986121312226" lon="15.176565975028279"><ele>164.0</ele><time>2026-05-02T13:07:50.998Z</time></trkpt><trkpt lat="37.76509188202293" lon="15.176491965799665"><ele>164.0</ele><time>2026-05-02T13:07:51.998Z</time></trkpt><trkpt lat="37.76521359021425" lon="15.176442809371979"><ele>164.0</ele><time>2026-05-02T13:07:52.998Z</time></trkpt><trkpt lat="37.76532971423017" lon="15.176354335870965"><ele>166.25</ele><time>2026-05-02T13:07:53.998Z</time></trkpt><trkpt lat="37.765459906504105" lon="15.176303579172831"><ele>168.5</ele><time>2026-05-02T13:07:54.998Z</time></trkpt><trkpt lat="37.765583865952735" lon="15.17623524999737"><ele>170.75</ele><time>2026-05-02T13:07:55.998Z</time></trkpt><trkpt lat="37.765708633227334" lon="15.1761675119957"><ele>173.0</ele><time>2026-05-02T13:07:56.998Z</time></trkpt><trkpt lat="37.76583277081632" lon="15.17610159330595"><ele>173.0</ele><time>2026-05-02T13:07:57.998Z</time></trkpt><trkpt lat="37.76595687168818" lon="15.176037579663765"><ele>173.0</ele><time>2026-05-02T13:07:58.998Z</time></trkpt><trkpt lat="37.76607416194028" lon="15.175962367499618"><ele>173.0</ele><time>2026-05-02T13:07:59.998Z</time></trkpt><trkpt lat="37.76620421946904" lon="15.175936139288941"><ele>173.0</ele><time>2026-05-02T13:08:00.998Z</time></trkpt><trkpt lat="37.76633395442534" lon="15.17591005570393"><ele>172.0</ele><time>2026-05-02T13:08:01.998Z</time></trkpt><trkpt lat="37.76646369759926" lon="15.175868266742368"><ele>171.0</ele><time>2026-05-02T13:08:02.998Z</time></trkpt><trkpt lat="37.766595438087506" lon="15.175847287281961"><ele>170.0</ele><time>2026-05-02T13:08:03.998Z</time></trkpt><trkpt lat="37.76672599595103" lon="15.175810347123035"><ele>169.0</ele><time>2026-05-02T13:08:04.998Z</time></trkpt><trkpt lat="37.766844970131075" lon="15.175754258297733"><ele>172.25</ele><time>2026-05-02T13:08:05.998Z</time></trkpt><trkpt lat="37.766952542420256" lon="15.175677234407408"><ele>175.5</ele><time>2026-05-02T13:08:06.998Z</time></trkpt><trkpt lat="37.76704854875945" lon="15.175587991445079"><ele>178.75</ele><time>2026-05-02T13:08:07.998Z</time></trkpt><trkpt lat="37.767140959323996" lon="15.175498935261052"><ele>182.0</ele><time>2026-05-02T13:08:08.998Z</time></trkpt><trkpt lat="37.767235339447645" lon="15.175415875644747"><ele>182.0</ele><time>2026-05-02T13:08:09.998Z</time></trkpt><trkpt lat="37.7673444379529" lon="15.175383318852884"><ele>182.0</ele><time>2026-05-02T13:08:10.998Z</time></trkpt><trkpt lat="37.76745643671828" lon="15.175341931952765"><ele>182.0</ele><time>2026-05-02T13:08:11.998Z</time></trkpt><trkpt lat="37.767576907716524" lon="15.175319167577682"><ele>182.0</ele><time>2026-05-02T13:08:12.998Z</time></trkpt><trkpt lat="37.767701776032524" lon="15.175293219653115"><ele>182.75</ele><time>2026-05-02T13:08:13.998Z</time></trkpt><trkpt lat="37.7678264854003" lon="15.175262868991796"><ele>183.5</ele><time>2026-05-02T13:08:14.998Z</time></trkpt><trkpt lat="37.76795299184648" lon="15.175233745510834"><ele>184.25</ele><time>2026-05-02T13:08:15.998Z</time></trkpt><trkpt lat="37.768074885622255" lon="15.175203771772965"><ele>185.0</ele><time>2026-05-02T13:08:16.998Z</time></trkpt><trkpt lat="37.76819591626652" lon="15.175173610684299"><ele>185.0</ele><time>2026-05-02T13:08:17.998Z</time></trkpt><trkpt lat="37.7683241863772" lon="15.175154721185713"><ele>185.0</ele><time>2026-05-02T13:08:18.999Z</time></trkpt><trkpt lat="37.76845454418712" lon="15.175161531821871"><ele>185.0</ele><time>2026-05-02T13:08:19.999Z</time></trkpt><trkpt lat="37.768575086204045" lon="15.175137443434654"><ele>185.0</ele><time>2026-05-02T13:08:20.999Z</time></trkpt><trkpt lat="37.76870013426144" lon="15.175136022042091"><ele>186.5</ele><time>2026-05-02T13:08:21.999Z</time></trkpt><trkpt lat="37.76882529377239" lon="15.175123168362793"><ele>188.0</ele><time>2026-05-02T13:08:22.999Z</time></trkpt><trkpt lat="37.7689480463331" lon="15.175116528716808"><ele>189.5</ele><time>2026-05-02T13:08:23.999Z</time></trkpt><trkpt lat="37.7690756418799" lon="15.175117498476652"><ele>191.0</ele><time>2026-05-02T13:08:24.999Z</time></trkpt><trkpt lat="37.76920308131484" lon="15.175110076476917"><ele>191.0</ele><time>2026-05-02T13:08:25.999Z</time></trkpt><trkpt lat="37.76933418397617" lon="15.175101346030052"><ele>191.0</ele><time>2026-05-02T13:08:26.999Z</time></trkpt><trkpt lat="37.76946634816461" lon="15.175098581508408"><ele>191.0</ele><time>2026-05-02T13:08:27.999Z</time></trkpt><trkpt lat="37.76959826854004" lon="15.175100094700051"><ele>191.0</ele><time>2026-05-02T13:08:28.999Z</time></trkpt><trkpt lat="37.76972768809157" lon="15.175091111256663"><ele>190.8</ele><time>2026-05-02T13:08:29.999Z</time></trkpt><trkpt lat="37.76983538117196" lon="15.175102484897334"><ele>190.60000000000002</ele><time>2026-05-02T13:08:30.999Z</time></trkpt><trkpt lat="37.76994393346606" lon="15.17509900831515"><ele>190.4</ele><time>2026-05-02T13:08:31.999Z</time></trkpt><trkpt lat="37.77005492375496" lon="15.175074681554088"><ele>190.2</ele><time>2026-05-02T13:08:32.999Z</time></trkpt><trkpt lat="37.77017113458139" lon="15.175091731802182"><ele>190.0</ele><time>2026-05-02T13:08:33.999Z</time></trkpt><trkpt lat="37.77028511033476" lon="15.175088857337355"><ele>190.0</ele><time>2026-05-02T13:08:34.999Z</time></trkpt><trkpt lat="37.770400021170204" lon="15.175087066050402"><ele>190.0</ele><time>2026-05-02T13:08:35.999Z</time></trkpt><trkpt lat="37.77050423182359" lon="15.175069432464534"><ele>190.0</ele><time>2026-05-02T13:08:36.999Z</time></trkpt><trkpt lat="37.77059419368629" lon="15.175067786222012"><ele>190.0</ele><time>2026-05-02T13:08:37.999Z</time></trkpt><trkpt lat="37.77067674715348" lon="15.175061392358757"><ele>190.0</ele><time>2026-05-02T13:08:38.999Z</time></trkpt><trkpt lat="37.77076006585973" lon="15.175038462243549"><ele>190.0</ele><time>2026-05-02T13:08:39.999Z</time></trkpt><trkpt lat="37.770839510761846" lon="15.174984759509595"><ele>190.0</ele><time>2026-05-02T13:08:40.999Z</time></trkpt><trkpt lat="37.77088534089238" lon="15.174851924172142"><ele>190.0</ele><time>2026-05-02T13:08:41.999Z</time></trkpt><trkpt lat="37.770928119510835" lon="15.174722367972329"><ele>190.0</ele><time>2026-05-02T13:08:42.999Z</time></trkpt><trkpt lat="37.77097734157892" lon="15.174594400554074"><ele>190.0</ele><time>2026-05-02T13:08:43.999Z</time></trkpt><trkpt lat="37.771047843357415" lon="15.174475709372107"><ele>190.8</ele><time>2026-05-02T13:08:44.999Z</time></trkpt><trkpt lat="37.7710985224641" lon="15.174348908390824"><ele>191.6</ele><time>2026-05-02T13:08:45.999Z</time></trkpt><trkpt lat="37.771185312870436" lon="15.174267952168892"><ele>192.39999999999998</ele><time>2026-05-02T13:08:46.999Z</time></trkpt><trkpt lat="37.77128718934879" lon="15.17422140039235"><ele>193.2</ele><time>2026-05-02T13:08:47.999Z</time></trkpt><trkpt lat="37.77139739930135" lon="15.17422205469522"><ele>194.0</ele><time>2026-05-02T13:08:48.999Z</time></trkpt><trkpt lat="37.77150739233296" lon="15.174223910743159"><ele>194.0</ele><time>2026-05-02T13:08:49.999Z</time></trkpt><trkpt lat="37.77162538858937" lon="15.174191371407389"><ele>194.0</ele><time>2026-05-02T13:08:50.999Z</time></trkpt><trkpt lat="37.771751296882776" lon="15.174178633387431"><ele>194.0</ele><time>2026-05-02T13:08:51.999Z</time></trkpt><trkpt lat="37.771878047863055" lon="15.174162817089963"><ele>194.0</ele><time>2026-05-02T13:08:52.999Z</time></trkpt><trkpt lat="37.77200804205324" lon="15.174148348390352"><ele>194.75</ele><time>2026-05-02T13:08:53.999Z</time></trkpt><trkpt lat="37.772141701952286" lon="15.174149977734812"><ele>195.5</ele><time>2026-05-02T13:08:54.999Z</time></trkpt><trkpt lat="37.77227640419893" lon="15.174189628505006"><ele>196.25</ele><time>2026-05-02T13:08:55.999Z</time></trkpt><trkpt lat="37.77240869051334" lon="15.174233333651054"><ele>197.0</ele><time>2026-05-02T13:08:56.999Z</time></trkpt><trkpt lat="37.7725346641379" lon="15.174279066105742"><ele>197.0</ele><time>2026-05-02T13:08:57.999Z</time></trkpt><trkpt lat="37.77264084523506" lon="15.174342367960575"><ele>197.0</ele><time>2026-05-02T13:08:58.999Z</time></trkpt><trkpt lat="37.77272827357994" lon="15.174388384084097"><ele>197.0</ele><time>2026-05-02T13:08:59.999Z</time></trkpt><trkpt lat="37.77281653781256" lon="15.174399813002134"><ele>197.0</ele><time>2026-05-02T13:09:00.999Z</time></trkpt><trkpt lat="37.77291314509005" lon="15.17436779030419"><ele>197.0</ele><time>2026-05-02T13:09:01.999Z</time></trkpt><trkpt lat="37.77300992696938" lon="15.174299679285928"><ele>197.39999999999998</ele><time>2026-05-02T13:09:02.999Z</time></trkpt><trkpt lat="37.77310724011835" lon="15.174229277516"><ele>197.79999999999998</ele><time>2026-05-02T13:09:03.999Z</time></trkpt><trkpt lat="37.773205008878705" lon="15.174166352466129"><ele>198.2</ele><time>2026-05-02T13:09:04.999Z</time></trkpt><trkpt lat="37.773288123784475" lon="15.174098129330364"><ele>198.6</ele><time>2026-05-02T13:09:05.999Z</time></trkpt><trkpt lat="37.77336050141186" lon="15.174028936708485"><ele>199.0</ele><time>2026-05-02T13:09:06.999Z</time></trkpt><trkpt lat="37.773440540724465" lon="15.173959183705168"><ele>199.79999999999998</ele><time>2026-05-02T13:09:07.999Z</time></trkpt><trkpt lat="37.773516175108576" lon="15.173880644956686"><ele>200.6</ele><time>2026-05-02T13:09:08.999Z</time></trkpt><trkpt lat="37.773594748603756" lon="15.173801571218263"><ele>201.4</ele><time>2026-05-02T13:09:09.999Z</time></trkpt><trkpt lat="37.77366415202264" lon="15.173710390024675"><ele>202.2</ele><time>2026-05-02T13:09:10.999Z</time></trkpt><trkpt lat="37.773725713528584" lon="15.17360166015706"><ele>203.0</ele><time>2026-05-02T13:09:11.999Z</time></trkpt><trkpt lat="37.77377841055167" lon="15.173486147647662"><ele>203.0</ele><time>2026-05-02T13:09:12.999Z</time></trkpt><trkpt lat="37.7738195685572" lon="15.17336682768374"><ele>203.0</ele><time>2026-05-02T13:09:13.999Z</time></trkpt><trkpt lat="37.77386369485445" lon="15.173250596956033"><ele>203.0</ele><time>2026-05-02T13:09:14.999Z</time></trkpt><trkpt lat="37.77390915355905" lon="15.17313246153833"><ele>203.0</ele><time>2026-05-02T13:09:15.999Z</time></trkpt><trkpt lat="37.77395302136004" lon="15.173016000345706"><ele>203.0</ele><time>2026-05-02T13:09:16.999Z</time></trkpt><trkpt lat="37.77401581539016" lon="15.172915313176622"><ele>204.2</ele><time>2026-05-02T13:09:17.999Z</time></trkpt><trkpt lat="37.774105238604065" lon="15.1728467208784"><ele>205.4</ele><time>2026-05-02T13:09:18.999Z</time></trkpt><trkpt lat="37.77420821461441" lon="15.172807503158497"><ele>206.6</ele><time>2026-05-02T13:09:19.999Z</time></trkpt><trkpt lat="37.774317326873856" lon="15.172804204710172"><ele>207.79999999999998</ele><time>2026-05-02T13:09:20.999Z</time></trkpt><trkpt lat="37.77443348776699" lon="15.172832954500109"><ele>209.0</ele><time>2026-05-02T13:09:21.999Z</time></trkpt><trkpt lat="37.7745570450877" lon="15.17287399620433"><ele>209.5</ele><time>2026-05-02T13:09:22.999Z</time></trkpt><trkpt lat="37.77468771939504" lon="15.172919221124513"><ele>210.0</ele><time>2026-05-02T13:09:23.999Z</time></trkpt><trkpt lat="37.774825246518255" lon="15.17296887009965"><ele>210.5</ele><time>2026-05-02T13:09:24.998Z</time></trkpt><trkpt lat="37.7749644015109" lon="15.173012779776558"><ele>211.0</ele><time>2026-05-02T13:09:25.998Z</time></trkpt><trkpt lat="37.775099210686925" lon="15.173053561991923"><ele>212.5</ele><time>2026-05-02T13:09:26.998Z</time></trkpt><trkpt lat="37.775230018745624" lon="15.173093855781525"><ele>214.0</ele><time>2026-05-02T13:09:27.998Z</time></trkpt><trkpt lat="37.77536240080814" lon="15.173136785433732"><ele>215.5</ele><time>2026-05-02T13:09:28.998Z</time></trkpt><trkpt lat="37.775492466179124" lon="15.173179092863572"><ele>217.0</ele><time>2026-05-02T13:09:29.998Z</time></trkpt><trkpt lat="37.775619774657706" lon="15.17322311476405"><ele>214.75</ele><time>2026-05-02T13:09:30.998Z</time></trkpt><trkpt lat="37.77574222585539" lon="15.173267240379577"><ele>212.5</ele><time>2026-05-02T13:09:31.998Z</time></trkpt><trkpt lat="37.77586476555074" lon="15.173301455090566"><ele>210.25</ele><time>2026-05-02T13:09:32.998Z</time></trkpt><trkpt lat="37.77598019671909" lon="15.173335415966097"><ele>208.0</ele><time>2026-05-02T13:09:33.998Z</time></trkpt><trkpt lat="37.77608623883377" lon="15.173385189623177"><ele>208.0</ele><time>2026-05-02T13:09:34.998Z</time></trkpt><trkpt lat="37.77619176215285" lon="15.173396735828605"><ele>208.0</ele><time>2026-05-02T13:09:35.998Z</time></trkpt><trkpt lat="37.7762825066773" lon="15.173431724693904"><ele>208.0</ele><time>2026-05-02T13:09:36.998Z</time></trkpt><trkpt lat="37.776371618814736" lon="15.173419045305382"><ele>208.0</ele><time>2026-05-02T13:09:37.998Z</time></trkpt><trkpt lat="37.77646379059057" lon="15.173359901435532"><ele>208.0</ele><time>2026-05-02T13:09:38.998Z</time></trkpt><trkpt lat="37.776532648220645" lon="15.173277865297472"><ele>208.0</ele><time>2026-05-02T13:09:39.998Z</time></trkpt><trkpt lat="37.776613450480106" lon="15.173220963540002"><ele>208.0</ele><time>2026-05-02T13:09:40.998Z</time></trkpt><trkpt lat="37.77669384505938" lon="15.173149801878857"><ele>208.0</ele><time>2026-05-02T13:09:41.998Z</time></trkpt><trkpt lat="37.77677867698656" lon="15.173074488564186"><ele>208.0</ele><time>2026-05-02T13:09:42.998Z</time></trkpt><trkpt lat="37.7768665594914" lon="15.173001603801326"><ele>208.0</ele><time>2026-05-02T13:09:43.998Z</time></trkpt><trkpt lat="37.77695992351608" lon="15.172922940222369"><ele>210.25</ele><time>2026-05-02T13:09:44.998Z</time></trkpt><trkpt lat="37.77705447229662" lon="15.172847124745326"><ele>212.5</ele><time>2026-05-02T13:09:45.998Z</time></trkpt><trkpt lat="37.77714915168363" lon="15.172773811872183"><ele>214.75</ele><time>2026-05-02T13:09:46.998Z</time></trkpt><trkpt lat="37.77723908312276" lon="15.172682711198272"><ele>217.0</ele><time>2026-05-02T13:09:47.998Z</time></trkpt><trkpt lat="37.77734357458341" lon="15.172630656494965"><ele>217.0</ele><time>2026-05-02T13:09:48.998Z</time></trkpt><trkpt lat="37.77745628959987" lon="15.172605808510953"><ele>217.0</ele><time>2026-05-02T13:09:49.998Z</time></trkpt><trkpt lat="37.7775751892835" lon="15.172591356058543"><ele>217.0</ele><time>2026-05-02T13:09:50.998Z</time></trkpt><trkpt lat="37.77769259153667" lon="15.172579854034009"><ele>217.0</ele><time>2026-05-02T13:09:51.998Z</time></trkpt><trkpt lat="37.7778127468989" lon="15.172563205130006"><ele>217.25</ele><time>2026-05-02T13:09:52.998Z</time></trkpt><trkpt lat="37.777937740386314" lon="15.172544682011038"><ele>217.5</ele><time>2026-05-02T13:09:53.998Z</time></trkpt><trkpt lat="37.778063731628244" lon="15.172524940569813"><ele>217.75</ele><time>2026-05-02T13:09:54.998Z</time></trkpt><trkpt lat="37.77818824701726" lon="15.172501621767708"><ele>218.0</ele><time>2026-05-02T13:09:55.998Z</time></trkpt><trkpt lat="37.77831449061847" lon="15.172489033239057"><ele>218.0</ele><time>2026-05-02T13:09:56.998Z</time></trkpt><trkpt lat="37.7784366008164" lon="15.172476105921442"><ele>218.0</ele><time>2026-05-02T13:09:57.998Z</time></trkpt><trkpt lat="37.77855997701751" lon="15.172461622017929"><ele>218.0</ele><time>2026-05-02T13:09:58.998Z</time></trkpt><trkpt lat="37.77868462391721" lon="15.172446340410044"><ele>218.0</ele><time>2026-05-02T13:09:59.998Z</time></trkpt><trkpt lat="37.77880769003781" lon="15.172436917497834"><ele>217.25</ele><time>2026-05-02T13:10:00.998Z</time></trkpt><trkpt lat="37.7789330598719" lon="15.172416031126653"><ele>216.5</ele><time>2026-05-02T13:10:01.998Z</time></trkpt><trkpt lat="37.77904831735872" lon="15.172416116064419"><ele>215.75</ele><time>2026-05-02T13:10:02.998Z</time></trkpt><trkpt lat="37.77915679510123" lon="15.172414189337546"><ele>215.0</ele><time>2026-05-02T13:10:03.998Z</time></trkpt><trkpt lat="37.77927002385005" lon="15.172401631102295"><ele>214.75</ele><time>2026-05-02T13:10:04.998Z</time></trkpt><trkpt lat="37.77938233662983" lon="15.172393128012509"><ele>214.5</ele><time>2026-05-02T13:10:05.998Z</time></trkpt><trkpt lat="37.779497970378124" lon="15.172378101637623"><ele>214.25</ele><time>2026-05-02T13:10:06.998Z</time></trkpt><trkpt lat="37.779616544058186" lon="15.172365565602265"><ele>214.0</ele><time>2026-05-02T13:10:07.998Z</time></trkpt><trkpt lat="37.77973582551291" lon="15.172348472796985"><ele>217.75</ele><time>2026-05-02T13:10:08.998Z</time></trkpt><trkpt lat="37.77985639177696" lon="15.172334937372977"><ele>221.5</ele><time>2026-05-02T13:10:09.998Z</time></trkpt><trkpt lat="37.779973910718496" lon="15.172323378174154"><ele>225.25</ele><time>2026-05-02T13:10:10.998Z</time></trkpt><trkpt lat="37.78009184277362" lon="15.172308120502136"><ele>229.0</ele><time>2026-05-02T13:10:11.998Z</time></trkpt><trkpt lat="37.780208049533414" lon="15.172287017380928"><ele>229.0</ele><time>2026-05-02T13:10:12.998Z</time></trkpt><trkpt lat="37.78032016936817" lon="15.172271356036795"><ele>228.99999999999997</ele><time>2026-05-02T13:10:13.998Z</time></trkpt><trkpt lat="37.780425781819986" lon="15.172258036676384"><ele>228.99999999999997</ele><time>2026-05-02T13:10:14.998Z</time></trkpt><trkpt lat="37.780505121406314" lon="15.172231469633093"><ele>229.0</ele><time>2026-05-02T13:10:15.998Z</time></trkpt><trkpt lat="37.78057321369793" lon="15.172176012036731"><ele>229.0</ele><time>2026-05-02T13:10:16.998Z</time></trkpt><trkpt lat="37.78061986766024" lon="15.172083541923385"><ele>229.0</ele><time>2026-05-02T13:10:17.998Z</time></trkpt><trkpt lat="37.78063988240932" lon="15.171968650130964"><ele>228.99999999999997</ele><time>2026-05-02T13:10:18.997Z</time></trkpt><trkpt lat="37.780690310531746" lon="15.171869765378503"><ele>228.99999999999997</ele><time>2026-05-02T13:10:19.997Z</time></trkpt><trkpt lat="37.78076158682709" lon="15.171785675042981"><ele>229.0</ele><time>2026-05-02T13:10:20.997Z</time></trkpt><trkpt lat="37.780845537423595" lon="15.17171263055816"><ele>229.0</ele><time>2026-05-02T13:10:21.997Z</time></trkpt><trkpt lat="37.78093404281873" lon="15.171646404836554"><ele>229.75</ele><time>2026-05-02T13:10:22.997Z</time></trkpt><trkpt lat="37.78102441598329" lon="15.17158159223692"><ele>230.5</ele><time>2026-05-02T13:10:23.997Z</time></trkpt><trkpt lat="37.78111839547514" lon="15.171526637753786"><ele>231.25</ele><time>2026-05-02T13:10:24.999Z</time></trkpt><trkpt lat="37.78122015879036" lon="15.171487716569063"><ele>232.0</ele><time>2026-05-02T13:10:25.999Z</time></trkpt><trkpt lat="37.78143443552806" lon="15.171474452963176"><ele>232.0</ele><time>2026-05-02T13:10:27.999Z</time></trkpt><trkpt lat="37.781536566683" lon="15.171497138686494"><ele>232.0</ele><time>2026-05-02T13:10:28.999Z</time></trkpt><trkpt lat="37.78163337317564" lon="15.171531218695009"><ele>232.0</ele><time>2026-05-02T13:10:29.999Z</time></trkpt><trkpt lat="37.7817301915554" lon="15.171544161690846"><ele>232.0</ele><time>2026-05-02T13:10:30.999Z</time></trkpt><trkpt lat="37.78182858902019" lon="15.17153451894506"><ele>232.0</ele><time>2026-05-02T13:10:31.999Z</time></trkpt><trkpt lat="37.78192454692577" lon="15.1715049650046"><ele>234.0</ele><time>2026-05-02T13:10:32.999Z</time></trkpt><trkpt lat="37.78202110616775" lon="15.171449570017472"><ele>236.0</ele><time>2026-05-02T13:10:33.999Z</time></trkpt><trkpt lat="37.782122741976686" lon="15.171391862141341"><ele>238.0</ele><time>2026-05-02T13:10:34.999Z</time></trkpt><trkpt lat="37.78222248649028" lon="15.171334832941133"><ele>240.0</ele><time>2026-05-02T13:10:35.999Z</time></trkpt><trkpt lat="37.78232651672097" lon="15.17130571826056"><ele>242.0</ele><time>2026-05-02T13:10:36.999Z</time></trkpt><trkpt lat="37.78243165644214" lon="15.17131077380032"><ele>242.0</ele><time>2026-05-02T13:10:37.999Z</time></trkpt><trkpt lat="37.782536778241" lon="15.171353535039563"><ele>242.0</ele><time>2026-05-02T13:10:38.999Z</time></trkpt><trkpt lat="37.782636029493155" lon="15.171423849577796"><ele>242.0</ele><time>2026-05-02T13:10:39.999Z</time></trkpt><trkpt lat="37.78274070984957" lon="15.171493570027843"><ele>242.0</ele><time>2026-05-02T13:10:40.999Z</time></trkpt><trkpt lat="37.78285641134389" lon="15.171556608515212"><ele>239.5</ele><time>2026-05-02T13:10:41.999Z</time></trkpt><trkpt lat="37.782973012974836" lon="15.17162788022054"><ele>237.0</ele><time>2026-05-02T13:10:42.999Z</time></trkpt><trkpt lat="37.78308947715517" lon="15.171714244798293"><ele>234.5</ele><time>2026-05-02T13:10:43.999Z</time></trkpt><trkpt lat="37.783205137414136" lon="15.171806629325138"><ele>232.0</ele><time>2026-05-02T13:10:44.999Z</time></trkpt><trkpt lat="37.78331630251038" lon="15.171913113225939"><ele>232.0</ele><time>2026-05-02T13:10:45.999Z</time></trkpt><trkpt lat="37.78341569881006" lon="15.172032029428186"><ele>232.0</ele><time>2026-05-02T13:10:46.999Z</time></trkpt><trkpt lat="37.78351202642003" lon="15.172146181960564"><ele>232.0</ele><time>2026-05-02T13:10:47.999Z</time></trkpt><trkpt lat="37.78360875097957" lon="15.172257375709936"><ele>232.0</ele><time>2026-05-02T13:10:48.999Z</time></trkpt><trkpt lat="37.78370334361245" lon="15.172368266963712"><ele>232.25</ele><time>2026-05-02T13:10:49.999Z</time></trkpt><trkpt lat="37.78379741708568" lon="15.172475116849693"><ele>232.5</ele><time>2026-05-02T13:10:50.999Z</time></trkpt><trkpt lat="37.7838866262991" lon="15.17258415043471"><ele>232.75</ele><time>2026-05-02T13:10:51.999Z</time></trkpt><trkpt lat="37.783973537106434" lon="15.17268487250538"><ele>233.0</ele><time>2026-05-02T13:10:52.999Z</time></trkpt><trkpt lat="37.784049586986725" lon="15.172775777568091"><ele>233.00000000000003</ele><time>2026-05-02T13:10:53.999Z</time></trkpt><trkpt lat="37.78412069476884" lon="15.172857841236308"><ele>233.0</ele><time>2026-05-02T13:10:54.999Z</time></trkpt><trkpt lat="37.784179863049815" lon="15.172936256094587"><ele>233.0</ele><time>2026-05-02T13:10:55.999Z</time></trkpt><trkpt lat="37.78425590396076" lon="15.17297880865989"><ele>233.0</ele><time>2026-05-02T13:10:56.999Z</time></trkpt><trkpt lat="37.78433190610692" lon="15.172981523956214"><ele>233.00000000000003</ele><time>2026-05-02T13:10:57.999Z</time></trkpt><trkpt lat="37.78441948371616" lon="15.172961045510657"><ele>233.0</ele><time>2026-05-02T13:10:58.999Z</time></trkpt><trkpt lat="37.78451410572409" lon="15.172966319812192"><ele>235.2</ele><time>2026-05-02T13:10:59.999Z</time></trkpt><trkpt lat="37.784609830919706" lon="15.17300146275324"><ele>237.4</ele><time>2026-05-02T13:11:00.999Z</time></trkpt><trkpt lat="37.78468550622959" lon="15.173089705890273"><ele>239.59999999999997</ele><time>2026-05-02T13:11:01.999Z</time></trkpt><trkpt lat="37.784772527745545" lon="15.173132874863635"><ele>241.79999999999998</ele><time>2026-05-02T13:11:02.999Z</time></trkpt><trkpt lat="37.78486108509368" lon="15.173150035832967"><ele>244.0</ele><time>2026-05-02T13:11:03.999Z</time></trkpt><trkpt lat="37.7849558532874" lon="15.173121521382592"><ele>244.0</ele><time>2026-05-02T13:11:04.999Z</time></trkpt><trkpt lat="37.785045987189406" lon="15.173070608912944"><ele>243.99999999999997</ele><time>2026-05-02T13:11:05.999Z</time></trkpt><trkpt lat="37.7851398272822" lon="15.173009897537481"><ele>243.99999999999997</ele><time>2026-05-02T13:11:06.999Z</time></trkpt><trkpt lat="37.785237834932865" lon="15.172947710346463"><ele>244.0</ele><time>2026-05-02T13:11:07.999Z</time></trkpt><trkpt lat="37.78533664669228" lon="15.172899860079355"><ele>244.0</ele><time>2026-05-02T13:11:08.999Z</time></trkpt><trkpt lat="37.78544436330574" lon="15.172887425424829"><ele>245.5</ele><time>2026-05-02T13:11:09.999Z</time></trkpt><trkpt lat="37.785554047909066" lon="15.172906409093203"><ele>247.0</ele><time>2026-05-02T13:11:10.999Z</time></trkpt><trkpt lat="37.785655797169674" lon="15.17297540059611"><ele>248.5</ele><time>2026-05-02T13:11:11.999Z</time></trkpt><trkpt lat="37.78577296593943" lon="15.173017269668156"><ele>250.0</ele><time>2026-05-02T13:11:12.999Z</time></trkpt><trkpt lat="37.785893097809385" lon="15.173065914407536"><ele>249.75</ele><time>2026-05-02T13:11:13.999Z</time></trkpt><trkpt lat="37.786018794524665" lon="15.173106926425907"><ele>249.5</ele><time>2026-05-02T13:11:14.999Z</time></trkpt><trkpt lat="37.786156974610265" lon="15.173134881233144"><ele>249.25</ele><time>2026-05-02T13:11:15.999Z</time></trkpt><trkpt lat="37.78629787349871" lon="15.173151282913805"><ele>249.0</ele><time>2026-05-02T13:11:16.999Z</time></trkpt><trkpt lat="37.78643344831891" lon="15.17316051957276"><ele>249.0</ele><time>2026-05-02T13:11:17.999Z</time></trkpt><trkpt lat="37.786566017669536" lon="15.173176892706882"><ele>249.0</ele><time>2026-05-02T13:11:18.999Z</time></trkpt><trkpt lat="37.78670248658681" lon="15.173192275996355"><ele>249.0</ele><time>2026-05-02T13:11:19.999Z</time></trkpt><trkpt lat="37.78683655520268" lon="15.173214831382598"><ele>249.0</ele><time>2026-05-02T13:11:20.999Z</time></trkpt><trkpt lat="37.7869690248273" lon="15.173248736184263"><ele>246.0</ele><time>2026-05-02T13:11:21.999Z</time></trkpt><trkpt lat="37.78709996910439" lon="15.173284320815158"><ele>243.0</ele><time>2026-05-02T13:11:22.999Z</time></trkpt><trkpt lat="37.78723173483869" lon="15.173320088254734"><ele>240.0</ele><time>2026-05-02T13:11:23.999Z</time></trkpt><trkpt lat="37.787358010507425" lon="15.173357759739055"><ele>237.0</ele><time>2026-05-02T13:11:24.999Z</time></trkpt><trkpt lat="37.78748883677733" lon="15.173401819381352"><ele>237.0</ele><time>2026-05-02T13:11:25.999Z</time></trkpt><trkpt lat="37.78760824846336" lon="15.173443649541536"><ele>237.0</ele><time>2026-05-02T13:11:26.999Z</time></trkpt><trkpt lat="37.78771438939088" lon="15.173483052296822"><ele>237.0</ele><time>2026-05-02T13:11:27.999Z</time></trkpt><trkpt lat="37.78781067945391" lon="15.173518289045807"><ele>237.0</ele><time>2026-05-02T13:11:28.999Z</time></trkpt><trkpt lat="37.78790846663464" lon="15.173543756862362"><ele>237.0</ele><time>2026-05-02T13:11:29.999Z</time></trkpt><trkpt lat="37.788010973351014" lon="15.173574428100927"><ele>238.5</ele><time>2026-05-02T13:11:30.999Z</time></trkpt><trkpt lat="37.78811494624033" lon="15.173612348192496"><ele>240.0</ele><time>2026-05-02T13:11:31.999Z</time></trkpt><trkpt lat="37.78821992296882" lon="15.17366455923805"><ele>241.5</ele><time>2026-05-02T13:11:32.999Z</time></trkpt><trkpt lat="37.78832367162095" lon="15.173735173265257"><ele>243.0</ele><time>2026-05-02T13:11:33.999Z</time></trkpt><trkpt lat="37.78842470671374" lon="15.17382034893332"><ele>242.75</ele><time>2026-05-02T13:11:34.999Z</time></trkpt><trkpt lat="37.788521733479556" lon="15.173914350224594"><ele>242.5</ele><time>2026-05-02T13:11:35.999Z</time></trkpt><trkpt lat="37.78861753936833" lon="15.174017966922971"><ele>242.25</ele><time>2026-05-02T13:11:36.999Z</time></trkpt><trkpt lat="37.78870214898786" lon="15.174144411792467"><ele>242.0</ele><time>2026-05-02T13:11:37.999Z</time></trkpt><trkpt lat="37.788771625200106" lon="15.174283734592613"><ele>242.0</ele><time>2026-05-02T13:11:38.999Z</time></trkpt><trkpt lat="37.78882628614787" lon="15.174427663247931"><ele>242.0</ele><time>2026-05-02T13:11:39.999Z</time></trkpt><trkpt lat="37.78888938548906" lon="15.17455933496844"><ele>242.0</ele><time>2026-05-02T13:11:40.998Z</time></trkpt><trkpt lat="37.78896543870311" lon="15.174680852712005"><ele>242.0</ele><time>2026-05-02T13:11:41.998Z</time></trkpt><trkpt lat="37.789046941819166" lon="15.174790659131126"><ele>241.5</ele><time>2026-05-02T13:11:42.998Z</time></trkpt><trkpt lat="37.789128751478195" lon="15.174882931586794"><ele>241.0</ele><time>2026-05-02T13:11:43.998Z</time></trkpt><trkpt lat="37.78922604952066" lon="15.174946299871099"><ele>240.5</ele><time>2026-05-02T13:11:44.998Z</time></trkpt><trkpt lat="37.789335712059845" lon="15.174983867490988"><ele>240.0</ele><time>2026-05-02T13:11:45.998Z</time></trkpt><trkpt lat="37.789452125349854" lon="15.175007687254197"><ele>240.0</ele><time>2026-05-02T13:11:46.998Z</time></trkpt><trkpt lat="37.789569229835735" lon="15.175038185344759"><ele>240.0</ele><time>2026-05-02T13:11:47.998Z</time></trkpt><trkpt lat="37.789688384638715" lon="15.175086423054328"><ele>240.0</ele><time>2026-05-02T13:11:48.998Z</time></trkpt><trkpt lat="37.789804767405535" lon="15.175145421623723"><ele>240.0</ele><time>2026-05-02T13:11:49.998Z</time></trkpt><trkpt lat="37.789915328798365" lon="15.175201217698351"><ele>240.0</ele><time>2026-05-02T13:11:50.998Z</time></trkpt><trkpt lat="37.79002243135065" lon="15.17525453822074"><ele>240.0</ele><time>2026-05-02T13:11:51.998Z</time></trkpt><trkpt lat="37.79012450698295" lon="15.175322098977105"><ele>240.0</ele><time>2026-05-02T13:11:52.998Z</time></trkpt><trkpt lat="37.79022306775356" lon="15.175406995136242"><ele>240.0</ele><time>2026-05-02T13:11:53.998Z</time></trkpt><trkpt lat="37.790315652373614" lon="15.175505095033857"><ele>239.5</ele><time>2026-05-02T13:11:54.998Z</time></trkpt><trkpt lat="37.790396429927135" lon="15.175616171511347"><ele>239.0</ele><time>2026-05-02T13:11:55.998Z</time></trkpt><trkpt lat="37.79046704904778" lon="15.17574044765652"><ele>238.5</ele><time>2026-05-02T13:11:56.998Z</time></trkpt><trkpt lat="37.79053412611085" lon="15.175864524574749"><ele>238.0</ele><time>2026-05-02T13:11:57.998Z</time></trkpt><trkpt lat="37.79059830112134" lon="15.175979034853496"><ele>238.0</ele><time>2026-05-02T13:11:58.998Z</time></trkpt><trkpt lat="37.790655613850625" lon="15.176091238638683"><ele>238.0</ele><time>2026-05-02T13:11:59.998Z</time></trkpt><trkpt lat="37.79069962402696" lon="15.176208718392859"><ele>238.0</ele><time>2026-05-02T13:12:00.998Z</time></trkpt><trkpt lat="37.79072993106122" lon="15.176326040709448"><ele>238.0</ele><time>2026-05-02T13:12:01.998Z</time></trkpt><trkpt lat="37.79075031994022" lon="15.17643340773363"><ele>238.0</ele><time>2026-05-02T13:12:02.998Z</time></trkpt><trkpt lat="37.790748096260785" lon="15.176535223142288"><ele>236.16666666666666</ele><time>2026-05-02T13:12:03.998Z</time></trkpt><trkpt lat="37.79072415597167" lon="15.176626279804603"><ele>234.33333333333331</ele><time>2026-05-02T13:12:04.998Z</time></trkpt><trkpt lat="37.79065174029954" lon="15.176675059720392"><ele>232.5</ele><time>2026-05-02T13:12:05.998Z</time></trkpt><trkpt lat="37.79059204346955" lon="15.176750388656593"><ele>230.66666666666669</ele><time>2026-05-02T13:12:06.998Z</time></trkpt><trkpt lat="37.79054406122792" lon="15.176829708874884"><ele>228.83333333333334</ele><time>2026-05-02T13:12:07.998Z</time></trkpt><trkpt lat="37.79054521902608" lon="15.176921766106473"><ele>227.0</ele><time>2026-05-02T13:12:08.998Z</time></trkpt><trkpt lat="37.79055977054747" lon="15.17702825518978"><ele>227.0</ele><time>2026-05-02T13:12:09.998Z</time></trkpt><trkpt lat="37.79058914141453" lon="15.177136095670924"><ele>227.0</ele><time>2026-05-02T13:12:10.998Z</time></trkpt><trkpt lat="37.79062073986858" lon="15.177249372666953"><ele>227.0</ele><time>2026-05-02T13:12:11.998Z</time></trkpt><trkpt lat="37.7906499667154" lon="15.177355779739223"><ele>227.0</ele><time>2026-05-02T13:12:12.998Z</time></trkpt><trkpt lat="37.79069580344752" lon="15.177448166927142"><ele>227.0</ele><time>2026-05-02T13:12:13.998Z</time></trkpt><trkpt lat="37.79076799207577" lon="15.17752335826181"><ele>227.83333333333334</ele><time>2026-05-02T13:12:14.998Z</time></trkpt><trkpt lat="37.790843321988376" lon="15.177588039694193"><ele>228.66666666666669</ele><time>2026-05-02T13:12:15.998Z</time></trkpt><trkpt lat="37.79092069002217" lon="15.177655959833192"><ele>229.5</ele><time>2026-05-02T13:12:16.998Z</time></trkpt><trkpt lat="37.79099590910332" lon="15.177729118178569"><ele>230.33333333333331</ele><time>2026-05-02T13:12:17.998Z</time></trkpt><trkpt lat="37.79106324063887" lon="15.177795595937376"><ele>231.16666666666666</ele><time>2026-05-02T13:12:18.998Z</time></trkpt><trkpt lat="37.791131219676025" lon="15.177842554470704"><ele>232.0</ele><time>2026-05-02T13:12:19.998Z</time></trkpt><trkpt lat="37.79126570082135" lon="15.17781522342675"><ele>234.2</ele><time>2026-05-02T13:12:21.998Z</time></trkpt><trkpt lat="37.79133913406799" lon="15.177754760034498"><ele>236.39999999999998</ele><time>2026-05-02T13:12:22.998Z</time></trkpt><trkpt lat="37.791414159271326" lon="15.177687510395453"><ele>238.60000000000002</ele><time>2026-05-02T13:12:23.998Z</time></trkpt><trkpt lat="37.79149853121678" lon="15.177630036635684"><ele>240.8</ele><time>2026-05-02T13:12:24.998Z</time></trkpt><trkpt lat="37.791586338285704" lon="15.177575387121653"><ele>243.0</ele><time>2026-05-02T13:12:25.998Z</time></trkpt><trkpt lat="37.791674128947186" lon="15.177520878202355"><ele>243.0</ele><time>2026-05-02T13:12:26.998Z</time></trkpt><trkpt lat="37.791768107430926" lon="15.17747509943627"><ele>243.0</ele><time>2026-05-02T13:12:27.998Z</time></trkpt><trkpt lat="37.79187125774818" lon="15.177440475640498"><ele>243.0</ele><time>2026-05-02T13:12:28.998Z</time></trkpt><trkpt lat="37.79197636750946" lon="15.17740787731225"><ele>243.0</ele><time>2026-05-02T13:12:29.998Z</time></trkpt><trkpt lat="37.792088013851455" lon="15.177377490399008"><ele>243.0</ele><time>2026-05-02T13:12:30.999Z</time></trkpt><trkpt lat="37.79219955437134" lon="15.177343755594583"><ele>245.0</ele><time>2026-05-02T13:12:31.999Z</time></trkpt><trkpt lat="37.79231092267384" lon="15.177308026774442"><ele>247.0</ele><time>2026-05-02T13:12:32.999Z</time></trkpt><trkpt lat="37.792426432781845" lon="15.17726649645068"><ele>249.0</ele><time>2026-05-02T13:12:33.999Z</time></trkpt><trkpt lat="37.79254798555247" lon="15.177234379739671"><ele>251.0</ele><time>2026-05-02T13:12:34.999Z</time></trkpt><trkpt lat="37.79267226451081" lon="15.177191067374904"><ele>251.5</ele><time>2026-05-02T13:12:35.999Z</time></trkpt><trkpt lat="37.792801545714504" lon="15.177138003242964"><ele>252.0</ele><time>2026-05-02T13:12:36.999Z</time></trkpt><trkpt lat="37.792931729078575" lon="15.177080642474575"><ele>252.5</ele><time>2026-05-02T13:12:37.999Z</time></trkpt><trkpt lat="37.79305870338517" lon="15.177011772465324"><ele>253.0</ele><time>2026-05-02T13:12:38.999Z</time></trkpt><trkpt lat="37.793185537997516" lon="15.176948323406192"><ele>253.0</ele><time>2026-05-02T13:12:39.999Z</time></trkpt><trkpt lat="37.7933118618711" lon="15.17689800941227"><ele>253.0</ele><time>2026-05-02T13:12:40.999Z</time></trkpt><trkpt lat="37.793440409535734" lon="15.17687324372549"><ele>253.0</ele><time>2026-05-02T13:12:41.999Z</time></trkpt><trkpt lat="37.7935684248083" lon="15.176870083484777"><ele>253.0</ele><time>2026-05-02T13:12:42.999Z</time></trkpt><trkpt lat="37.79369153785173" lon="15.176893337183403"><ele>254.75</ele><time>2026-05-02T13:12:43.999Z</time></trkpt><trkpt lat="37.79381126595814" lon="15.176930148309966"><ele>256.5</ele><time>2026-05-02T13:12:44.999Z</time></trkpt><trkpt lat="37.79392430542447" lon="15.176970986150556"><ele>258.25</ele><time>2026-05-02T13:12:45.999Z</time></trkpt><trkpt lat="37.794031874417215" lon="15.177032102975014"><ele>260.0</ele><time>2026-05-02T13:12:46.999Z</time></trkpt><trkpt lat="37.79413940102363" lon="15.177092578775175"><ele>260.0</ele><time>2026-05-02T13:12:47.999Z</time></trkpt><trkpt lat="37.79425242196555" lon="15.177150803558757"><ele>260.0</ele><time>2026-05-02T13:12:48.999Z</time></trkpt><trkpt lat="37.79436613486456" lon="15.177211798739844"><ele>260.0</ele><time>2026-05-02T13:12:49.999Z</time></trkpt><trkpt lat="37.79448357254219" lon="15.177276260114828"><ele>260.0</ele><time>2026-05-02T13:12:50.999Z</time></trkpt><trkpt lat="37.79460241786814" lon="15.177341681187256"><ele>261.25</ele><time>2026-05-02T13:12:51.999Z</time></trkpt><trkpt lat="37.794720191524405" lon="15.177406453815932"><ele>262.5</ele><time>2026-05-02T13:12:52.999Z</time></trkpt><trkpt lat="37.79483414799801" lon="15.177471291092656"><ele>263.75</ele><time>2026-05-02T13:12:53.999Z</time></trkpt><trkpt lat="37.79494272282462" lon="15.177527659880855"><ele>265.0</ele><time>2026-05-02T13:12:54.999Z</time></trkpt><trkpt lat="37.79504671999541" lon="15.177570756493513"><ele>265.0</ele><time>2026-05-02T13:12:55.999Z</time></trkpt><trkpt lat="37.79515458507138" lon="15.177583062975616"><ele>265.0</ele><time>2026-05-02T13:12:56.999Z</time></trkpt><trkpt lat="37.795265105320155" lon="15.17755527879694"><ele>265.0</ele><time>2026-05-02T13:12:57.999Z</time></trkpt><trkpt lat="37.79537449710799" lon="15.177547703819267"><ele>265.0</ele><time>2026-05-02T13:12:58.999Z</time></trkpt><trkpt lat="37.79549102932045" lon="15.177547227608901"><ele>265.0</ele><time>2026-05-02T13:12:59.999Z</time></trkpt><trkpt lat="37.79560543591821" lon="15.17753573917639"><ele>267.2</ele><time>2026-05-02T13:13:00.999Z</time></trkpt><trkpt lat="37.795711300320235" lon="15.177522486451585"><ele>269.4</ele><time>2026-05-02T13:13:01.999Z</time></trkpt><trkpt lat="37.79579941241832" lon="15.177477686722856"><ele>271.6</ele><time>2026-05-02T13:13:02.999Z</time></trkpt><trkpt lat="37.7958810660174" lon="15.177415524497587"><ele>273.8</ele><time>2026-05-02T13:13:03.999Z</time></trkpt><trkpt lat="37.79594687461194" lon="15.17732044346983"><ele>276.0</ele><time>2026-05-02T13:13:04.999Z</time></trkpt><trkpt lat="37.79600454497069" lon="15.177207658026237"><ele>279.0</ele><time>2026-05-02T13:13:05.999Z</time></trkpt><trkpt lat="37.79606558390489" lon="15.177087598974264"><ele>282.0</ele><time>2026-05-02T13:13:06.999Z</time></trkpt><trkpt lat="37.7961293411792" lon="15.17696780042433"><ele>285.0</ele><time>2026-05-02T13:13:07.999Z</time></trkpt><trkpt lat="37.79619382332951" lon="15.176838784230513"><ele>288.0</ele><time>2026-05-02T13:13:08.999Z</time></trkpt><trkpt lat="37.796262012191676" lon="15.176712524744655"><ele>288.0</ele><time>2026-05-02T13:13:09.999Z</time></trkpt><trkpt lat="37.79633163500257" lon="15.176589986965919"><ele>288.0</ele><time>2026-05-02T13:13:10.999Z</time></trkpt><trkpt lat="37.79639616155841" lon="15.176464433509187"><ele>288.0</ele><time>2026-05-02T13:13:11.999Z</time></trkpt><trkpt lat="37.79646041467314" lon="15.176336561291372"><ele>288.0</ele><time>2026-05-02T13:13:12.999Z</time></trkpt><trkpt lat="37.796520940180855" lon="15.176214501244056"><ele>288.1666666666667</ele><time>2026-05-02T13:13:13.999Z</time></trkpt><trkpt lat="37.79657534916906" lon="15.17610654821311"><ele>288.3333333333333</ele><time>2026-05-02T13:13:14.999Z</time></trkpt><trkpt lat="37.79661823562249" lon="15.176020031242212"><ele>288.5</ele><time>2026-05-02T13:13:15.999Z</time></trkpt><trkpt lat="37.796671924011044" lon="15.17596843421624"><ele>288.66666666666663</ele><time>2026-05-02T13:13:16.999Z</time></trkpt><trkpt lat="37.79674032769189" lon="15.175956374279481"><ele>288.8333333333333</ele><time>2026-05-02T13:13:17.999Z</time></trkpt><trkpt lat="37.79680708538067" lon="15.175989421577084"><ele>289.0</ele><time>2026-05-02T13:13:18.999Z</time></trkpt><trkpt lat="37.79685138152594" lon="15.176075744443029"><ele>291.2</ele><time>2026-05-02T13:13:19.999Z</time></trkpt><trkpt lat="37.79688551219859" lon="15.176173910363865"><ele>293.4</ele><time>2026-05-02T13:13:20.999Z</time></trkpt><trkpt lat="37.79693681807005" lon="15.176272405180509"><ele>295.6</ele><time>2026-05-02T13:13:21.999Z</time></trkpt><trkpt lat="37.79699193425694" lon="15.176378650910351"><ele>297.8</ele><time>2026-05-02T13:13:22.999Z</time></trkpt><trkpt lat="37.797045564915784" lon="15.176483126991428"><ele>300.0</ele><time>2026-05-02T13:13:23.999Z</time></trkpt><trkpt lat="37.79710112669514" lon="15.176589448350375"><ele>300.0</ele><time>2026-05-02T13:13:24.999Z</time></trkpt><trkpt lat="37.797151878642886" lon="15.176702788708702"><ele>300.0</ele><time>2026-05-02T13:13:25.999Z</time></trkpt><trkpt lat="37.79720363582013" lon="15.176814145649388"><ele>300.0</ele><time>2026-05-02T13:13:26.999Z</time></trkpt><trkpt lat="37.79726182685007" lon="15.176923145621135"><ele>300.0</ele><time>2026-05-02T13:13:27.999Z</time></trkpt><trkpt lat="37.797313494049845" lon="15.177035415230828"><ele>300.0</ele><time>2026-05-02T13:13:28.999Z</time></trkpt><trkpt lat="37.79736220083197" lon="15.17713217346578"><ele>300.0</ele><time>2026-05-02T13:13:29.999Z</time></trkpt><trkpt lat="37.79742248755494" lon="15.177193554694679"><ele>300.0</ele><time>2026-05-02T13:13:30.999Z</time></trkpt><trkpt lat="37.79749699716811" lon="15.177218902657978"><ele>300.0</ele><time>2026-05-02T13:13:31.999Z</time></trkpt><trkpt lat="37.79758046838675" lon="15.177215522069593"><ele>300.0</ele><time>2026-05-02T13:13:32.999Z</time></trkpt><trkpt lat="37.79767115909592" lon="15.177177129938809"><ele>300.0</ele><time>2026-05-02T13:13:33.999Z</time></trkpt><trkpt lat="37.79776457920965" lon="15.177113947359766"><ele>300.0</ele><time>2026-05-02T13:13:34.999Z</time></trkpt><trkpt lat="37.79785739481728" lon="15.17704469929122"><ele>300.6</ele><time>2026-05-02T13:13:35.999Z</time></trkpt><trkpt lat="37.797952700843894" lon="15.176974834767323"><ele>301.2</ele><time>2026-05-02T13:13:36.999Z</time></trkpt><trkpt lat="37.7980527596827" lon="15.176907768688881"><ele>301.8</ele><time>2026-05-02T13:13:37.999Z</time></trkpt><trkpt lat="37.79815558939902" lon="15.176849657180247"><ele>302.4</ele><time>2026-05-02T13:13:38.999Z</time></trkpt><trkpt lat="37.798257327142274" lon="15.176791102890022"><ele>303.0</ele><time>2026-05-02T13:13:39.999Z</time></trkpt><trkpt lat="37.79835403405507" lon="15.176729757814144"><ele>303.0</ele><time>2026-05-02T13:13:40.999Z</time></trkpt><trkpt lat="37.79845015983512" lon="15.176672336285462"><ele>303.0</ele><time>2026-05-02T13:13:41.999Z</time></trkpt><trkpt lat="37.798547107077404" lon="15.1766146744148"><ele>303.0</ele><time>2026-05-02T13:13:42.999Z</time></trkpt><trkpt lat="37.798642029691564" lon="15.176555883801267"><ele>303.0</ele><time>2026-05-02T13:13:43.999Z</time></trkpt><trkpt lat="37.79873835555048" lon="15.176503491419144"><ele>303.0</ele><time>2026-05-02T13:13:44.999Z</time></trkpt><trkpt lat="37.798840413621605" lon="15.176485805431204"><ele>306.8</ele><time>2026-05-02T13:13:45.999Z</time></trkpt><trkpt lat="37.79893832594401" lon="15.176486945274501"><ele>310.6</ele><time>2026-05-02T13:13:46.999Z</time></trkpt><trkpt lat="37.79902751334358" lon="15.17645470722725"><ele>314.40000000000003</ele><time>2026-05-02T13:13:47.999Z</time></trkpt><trkpt lat="37.799103205003604" lon="15.176389446127738"><ele>318.20000000000005</ele><time>2026-05-02T13:13:48.999Z</time></trkpt><trkpt lat="37.79916854543289" lon="15.176305101973158"><ele>322.0</ele><time>2026-05-02T13:13:49.999Z</time></trkpt><trkpt lat="37.799228688157285" lon="15.17620945561616"><ele>322.0</ele><time>2026-05-02T13:13:50.999Z</time></trkpt><trkpt lat="37.799305533333815" lon="15.176134020431572"><ele>322.0</ele><time>2026-05-02T13:13:51.999Z</time></trkpt><trkpt lat="37.799397770283406" lon="15.176086964682515"><ele>322.0</ele><time>2026-05-02T13:13:52.999Z</time></trkpt><trkpt lat="37.799513510050545" lon="15.176073234036263"><ele>322.0</ele><time>2026-05-02T13:13:53.999Z</time></trkpt><trkpt lat="37.799618392339326" lon="15.176023402195817"><ele>322.0</ele><time>2026-05-02T13:13:54.999Z</time></trkpt><trkpt lat="37.799717992359184" lon="15.175982079731398"><ele>323.25</ele><time>2026-05-02T13:13:55.999Z</time></trkpt><trkpt lat="37.799826332522834" lon="15.17594723297027"><ele>324.5</ele><time>2026-05-02T13:13:56.999Z</time></trkpt><trkpt lat="37.79993695142705" lon="15.175913215916449"><ele>325.75</ele><time>2026-05-02T13:13:57.999Z</time></trkpt><trkpt lat="37.80004896082257" lon="15.175881277735037"><ele>327.0</ele><time>2026-05-02T13:13:58.999Z</time></trkpt><trkpt lat="37.80015770737857" lon="15.175846800433423"><ele>327.6</ele><time>2026-05-02T13:13:59.999Z</time></trkpt><trkpt lat="37.800268177397925" lon="15.175820651537029"><ele>328.20000000000005</ele><time>2026-05-02T13:14:00.999Z</time></trkpt><trkpt lat="37.800368541078925" lon="15.17578583547561"><ele>328.8</ele><time>2026-05-02T13:14:01.999Z</time></trkpt><trkpt lat="37.80045376995384" lon="15.175758838657922"><ele>329.4</ele><time>2026-05-02T13:14:02.999Z</time></trkpt><trkpt lat="37.80053178884216" lon="15.175735671527418"><ele>330.0</ele><time>2026-05-02T13:14:03.999Z</time></trkpt><trkpt lat="37.80060494445897" lon="15.175716979717873"><ele>330.0</ele><time>2026-05-02T13:14:04.999Z</time></trkpt><trkpt lat="37.800667424027736" lon="15.175691415675006"><ele>330.0</ele><time>2026-05-02T13:14:05.999Z</time></trkpt><trkpt lat="37.80073250956892" lon="15.175664727778328"><ele>330.0</ele><time>2026-05-02T13:14:06.999Z</time></trkpt><trkpt lat="37.80082744619014" lon="15.175641444300327"><ele>330.0</ele><time>2026-05-02T13:14:08.998Z</time></trkpt><trkpt lat="37.800836395537104" lon="15.175461792335897"><ele>330.0</ele><time>2026-05-02T13:14:09.998Z</time></trkpt><trkpt lat="37.80085120513607" lon="15.175361508514134"><ele>331.6</ele><time>2026-05-02T13:14:10.998Z</time></trkpt><trkpt lat="37.800868743509575" lon="15.17525475712167"><ele>333.2</ele><time>2026-05-02T13:14:11.998Z</time></trkpt><trkpt lat="37.800891807017656" lon="15.175142537539516"><ele>334.79999999999995</ele><time>2026-05-02T13:14:12.998Z</time></trkpt><trkpt lat="37.80092341253945" lon="15.175029121921431"><ele>336.4</ele><time>2026-05-02T13:14:13.998Z</time></trkpt><trkpt lat="37.80095935157521" lon="15.174904863235525"><ele>338.0</ele><time>2026-05-02T13:14:14.998Z</time></trkpt><trkpt lat="37.80099444511831" lon="15.17478053032257"><ele>340.0</ele><time>2026-05-02T13:14:15.998Z</time></trkpt><trkpt lat="37.80102854504511" lon="15.174649715205227"><ele>342.0</ele><time>2026-05-02T13:14:16.998Z</time></trkpt><trkpt lat="37.801065509909996" lon="15.17451266550514"><ele>344.0</ele><time>2026-05-02T13:14:17.998Z</time></trkpt><trkpt lat="37.80110280598828" lon="15.174375310143239"><ele>346.0</ele><time>2026-05-02T13:14:18.998Z</time></trkpt><trkpt lat="37.80114205334923" lon="15.174235507614295"><ele>346.0</ele><time>2026-05-02T13:14:19.998Z</time></trkpt><trkpt lat="37.801181544545166" lon="15.174093439632154"><ele>346.0</ele><time>2026-05-02T13:14:20.998Z</time></trkpt><trkpt lat="37.80123008352815" lon="15.173959845615762"><ele>346.0</ele><time>2026-05-02T13:14:21.998Z</time></trkpt><trkpt lat="37.80128439870073" lon="15.173826074355143"><ele>346.0</ele><time>2026-05-02T13:14:22.998Z</time></trkpt><trkpt lat="37.80135412969585" lon="15.173703334400587"><ele>346.75</ele><time>2026-05-02T13:14:23.998Z</time></trkpt><trkpt lat="37.80143598090102" lon="15.173578903102795"><ele>347.5</ele><time>2026-05-02T13:14:24.998Z</time></trkpt><trkpt lat="37.80152543415914" lon="15.173452787053677"><ele>348.25</ele><time>2026-05-02T13:14:25.998Z</time></trkpt><trkpt lat="37.801617643269125" lon="15.173319816957372"><ele>349.0</ele><time>2026-05-02T13:14:26.998Z</time></trkpt><trkpt lat="37.801714736462856" lon="15.173189068665735"><ele>350.5</ele><time>2026-05-02T13:14:27.998Z</time></trkpt><trkpt lat="37.80181042192515" lon="15.173061943880244"><ele>352.0</ele><time>2026-05-02T13:14:28.998Z</time></trkpt><trkpt lat="37.80190394078169" lon="15.172932542003581"><ele>353.5</ele><time>2026-05-02T13:14:29.998Z</time></trkpt><trkpt lat="37.80199534500443" lon="15.17280733519398"><ele>355.0</ele><time>2026-05-02T13:14:30.998Z</time></trkpt><trkpt lat="37.80208932813242" lon="15.172682335922124"><ele>355.0</ele><time>2026-05-02T13:14:31.998Z</time></trkpt><trkpt lat="37.80218237156152" lon="15.172557498079259"><ele>355.0</ele><time>2026-05-02T13:14:32.998Z</time></trkpt><trkpt lat="37.802273088141405" lon="15.172425946626417"><ele>355.0</ele><time>2026-05-02T13:14:33.998Z</time></trkpt><trkpt lat="37.80237072733306" lon="15.172293175807926"><ele>355.0</ele><time>2026-05-02T13:14:34.998Z</time></trkpt><trkpt lat="37.80246755185144" lon="15.172159014018977"><ele>356.25</ele><time>2026-05-02T13:14:35.998Z</time></trkpt><trkpt lat="37.80256504139656" lon="15.172026050515669"><ele>357.5</ele><time>2026-05-02T13:14:37Z</time></trkpt><trkpt lat="37.80266378506062" lon="15.171893032637932"><ele>358.75</ele><time>2026-05-02T13:14:38Z</time></trkpt><trkpt lat="37.80276370130912" lon="15.171764740107811"><ele>360.0</ele><time>2026-05-02T13:14:39Z</time></trkpt><trkpt lat="37.802864532444474" lon="15.171633863094238"><ele>361.5</ele><time>2026-05-02T13:14:40Z</time></trkpt><trkpt lat="37.80296771105703" lon="15.171507598891855"><ele>363.0</ele><time>2026-05-02T13:14:41Z</time></trkpt><trkpt lat="37.80306967744288" lon="15.171377044962972"><ele>364.5</ele><time>2026-05-02T13:14:42Z</time></trkpt><trkpt lat="37.803171600800894" lon="15.171245616967786"><ele>366.0</ele><time>2026-05-02T13:14:43Z</time></trkpt><trkpt lat="37.80327233798698" lon="15.171114186138547"><ele>366.0</ele><time>2026-05-02T13:14:44Z</time></trkpt><trkpt lat="37.80337356794356" lon="15.170987993616428"><ele>366.0</ele><time>2026-05-02T13:14:45Z</time></trkpt><trkpt lat="37.80347546738406" lon="15.170864220552048"><ele>366.0</ele><time>2026-05-02T13:14:46Z</time></trkpt><trkpt lat="37.80357693099319" lon="15.170736796534237"><ele>366.0</ele><time>2026-05-02T13:14:47Z</time></trkpt><trkpt lat="37.803678917997956" lon="15.170609001189156"><ele>366.0</ele><time>2026-05-02T13:14:48Z</time></trkpt><trkpt lat="37.803779992609535" lon="15.170484001188061"><ele>366.0</ele><time>2026-05-02T13:14:49Z</time></trkpt><trkpt lat="37.80387791264398" lon="15.17035956509958"><ele>366.0</ele><time>2026-05-02T13:14:50Z</time></trkpt><trkpt lat="37.80397014046095" lon="15.170245951846686"><ele>366.0</ele><time>2026-05-02T13:14:51Z</time></trkpt><trkpt lat="37.804058105441456" lon="15.170139475742141"><ele>366.0</ele><time>2026-05-02T13:14:52Z</time></trkpt><trkpt lat="37.80413975805915" lon="15.170042306577676"><ele>366.0</ele><time>2026-05-02T13:14:53Z</time></trkpt><trkpt lat="37.80421500955617" lon="15.169954001215132"><ele>366.0</ele><time>2026-05-02T13:14:54Z</time></trkpt><trkpt lat="37.8042835763009" lon="15.16987519536085"><ele>366.0</ele><time>2026-05-02T13:14:55Z</time></trkpt><trkpt lat="37.80434489901325" lon="15.1698123764499"><ele>366.0</ele><time>2026-05-02T13:14:56Z</time></trkpt><trkpt lat="37.80439791678951" lon="15.169757657453117"><ele>367.6</ele><time>2026-05-02T13:14:57Z</time></trkpt><trkpt lat="37.804487483151426" lon="15.169667184524029"><ele>369.20000000000005</ele><time>2026-05-02T13:14:59Z</time></trkpt><trkpt lat="37.804534746303474" lon="15.169607450715539"><ele>370.79999999999995</ele><time>2026-05-02T13:15:00Z</time></trkpt><trkpt lat="37.80459488753625" lon="15.16951897283563"><ele>372.4</ele><time>2026-05-02T13:15:01Z</time></trkpt><trkpt lat="37.80466292620435" lon="15.169426812080632"><ele>374.0</ele><time>2026-05-02T13:15:02Z</time></trkpt><trkpt lat="37.80473583561511" lon="15.169323412733322"><ele>374.0</ele><time>2026-05-02T13:15:03Z</time></trkpt><trkpt lat="37.804815180058334" lon="15.16921456895508"><ele>374.0</ele><time>2026-05-02T13:15:04Z</time></trkpt><trkpt lat="37.80489701225387" lon="15.169109897092786"><ele>374.0</ele><time>2026-05-02T13:15:05Z</time></trkpt><trkpt lat="37.804972302767126" lon="15.169010201622307"><ele>374.0</ele><time>2026-05-02T13:15:06Z</time></trkpt><trkpt lat="37.80503377929331" lon="15.168916150011269"><ele>374.0</ele><time>2026-05-02T13:15:07Z</time></trkpt><trkpt lat="37.80507985111656" lon="15.168815172198176"><ele>376.79999999999995</ele><time>2026-05-02T13:15:08Z</time></trkpt><trkpt lat="37.805107837583044" lon="15.168701203089395"><ele>379.59999999999997</ele><time>2026-05-02T13:15:09Z</time></trkpt><trkpt lat="37.80512030641341" lon="15.16857494968409"><ele>382.4</ele><time>2026-05-02T13:15:10Z</time></trkpt><trkpt lat="37.805130140200504" lon="15.168446692480892"><ele>385.2</ele><time>2026-05-02T13:15:11Z</time></trkpt><trkpt lat="37.805142931737315" lon="15.168313625794957"><ele>388.0</ele><time>2026-05-02T13:15:12Z</time></trkpt><trkpt lat="37.80514672483492" lon="15.168173483073666"><ele>388.25</ele><time>2026-05-02T13:15:13Z</time></trkpt><trkpt lat="37.80515144038912" lon="15.16803657326841"><ele>388.5</ele><time>2026-05-02T13:15:14Z</time></trkpt><trkpt lat="37.80515850035019" lon="15.167894589597665"><ele>388.75</ele><time>2026-05-02T13:15:15Z</time></trkpt><trkpt lat="37.80517161125315" lon="15.167750705679286"><ele>389.0</ele><time>2026-05-02T13:15:16Z</time></trkpt><trkpt lat="37.805195513655924" lon="15.167599487202564"><ele>389.5</ele><time>2026-05-02T13:15:17Z</time></trkpt><trkpt lat="37.80523040421801" lon="15.167455021472616"><ele>390.0</ele><time>2026-05-02T13:15:17.999Z</time></trkpt><trkpt lat="37.80528084801746" lon="15.167316217120243"><ele>390.5</ele><time>2026-05-02T13:15:18.999Z</time></trkpt><trkpt lat="37.80533485621655" lon="15.16718014324347"><ele>391.0</ele><time>2026-05-02T13:15:19.999Z</time></trkpt><trkpt lat="37.80539239951911" lon="15.16704552167608"><ele>392.5</ele><time>2026-05-02T13:15:20.999Z</time></trkpt><trkpt lat="37.80545327502185" lon="15.166907794123903"><ele>394.0</ele><time>2026-05-02T13:15:21.999Z</time></trkpt><trkpt lat="37.805509255234476" lon="15.166771552017872"><ele>395.5</ele><time>2026-05-02T13:15:22.999Z</time></trkpt><trkpt lat="37.805555965925535" lon="15.166633857885374"><ele>397.0</ele><time>2026-05-02T13:15:23.999Z</time></trkpt><trkpt lat="37.80559387986802" lon="15.166492379964714"><ele>400.0</ele><time>2026-05-02T13:15:24.999Z</time></trkpt><trkpt lat="37.80562625169573" lon="15.166349356726457"><ele>403.0</ele><time>2026-05-02T13:15:25.999Z</time></trkpt><trkpt lat="37.805657914149414" lon="15.166207425338204"><ele>406.0</ele><time>2026-05-02T13:15:26.999Z</time></trkpt><trkpt lat="37.80568539815228" lon="15.166062547856383"><ele>409.0</ele><time>2026-05-02T13:15:27.999Z</time></trkpt><trkpt lat="37.80570667334009" lon="15.165923930794944"><ele>409.0</ele><time>2026-05-02T13:15:28.999Z</time></trkpt><trkpt lat="37.805720385718885" lon="15.165791011156736"><ele>409.0</ele><time>2026-05-02T13:15:29.999Z</time></trkpt><trkpt lat="37.80572545231061" lon="15.165651668728103"><ele>409.0</ele><time>2026-05-02T13:15:30.999Z</time></trkpt><trkpt lat="37.80572018235259" lon="15.165514647199615"><ele>409.0</ele><time>2026-05-02T13:15:31.999Z</time></trkpt><trkpt lat="37.80570256025639" lon="15.1653886556573"><ele>409.0</ele><time>2026-05-02T13:15:32.999Z</time></trkpt><trkpt lat="37.80567377812192" lon="15.165262116365287"><ele>409.6</ele><time>2026-05-02T13:15:33.999Z</time></trkpt><trkpt lat="37.80563558187087" lon="15.165141349440017"><ele>410.2</ele><time>2026-05-02T13:15:34.999Z</time></trkpt><trkpt lat="37.80558363276422" lon="15.165023524241045"><ele>410.8</ele><time>2026-05-02T13:15:35.999Z</time></trkpt><trkpt lat="37.80553252337292" lon="15.16491414532686"><ele>411.40000000000003</ele><time>2026-05-02T13:15:36.999Z</time></trkpt><trkpt lat="37.8054925475254" lon="15.164794449839064"><ele>412.0</ele><time>2026-05-02T13:15:37.999Z</time></trkpt><trkpt lat="37.80545342316925" lon="15.164701609981519"><ele>412.1666666666667</ele><time>2026-05-02T13:15:38.999Z</time></trkpt><trkpt lat="37.80541830920583" lon="15.164624343821247"><ele>412.33333333333337</ele><time>2026-05-02T13:15:39.999Z</time></trkpt><trkpt lat="37.80538116416778" lon="15.164544005740929"><ele>412.5</ele><time>2026-05-02T13:15:40.999Z</time></trkpt><trkpt lat="37.80534822442922" lon="15.164468019516853"><ele>412.66666666666663</ele><time>2026-05-02T13:15:41.999Z</time></trkpt><trkpt lat="37.805300077231315" lon="15.164348606933032"><ele>412.8333333333333</ele><time>2026-05-02T13:15:43.999Z</time></trkpt><trkpt lat="37.80531530361437" lon="15.164199758144665"><ele>413.0</ele><time>2026-05-02T13:15:45.999Z</time></trkpt><trkpt lat="37.805359962582244" lon="15.164122085842621"><ele>413.0</ele><time>2026-05-02T13:15:46.999Z</time></trkpt><trkpt lat="37.80541844916262" lon="15.16403502255334"><ele>413.0</ele><time>2026-05-02T13:15:47.999Z</time></trkpt><trkpt lat="37.805489340735996" lon="15.163926887197235"><ele>413.0</ele><time>2026-05-02T13:15:48.999Z</time></trkpt><trkpt lat="37.80556326201428" lon="15.163818119675678"><ele>413.0</ele><time>2026-05-02T13:15:49.999Z</time></trkpt><trkpt lat="37.80564063692765" lon="15.163700164998934"><ele>413.0</ele><time>2026-05-02T13:15:50.999Z</time></trkpt><trkpt lat="37.8057179787953" lon="15.163599793179554"><ele>414.59999999999997</ele><time>2026-05-02T13:15:51.999Z</time></trkpt><trkpt lat="37.805781016733" lon="15.163497245416824"><ele>416.2</ele><time>2026-05-02T13:15:52.999Z</time></trkpt><trkpt lat="37.805843452032654" lon="15.163396471021175"><ele>417.8</ele><time>2026-05-02T13:15:53.999Z</time></trkpt><trkpt lat="37.80589587141138" lon="15.163308409028378"><ele>419.4</ele><time>2026-05-02T13:15:54.999Z</time></trkpt><trkpt lat="37.80596064077679" lon="15.16322081594239"><ele>421.0</ele><time>2026-05-02T13:15:55.999Z</time></trkpt><trkpt lat="37.806037408251505" lon="15.163143682298127"><ele>423.6666666666667</ele><time>2026-05-02T13:15:56.999Z</time></trkpt><trkpt lat="37.806136483931084" lon="15.16311777562773"><ele>426.33333333333337</ele><time>2026-05-02T13:15:57.999Z</time></trkpt><trkpt lat="37.806219219289694" lon="15.163060420722932"><ele>429.0</ele><time>2026-05-02T13:15:58.999Z</time></trkpt><trkpt lat="37.806292827761716" lon="15.163016402816048"><ele>431.66666666666663</ele><time>2026-05-02T13:15:59.999Z</time></trkpt><trkpt lat="37.80636360080221" lon="15.162978300460136"><ele>434.3333333333333</ele><time>2026-05-02T13:16:00.999Z</time></trkpt><trkpt lat="37.806437190024454" lon="15.162932976982798"><ele>437.0</ele><time>2026-05-02T13:16:01.999Z</time></trkpt><trkpt lat="37.80651726290563" lon="15.162888216400843"><ele>437.0</ele><time>2026-05-02T13:16:02.999Z</time></trkpt><trkpt lat="37.80660013763338" lon="15.16283786617989"><ele>437.00000000000006</ele><time>2026-05-02T13:16:03.999Z</time></trkpt><trkpt lat="37.80668589371198" lon="15.162778906797975"><ele>437.00000000000006</ele><time>2026-05-02T13:16:04.999Z</time></trkpt><trkpt lat="37.80677014879072" lon="15.162715891059552"><ele>437.0</ele><time>2026-05-02T13:16:05.999Z</time></trkpt><trkpt lat="37.806857645311915" lon="15.16266266215348"><ele>437.0</ele><time>2026-05-02T13:16:06.999Z</time></trkpt><trkpt lat="37.806950659332536" lon="15.162601043290532"><ele>438.0</ele><time>2026-05-02T13:16:07.999Z</time></trkpt><trkpt lat="37.80704226785497" lon="15.162540743987076"><ele>439.00000000000006</ele><time>2026-05-02T13:16:08.999Z</time></trkpt><trkpt lat="37.80713410859648" lon="15.162487858336712"><ele>440.00000000000006</ele><time>2026-05-02T13:16:09.999Z</time></trkpt><trkpt lat="37.80721413799211" lon="15.162436440997169"><ele>441.0</ele><time>2026-05-02T13:16:10.999Z</time></trkpt><trkpt lat="37.80728062572015" lon="15.162377957028998"><ele>442.0</ele><time>2026-05-02T13:16:11.999Z</time></trkpt><trkpt lat="37.807347865798306" lon="15.162333528990265"><ele>442.7142857142857</ele><time>2026-05-02T13:16:12.999Z</time></trkpt><trkpt lat="37.80741489001193" lon="15.162279615304179"><ele>443.42857142857144</ele><time>2026-05-02T13:16:13.999Z</time></trkpt><trkpt lat="37.8074811914474" lon="15.162229903424132"><ele>444.1428571428571</ele><time>2026-05-02T13:16:14.999Z</time></trkpt><trkpt lat="37.807544991498844" lon="15.162194945831926"><ele>444.8571428571429</ele><time>2026-05-02T13:16:15.999Z</time></trkpt><trkpt lat="37.80759778145025" lon="15.162134931311096"><ele>445.57142857142856</ele><time>2026-05-02T13:16:16.999Z</time></trkpt><trkpt lat="37.80763150114987" lon="15.162066212860934"><ele>446.2857142857143</ele><time>2026-05-02T13:16:17.999Z</time></trkpt><trkpt lat="37.80764223507227" lon="15.16198457399605"><ele>447.0</ele><time>2026-05-02T13:16:18.999Z</time></trkpt><trkpt lat="37.807635644548256" lon="15.161899461914295"><ele>447.0</ele><time>2026-05-02T13:16:19.999Z</time></trkpt><trkpt lat="37.80761766556865" lon="15.161812501669965"><ele>447.0</ele><time>2026-05-02T13:16:20.999Z</time></trkpt><trkpt lat="37.807615958044714" lon="15.161721847844719"><ele>447.0</ele><time>2026-05-02T13:16:21.999Z</time></trkpt><trkpt lat="37.80761086941087" lon="15.161582044608572"><ele>447.0</ele><time>2026-05-02T13:16:23.999Z</time></trkpt><trkpt lat="37.80765109270908" lon="15.16151685443082"><ele>447.0</ele><time>2026-05-02T13:16:24.999Z</time></trkpt><trkpt lat="37.80771947325219" lon="15.161475869408902"><ele>447.0</ele><time>2026-05-02T13:16:25.999Z</time></trkpt><trkpt lat="37.807793573856" lon="15.161459286880948"><ele>448.4285714285714</ele><time>2026-05-02T13:16:26.999Z</time></trkpt><trkpt lat="37.80786622119667" lon="15.161447111239918"><ele>449.8571428571429</ele><time>2026-05-02T13:16:27.999Z</time></trkpt><trkpt lat="37.80793694208685" lon="15.161438563909178"><ele>451.28571428571433</ele><time>2026-05-02T13:16:28.999Z</time></trkpt><trkpt lat="37.80800703437325" lon="15.161431908768835"><ele>452.7142857142857</ele><time>2026-05-02T13:16:29.999Z</time></trkpt><trkpt lat="37.80807616199824" lon="15.161416311376822"><ele>454.14285714285717</ele><time>2026-05-02T13:16:30.999Z</time></trkpt><trkpt lat="37.808147959183124" lon="15.161399914084068"><ele>455.5714285714286</ele><time>2026-05-02T13:16:31.999Z</time></trkpt><trkpt lat="37.808220889130105" lon="15.161373579871618"><ele>457.00000000000006</ele><time>2026-05-02T13:16:32.999Z</time></trkpt><trkpt lat="37.808292632946284" lon="15.161330916137386"><ele>457.00000000000006</ele><time>2026-05-02T13:16:33.999Z</time></trkpt><trkpt lat="37.80836198104579" lon="15.161281119378465"><ele>457.0</ele><time>2026-05-02T13:16:34.999Z</time></trkpt><trkpt lat="37.80842462533713" lon="15.161223715072776"><ele>457.00000000000006</ele><time>2026-05-02T13:16:35.999Z</time></trkpt><trkpt lat="37.8084789651049" lon="15.161157308064833"><ele>457.00000000000006</ele><time>2026-05-02T13:16:36.999Z</time></trkpt><trkpt lat="37.80851790745683" lon="15.16108350026532"><ele>457.0</ele><time>2026-05-02T13:16:37.999Z</time></trkpt><trkpt lat="37.808538118176166" lon="15.161001696307764"><ele>457.00000000000006</ele><time>2026-05-02T13:16:38.999Z</time></trkpt><trkpt lat="37.808537371180165" lon="15.160913098773781"><ele>457.00000000000006</ele><time>2026-05-02T13:16:39.999Z</time></trkpt><trkpt lat="37.8085586337121" lon="15.160825270552657"><ele>456.1666666666667</ele><time>2026-05-02T13:16:40.998Z</time></trkpt><trkpt lat="37.808602295716355" lon="15.160697087835066"><ele>455.33333333333337</ele><time>2026-05-02T13:16:43Z</time></trkpt><trkpt lat="37.808657177908934" lon="15.160655851791972"><ele>454.5</ele><time>2026-05-02T13:16:44Z</time></trkpt><trkpt lat="37.80873392681088" lon="15.160659830425057"><ele>453.66666666666663</ele><time>2026-05-02T13:16:45Z</time></trkpt><trkpt lat="37.808807637959596" lon="15.160674781915382"><ele>452.8333333333333</ele><time>2026-05-02T13:16:46Z</time></trkpt><trkpt lat="37.80888332049039" lon="15.160695732004918"><ele>452.0</ele><time>2026-05-02T13:16:47Z</time></trkpt><trkpt lat="37.80896589586379" lon="15.16070410767799"><ele>452.0</ele><time>2026-05-02T13:16:48Z</time></trkpt><trkpt lat="37.80903321754158" lon="15.160732240516909"><ele>452.0</ele><time>2026-05-02T13:16:49Z</time></trkpt><trkpt lat="37.80909497698952" lon="15.160758101680559"><ele>452.0</ele><time>2026-05-02T13:16:50Z</time></trkpt><trkpt lat="37.80916114685172" lon="15.160774501201749"><ele>452.0</ele><time>2026-05-02T13:16:51Z</time></trkpt><trkpt lat="37.809229251609146" lon="15.160764327228046"><ele>452.0</ele><time>2026-05-02T13:16:52Z</time></trkpt><trkpt lat="37.80929515770403" lon="15.160719481367401"><ele>452.0</ele><time>2026-05-02T13:16:53Z</time></trkpt><trkpt lat="37.809377000629965" lon="15.160683770686305"><ele>452.0</ele><time>2026-05-02T13:16:54Z</time></trkpt><trkpt lat="37.80945498446578" lon="15.160624564525023"><ele>453.40000000000003</ele><time>2026-05-02T13:16:55Z</time></trkpt><trkpt lat="37.80952845005727" lon="15.160563004927935"><ele>454.80000000000007</ele><time>2026-05-02T13:16:56Z</time></trkpt><trkpt lat="37.809592738181735" lon="15.160481146229353"><ele>456.2</ele><time>2026-05-02T13:16:57Z</time></trkpt><trkpt lat="37.80965527541915" lon="15.160395568476183"><ele>457.6</ele><time>2026-05-02T13:16:58Z</time></trkpt><trkpt lat="37.809719034965624" lon="15.160304401210503"><ele>459.0</ele><time>2026-05-02T13:16:59Z</time></trkpt><trkpt lat="37.809783447960925" lon="15.160214499616327"><ele>459.0</ele><time>2026-05-02T13:17:00Z</time></trkpt><trkpt lat="37.80984976591875" lon="15.160135090940251"><ele>459.0</ele><time>2026-05-02T13:17:01Z</time></trkpt><trkpt lat="37.80991279626034" lon="15.160064857127828"><ele>459.0</ele><time>2026-05-02T13:17:02Z</time></trkpt><trkpt lat="37.80997338069323" lon="15.1600005532035"><ele>459.0</ele><time>2026-05-02T13:17:03Z</time></trkpt><trkpt lat="37.81002501086562" lon="15.159928445583411"><ele>459.0</ele><time>2026-05-02T13:17:04Z</time></trkpt><trkpt lat="37.81006308894129" lon="15.159851463054757"><ele>459.0</ele><time>2026-05-02T13:17:05Z</time></trkpt><trkpt lat="37.810089743963744" lon="15.159777417530726"><ele>458.1666666666667</ele><time>2026-05-02T13:17:06Z</time></trkpt><trkpt lat="37.810120138341986" lon="15.159702293412064"><ele>457.33333333333337</ele><time>2026-05-02T13:17:07Z</time></trkpt><trkpt lat="37.81016408363123" lon="15.159620293626917"><ele>456.5</ele><time>2026-05-02T13:17:08Z</time></trkpt><trkpt lat="37.810231874995964" lon="15.15953921122898"><ele>455.6666666666667</ele><time>2026-05-02T13:17:09Z</time></trkpt><trkpt lat="37.81030561689353" lon="15.159451723006022"><ele>454.83333333333337</ele><time>2026-05-02T13:17:10Z</time></trkpt><trkpt lat="37.81038315211473" lon="15.159357982460854"><ele>454.0</ele><time>2026-05-02T13:17:11Z</time></trkpt><trkpt lat="37.81045983890412" lon="15.159261525767484"><ele>454.00000000000006</ele><time>2026-05-02T13:17:12Z</time></trkpt><trkpt lat="37.81052264845074" lon="15.159162344604647"><ele>454.0</ele><time>2026-05-02T13:17:13Z</time></trkpt><trkpt lat="37.81057186306333" lon="15.159063103017646"><ele>454.0</ele><time>2026-05-02T13:17:14Z</time></trkpt><trkpt lat="37.81060466849955" lon="15.158960457384143"><ele>454.0</ele><time>2026-05-02T13:17:15Z</time></trkpt><trkpt lat="37.81065204119337" lon="15.158874240447988"><ele>454.00000000000006</ele><time>2026-05-02T13:17:16Z</time></trkpt><trkpt lat="37.81071829304159" lon="15.15880615932354"><ele>454.0</ele><time>2026-05-02T13:17:17Z</time></trkpt><trkpt lat="37.810787952799515" lon="15.158725518544577"><ele>454.0</ele><time>2026-05-02T13:17:18Z</time></trkpt><trkpt lat="37.810856597898535" lon="15.158643384153988"><ele>454.0</ele><time>2026-05-02T13:17:19Z</time></trkpt><trkpt lat="37.810928116631466" lon="15.158561039929518"><ele>454.0</ele><time>2026-05-02T13:17:20Z</time></trkpt><trkpt lat="37.81101061490432" lon="15.158479580311973"><ele>454.0</ele><time>2026-05-02T13:17:21Z</time></trkpt><trkpt lat="37.811105544650786" lon="15.15840082581392"><ele>454.0</ele><time>2026-05-02T13:17:22Z</time></trkpt><trkpt lat="37.8112075008298" lon="15.158322228223245"><ele>452.25</ele><time>2026-05-02T13:17:23Z</time></trkpt><trkpt lat="37.81131290701147" lon="15.158242156773177"><ele>450.5</ele><time>2026-05-02T13:17:24Z</time></trkpt><trkpt lat="37.81142288991292" lon="15.15815993747933"><ele>448.75</ele><time>2026-05-02T13:17:25Z</time></trkpt><trkpt lat="37.81153438557541" lon="15.15807658736213"><ele>447.0</ele><time>2026-05-02T13:17:26Z</time></trkpt><trkpt lat="37.81164688455788" lon="15.157993435414927"><ele>447.0</ele><time>2026-05-02T13:17:27Z</time></trkpt><trkpt lat="37.81176108844781" lon="15.157911912898138"><ele>447.0</ele><time>2026-05-02T13:17:28Z</time></trkpt><trkpt lat="37.811872003028924" lon="15.15781984875975"><ele>447.0</ele><time>2026-05-02T13:17:29Z</time></trkpt><trkpt lat="37.81198940631434" lon="15.157743276536834"><ele>447.0</ele><time>2026-05-02T13:17:30Z</time></trkpt><trkpt lat="37.81210655099192" lon="15.157665501642825"><ele>447.40000000000003</ele><time>2026-05-02T13:17:31Z</time></trkpt><trkpt lat="37.81221535150447" lon="15.157587473997014"><ele>447.80000000000007</ele><time>2026-05-02T13:17:32Z</time></trkpt><trkpt lat="37.81232597801" lon="15.157546271663133"><ele>448.2</ele><time>2026-05-02T13:17:33Z</time></trkpt><trkpt lat="37.812410774676486" lon="15.15747251338938"><ele>448.6</ele><time>2026-05-02T13:17:34Z</time></trkpt><trkpt lat="37.81249860952244" lon="15.157412325193638"><ele>449.0</ele><time>2026-05-02T13:17:35Z</time></trkpt><trkpt lat="37.81258654486224" lon="15.15735377459118"><ele>449.16666666666663</ele><time>2026-05-02T13:17:36Z</time></trkpt><trkpt lat="37.81267607916053" lon="15.157296384915346"><ele>449.3333333333333</ele><time>2026-05-02T13:17:37Z</time></trkpt><trkpt lat="37.81275851786659" lon="15.157232404603455"><ele>449.5</ele><time>2026-05-02T13:17:38Z</time></trkpt><trkpt lat="37.8128397935966" lon="15.157169074744148"><ele>449.66666666666663</ele><time>2026-05-02T13:17:39Z</time></trkpt><trkpt lat="37.8129072078213" lon="15.157118779462733"><ele>449.8333333333333</ele><time>2026-05-02T13:17:40Z</time></trkpt><trkpt lat="37.812965114891945" lon="15.15707505790049"><ele>450.0</ele><time>2026-05-02T13:17:41Z</time></trkpt><trkpt lat="37.813047196712546" lon="15.157013952638167"><ele>450.0</ele><time>2026-05-02T13:17:43Z</time></trkpt><trkpt lat="37.81314929953784" lon="15.156995852550097"><ele>450.0</ele><time>2026-05-02T13:17:45.999Z</time></trkpt><trkpt lat="37.81324534233213" lon="15.15708487156223"><ele>450.0</ele><time>2026-05-02T13:17:47.999Z</time></trkpt><trkpt lat="37.81329265541786" lon="15.15714904213616"><ele>450.0</ele><time>2026-05-02T13:17:49.999Z</time></trkpt><trkpt lat="37.81343448350376" lon="15.157031968490434"><ele>450.4</ele><time>2026-05-02T13:17:50.999Z</time></trkpt><trkpt lat="37.81352503465299" lon="15.156967777942985"><ele>450.8</ele><time>2026-05-02T13:17:52.999Z</time></trkpt><trkpt lat="37.813649207897456" lon="15.156918267566143"><ele>451.20000000000005</ele><time>2026-05-02T13:17:54.999Z</time></trkpt><trkpt lat="37.81372757550073" lon="15.156875116958407"><ele>451.6</ele><time>2026-05-02T13:17:55.999Z</time></trkpt><trkpt lat="37.8137982198821" lon="15.156844226648053"><ele>452.0</ele><time>2026-05-02T13:17:56.999Z</time></trkpt><trkpt lat="37.81386168529567" lon="15.15682015970396"><ele>451.99999999999994</ele><time>2026-05-02T13:17:57.999Z</time></trkpt><trkpt lat="37.8139518614415" lon="15.156800171277201"><ele>452.0</ele><time>2026-05-02T13:17:59.999Z</time></trkpt><trkpt lat="37.814074152769294" lon="15.156803469028214"><ele>452.0</ele><time>2026-05-02T13:18:01.999Z</time></trkpt><trkpt lat="37.81414268590548" lon="15.156811375872513"><ele>452.0</ele><time>2026-05-02T13:18:02.999Z</time></trkpt><trkpt lat="37.81421174672686" lon="15.156818293393059"><ele>451.99999999999994</ele><time>2026-05-02T13:18:03.999Z</time></trkpt><trkpt lat="37.814283312917084" lon="15.156823331736376"><ele>452.0</ele><time>2026-05-02T13:18:04.999Z</time></trkpt><trkpt lat="37.814354342909745" lon="15.15682473920818"><ele>452.8</ele><time>2026-05-02T13:18:05.999Z</time></trkpt><trkpt lat="37.81442418699526" lon="15.156822486170762"><ele>453.6</ele><time>2026-05-02T13:18:06.999Z</time></trkpt><trkpt lat="37.81455967022428" lon="15.156818115746766"><ele>454.40000000000003</ele><time>2026-05-02T13:18:08.999Z</time></trkpt><trkpt lat="37.81462820495242" lon="15.156792514312432"><ele>455.20000000000005</ele><time>2026-05-02T13:18:09.999Z</time></trkpt><trkpt lat="37.81475373522823" lon="15.156763586071296"><ele>456.0</ele><time>2026-05-02T13:18:11.999Z</time></trkpt><trkpt lat="37.81482913190078" lon="15.156760479784525"><ele>456.0</ele><time>2026-05-02T13:18:12.999Z</time></trkpt><trkpt lat="37.81490990762521" lon="15.156721106904868"><ele>456.0</ele><time>2026-05-02T13:18:13.999Z</time></trkpt><trkpt lat="37.81497744193916" lon="15.15665718925682"><ele>456.0</ele><time>2026-05-02T13:18:14.999Z</time></trkpt><trkpt lat="37.815058033777206" lon="15.156616316614924"><ele>456.0</ele><time>2026-05-02T13:18:15.999Z</time></trkpt><trkpt lat="37.81513022597393" lon="15.156558936587597"><ele>456.0</ele><time>2026-05-02T13:18:16.999Z</time></trkpt><trkpt lat="37.81520146230373" lon="15.156526170871706"><ele>456.0</ele><time>2026-05-02T13:18:17.999Z</time></trkpt><trkpt lat="37.815264847864796" lon="15.15649694261725"><ele>456.6666666666667</ele><time>2026-05-02T13:18:18.999Z</time></trkpt><trkpt lat="37.81532021214076" lon="15.156439561465234"><ele>457.33333333333337</ele><time>2026-05-02T13:18:19.999Z</time></trkpt><trkpt lat="37.8153771512415" lon="15.156377691137008"><ele>458.0</ele><time>2026-05-02T13:18:20.999Z</time></trkpt><trkpt lat="37.81542208740744" lon="15.15629870524639"><ele>458.6666666666667</ele><time>2026-05-02T13:18:21.999Z</time></trkpt><trkpt lat="37.81544904362243" lon="15.156202572263364"><ele>459.33333333333337</ele><time>2026-05-02T13:18:22.999Z</time></trkpt><trkpt lat="37.815480089769686" lon="15.156118920903662"><ele>460.0</ele><time>2026-05-02T13:18:23.999Z</time></trkpt><trkpt lat="37.81559465818312" lon="15.156063900860158"><ele>460.00000000000006</ele><time>2026-05-02T13:18:25.999Z</time></trkpt><trkpt lat="37.81565558317006" lon="15.15602333161376"><ele>460.0</ele><time>2026-05-02T13:18:26.999Z</time></trkpt><trkpt lat="37.81571668847146" lon="15.15599878728085"><ele>460.0</ele><time>2026-05-02T13:18:27.999Z</time></trkpt><trkpt lat="37.8157843690393" lon="15.15598249521952"><ele>460.0</ele><time>2026-05-02T13:18:28.999Z</time></trkpt><trkpt lat="37.815845949607926" lon="15.155951114534785"><ele>460.00000000000006</ele><time>2026-05-02T13:18:29.999Z</time></trkpt><trkpt lat="37.81596900364758" lon="15.155888824805224"><ele>460.0</ele><time>2026-05-02T13:18:31.999Z</time></trkpt><trkpt lat="37.81603618124954" lon="15.155835776680782"><ele>460.83333333333337</ele><time>2026-05-02T13:18:32.999Z</time></trkpt><trkpt lat="37.81611115493252" lon="15.155816516927143"><ele>461.6666666666667</ele><time>2026-05-02T13:18:33.999Z</time></trkpt><trkpt lat="37.81618852166285" lon="15.155771232332503"><ele>462.5</ele><time>2026-05-02T13:18:34.999Z</time></trkpt><trkpt lat="37.816266234406115" lon="15.155732652172707"><ele>463.33333333333337</ele><time>2026-05-02T13:18:35.999Z</time></trkpt><trkpt lat="37.816342729110204" lon="15.15568541630981"><ele>464.1666666666667</ele><time>2026-05-02T13:18:36.999Z</time></trkpt><trkpt lat="37.816418698224155" lon="15.155634158805693"><ele>465.0</ele><time>2026-05-02T13:18:37.999Z</time></trkpt><trkpt lat="37.816503061312964" lon="15.155585315781295"><ele>465.6</ele><time>2026-05-02T13:18:38.999Z</time></trkpt><trkpt lat="37.816608281646815" lon="15.155515199639797"><ele>466.2</ele><time>2026-05-02T13:18:39.999Z</time></trkpt><trkpt lat="37.816684982909656" lon="15.15546329430348"><ele>466.79999999999995</ele><time>2026-05-02T13:18:40.999Z</time></trkpt><trkpt lat="37.81676450130316" lon="15.155412014818426"><ele>467.4</ele><time>2026-05-02T13:18:41.999Z</time></trkpt><trkpt lat="37.81684758666951" lon="15.155351736624816"><ele>468.0</ele><time>2026-05-02T13:18:42.999Z</time></trkpt><trkpt lat="37.81693958216655" lon="15.155304266382716"><ele>468.59999999999997</ele><time>2026-05-02T13:18:43.999Z</time></trkpt><trkpt lat="37.81701105769566" lon="15.155233248192543"><ele>469.19999999999993</ele><time>2026-05-02T13:18:44.999Z</time></trkpt><trkpt lat="37.81708281945675" lon="15.15515852666624"><ele>469.8</ele><time>2026-05-02T13:18:45.999Z</time></trkpt><trkpt lat="37.817162706186735" lon="15.155076723573057"><ele>470.4</ele><time>2026-05-02T13:18:46.999Z</time></trkpt><trkpt lat="37.817245659992146" lon="15.155006208214704"><ele>471.0</ele><time>2026-05-02T13:18:47.999Z</time></trkpt><trkpt lat="37.817335691393296" lon="15.154928110854296"><ele>472.0</ele><time>2026-05-02T13:18:49.001Z</time></trkpt><trkpt lat="37.817430591150604" lon="15.154853843942004"><ele>473.0</ele><time>2026-05-02T13:18:50.001Z</time></trkpt><trkpt lat="37.81752963064269" lon="15.154779419925568"><ele>474.0</ele><time>2026-05-02T13:18:51.001Z</time></trkpt><trkpt lat="37.81762154918007" lon="15.154701155107182"><ele>475.0</ele><time>2026-05-02T13:18:52.001Z</time></trkpt><trkpt lat="37.81771363692652" lon="15.154643012331617"><ele>476.0</ele><time>2026-05-02T13:18:53.001Z</time></trkpt><trkpt lat="37.81781038025529" lon="15.154606622676893"><ele>476.99999999999994</ele><time>2026-05-02T13:18:54.001Z</time></trkpt><trkpt lat="37.81789733743363" lon="15.15459011011663"><ele>478.0</ele><time>2026-05-02T13:18:55.001Z</time></trkpt><trkpt lat="37.81796453803933" lon="15.154561866144508"><ele>479.0</ele><time>2026-05-02T13:18:56.001Z</time></trkpt><trkpt lat="37.818018015406956" lon="15.154499631334433"><ele>480.0</ele><time>2026-05-02T13:18:57.001Z</time></trkpt><trkpt lat="37.81808477754368" lon="15.154469161169207"><ele>480.99999999999994</ele><time>2026-05-02T13:18:58.001Z</time></trkpt><trkpt lat="37.818146938613246" lon="15.154416357421027"><ele>482.0</ele><time>2026-05-02T13:18:59.001Z</time></trkpt><trkpt lat="37.81821294159163" lon="15.154355853621771"><ele>481.99999999999994</ele><time>2026-05-02T13:19:00Z</time></trkpt><trkpt lat="37.81826458601351" lon="15.1542630511296"><ele>482.0</ele><time>2026-05-02T13:19:01Z</time></trkpt><trkpt lat="37.81832814940104" lon="15.154178451855827"><ele>482.0</ele><time>2026-05-02T13:19:02Z</time></trkpt><trkpt lat="37.818390441360194" lon="15.154092872708038"><ele>482.0</ele><time>2026-05-02T13:19:03Z</time></trkpt><trkpt lat="37.81844682009892" lon="15.154007242008094"><ele>481.99999999999994</ele><time>2026-05-02T13:19:04Z</time></trkpt><trkpt lat="37.81850256651827" lon="15.153930478476928"><ele>482.0</ele><time>2026-05-02T13:19:05Z</time></trkpt><trkpt lat="37.818583358431134" lon="15.153887234991807"><ele>483.49999999999994</ele><time>2026-05-02T13:19:06Z</time></trkpt><trkpt lat="37.818657466066206" lon="15.153845641879949"><ele>485.0</ele><time>2026-05-02T13:19:07Z</time></trkpt><trkpt lat="37.818734007353946" lon="15.153807995242316"><ele>486.5</ele><time>2026-05-02T13:19:08Z</time></trkpt><trkpt lat="37.81880034782778" lon="15.153760292212453"><ele>488.0</ele><time>2026-05-02T13:19:09Z</time></trkpt><trkpt lat="37.81888000153622" lon="15.153723260739719"><ele>489.49999999999994</ele><time>2026-05-02T13:19:10Z</time></trkpt><trkpt lat="37.818973440186156" lon="15.153679582971149"><ele>491.0</ele><time>2026-05-02T13:19:11Z</time></trkpt><trkpt lat="37.81906564319522" lon="15.153675285058792"><ele>491.0</ele><time>2026-05-02T13:19:12Z</time></trkpt><trkpt lat="37.819162504762595" lon="15.153654936516999"><ele>491.0</ele><time>2026-05-02T13:19:13Z</time></trkpt><trkpt lat="37.81926022964753" lon="15.153634945495375"><ele>491.0</ele><time>2026-05-02T13:19:14Z</time></trkpt><trkpt lat="37.81936405463406" lon="15.153640715584745"><ele>491.0</ele><time>2026-05-02T13:19:15Z</time></trkpt><trkpt lat="37.819465907204" lon="15.153620657559806"><ele>491.0</ele><time>2026-05-02T13:19:16Z</time></trkpt><trkpt lat="37.81956459968323" lon="15.153587584445608"><ele>491.8333333333333</ele><time>2026-05-02T13:19:17Z</time></trkpt><trkpt lat="37.81965400180725" lon="15.153560244783215"><ele>492.66666666666663</ele><time>2026-05-02T13:19:18Z</time></trkpt><trkpt lat="37.81974331752887" lon="15.153550818271853"><ele>493.5</ele><time>2026-05-02T13:19:19Z</time></trkpt><trkpt lat="37.819830937214185" lon="15.153550339034869"><ele>494.33333333333337</ele><time>2026-05-02T13:19:20Z</time></trkpt><trkpt lat="37.81990739187908" lon="15.15354911862793"><ele>495.1666666666667</ele><time>2026-05-02T13:19:21Z</time></trkpt><trkpt lat="37.819987092999334" lon="15.153546605483509"><ele>496.0</ele><time>2026-05-02T13:19:22Z</time></trkpt><trkpt lat="37.8200674397039" lon="15.153563573926672"><ele>496.00000000000006</ele><time>2026-05-02T13:19:23Z</time></trkpt><trkpt lat="37.82014975368724" lon="15.15359316845385"><ele>496.0</ele><time>2026-05-02T13:19:24Z</time></trkpt><trkpt lat="37.82023226316354" lon="15.153617567424515"><ele>496.0</ele><time>2026-05-02T13:19:25Z</time></trkpt><trkpt lat="37.82031650798838" lon="15.153618451363375"><ele>496.0</ele><time>2026-05-02T13:19:26Z</time></trkpt><trkpt lat="37.82039157237964" lon="15.153609969179639"><ele>496.00000000000006</ele><time>2026-05-02T13:19:27Z</time></trkpt><trkpt lat="37.82047177027883" lon="15.153595239430413"><ele>496.0</ele><time>2026-05-02T13:19:28Z</time></trkpt><trkpt lat="37.82055245091078" lon="15.153580125225849"><ele>496.1666666666667</ele><time>2026-05-02T13:19:29Z</time></trkpt><trkpt lat="37.82063531487497" lon="15.153560330452875"><ele>496.33333333333337</ele><time>2026-05-02T13:19:30Z</time></trkpt><trkpt lat="37.82071459464055" lon="15.15354401402294"><ele>496.5</ele><time>2026-05-02T13:19:31Z</time></trkpt><trkpt lat="37.82080014070559" lon="15.153534749504505"><ele>496.66666666666663</ele><time>2026-05-02T13:19:32Z</time></trkpt><trkpt lat="37.82089332291566" lon="15.153532492421842"><ele>496.8333333333333</ele><time>2026-05-02T13:19:33Z</time></trkpt><trkpt lat="37.82098216220227" lon="15.15352480639873"><ele>497.0</ele><time>2026-05-02T13:19:34Z</time></trkpt><trkpt lat="37.821073984812855" lon="15.153524959150849"><ele>496.6</ele><time>2026-05-02T13:19:35Z</time></trkpt><trkpt lat="37.82116090354616" lon="15.153514435857293"><ele>496.20000000000005</ele><time>2026-05-02T13:19:36Z</time></trkpt><trkpt lat="37.82125063060439" lon="15.153494690266054"><ele>495.8</ele><time>2026-05-02T13:19:37Z</time></trkpt><trkpt lat="37.82135240095239" lon="15.153493603820962"><ele>495.4</ele><time>2026-05-02T13:19:38Z</time></trkpt><trkpt lat="37.82145448888544" lon="15.153506317712376"><ele>495.0</ele><time>2026-05-02T13:19:39Z</time></trkpt><trkpt lat="37.82155783620993" lon="15.15352105785423"><ele>495.0</ele><time>2026-05-02T13:19:40Z</time></trkpt><trkpt lat="37.821659791260814" lon="15.153535463275263"><ele>495.0</ele><time>2026-05-02T13:19:41Z</time></trkpt><trkpt lat="37.82174685213512" lon="15.153535196879965"><ele>495.0</ele><time>2026-05-02T13:19:42Z</time></trkpt><trkpt lat="37.82181859730418" lon="15.153527887825684"><ele>495.0</ele><time>2026-05-02T13:19:43Z</time></trkpt><trkpt lat="37.821887904245514" lon="15.153534776142385"><ele>495.0</ele><time>2026-05-02T13:19:44Z</time></trkpt><trkpt lat="37.82197016742309" lon="15.153526505929698"><ele>495.0</ele><time>2026-05-02T13:19:45Z</time></trkpt><trkpt lat="37.822070038445176" lon="15.153511185348247"><ele>494.6</ele><time>2026-05-02T13:19:46Z</time></trkpt><trkpt lat="37.82217098945391" lon="15.153489127374954"><ele>494.2</ele><time>2026-05-02T13:19:47Z</time></trkpt><trkpt lat="37.82227351887352" lon="15.153473253862"><ele>493.79999999999995</ele><time>2026-05-02T13:19:48Z</time></trkpt><trkpt lat="37.82236919294672" lon="15.153437566940038"><ele>493.4</ele><time>2026-05-02T13:19:49Z</time></trkpt><trkpt lat="37.822464691757474" lon="15.153404279414147"><ele>493.0</ele><time>2026-05-02T13:19:50Z</time></trkpt><trkpt lat="37.82255913061276" lon="15.153394906349806"><ele>493.50000000000006</ele><time>2026-05-02T13:19:51Z</time></trkpt><trkpt lat="37.8226479788299" lon="15.153364120473348"><ele>494.0</ele><time>2026-05-02T13:19:52Z</time></trkpt><trkpt lat="37.82273467850314" lon="15.15334761953953"><ele>494.5</ele><time>2026-05-02T13:19:52.999Z</time></trkpt><trkpt lat="37.82280397891621" lon="15.153326013085698"><ele>495.0</ele><time>2026-05-02T13:19:53.999Z</time></trkpt><trkpt lat="37.8228930166894" lon="15.153355896894496"><ele>495.50000000000006</ele><time>2026-05-02T13:19:55.999Z</time></trkpt><trkpt lat="37.82298214828494" lon="15.153330670631576"><ele>496.0</ele><time>2026-05-02T13:20:02.999Z</time></trkpt><trkpt lat="37.82303789313132" lon="15.153244245617215"><ele>495.6666666666667</ele><time>2026-05-02T13:20:04.999Z</time></trkpt><trkpt lat="37.82308894876171" lon="15.153155534045288"><ele>495.33333333333337</ele><time>2026-05-02T13:20:06.999Z</time></trkpt><trkpt lat="37.82313319910898" lon="15.153082801446311"><ele>495.0</ele><time>2026-05-02T13:20:09.999Z</time></trkpt><trkpt lat="37.82319519169558" lon="15.153018345166567"><ele>494.66666666666663</ele><time>2026-05-02T13:20:12.999Z</time></trkpt><trkpt lat="37.82325333184603" lon="15.15293527571297"><ele>494.3333333333333</ele><time>2026-05-02T13:20:13.999Z</time></trkpt><trkpt lat="37.823286474630315" lon="15.152810053311205"><ele>494.0</ele><time>2026-05-02T13:20:14.999Z</time></trkpt><trkpt lat="37.823344049540125" lon="15.152695605195019"><ele>494.0</ele><time>2026-05-02T13:20:15.999Z</time></trkpt><trkpt lat="37.82340504479944" lon="15.15256808804048"><ele>494.0</ele><time>2026-05-02T13:20:16.999Z</time></trkpt><trkpt lat="37.82347028524259" lon="15.152431471519222"><ele>494.0</ele><time>2026-05-02T13:20:17.999Z</time></trkpt><trkpt lat="37.82353912418056" lon="15.15228933834092"><ele>494.0</ele><time>2026-05-02T13:20:18.999Z</time></trkpt><trkpt lat="37.823607869244356" lon="15.152146325378554"><ele>493.75</ele><time>2026-05-02T13:20:19.999Z</time></trkpt><trkpt lat="37.823677457593476" lon="15.152005836595825"><ele>493.5</ele><time>2026-05-02T13:20:20.999Z</time></trkpt><trkpt lat="37.823749495251135" lon="15.151861445668743"><ele>493.25</ele><time>2026-05-02T13:20:21.999Z</time></trkpt><trkpt lat="37.82383115560579" lon="15.15171757544553"><ele>493.0</ele><time>2026-05-02T13:20:22.999Z</time></trkpt><trkpt lat="37.82389791172157" lon="15.151575555426831"><ele>493.75</ele><time>2026-05-02T13:20:23.999Z</time></trkpt><trkpt lat="37.82397077582692" lon="15.151431625106936"><ele>494.5</ele><time>2026-05-02T13:20:24.999Z</time></trkpt><trkpt lat="37.82402868295156" lon="15.151284724830791"><ele>495.25</ele><time>2026-05-02T13:20:25.999Z</time></trkpt><trkpt lat="37.82410665038749" lon="15.151136142040782"><ele>496.0</ele><time>2026-05-02T13:20:26.999Z</time></trkpt><trkpt lat="37.82418103055103" lon="15.150982899400562"><ele>496.0</ele><time>2026-05-02T13:20:27.999Z</time></trkpt><trkpt lat="37.824250726867234" lon="15.150838751515625"><ele>496.0</ele><time>2026-05-02T13:20:28.999Z</time></trkpt><trkpt lat="37.824317771882356" lon="15.1506998363335"><ele>496.0</ele><time>2026-05-02T13:20:29.999Z</time></trkpt><trkpt lat="37.82438615021393" lon="15.150564541519458"><ele>496.0</ele><time>2026-05-02T13:20:30.999Z</time></trkpt><trkpt lat="37.82445695876768" lon="15.15042460059489"><ele>496.25</ele><time>2026-05-02T13:20:31.999Z</time></trkpt><trkpt lat="37.82452782766943" lon="15.150279030508045"><ele>496.5</ele><time>2026-05-02T13:20:32.999Z</time></trkpt><trkpt lat="37.82459711918329" lon="15.150127912331937"><ele>496.75</ele><time>2026-05-02T13:20:33.999Z</time></trkpt><trkpt lat="37.82467058196226" lon="15.149982551961303"><ele>497.0</ele><time>2026-05-02T13:20:34.999Z</time></trkpt><trkpt lat="37.824745310515105" lon="15.149833671631312"><ele>497.25</ele><time>2026-05-02T13:20:35.999Z</time></trkpt><trkpt lat="37.82482387735652" lon="15.14968408834497"><ele>497.5</ele><time>2026-05-02T13:20:36.999Z</time></trkpt><trkpt lat="37.82490168413479" lon="15.149537215712964"><ele>497.75</ele><time>2026-05-02T13:20:37.999Z</time></trkpt><trkpt lat="37.8249905535482" lon="15.149392827793523"><ele>498.0</ele><time>2026-05-02T13:20:38.999Z</time></trkpt><trkpt lat="37.82511126656867" lon="15.149288404239885"><ele>498.0</ele><time>2026-05-02T13:20:39.999Z</time></trkpt><trkpt lat="37.825223043020024" lon="15.149176103691902"><ele>498.0</ele><time>2026-05-02T13:20:40.999Z</time></trkpt><trkpt lat="37.8253417618104" lon="15.149057298058363"><ele>498.0</ele><time>2026-05-02T13:20:41.999Z</time></trkpt><trkpt lat="37.82545834939525" lon="15.148940907747976"><ele>498.0</ele><time>2026-05-02T13:20:42.999Z</time></trkpt><trkpt lat="37.82557638690271" lon="15.148823828981977"><ele>498.33333333333337</ele><time>2026-05-02T13:20:43.999Z</time></trkpt><trkpt lat="37.82568908507603" lon="15.148693925244679"><ele>498.6666666666667</ele><time>2026-05-02T13:20:44.999Z</time></trkpt><trkpt lat="37.825807404523545" lon="15.148574393894354"><ele>499.0</ele><time>2026-05-02T13:20:45.999Z</time></trkpt><trkpt lat="37.82592654526784" lon="15.14845696675569"><ele>498.75</ele><time>2026-05-02T13:20:46.999Z</time></trkpt><trkpt lat="37.82603814248728" lon="15.148343797636423"><ele>498.5</ele><time>2026-05-02T13:20:47.999Z</time></trkpt><trkpt lat="37.82614414113813" lon="15.148230059032944"><ele>498.25</ele><time>2026-05-02T13:20:48.999Z</time></trkpt><trkpt lat="37.82625100686723" lon="15.148119173284393"><ele>498.0</ele><time>2026-05-02T13:20:49.999Z</time></trkpt><trkpt lat="37.826353217257356" lon="15.148010101525115"><ele>498.0</ele><time>2026-05-02T13:20:50.999Z</time></trkpt><trkpt lat="37.82645748477581" lon="15.147905493318119"><ele>498.0</ele><time>2026-05-02T13:20:51.999Z</time></trkpt><trkpt lat="37.82656044965035" lon="15.147800373216796"><ele>498.0</ele><time>2026-05-02T13:20:52.999Z</time></trkpt><trkpt lat="37.82665840489832" lon="15.14769102666586"><ele>498.0</ele><time>2026-05-02T13:20:53.999Z</time></trkpt><trkpt lat="37.826761642806936" lon="15.147583085899084"><ele>498.5</ele><time>2026-05-02T13:20:55Z</time></trkpt><trkpt lat="37.82686016603327" lon="15.14747213790286"><ele>499.0</ele><time>2026-05-02T13:20:56Z</time></trkpt><trkpt lat="37.826952234157815" lon="15.14736154599326"><ele>499.5</ele><time>2026-05-02T13:20:57Z</time></trkpt><trkpt lat="37.82704209558489" lon="15.14724825336862"><ele>500.0</ele><time>2026-05-02T13:20:58Z</time></trkpt><trkpt lat="37.82713917574402" lon="15.147138719122328"><ele>500.0</ele><time>2026-05-02T13:20:59Z</time></trkpt><trkpt lat="37.82723545719686" lon="15.147029499177457"><ele>500.0</ele><time>2026-05-02T13:21:00Z</time></trkpt><trkpt lat="37.82733303959176" lon="15.146924141250983"><ele>500.0</ele><time>2026-05-02T13:21:01Z</time></trkpt><trkpt lat="37.827439304270754" lon="15.146830410195797"><ele>500.0</ele><time>2026-05-02T13:21:02Z</time></trkpt><trkpt lat="37.827552041253085" lon="15.146748602107584"><ele>500.25</ele><time>2026-05-02T13:21:03Z</time></trkpt><trkpt lat="37.82766816737124" lon="15.146678125221198"><ele>500.5</ele><time>2026-05-02T13:21:04Z</time></trkpt><trkpt lat="37.827781276063675" lon="15.146608140705677"><ele>500.75</ele><time>2026-05-02T13:21:05Z</time></trkpt><trkpt lat="37.827889800450066" lon="15.146539542749244"><ele>501.0</ele><time>2026-05-02T13:21:06Z</time></trkpt><trkpt lat="37.82799575951155" lon="15.14646538730311"><ele>502.0</ele><time>2026-05-02T13:21:07Z</time></trkpt><trkpt lat="37.828098777818134" lon="15.146384466461884"><ele>503.0</ele><time>2026-05-02T13:21:08Z</time></trkpt><trkpt lat="37.82820054246384" lon="15.14629799731407"><ele>504.0</ele><time>2026-05-02T13:21:09Z</time></trkpt><trkpt lat="37.828302177791635" lon="15.146213610359101"><ele>505.0</ele><time>2026-05-02T13:21:10Z</time></trkpt><trkpt lat="37.82839996047195" lon="15.146133436654788"><ele>504.75</ele><time>2026-05-02T13:21:11Z</time></trkpt><trkpt lat="37.82849796212277" lon="15.146046326265607"><ele>504.5</ele><time>2026-05-02T13:21:12Z</time></trkpt><trkpt lat="37.828599878533595" lon="15.145978669002073"><ele>504.25</ele><time>2026-05-02T13:21:13Z</time></trkpt><trkpt lat="37.82870382840811" lon="15.145914197511111"><ele>504.0</ele><time>2026-05-02T13:21:14Z</time></trkpt><trkpt lat="37.82880963658002" lon="15.145862306094179"><ele>504.0</ele><time>2026-05-02T13:21:15Z</time></trkpt><trkpt lat="37.82891397172682" lon="15.145803828797451"><ele>504.0</ele><time>2026-05-02T13:21:16Z</time></trkpt><trkpt lat="37.82901967577786" lon="15.145746120654556"><ele>504.0</ele><time>2026-05-02T13:21:17Z</time></trkpt><trkpt lat="37.82912618978448" lon="15.145697958886831"><ele>504.0</ele><time>2026-05-02T13:21:18Z</time></trkpt><trkpt lat="37.82923306935986" lon="15.145646813226525"><ele>505.75</ele><time>2026-05-02T13:21:19Z</time></trkpt><trkpt lat="37.829334305882554" lon="15.145591696590486"><ele>507.5</ele><time>2026-05-02T13:21:20Z</time></trkpt><trkpt lat="37.82944266868726" lon="15.145532524619648"><ele>509.25</ele><time>2026-05-02T13:21:21Z</time></trkpt><trkpt lat="37.829552110607125" lon="15.145475933491582"><ele>511.0</ele><time>2026-05-02T13:21:22Z</time></trkpt><trkpt lat="37.82966002697291" lon="15.145406209689096"><ele>511.0</ele><time>2026-05-02T13:21:23Z</time></trkpt><trkpt lat="37.829771950405714" lon="15.145337725086666"><ele>511.0</ele><time>2026-05-02T13:21:24Z</time></trkpt><trkpt lat="37.82988520247021" lon="15.145273141162187"><ele>511.0</ele><time>2026-05-02T13:21:25Z</time></trkpt><trkpt lat="37.83000089772333" lon="15.145211936816526"><ele>511.0</ele><time>2026-05-02T13:21:26Z</time></trkpt><trkpt lat="37.83011781573013" lon="15.14515462867267"><ele>512.25</ele><time>2026-05-02T13:21:27Z</time></trkpt><trkpt lat="37.830237588264794" lon="15.145098474084653"><ele>513.5</ele><time>2026-05-02T13:21:28Z</time></trkpt><trkpt lat="37.83036259409818" lon="15.14504902402029"><ele>514.75</ele><time>2026-05-02T13:21:29Z</time></trkpt><trkpt lat="37.83049441669956" lon="15.145009822834565"><ele>516.0</ele><time>2026-05-02T13:21:30Z</time></trkpt><trkpt lat="37.83062794980637" lon="15.144974283140332"><ele>516.0</ele><time>2026-05-02T13:21:31Z</time></trkpt><trkpt lat="37.83075824518384" lon="15.144940228961437"><ele>516.0</ele><time>2026-05-02T13:21:32Z</time></trkpt><trkpt lat="37.83089344357" lon="15.144912295549387"><ele>516.0</ele><time>2026-05-02T13:21:33Z</time></trkpt><trkpt lat="37.83102612782842" lon="15.144879485887994"><ele>516.0</ele><time>2026-05-02T13:21:34Z</time></trkpt><trkpt lat="37.8311550240674" lon="15.144850656504383"><ele>516.75</ele><time>2026-05-02T13:21:35Z</time></trkpt><trkpt lat="37.83127998225288" lon="15.144817852483389"><ele>517.5</ele><time>2026-05-02T13:21:36Z</time></trkpt><trkpt lat="37.83140544745174" lon="15.144788231572274"><ele>518.25</ele><time>2026-05-02T13:21:37Z</time></trkpt><trkpt lat="37.8315298138328" lon="15.14475236994606"><ele>519.0</ele><time>2026-05-02T13:21:38Z</time></trkpt><trkpt lat="37.83164619941246" lon="15.144698693214018"><ele>519.0</ele><time>2026-05-02T13:21:39Z</time></trkpt><trkpt lat="37.83177275510839" lon="15.144661755515497"><ele>519.0</ele><time>2026-05-02T13:21:40Z</time></trkpt><trkpt lat="37.83190605914032" lon="15.14461435820124"><ele>519.0</ele><time>2026-05-02T13:21:41Z</time></trkpt><trkpt lat="37.83203706978169" lon="15.144564131987682"><ele>519.0</ele><time>2026-05-02T13:21:42Z</time></trkpt><trkpt lat="37.83216644673441" lon="15.144515770195778"><ele>517.75</ele><time>2026-05-02T13:21:43Z</time></trkpt><trkpt lat="37.832300404950715" lon="15.144467612608425"><ele>516.5</ele><time>2026-05-02T13:21:44Z</time></trkpt><trkpt lat="37.83242025446609" lon="15.144434593553123"><ele>515.25</ele><time>2026-05-02T13:21:45Z</time></trkpt><trkpt lat="37.83252838106616" lon="15.144399232634722"><ele>514.0</ele><time>2026-05-02T13:21:46Z</time></trkpt><trkpt lat="37.83263159227978" lon="15.144387411284987"><ele>513.8</ele><time>2026-05-02T13:21:46.999Z</time></trkpt><trkpt lat="37.83273443254026" lon="15.144388637874636"><ele>513.5999999999999</ele><time>2026-05-02T13:21:47.999Z</time></trkpt><trkpt lat="37.83283835002581" lon="15.144409107721899"><ele>513.4</ele><time>2026-05-02T13:21:48.999Z</time></trkpt><trkpt lat="37.832938364997354" lon="15.144451014130926"><ele>513.1999999999999</ele><time>2026-05-02T13:21:49.999Z</time></trkpt><trkpt lat="37.8330440859877" lon="15.144482816455826"><ele>513.0</ele><time>2026-05-02T13:21:50.999Z</time></trkpt><trkpt lat="37.83315349305714" lon="15.144488081845696"><ele>513.0</ele><time>2026-05-02T13:21:51.999Z</time></trkpt><trkpt lat="37.833266648287875" lon="15.14446890986857"><ele>513.0</ele><time>2026-05-02T13:21:52.999Z</time></trkpt><trkpt lat="37.83338478638472" lon="15.144423324798538"><ele>513.0</ele><time>2026-05-02T13:21:53.999Z</time></trkpt><trkpt lat="37.833501421102476" lon="15.144364856815198"><ele>513.0</ele><time>2026-05-02T13:21:54.999Z</time></trkpt><trkpt lat="37.833629809753596" lon="15.144316909401232"><ele>514.25</ele><time>2026-05-02T13:21:55.999Z</time></trkpt><trkpt lat="37.83376151172906" lon="15.144269603331924"><ele>515.5</ele><time>2026-05-02T13:21:56.999Z</time></trkpt><trkpt lat="37.83389348347031" lon="15.14423116637825"><ele>516.75</ele><time>2026-05-02T13:21:57.999Z</time></trkpt><trkpt lat="37.8340213939781" lon="15.144195557472994"><ele>518.0</ele><time>2026-05-02T13:21:58.999Z</time></trkpt><trkpt lat="37.83415388012252" lon="15.144160136361137"><ele>518.0</ele><time>2026-05-02T13:21:59.999Z</time></trkpt><trkpt lat="37.83427917381113" lon="15.144114110319359"><ele>518.0</ele><time>2026-05-02T13:22:00.999Z</time></trkpt><trkpt lat="37.83439567086726" lon="15.144072142018077"><ele>518.0</ele><time>2026-05-02T13:22:01.999Z</time></trkpt><trkpt lat="37.83449802244833" lon="15.144029128645531"><ele>518.0</ele><time>2026-05-02T13:22:02.999Z</time></trkpt><trkpt lat="37.83459046336181" lon="15.143973743854643"><ele>518.6</ele><time>2026-05-02T13:22:03.999Z</time></trkpt><trkpt lat="37.834681497263055" lon="15.143920499851541"><ele>519.1999999999999</ele><time>2026-05-02T13:22:04.999Z</time></trkpt><trkpt lat="37.83475923480241" lon="15.143864606309172"><ele>519.8</ele><time>2026-05-02T13:22:05.999Z</time></trkpt><trkpt lat="37.83483661899988" lon="15.143802613692067"><ele>520.4</ele><time>2026-05-02T13:22:06.999Z</time></trkpt><trkpt lat="37.83491823153374" lon="15.143758971083182"><ele>521.0</ele><time>2026-05-02T13:22:07.999Z</time></trkpt><trkpt lat="37.835014932934925" lon="15.143732094706477"><ele>521.0</ele><time>2026-05-02T13:22:08.999Z</time></trkpt><trkpt lat="37.83510713844992" lon="15.1437128434328"><ele>521.0</ele><time>2026-05-02T13:22:09.999Z</time></trkpt><trkpt lat="37.83518828232636" lon="15.14370374498524"><ele>521.0</ele><time>2026-05-02T13:22:10.999Z</time></trkpt><trkpt lat="37.835273330769695" lon="15.143688969762305"><ele>521.0</ele><time>2026-05-02T13:22:11.999Z</time></trkpt><trkpt lat="37.83533742324723" lon="15.143684659240416"><ele>521.0</ele><time>2026-05-02T13:22:12.999Z</time></trkpt><trkpt lat="37.83545334012165" lon="15.14370201546442"><ele>521.0</ele><time>2026-05-02T13:22:14.999Z</time></trkpt><trkpt lat="37.83556216978405" lon="15.143720667323617"><ele>521.8</ele><time>2026-05-02T13:22:16.999Z</time></trkpt><trkpt lat="37.83568493674406" lon="15.143749907386383"><ele>522.6</ele><time>2026-05-02T13:22:18.999Z</time></trkpt><trkpt lat="37.83575860884796" lon="15.14375822540986"><ele>523.4</ele><time>2026-05-02T13:22:19.999Z</time></trkpt><trkpt lat="37.83583635471508" lon="15.143775197524548"><ele>524.2</ele><time>2026-05-02T13:22:20.999Z</time></trkpt><trkpt lat="37.83592174951791" lon="15.14380754388268"><ele>525.0</ele><time>2026-05-02T13:22:21.999Z</time></trkpt><trkpt lat="37.8360189087911" lon="15.143839413786237"><ele>525.6</ele><time>2026-05-02T13:22:22.999Z</time></trkpt><trkpt lat="37.836116175251" lon="15.143873859963374"><ele>526.2</ele><time>2026-05-02T13:22:23.999Z</time></trkpt><trkpt lat="37.836207749498854" lon="15.14392519580932"><ele>526.8</ele><time>2026-05-02T13:22:24.999Z</time></trkpt><trkpt lat="37.83629142316097" lon="15.144011440075378"><ele>527.4</ele><time>2026-05-02T13:22:25.999Z</time></trkpt><trkpt lat="37.836392644014246" lon="15.144096202579215"><ele>528.0</ele><time>2026-05-02T13:22:26.999Z</time></trkpt><trkpt lat="37.83649581352924" lon="15.144158374521783"><ele>528.0</ele><time>2026-05-02T13:22:27.999Z</time></trkpt><trkpt lat="37.83658969374376" lon="15.144238795176628"><ele>528.0</ele><time>2026-05-02T13:22:28.999Z</time></trkpt><trkpt lat="37.836682302660186" lon="15.14432397066457"><ele>528.0</ele><time>2026-05-02T13:22:29.999Z</time></trkpt><trkpt lat="37.836779731471395" lon="15.144402143630975"><ele>528.0</ele><time>2026-05-02T13:22:30.999Z</time></trkpt><trkpt lat="37.83687616268759" lon="15.144485998418261"><ele>529.25</ele><time>2026-05-02T13:22:31.999Z</time></trkpt><trkpt lat="37.836974284222876" lon="15.14456154468236"><ele>530.5</ele><time>2026-05-02T13:22:32.999Z</time></trkpt><trkpt lat="37.83707021427804" lon="15.144630126437093"><ele>531.75</ele><time>2026-05-02T13:22:33.999Z</time></trkpt><trkpt lat="37.83717331370706" lon="15.144705932339354"><ele>533.0</ele><time>2026-05-02T13:22:34.999Z</time></trkpt><trkpt lat="37.837284625382985" lon="15.144747313138366"><ele>533.0</ele><time>2026-05-02T13:22:35.999Z</time></trkpt><trkpt lat="37.837405097758" lon="15.144768568735481"><ele>533.0</ele><time>2026-05-02T13:22:36.999Z</time></trkpt><trkpt lat="37.837534654882816" lon="15.144754728569273"><ele>533.0</ele><time>2026-05-02T13:22:37.999Z</time></trkpt><trkpt lat="37.8376522243734" lon="15.144757197547689"><ele>533.0</ele><time>2026-05-02T13:22:38.999Z</time></trkpt><trkpt lat="37.837767603257134" lon="15.144768472289602"><ele>533.4</ele><time>2026-05-02T13:22:39.999Z</time></trkpt><trkpt lat="37.83787909380169" lon="15.144788310859202"><ele>533.8</ele><time>2026-05-02T13:22:40.999Z</time></trkpt><trkpt lat="37.83798882715899" lon="15.144793398701815"><ele>534.2</ele><time>2026-05-02T13:22:41.999Z</time></trkpt><trkpt lat="37.83809764839195" lon="15.144798132860197"><ele>534.6</ele><time>2026-05-02T13:22:42.999Z</time></trkpt><trkpt lat="37.838205848723064" lon="15.1447823441137"><ele>535.0</ele><time>2026-05-02T13:22:43.999Z</time></trkpt><trkpt lat="37.83831134214369" lon="15.144799528913365"><ele>535.0</ele><time>2026-05-02T13:22:44.999Z</time></trkpt><trkpt lat="37.8384102593953" lon="15.144810018497983"><ele>535.0</ele><time>2026-05-02T13:22:45.999Z</time></trkpt><trkpt lat="37.838497107820274" lon="15.144807429012555"><ele>535.0</ele><time>2026-05-02T13:22:46.999Z</time></trkpt><trkpt lat="37.838581119603894" lon="15.144790758637113"><ele>535.0</ele><time>2026-05-02T13:22:47.999Z</time></trkpt><trkpt lat="37.838661945284095" lon="15.144787133975269"><ele>535.0</ele><time>2026-05-02T13:22:48.999Z</time></trkpt><trkpt lat="37.838737475383425" lon="15.14477137290702"><ele>535.0</ele><time>2026-05-02T13:22:49.998Z</time></trkpt><trkpt lat="37.838814268988756" lon="15.144761187783729"><ele>535.0</ele><time>2026-05-02T13:22:50.998Z</time></trkpt><trkpt lat="37.83889268813176" lon="15.144749765647482"><ele>535.0</ele><time>2026-05-02T13:22:51.998Z</time></trkpt><trkpt lat="37.838972656672354" lon="15.1447357872653"><ele>535.0</ele><time>2026-05-02T13:22:52.998Z</time></trkpt><trkpt lat="37.839054069607734" lon="15.144720387922398"><ele>535.0</ele><time>2026-05-02T13:22:53.998Z</time></trkpt><trkpt lat="37.83913873814816" lon="15.14471025800484"><ele>535.0</ele><time>2026-05-02T13:22:54.998Z</time></trkpt><trkpt lat="37.83921871657672" lon="15.144697054012024"><ele>535.0</ele><time>2026-05-02T13:22:55.998Z</time></trkpt><trkpt lat="37.83929989397332" lon="15.144689554527242"><ele>535.3333333333334</ele><time>2026-05-02T13:22:56.998Z</time></trkpt><trkpt lat="37.83937678823392" lon="15.144676410414695"><ele>535.6666666666667</ele><time>2026-05-02T13:22:57.998Z</time></trkpt><trkpt lat="37.839452747209634" lon="15.144664339008857"><ele>536.0</ele><time>2026-05-02T13:22:58.998Z</time></trkpt><trkpt lat="37.839527048643106" lon="15.144649961610023"><ele>536.3333333333334</ele><time>2026-05-02T13:22:59.998Z</time></trkpt><trkpt lat="37.83960221443406" lon="15.144639903975257"><ele>536.6666666666666</ele><time>2026-05-02T13:23:01Z</time></trkpt><trkpt lat="37.839677988302036" lon="15.14463207648204"><ele>537.0</ele><time>2026-05-02T13:23:02Z</time></trkpt><trkpt lat="37.839761996608125" lon="15.144633376560714"><ele>536.9999999999999</ele><time>2026-05-02T13:23:03Z</time></trkpt><trkpt lat="37.839842893770374" lon="15.144621793133979"><ele>537.0</ele><time>2026-05-02T13:23:04Z</time></trkpt><trkpt lat="37.839918609907706" lon="15.144610951563221"><ele>537.0</ele><time>2026-05-02T13:23:05Z</time></trkpt><trkpt lat="37.83998178612193" lon="15.144601796389916"><ele>537.0</ele><time>2026-05-02T13:23:06Z</time></trkpt><trkpt lat="37.84005023684129" lon="15.144591573169839"><ele>537.0</ele><time>2026-05-02T13:23:07Z</time></trkpt><trkpt lat="37.84011916885378" lon="15.14458085217116"><ele>536.9999999999999</ele><time>2026-05-02T13:23:08Z</time></trkpt><trkpt lat="37.84018172309325" lon="15.14455379077989"><ele>537.0</ele><time>2026-05-02T13:23:09Z</time></trkpt><trkpt lat="37.84024802148847" lon="15.144546786774841"><ele>537.1666666666666</ele><time>2026-05-02T13:23:10Z</time></trkpt><trkpt lat="37.84031342250423" lon="15.144534311188977"><ele>537.3333333333334</ele><time>2026-05-02T13:23:11Z</time></trkpt><trkpt lat="37.840382477890444" lon="15.1445171640975"><ele>537.5</ele><time>2026-05-02T13:23:12Z</time></trkpt><trkpt lat="37.84045842638011" lon="15.144508878977458"><ele>537.6666666666667</ele><time>2026-05-02T13:23:13Z</time></trkpt><trkpt lat="37.840527623536936" lon="15.144458598010626"><ele>537.8333333333334</ele><time>2026-05-02T13:23:14Z</time></trkpt><trkpt lat="37.84059763504946" lon="15.144400968151933"><ele>538.0</ele><time>2026-05-02T13:23:15Z</time></trkpt><trkpt lat="37.84066635202208" lon="15.144340608075172"><ele>538.0</ele><time>2026-05-02T13:23:16Z</time></trkpt><trkpt lat="37.84073183090619" lon="15.144269871326197"><ele>538.0</ele><time>2026-05-02T13:23:17Z</time></trkpt><trkpt lat="37.84078668607395" lon="15.144184210553023"><ele>538.0</ele><time>2026-05-02T13:23:18Z</time></trkpt><trkpt lat="37.840843803900796" lon="15.144111302619322"><ele>538.0</ele><time>2026-05-02T13:23:19Z</time></trkpt><trkpt lat="37.84089252522411" lon="15.144048388017373"><ele>538.0</ele><time>2026-05-02T13:23:20Z</time></trkpt><trkpt lat="37.84094708719888" lon="15.144005549850105"><ele>538.0</ele><time>2026-05-02T13:23:21Z</time></trkpt><trkpt lat="37.840993069529006" lon="15.143933703147116"><ele>538.3333333333334</ele><time>2026-05-02T13:23:22Z</time></trkpt><trkpt lat="37.84104361348392" lon="15.143860353530693"><ele>538.6666666666667</ele><time>2026-05-02T13:23:23Z</time></trkpt><trkpt lat="37.84108581436847" lon="15.14377042262861"><ele>539.0</ele><time>2026-05-02T13:23:24Z</time></trkpt><trkpt lat="37.84115182241635" lon="15.14370057524717"><ele>539.3333333333334</ele><time>2026-05-02T13:23:25Z</time></trkpt><trkpt lat="37.84119078521669" lon="15.143612441252989"><ele>539.6666666666666</ele><time>2026-05-02T13:23:26Z</time></trkpt><trkpt lat="37.84124728691076" lon="15.143531746708478"><ele>540.0</ele><time>2026-05-02T13:23:27Z</time></trkpt><trkpt lat="37.84131336507221" lon="15.143467323115944"><ele>540.0</ele><time>2026-05-02T13:23:28Z</time></trkpt><trkpt lat="37.84135928054552" lon="15.143403105423126"><ele>540.0</ele><time>2026-05-02T13:23:29Z</time></trkpt><trkpt lat="37.84140221525525" lon="15.143340779964301"><ele>540.0</ele><time>2026-05-02T13:23:30Z</time></trkpt><trkpt lat="37.84148779920067" lon="15.143212336122213"><ele>540.0</ele><time>2026-05-02T13:23:32Z</time></trkpt><trkpt lat="37.841534560932466" lon="15.143140550421089"><ele>540.0</ele><time>2026-05-02T13:23:33Z</time></trkpt><trkpt lat="37.841577939269506" lon="15.14307058081686"><ele>540.0</ele><time>2026-05-02T13:23:34Z</time></trkpt><trkpt lat="37.841622542931376" lon="15.143003584160178"><ele>540.4285714285714</ele><time>2026-05-02T13:23:35Z</time></trkpt><trkpt lat="37.84166698025156" lon="15.142945708785122"><ele>540.8571428571428</ele><time>2026-05-02T13:23:36Z</time></trkpt><trkpt lat="37.84171798928833" lon="15.14289188307105"><ele>541.2857142857142</ele><time>2026-05-02T13:23:37Z</time></trkpt><trkpt lat="37.8417744385924" lon="15.142835573719928"><ele>541.7142857142857</ele><time>2026-05-02T13:23:38Z</time></trkpt><trkpt lat="37.841831077832694" lon="15.142782106053177"><ele>542.1428571428571</ele><time>2026-05-02T13:23:39Z</time></trkpt><trkpt lat="37.8418849396982" lon="15.142730130536185"><ele>542.5714285714286</ele><time>2026-05-02T13:23:40Z</time></trkpt><trkpt lat="37.84193761767477" lon="15.14267929732164"><ele>543.0</ele><time>2026-05-02T13:23:41Z</time></trkpt><trkpt lat="37.84203359201966" lon="15.14258559146852"><ele>543.0</ele><time>2026-05-02T13:23:43Z</time></trkpt><trkpt lat="37.84208724584898" lon="15.142533385044137"><ele>543.0</ele><time>2026-05-02T13:23:44Z</time></trkpt><trkpt lat="37.84214279380069" lon="15.142478153459821"><ele>543.0</ele><time>2026-05-02T13:23:45Z</time></trkpt><trkpt lat="37.842202546271785" lon="15.14241764919291"><ele>543.0</ele><time>2026-05-02T13:23:46Z</time></trkpt><trkpt lat="37.84223553258693" lon="15.142327465628682"><ele>543.0</ele><time>2026-05-02T13:23:46.999Z</time></trkpt><trkpt lat="37.84228976062026" lon="15.142270170960023"><ele>543.0</ele><time>2026-05-02T13:23:47.999Z</time></trkpt><trkpt lat="37.84234898872732" lon="15.14221438591586"><ele>543.0</ele><time>2026-05-02T13:23:48.999Z</time></trkpt><trkpt lat="37.84240848192294" lon="15.142159661030341"><ele>543.0</ele><time>2026-05-02T13:23:49.999Z</time></trkpt><trkpt lat="37.842491286392594" lon="15.142137128165219"><ele>543.0</ele><time>2026-05-02T13:23:50.999Z</time></trkpt><trkpt lat="37.84255344209802" lon="15.142075718379788"><ele>543.0</ele><time>2026-05-02T13:23:51.999Z</time></trkpt><trkpt lat="37.84261886646636" lon="15.142010094136628"><ele>543.0</ele><time>2026-05-02T13:23:52.999Z</time></trkpt><trkpt lat="37.84268877762817" lon="15.14195198049343"><ele>543.0</ele><time>2026-05-02T13:23:53.999Z</time></trkpt><trkpt lat="37.842763843411724" lon="15.141896825287787"><ele>543.0</ele><time>2026-05-02T13:23:54.999Z</time></trkpt><trkpt lat="37.84284808143877" lon="15.1418656649966"><ele>543.0</ele><time>2026-05-02T13:23:55.999Z</time></trkpt><trkpt lat="37.842938010366694" lon="15.141827117856854"><ele>543.0</ele><time>2026-05-02T13:23:56.999Z</time></trkpt><trkpt lat="37.84302987610638" lon="15.141792312343258"><ele>543.0</ele><time>2026-05-02T13:23:57.999Z</time></trkpt><trkpt lat="37.84312439951523" lon="15.141752481142769"><ele>543.0</ele><time>2026-05-02T13:23:58.999Z</time></trkpt><trkpt lat="37.84322159929696" lon="15.1417105543791"><ele>543.0</ele><time>2026-05-02T13:23:59.999Z</time></trkpt><trkpt lat="37.84331645513505" lon="15.14166717058216"><ele>543.0</ele><time>2026-05-02T13:24:00.999Z</time></trkpt><trkpt lat="37.843401164344314" lon="15.141624243936878"><ele>543.0</ele><time>2026-05-02T13:24:01.999Z</time></trkpt><trkpt lat="37.84347851071904" lon="15.14158541883909"><ele>543.0</ele><time>2026-05-02T13:24:02.999Z</time></trkpt><trkpt lat="37.84355528005107" lon="15.141549974921485"><ele>543.0</ele><time>2026-05-02T13:24:03.999Z</time></trkpt><trkpt lat="37.843639267922605" lon="15.14151370333208"><ele>543.0</ele><time>2026-05-02T13:24:04.999Z</time></trkpt><trkpt lat="37.8437235968487" lon="15.141474917737261"><ele>543.0</ele><time>2026-05-02T13:24:05.999Z</time></trkpt><trkpt lat="37.84380969715407" lon="15.141425372926554"><ele>542.6</ele><time>2026-05-02T13:24:06.999Z</time></trkpt><trkpt lat="37.8438978261305" lon="15.14136804632655"><ele>542.1999999999999</ele><time>2026-05-02T13:24:07.999Z</time></trkpt><trkpt lat="37.84398613514493" lon="15.141305928629807"><ele>541.8</ele><time>2026-05-02T13:24:08.999Z</time></trkpt><trkpt lat="37.844065506530306" lon="15.141237351881312"><ele>541.4</ele><time>2026-05-02T13:24:09.999Z</time></trkpt><trkpt lat="37.844139964483865" lon="15.141146190800788"><ele>541.0</ele><time>2026-05-02T13:24:10.999Z</time></trkpt><trkpt lat="37.844210485813385" lon="15.141052279415844"><ele>541.0</ele><time>2026-05-02T13:24:11.999Z</time></trkpt><trkpt lat="37.84427131364591" lon="15.140943332218754"><ele>541.0</ele><time>2026-05-02T13:24:12.999Z</time></trkpt><trkpt lat="37.84431643614694" lon="15.140820832901822"><ele>541.0</ele><time>2026-05-02T13:24:13.999Z</time></trkpt><trkpt lat="37.84435301555377" lon="15.140694174524505"><ele>541.0</ele><time>2026-05-02T13:24:14.999Z</time></trkpt><trkpt lat="37.84438724198314" lon="15.140576654660556"><ele>541.0</ele><time>2026-05-02T13:24:15.999Z</time></trkpt><trkpt lat="37.84442200759872" lon="15.140457283039023"><ele>541.2</ele><time>2026-05-02T13:24:16.999Z</time></trkpt><trkpt lat="37.84444587463633" lon="15.140328847956079"><ele>541.4000000000001</ele><time>2026-05-02T13:24:17.999Z</time></trkpt><trkpt lat="37.844469776649696" lon="15.140203338079004"><ele>541.6</ele><time>2026-05-02T13:24:18.999Z</time></trkpt><trkpt lat="37.84449355110545" lon="15.14007800683976"><ele>541.8000000000001</ele><time>2026-05-02T13:24:19.999Z</time></trkpt><trkpt lat="37.84450799958189" lon="15.139945915480986"><ele>542.0</ele><time>2026-05-02T13:24:20.999Z</time></trkpt><trkpt lat="37.84455869064413" lon="15.139822649246232"><ele>542.0</ele><time>2026-05-02T13:24:21.999Z</time></trkpt><trkpt lat="37.84458818579353" lon="15.139689824617195"><ele>542.0</ele><time>2026-05-02T13:24:22.999Z</time></trkpt><trkpt lat="37.84462603488792" lon="15.139554297354563"><ele>542.0</ele><time>2026-05-02T13:24:23.999Z</time></trkpt><trkpt lat="37.84467308060258" lon="15.139424652569259"><ele>542.0</ele><time>2026-05-02T13:24:24.999Z</time></trkpt><trkpt lat="37.8447105057658" lon="15.139278804899014"><ele>542.0</ele><time>2026-05-02T13:24:25.999Z</time></trkpt><trkpt lat="37.84475300692164" lon="15.13915027722339"><ele>542.0</ele><time>2026-05-02T13:24:26.999Z</time></trkpt><trkpt lat="37.84479098577324" lon="15.13902703027846"><ele>542.0</ele><time>2026-05-02T13:24:27.999Z</time></trkpt><trkpt lat="37.8448254999269" lon="15.138906809023359"><ele>542.0</ele><time>2026-05-02T13:24:28.999Z</time></trkpt><trkpt lat="37.84486502108796" lon="15.138783836955136"><ele>542.0</ele><time>2026-05-02T13:24:29.999Z</time></trkpt><trkpt lat="37.8449001945462" lon="15.138656015516927"><ele>542.6</ele><time>2026-05-02T13:24:30.999Z</time></trkpt><trkpt lat="37.84493580139974" lon="15.138526910988121"><ele>543.2</ele><time>2026-05-02T13:24:31.999Z</time></trkpt><trkpt lat="37.84497311903702" lon="15.138395358511435"><ele>543.8</ele><time>2026-05-02T13:24:32.999Z</time></trkpt><trkpt lat="37.84501418805382" lon="15.138263654040959"><ele>544.4</ele><time>2026-05-02T13:24:33.999Z</time></trkpt><trkpt lat="37.8450629129894" lon="15.138136994244704"><ele>545.0</ele><time>2026-05-02T13:24:34.999Z</time></trkpt><trkpt lat="37.84510637115639" lon="15.13800406493423"><ele>546.0</ele><time>2026-05-02T13:24:35.999Z</time></trkpt><trkpt lat="37.84514722265816" lon="15.13787436198957"><ele>547.0</ele><time>2026-05-02T13:24:36.999Z</time></trkpt><trkpt lat="37.84518336743471" lon="15.137745587787073"><ele>548.0</ele><time>2026-05-02T13:24:37.999Z</time></trkpt><trkpt lat="37.84522770055356" lon="15.137622935936227"><ele>549.0</ele><time>2026-05-02T13:24:38.999Z</time></trkpt><trkpt lat="37.845261624287744" lon="15.137496609073441"><ele>550.0</ele><time>2026-05-02T13:24:39.999Z</time></trkpt><trkpt lat="37.84529913214936" lon="15.137375473800118"><ele>551.0</ele><time>2026-05-02T13:24:40.999Z</time></trkpt><trkpt lat="37.84533552477038" lon="15.137260004653411"><ele>552.0</ele><time>2026-05-02T13:24:41.999Z</time></trkpt><trkpt lat="37.845374073463105" lon="15.137146736932433"><ele>553.0</ele><time>2026-05-02T13:24:42.999Z</time></trkpt><trkpt lat="37.845408398091834" lon="15.137030313561537"><ele>554.0</ele><time>2026-05-02T13:24:43.999Z</time></trkpt><trkpt lat="37.84544186709268" lon="15.136917883015814"><ele>555.0</ele><time>2026-05-02T13:24:44.999Z</time></trkpt><trkpt lat="37.845479533330604" lon="15.136807777776536"><ele>555.0</ele><time>2026-05-02T13:24:45.999Z</time></trkpt><trkpt lat="37.845515003907465" lon="15.136691667571464"><ele>555.0</ele><time>2026-05-02T13:24:46.999Z</time></trkpt><trkpt lat="37.84555096661462" lon="15.136577318787184"><ele>555.0</ele><time>2026-05-02T13:24:47.999Z</time></trkpt><trkpt lat="37.845587757785125" lon="15.136459602941237"><ele>555.0</ele><time>2026-05-02T13:24:48.999Z</time></trkpt><trkpt lat="37.8456248472539" lon="15.136344900761205"><ele>555.0</ele><time>2026-05-02T13:24:49.998Z</time></trkpt><trkpt lat="37.84565942487032" lon="15.13622567224834"><ele>555.2</ele><time>2026-05-02T13:24:50.998Z</time></trkpt><trkpt lat="37.845695434514084" lon="15.13610729975652"><ele>555.4</ele><time>2026-05-02T13:24:51.998Z</time></trkpt><trkpt lat="37.84573216053694" lon="15.135989048224802"><ele>555.6</ele><time>2026-05-02T13:24:52.998Z</time></trkpt><trkpt lat="37.84576091740768" lon="15.135861223784957"><ele>555.8</ele><time>2026-05-02T13:24:53.998Z</time></trkpt><trkpt lat="37.84579833350849" lon="15.135737691803095"><ele>556.0</ele><time>2026-05-02T13:24:54.998Z</time></trkpt><trkpt lat="37.84584073841787" lon="15.135611322709257"><ele>556.8</ele><time>2026-05-02T13:24:55.998Z</time></trkpt><trkpt lat="37.84588041559326" lon="15.135475203464276"><ele>557.6</ele><time>2026-05-02T13:24:56.998Z</time></trkpt><trkpt lat="37.845914125073634" lon="15.13533980777957"><ele>558.4</ele><time>2026-05-02T13:24:57.998Z</time></trkpt><trkpt lat="37.84595014241711" lon="15.135207561672374"><ele>559.2</ele><time>2026-05-02T13:24:58.998Z</time></trkpt><trkpt lat="37.84600051012272" lon="15.135084030754344"><ele>560.0</ele><time>2026-05-02T13:24:59.998Z</time></trkpt><trkpt lat="37.84603392456342" lon="15.134958441731575"><ele>560.4</ele><time>2026-05-02T13:25:00.998Z</time></trkpt><trkpt lat="37.84604827679134" lon="15.134831086800919"><ele>560.8</ele><time>2026-05-02T13:25:01.998Z</time></trkpt><trkpt lat="37.84607656142132" lon="15.134712442057287"><ele>561.2</ele><time>2026-05-02T13:25:02.998Z</time></trkpt><trkpt lat="37.84610770151757" lon="15.134599376993117"><ele>561.6</ele><time>2026-05-02T13:25:03.998Z</time></trkpt><trkpt lat="37.84613852791275" lon="15.134488898550543"><ele>562.0</ele><time>2026-05-02T13:25:04.998Z</time></trkpt><trkpt lat="37.84615026521216" lon="15.134370813619162"><ele>562.0</ele><time>2026-05-02T13:25:05.998Z</time></trkpt><trkpt lat="37.84617013026758" lon="15.134260011684528"><ele>562.0</ele><time>2026-05-02T13:25:07Z</time></trkpt><trkpt lat="37.84619293072489" lon="15.134144267073717"><ele>562.0</ele><time>2026-05-02T13:25:08Z</time></trkpt><trkpt lat="37.846217239261364" lon="15.134023591406482"><ele>562.0</ele><time>2026-05-02T13:25:09Z</time></trkpt><trkpt lat="37.84624057480126" lon="15.133902395042384"><ele>562.0</ele><time>2026-05-02T13:25:10Z</time></trkpt><trkpt lat="37.84626311304815" lon="15.133774220228911"><ele>562.6</ele><time>2026-05-02T13:25:11Z</time></trkpt><trkpt lat="37.84628183074568" lon="15.133642633407796"><ele>563.2</ele><time>2026-05-02T13:25:12Z</time></trkpt><trkpt lat="37.84630321672087" lon="15.13350872728909"><ele>563.8</ele><time>2026-05-02T13:25:13Z</time></trkpt><trkpt lat="37.84632647994343" lon="15.133374030534023"><ele>564.4</ele><time>2026-05-02T13:25:14Z</time></trkpt><trkpt lat="37.84635102674226" lon="15.13323688097277"><ele>565.0</ele><time>2026-05-02T13:25:15Z</time></trkpt><trkpt lat="37.84637554706355" lon="15.133096840311948"><ele>565.25</ele><time>2026-05-02T13:25:16Z</time></trkpt><trkpt lat="37.84641707455816" lon="15.132959994669333"><ele>565.5</ele><time>2026-05-02T13:25:17Z</time></trkpt><trkpt lat="37.84644371687389" lon="15.132812740813026"><ele>565.75</ele><time>2026-05-02T13:25:18Z</time></trkpt><trkpt lat="37.84647119457774" lon="15.13266086970542"><ele>566.0</ele><time>2026-05-02T13:25:19Z</time></trkpt><trkpt lat="37.84649966668709" lon="15.132503502443555"><ele>566.5</ele><time>2026-05-02T13:25:20Z</time></trkpt><trkpt lat="37.846528715811544" lon="15.132343389312824"><ele>567.0</ele><time>2026-05-02T13:25:21Z</time></trkpt><trkpt lat="37.84655785665616" lon="15.132182950966719"><ele>567.5</ele><time>2026-05-02T13:25:22Z</time></trkpt><trkpt lat="37.84658742935926" lon="15.132020134949313"><ele>568.0</ele><time>2026-05-02T13:25:23Z</time></trkpt><trkpt lat="37.84661732242293" lon="15.131855555154349"><ele>568.0</ele><time>2026-05-02T13:25:24Z</time></trkpt><trkpt lat="37.846648158640704" lon="15.131685486121011"><ele>568.0</ele><time>2026-05-02T13:25:25Z</time></trkpt><trkpt lat="37.84668058303997" lon="15.131505514696752"><ele>568.0</ele><time>2026-05-02T13:25:26Z</time></trkpt><trkpt lat="37.84671299421104" lon="15.13132405250848"><ele>568.0</ele><time>2026-05-02T13:25:27Z</time></trkpt><trkpt lat="37.84674582875554" lon="15.131141955437572"><ele>568.25</ele><time>2026-05-02T13:25:28Z</time></trkpt><trkpt lat="37.846778741242865" lon="15.13095890644869"><ele>568.5</ele><time>2026-05-02T13:25:29Z</time></trkpt><trkpt lat="37.84679777964621" lon="15.130777028077208"><ele>568.75</ele><time>2026-05-02T13:25:30Z</time></trkpt><trkpt lat="37.84683421889625" lon="15.130598936396842"><ele>569.0</ele><time>2026-05-02T13:25:31Z</time></trkpt><trkpt lat="37.846866537669364" lon="15.130423266003607"><ele>569.75</ele><time>2026-05-02T13:25:32Z</time></trkpt><trkpt lat="37.8468963959668" lon="15.13024850229144"><ele>570.5</ele><time>2026-05-02T13:25:33Z</time></trkpt><trkpt lat="37.84692438286825" lon="15.130076856536354"><ele>571.25</ele><time>2026-05-02T13:25:34Z</time></trkpt><trkpt lat="37.84695877411278" lon="15.12990952286723"><ele>572.0</ele><time>2026-05-02T13:25:35Z</time></trkpt><trkpt lat="37.846989713838425" lon="15.129746450886364"><ele>573.0</ele><time>2026-05-02T13:25:36Z</time></trkpt><trkpt lat="37.847016483975246" lon="15.12958609708546"><ele>574.0</ele><time>2026-05-02T13:25:37Z</time></trkpt><trkpt lat="37.847040568989016" lon="15.129428608684988"><ele>575.0</ele><time>2026-05-02T13:25:38Z</time></trkpt><trkpt lat="37.847067715906874" lon="15.129266731923606"><ele>576.0</ele><time>2026-05-02T13:25:39Z</time></trkpt><trkpt lat="37.847095641801104" lon="15.129105956531504"><ele>576.5</ele><time>2026-05-02T13:25:40Z</time></trkpt><trkpt lat="37.84713740046577" lon="15.128950952033607"><ele>577.0</ele><time>2026-05-02T13:25:41Z</time></trkpt><trkpt lat="37.847165347566225" lon="15.128791750602193"><ele>577.5</ele><time>2026-05-02T13:25:42Z</time></trkpt><trkpt lat="37.84719215848594" lon="15.128622890716489"><ele>578.0</ele><time>2026-05-02T13:25:43Z</time></trkpt><trkpt lat="37.84721599477574" lon="15.128455234452897"><ele>578.0</ele><time>2026-05-02T13:25:44Z</time></trkpt><trkpt lat="37.847232836733134" lon="15.128284612979032"><ele>578.0</ele><time>2026-05-02T13:25:45Z</time></trkpt><trkpt lat="37.84724664562278" lon="15.128115604899609"><ele>578.0</ele><time>2026-05-02T13:25:46Z</time></trkpt><trkpt lat="37.84725346774323" lon="15.127945336172967"><ele>578.0</ele><time>2026-05-02T13:25:47Z</time></trkpt><trkpt lat="37.84726061076746" lon="15.127778068892255"><ele>578.75</ele><time>2026-05-02T13:25:48Z</time></trkpt><trkpt lat="37.84726582773907" lon="15.127613200108616"><ele>579.5</ele><time>2026-05-02T13:25:49Z</time></trkpt><trkpt lat="37.84726875666142" lon="15.127455759324247"><ele>580.25</ele><time>2026-05-02T13:25:50Z</time></trkpt><trkpt lat="37.84727999075584" lon="15.1272986755136"><ele>581.0</ele><time>2026-05-02T13:25:51Z</time></trkpt><trkpt lat="37.8473019180536" lon="15.12713760092202"><ele>582.0</ele><time>2026-05-02T13:25:52Z</time></trkpt><trkpt lat="37.847328331083766" lon="15.126978229035206"><ele>583.0</ele><time>2026-05-02T13:25:53Z</time></trkpt><trkpt lat="37.847348624060324" lon="15.126817233507479"><ele>584.0</ele><time>2026-05-02T13:25:54Z</time></trkpt><trkpt lat="37.847353957773905" lon="15.126657907698803"><ele>585.0</ele><time>2026-05-02T13:25:55Z</time></trkpt><trkpt lat="37.84734564264461" lon="15.126499352486702"><ele>585.5</ele><time>2026-05-02T13:25:56Z</time></trkpt><trkpt lat="37.847319103697565" lon="15.126344248225214"><ele>586.0</ele><time>2026-05-02T13:25:57Z</time></trkpt><trkpt lat="37.847286235205594" lon="15.12619037181531"><ele>586.5</ele><time>2026-05-02T13:25:58Z</time></trkpt><trkpt lat="37.84725207650221" lon="15.1260381144095"><ele>587.0</ele><time>2026-05-02T13:25:59Z</time></trkpt><trkpt lat="37.84722004012386" lon="15.125888598536827"><ele>587.0</ele><time>2026-05-02T13:26:00Z</time></trkpt><trkpt lat="37.84719447192079" lon="15.125743700451597"><ele>587.0</ele><time>2026-05-02T13:26:01Z</time></trkpt><trkpt lat="37.847171854202976" lon="15.12560240631549"><ele>587.0</ele><time>2026-05-02T13:26:02Z</time></trkpt><trkpt lat="37.847158032869636" lon="15.12547438210565"><ele>587.0</ele><time>2026-05-02T13:26:02.999Z</time></trkpt><trkpt lat="37.84716204069592" lon="15.125354507576736"><ele>587.0</ele><time>2026-05-02T13:26:03.999Z</time></trkpt><trkpt lat="37.8471981227734" lon="15.125248931765546"><ele>588.4</ele><time>2026-05-02T13:26:04.999Z</time></trkpt><trkpt lat="37.847266648023854" lon="15.125152051001196"><ele>589.8000000000001</ele><time>2026-05-02T13:26:05.999Z</time></trkpt><trkpt lat="37.84734748194904" lon="15.125088963725986"><ele>591.2</ele><time>2026-05-02T13:26:06.999Z</time></trkpt><trkpt lat="37.847434836516626" lon="15.125047393360706"><ele>592.6</ele><time>2026-05-02T13:26:07.999Z</time></trkpt><trkpt lat="37.847528220948966" lon="15.125032605318667"><ele>594.0</ele><time>2026-05-02T13:26:08.999Z</time></trkpt><trkpt lat="37.84762298856663" lon="15.125063507475803"><ele>594.5</ele><time>2026-05-02T13:26:09.999Z</time></trkpt><trkpt lat="37.84769943807172" lon="15.125122159720739"><ele>595.0</ele><time>2026-05-02T13:26:10.999Z</time></trkpt><trkpt lat="37.847759963508494" lon="15.125196217542419"><ele>595.5</ele><time>2026-05-02T13:26:11.999Z</time></trkpt><trkpt lat="37.847822779251175" lon="15.125284043380054"><ele>596.0</ele><time>2026-05-02T13:26:12.999Z</time></trkpt><trkpt lat="37.84788832128318" lon="15.125360131356297"><ele>596.5</ele><time>2026-05-02T13:26:13.999Z</time></trkpt><trkpt lat="37.847945517638856" lon="15.125429959445974"><ele>597.0</ele><time>2026-05-02T13:26:14.999Z</time></trkpt><trkpt lat="37.84801535100694" lon="15.125466643737909"><ele>597.0</ele><time>2026-05-02T13:26:15.999Z</time></trkpt><trkpt lat="37.84808706683714" lon="15.12546909118195"><ele>597.0</ele><time>2026-05-02T13:26:16.999Z</time></trkpt><trkpt lat="37.84816040052925" lon="15.125434669223035"><ele>597.0</ele><time>2026-05-02T13:26:17.999Z</time></trkpt><trkpt lat="37.84822154973259" lon="15.12536660308038"><ele>597.0</ele><time>2026-05-02T13:26:18.999Z</time></trkpt><trkpt lat="37.84827384608465" lon="15.125272419659968"><ele>597.0</ele><time>2026-05-02T13:26:19.999Z</time></trkpt><trkpt lat="37.84831206608992" lon="15.125155089966396"><ele>597.0</ele><time>2026-05-02T13:26:20.999Z</time></trkpt><trkpt lat="37.84835830461843" lon="15.125047255359807"><ele>597.0</ele><time>2026-05-02T13:26:21.999Z</time></trkpt><trkpt lat="37.848409142998015" lon="15.12493499635028"><ele>597.0</ele><time>2026-05-02T13:26:22.999Z</time></trkpt><trkpt lat="37.84846357649892" lon="15.124821904676457"><ele>597.0</ele><time>2026-05-02T13:26:23.999Z</time></trkpt><trkpt lat="37.84852328025697" lon="15.12471395607369"><ele>597.0</ele><time>2026-05-02T13:26:24.999Z</time></trkpt><trkpt lat="37.84857728460709" lon="15.124594252491109"><ele>597.0</ele><time>2026-05-02T13:26:25.999Z</time></trkpt><trkpt lat="37.84863652635842" lon="15.124474764768433"><ele>599.5</ele><time>2026-05-02T13:26:26.999Z</time></trkpt><trkpt lat="37.84869280942126" lon="15.12434915152526"><ele>602.0</ele><time>2026-05-02T13:26:27.999Z</time></trkpt><trkpt lat="37.848756536564466" lon="15.12422297897571"><ele>604.5</ele><time>2026-05-02T13:26:28.999Z</time></trkpt><trkpt lat="37.84881467417728" lon="15.12409516722764"><ele>607.0</ele><time>2026-05-02T13:26:29.999Z</time></trkpt><trkpt lat="37.84887484915734" lon="15.123971187564383"><ele>607.75</ele><time>2026-05-02T13:26:30.999Z</time></trkpt><trkpt lat="37.84893333512759" lon="15.12384818596189"><ele>608.5</ele><time>2026-05-02T13:26:31.999Z</time></trkpt><trkpt lat="37.848992644237605" lon="15.123722459404863"><ele>609.25</ele><time>2026-05-02T13:26:32.999Z</time></trkpt><trkpt lat="37.84905149314265" lon="15.123591865398781"><ele>610.0</ele><time>2026-05-02T13:26:33.999Z</time></trkpt><trkpt lat="37.84911376040669" lon="15.123456030164762"><ele>610.0</ele><time>2026-05-02T13:26:34.999Z</time></trkpt><trkpt lat="37.84917657943823" lon="15.123320479255863"><ele>610.0</ele><time>2026-05-02T13:26:35.999Z</time></trkpt><trkpt lat="37.84923445830763" lon="15.123180361541893"><ele>610.0</ele><time>2026-05-02T13:26:36.999Z</time></trkpt><trkpt lat="37.84929543589272" lon="15.1230458670144"><ele>610.0</ele><time>2026-05-02T13:26:37.999Z</time></trkpt><trkpt lat="37.84935045361613" lon="15.12290856321299"><ele>611.25</ele><time>2026-05-02T13:26:38.999Z</time></trkpt><trkpt lat="37.84941126499621" lon="15.12277464060078"><ele>612.5</ele><time>2026-05-02T13:26:39.999Z</time></trkpt><trkpt lat="37.8494668694055" lon="15.12263001728736"><ele>613.75</ele><time>2026-05-02T13:26:40.999Z</time></trkpt><trkpt lat="37.84952140403" lon="15.12248620829712"><ele>615.0</ele><time>2026-05-02T13:26:41.999Z</time></trkpt><trkpt lat="37.84958235428282" lon="15.1223408559716"><ele>616.5</ele><time>2026-05-02T13:26:42.999Z</time></trkpt><trkpt lat="37.84963821990003" lon="15.122195682193716"><ele>618.0</ele><time>2026-05-02T13:26:43.999Z</time></trkpt><trkpt lat="37.849698985895394" lon="15.122053855496969"><ele>619.5</ele><time>2026-05-02T13:26:44.999Z</time></trkpt><trkpt lat="37.84975048464968" lon="15.121913332876291"><ele>621.0</ele><time>2026-05-02T13:26:45.999Z</time></trkpt><trkpt lat="37.84979890509126" lon="15.121775582419712"><ele>621.0</ele><time>2026-05-02T13:26:46.999Z</time></trkpt><trkpt lat="37.84984674145274" lon="15.121625339181554"><ele>621.0</ele><time>2026-05-02T13:26:47.999Z</time></trkpt><trkpt lat="37.849892634618065" lon="15.121470184004101"><ele>621.0</ele><time>2026-05-02T13:26:48.999Z</time></trkpt><trkpt lat="37.84994426207775" lon="15.121323048488227"><ele>621.0</ele><time>2026-05-02T13:26:49.999Z</time></trkpt><trkpt lat="37.849980037482894" lon="15.121179509253237"><ele>621.5</ele><time>2026-05-02T13:26:50.999Z</time></trkpt><trkpt lat="37.85002317403415" lon="15.121040966163658"><ele>622.0</ele><time>2026-05-02T13:26:51.999Z</time></trkpt><trkpt lat="37.85004918613648" lon="15.120907358800036"><ele>622.5</ele><time>2026-05-02T13:26:52.999Z</time></trkpt><trkpt lat="37.85009941833824" lon="15.120760352185327"><ele>623.0</ele><time>2026-05-02T13:26:53.999Z</time></trkpt><trkpt lat="37.85014569062046" lon="15.12062843370155"><ele>623.3333333333333</ele><time>2026-05-02T13:26:54.999Z</time></trkpt><trkpt lat="37.85018714933176" lon="15.120517587527566"><ele>623.6666666666666</ele><time>2026-05-02T13:26:55.999Z</time></trkpt><trkpt lat="37.85022021063864" lon="15.12040986916586"><ele>624.0</ele><time>2026-05-02T13:26:56.999Z</time></trkpt><trkpt lat="37.85022334328649" lon="15.120311000940836"><ele>624.3333333333334</ele><time>2026-05-02T13:26:57.999Z</time></trkpt><trkpt lat="37.850199268012176" lon="15.120214318411726"><ele>624.6666666666667</ele><time>2026-05-02T13:26:58.999Z</time></trkpt><trkpt lat="37.850139453697615" lon="15.120141496141308"><ele>625.0</ele><time>2026-05-02T13:26:59.999Z</time></trkpt><trkpt lat="37.85006278555962" lon="15.120085859841861"><ele>625.0</ele><time>2026-05-02T13:27:00.999Z</time></trkpt><trkpt lat="37.8499707495724" lon="15.120059316300342"><ele>625.0</ele><time>2026-05-02T13:27:01.999Z</time></trkpt><trkpt lat="37.84986220484307" lon="15.120072868026751"><ele>625.0</ele><time>2026-05-02T13:27:02.998Z</time></trkpt><trkpt lat="37.8497514106851" lon="15.12011826157202"><ele>625.0</ele><time>2026-05-02T13:27:03.998Z</time></trkpt><trkpt lat="37.8496309216253" lon="15.120164549126471"><ele>625.0</ele><time>2026-05-02T13:27:04.998Z</time></trkpt><trkpt lat="37.849504314954196" lon="15.120210937130054"><ele>625.0</ele><time>2026-05-02T13:27:05.998Z</time></trkpt><trkpt lat="37.8493727294043" lon="15.12024789619677"><ele>625.0</ele><time>2026-05-02T13:27:06.998Z</time></trkpt><trkpt lat="37.84924100196665" lon="15.120290753783161"><ele>625.0</ele><time>2026-05-02T13:27:07.998Z</time></trkpt><trkpt lat="37.84911216795406" lon="15.120339365366485"><ele>625.0</ele><time>2026-05-02T13:27:08.998Z</time></trkpt><trkpt lat="37.84897995010971" lon="15.120373140007025"><ele>625.25</ele><time>2026-05-02T13:27:09.998Z</time></trkpt><trkpt lat="37.84885344606492" lon="15.120408147609442"><ele>625.5</ele><time>2026-05-02T13:27:10.998Z</time></trkpt><trkpt lat="37.848740724869785" lon="15.120447578127115"><ele>625.75</ele><time>2026-05-02T13:27:11.998Z</time></trkpt><trkpt lat="37.84863537763541" lon="15.12047775224393"><ele>626.0</ele><time>2026-05-02T13:27:13Z</time></trkpt><trkpt lat="37.8485404856263" lon="15.120503262915346"><ele>625.8333333333333</ele><time>2026-05-02T13:27:14Z</time></trkpt><trkpt lat="37.84845412526641" lon="15.12052143286437"><ele>625.6666666666666</ele><time>2026-05-02T13:27:15Z</time></trkpt><trkpt lat="37.84837262424785" lon="15.120510706549604"><ele>625.5</ele><time>2026-05-02T13:27:16Z</time></trkpt><trkpt lat="37.8482960256757" lon="15.120463442347022"><ele>625.3333333333334</ele><time>2026-05-02T13:27:17Z</time></trkpt><trkpt lat="37.84823273218357" lon="15.120395653718749"><ele>625.1666666666667</ele><time>2026-05-02T13:27:18Z</time></trkpt><trkpt lat="37.848186833258914" lon="15.120301780477968"><ele>625.0</ele><time>2026-05-02T13:27:19Z</time></trkpt><trkpt lat="37.84815907700239" lon="15.120194481384042"><ele>625.0</ele><time>2026-05-02T13:27:20Z</time></trkpt><trkpt lat="37.8481373729524" lon="15.120085314513457"><ele>625.0</ele><time>2026-05-02T13:27:21Z</time></trkpt><trkpt lat="37.84813087491642" lon="15.119989655966275"><ele>625.0</ele><time>2026-05-02T13:27:22Z</time></trkpt><trkpt lat="37.84814202804686" lon="15.119897345714504"><ele>625.0</ele><time>2026-05-02T13:27:23Z</time></trkpt><trkpt lat="37.848175722674" lon="15.119808820445897"><ele>625.0</ele><time>2026-05-02T13:27:24Z</time></trkpt><trkpt lat="37.8482347981043" lon="15.11973005890876"><ele>625.0</ele><time>2026-05-02T13:27:25Z</time></trkpt><trkpt lat="37.84831670940562" lon="15.119670922620973"><ele>625.8</ele><time>2026-05-02T13:27:26Z</time></trkpt><trkpt lat="37.8484080766344" lon="15.119619711943724"><ele>626.6</ele><time>2026-05-02T13:27:27Z</time></trkpt><trkpt lat="37.84850692497372" lon="15.119584678955569"><ele>627.4</ele><time>2026-05-02T13:27:28Z</time></trkpt><trkpt lat="37.84860277291935" lon="15.119548112257965"><ele>628.2</ele><time>2026-05-02T13:27:29Z</time></trkpt><trkpt lat="37.848693092993194" lon="15.119512356247952"><ele>629.0</ele><time>2026-05-02T13:27:30Z</time></trkpt><trkpt lat="37.84877951304153" lon="15.119481126855625"><ele>629.2</ele><time>2026-05-02T13:27:31Z</time></trkpt><trkpt lat="37.84886816049297" lon="15.119448049858601"><ele>629.4</ele><time>2026-05-02T13:27:32Z</time></trkpt><trkpt lat="37.84895865058991" lon="15.119413604758877"><ele>629.6</ele><time>2026-05-02T13:27:33Z</time></trkpt><trkpt lat="37.84904673541181" lon="15.119382111149804"><ele>629.8</ele><time>2026-05-02T13:27:34Z</time></trkpt><trkpt lat="37.84913145851734" lon="15.119351221500441"><ele>630.0</ele><time>2026-05-02T13:27:35Z</time></trkpt><trkpt lat="37.84921158078531" lon="15.11932208065221"><ele>630.0</ele><time>2026-05-02T13:27:36Z</time></trkpt><trkpt lat="37.84928669081074" lon="15.119293184470372"><ele>630.0</ele><time>2026-05-02T13:27:37Z</time></trkpt><trkpt lat="37.84936304685914" lon="15.119264172603437"><ele>630.0</ele><time>2026-05-02T13:27:38Z</time></trkpt><trkpt lat="37.849437438485516" lon="15.119236250886626"><ele>630.0</ele><time>2026-05-02T13:27:39Z</time></trkpt><trkpt lat="37.84951114505591" lon="15.11920699147933"><ele>630.0</ele><time>2026-05-02T13:27:40Z</time></trkpt><trkpt lat="37.84959038893099" lon="15.119175136382953"><ele>630.0</ele><time>2026-05-02T13:27:41Z</time></trkpt><trkpt lat="37.84967539435926" lon="15.119141250471227"><ele>630.6</ele><time>2026-05-02T13:27:42Z</time></trkpt><trkpt lat="37.8497669323633" lon="15.119111506469581"><ele>631.2</ele><time>2026-05-02T13:27:43Z</time></trkpt><trkpt lat="37.84986215683183" lon="15.119071512568958"><ele>631.8</ele><time>2026-05-02T13:27:44Z</time></trkpt><trkpt lat="37.849962774150114" lon="15.119036797281902"><ele>632.4</ele><time>2026-05-02T13:27:45Z</time></trkpt><trkpt lat="37.850058885719534" lon="15.118986738147095"><ele>633.0</ele><time>2026-05-02T13:27:46Z</time></trkpt><trkpt lat="37.85015396555469" lon="15.118932283396603"><ele>634.8</ele><time>2026-05-02T13:27:47Z</time></trkpt><trkpt lat="37.850247595670844" lon="15.11887272902025"><ele>636.5999999999999</ele><time>2026-05-02T13:27:48Z</time></trkpt><trkpt lat="37.850339463557994" lon="15.11880946823771"><ele>638.4000000000001</ele><time>2026-05-02T13:27:49Z</time></trkpt><trkpt lat="37.85042681398543" lon="15.118745877785775"><ele>640.2</ele><time>2026-05-02T13:27:50Z</time></trkpt><trkpt lat="37.850512670442576" lon="15.118676861583337"><ele>642.0</ele><time>2026-05-02T13:27:51Z</time></trkpt><trkpt lat="37.85059519550905" lon="15.118604393645391"><ele>642.0</ele><time>2026-05-02T13:27:52Z</time></trkpt><trkpt lat="37.85067320728306" lon="15.118528459617504"><ele>642.0</ele><time>2026-05-02T13:27:53Z</time></trkpt><trkpt lat="37.850746471289916" lon="15.11845159518668"><ele>642.0</ele><time>2026-05-02T13:27:54Z</time></trkpt><trkpt lat="37.85081599849521" lon="15.118375542453323"><ele>642.0</ele><time>2026-05-02T13:27:55Z</time></trkpt><trkpt lat="37.850881497218246" lon="15.118297168130772"><ele>642.0</ele><time>2026-05-02T13:27:56Z</time></trkpt><trkpt lat="37.850945919742244" lon="15.118214582985836"><ele>642.3333333333334</ele><time>2026-05-02T13:27:57Z</time></trkpt><trkpt lat="37.85100733385488" lon="15.118129879936292"><ele>642.6666666666666</ele><time>2026-05-02T13:27:58Z</time></trkpt><trkpt lat="37.851065502215626" lon="15.118041490204984"><ele>643.0</ele><time>2026-05-02T13:27:59Z</time></trkpt><trkpt lat="37.851123705578864" lon="15.117955873741055"><ele>643.3333333333333</ele><time>2026-05-02T13:28:00Z</time></trkpt><trkpt lat="37.8511814869919" lon="15.11787221660134"><ele>643.6666666666666</ele><time>2026-05-02T13:28:01Z</time></trkpt><trkpt lat="37.851241075440555" lon="15.117796565824632"><ele>644.0</ele><time>2026-05-02T13:28:02Z</time></trkpt><trkpt lat="37.85128804595003" lon="15.11772521858413"><ele>644.0</ele><time>2026-05-02T13:28:03Z</time></trkpt><trkpt lat="37.85133423188657" lon="15.11765596047261"><ele>644.0</ele><time>2026-05-02T13:28:04Z</time></trkpt><trkpt lat="37.851384265145775" lon="15.117583452155031"><ele>644.0</ele><time>2026-05-02T13:28:04.999Z</time></trkpt><trkpt lat="37.85143703918063" lon="15.117506422695477"><ele>644.0</ele><time>2026-05-02T13:28:05.999Z</time></trkpt><trkpt lat="37.85149246822211" lon="15.117428695012169"><ele>644.0</ele><time>2026-05-02T13:28:06.999Z</time></trkpt><trkpt lat="37.85154747153822" lon="15.117349567494157"><ele>644.0</ele><time>2026-05-02T13:28:07.999Z</time></trkpt><trkpt lat="37.85160281666565" lon="15.117267486517726"><ele>644.0</ele><time>2026-05-02T13:28:08.999Z</time></trkpt><trkpt lat="37.85165873481461" lon="15.11718441124655"><ele>644.0</ele><time>2026-05-02T13:28:09.999Z</time></trkpt><trkpt lat="37.851716458788694" lon="15.117102155770155"><ele>644.0</ele><time>2026-05-02T13:28:10.999Z</time></trkpt><trkpt lat="37.85177458446097" lon="15.117019158345427"><ele>644.0</ele><time>2026-05-02T13:28:11.999Z</time></trkpt><trkpt lat="37.85183164333523" lon="15.116930968315945"><ele>644.0</ele><time>2026-05-02T13:28:12.999Z</time></trkpt><trkpt lat="37.85188989092877" lon="15.116844902643019"><ele>644.0</ele><time>2026-05-02T13:28:13.999Z</time></trkpt><trkpt lat="37.851947098034586" lon="15.116759416256665"><ele>644.2</ele><time>2026-05-02T13:28:14.999Z</time></trkpt><trkpt lat="37.85200576318299" lon="15.116673810973289"><ele>644.4000000000001</ele><time>2026-05-02T13:28:15.999Z</time></trkpt><trkpt lat="37.85206928721311" lon="15.116586105236081"><ele>644.6</ele><time>2026-05-02T13:28:16.999Z</time></trkpt><trkpt lat="37.852134032210515" lon="15.116497825006377"><ele>644.8</ele><time>2026-05-02T13:28:17.999Z</time></trkpt><trkpt lat="37.85219822697379" lon="15.11640782870274"><ele>645.0</ele><time>2026-05-02T13:28:18.999Z</time></trkpt><trkpt lat="37.85226101270272" lon="15.116317740345938"><ele>645.0</ele><time>2026-05-02T13:28:19.999Z</time></trkpt><trkpt lat="37.852321065528706" lon="15.116225705229997"><ele>645.0</ele><time>2026-05-02T13:28:20.999Z</time></trkpt><trkpt lat="37.8523839874888" lon="15.116134669317347"><ele>645.0</ele><time>2026-05-02T13:28:21.999Z</time></trkpt><trkpt lat="37.85245131915375" lon="15.11604150703206"><ele>645.0</ele><time>2026-05-02T13:28:22.999Z</time></trkpt><trkpt lat="37.85251754143111" lon="15.115943387655781"><ele>645.0</ele><time>2026-05-02T13:28:23.999Z</time></trkpt><trkpt lat="37.852583084488515" lon="15.115847423615744"><ele>645.0</ele><time>2026-05-02T13:28:24.999Z</time></trkpt><trkpt lat="37.85264942940803" lon="15.115754289071228"><ele>645.0</ele><time>2026-05-02T13:28:25.999Z</time></trkpt><trkpt lat="37.85271779038864" lon="15.115656468589865"><ele>645.0</ele><time>2026-05-02T13:28:26.999Z</time></trkpt><trkpt lat="37.85278960991654" lon="15.115559430935209"><ele>645.0</ele><time>2026-05-02T13:28:27.999Z</time></trkpt><trkpt lat="37.85285875110036" lon="15.115456144366291"><ele>645.0</ele><time>2026-05-02T13:28:28.999Z</time></trkpt><trkpt lat="37.85292920298534" lon="15.115352452260735"><ele>645.0</ele><time>2026-05-02T13:28:29.999Z</time></trkpt><trkpt lat="37.853001693961374" lon="15.115250444705408"><ele>645.0</ele><time>2026-05-02T13:28:30.999Z</time></trkpt><trkpt lat="37.853075069192336" lon="15.11514548126149"><ele>645.0</ele><time>2026-05-02T13:28:31.999Z</time></trkpt><trkpt lat="37.85314992648595" lon="15.11503934125596"><ele>645.0</ele><time>2026-05-02T13:28:32.999Z</time></trkpt><trkpt lat="37.8532257691291" lon="15.114934428825736"><ele>645.0</ele><time>2026-05-02T13:28:33.999Z</time></trkpt><trkpt lat="37.85330042429903" lon="15.114826718537502"><ele>644.6</ele><time>2026-05-02T13:28:34.999Z</time></trkpt><trkpt lat="37.853366199905956" lon="15.114721709015619"><ele>644.2</ele><time>2026-05-02T13:28:35.999Z</time></trkpt><trkpt lat="37.85343376085493" lon="15.11462163767894"><ele>643.8</ele><time>2026-05-02T13:28:36.999Z</time></trkpt><trkpt lat="37.85350215633126" lon="15.114529046735745"><ele>643.4</ele><time>2026-05-02T13:28:37.999Z</time></trkpt><trkpt lat="37.853565661022564" lon="15.11443533393049"><ele>643.0</ele><time>2026-05-02T13:28:38.999Z</time></trkpt><trkpt lat="37.85364065387825" lon="15.114349563126172"><ele>642.4</ele><time>2026-05-02T13:28:39.999Z</time></trkpt><trkpt lat="37.85370696013231" lon="15.11424455404392"><ele>641.8</ele><time>2026-05-02T13:28:40.999Z</time></trkpt><trkpt lat="37.85377175313289" lon="15.114133553490767"><ele>641.2</ele><time>2026-05-02T13:28:41.999Z</time></trkpt><trkpt lat="37.85383144928441" lon="15.114017337451646"><ele>640.6</ele><time>2026-05-02T13:28:42.999Z</time></trkpt><trkpt lat="37.85388863094255" lon="15.11389778876441"><ele>640.0</ele><time>2026-05-02T13:28:43.999Z</time></trkpt><trkpt lat="37.85394502632546" lon="15.113775915285608"><ele>639.5</ele><time>2026-05-02T13:28:44.999Z</time></trkpt><trkpt lat="37.85400176666806" lon="15.1136489589532"><ele>639.0</ele><time>2026-05-02T13:28:45.999Z</time></trkpt><trkpt lat="37.85405588006689" lon="15.113519553031834"><ele>638.5</ele><time>2026-05-02T13:28:46.999Z</time></trkpt><trkpt lat="37.85410679264399" lon="15.113385128541108"><ele>638.0</ele><time>2026-05-02T13:28:47.999Z</time></trkpt><trkpt lat="37.854152072093825" lon="15.113258122951205"><ele>636.8</ele><time>2026-05-02T13:28:48.999Z</time></trkpt><trkpt lat="37.854193930657274" lon="15.113130445002133"><ele>635.5999999999999</ele><time>2026-05-02T13:28:49.999Z</time></trkpt><trkpt lat="37.85423135673674" lon="15.113003793555345"><ele>634.4000000000001</ele><time>2026-05-02T13:28:50.999Z</time></trkpt><trkpt lat="37.8542594427292" lon="15.112872553643323"><ele>633.2</ele><time>2026-05-02T13:28:51.999Z</time></trkpt><trkpt lat="37.854280657235364" lon="15.112745277949134"><ele>632.0</ele><time>2026-05-02T13:28:52.999Z</time></trkpt><trkpt lat="37.85429885383584" lon="15.112616075666123"><ele>631.0</ele><time>2026-05-02T13:28:53.999Z</time></trkpt><trkpt lat="37.85431260537152" lon="15.112486806381563"><ele>630.0</ele><time>2026-05-02T13:28:54.999Z</time></trkpt><trkpt lat="37.85432727495675" lon="15.112354814357499"><ele>629.0</ele><time>2026-05-02T13:28:55.999Z</time></trkpt><trkpt lat="37.854342111317585" lon="15.112222178034369"><ele>628.0</ele><time>2026-05-02T13:28:56.999Z</time></trkpt><trkpt lat="37.85435319374915" lon="15.112092582107632"><ele>627.0</ele><time>2026-05-02T13:28:57.999Z</time></trkpt><trkpt lat="37.85436331110898" lon="15.111971689418358"><ele>627.0</ele><time>2026-05-02T13:28:58.999Z</time></trkpt><trkpt lat="37.85437796615852" lon="15.111858279161941"><ele>627.0</ele><time>2026-05-02T13:28:59.999Z</time></trkpt><trkpt lat="37.85439261857322" lon="15.111738108546174"><ele>627.0</ele><time>2026-05-02T13:29:00.998Z</time></trkpt><trkpt lat="37.85441496449223" lon="15.111618465764314"><ele>627.0</ele><time>2026-05-02T13:29:01.998Z</time></trkpt><trkpt lat="37.854449676095015" lon="15.111497294541925"><ele>627.0</ele><time>2026-05-02T13:29:02.998Z</time></trkpt><trkpt lat="37.85449731775535" lon="15.111375372008613"><ele>627.5</ele><time>2026-05-02T13:29:03.998Z</time></trkpt><trkpt lat="37.85454981675015" lon="15.111252013569999"><ele>628.0</ele><time>2026-05-02T13:29:04.998Z</time></trkpt><trkpt lat="37.85460726130974" lon="15.111124412414293"><ele>628.5</ele><time>2026-05-02T13:29:05.998Z</time></trkpt><trkpt lat="37.85466600321724" lon="15.110999748050999"><ele>629.0</ele><time>2026-05-02T13:29:06.998Z</time></trkpt><trkpt lat="37.85472588626165" lon="15.110882254675623"><ele>629.0</ele><time>2026-05-02T13:29:07.998Z</time></trkpt><trkpt lat="37.854786485778" lon="15.110768083614184"><ele>629.0</ele><time>2026-05-02T13:29:08.998Z</time></trkpt><trkpt lat="37.854850112820564" lon="15.110658634954094"><ele>629.0</ele><time>2026-05-02T13:29:09.998Z</time></trkpt><trkpt lat="37.85491689558703" lon="15.110554914229347"><ele>629.0</ele><time>2026-05-02T13:29:10.998Z</time></trkpt><trkpt lat="37.854982815619465" lon="15.110456185710671"><ele>629.0</ele><time>2026-05-02T13:29:11.998Z</time></trkpt><trkpt lat="37.855042339120025" lon="15.110353838388416"><ele>629.8</ele><time>2026-05-02T13:29:12.998Z</time></trkpt><trkpt lat="37.855094329770296" lon="15.110246617600367"><ele>630.5999999999999</ele><time>2026-05-02T13:29:13.998Z</time></trkpt><trkpt lat="37.855139375117076" lon="15.110137584789044"><ele>631.4</ele><time>2026-05-02T13:29:14.998Z</time></trkpt><trkpt lat="37.85518445253441" lon="15.110028204351508"><ele>632.1999999999999</ele><time>2026-05-02T13:29:15.998Z</time></trkpt><trkpt lat="37.85524264041357" lon="15.109927272843551"><ele>633.0</ele><time>2026-05-02T13:29:16.998Z</time></trkpt><trkpt lat="37.85530507884341" lon="15.109831815383478"><ele>634.1999999999999</ele><time>2026-05-02T13:29:17.998Z</time></trkpt><trkpt lat="37.85537125860072" lon="15.109732967089146"><ele>635.4</ele><time>2026-05-02T13:29:19Z</time></trkpt><trkpt lat="37.85544259718036" lon="15.109645949396635"><ele>636.5999999999999</ele><time>2026-05-02T13:29:20Z</time></trkpt><trkpt lat="37.855525300156785" lon="15.109572230842389"><ele>637.8</ele><time>2026-05-02T13:29:21Z</time></trkpt><trkpt lat="37.85561515498477" lon="15.109501200330278"><ele>639.0</ele><time>2026-05-02T13:29:22Z</time></trkpt><trkpt lat="37.855707594476236" lon="15.109429856497774"><ele>639.0</ele><time>2026-05-02T13:29:23Z</time></trkpt><trkpt lat="37.85579303917731" lon="15.109364833135917"><ele>639.0</ele><time>2026-05-02T13:29:24Z</time></trkpt><trkpt lat="37.855870118923875" lon="15.1092987058093"><ele>639.0</ele><time>2026-05-02T13:29:25Z</time></trkpt><trkpt lat="37.85594903507028" lon="15.10923762578706"><ele>639.0</ele><time>2026-05-02T13:29:26Z</time></trkpt><trkpt lat="37.856027074942496" lon="15.109178486784716"><ele>639.0</ele><time>2026-05-02T13:29:27Z</time></trkpt><trkpt lat="37.85610096987127" lon="15.10911255578847"><ele>639.6</ele><time>2026-05-02T13:29:28Z</time></trkpt><trkpt lat="37.85617162947194" lon="15.109033356932715"><ele>640.2</ele><time>2026-05-02T13:29:29Z</time></trkpt><trkpt lat="37.85623369998936" lon="15.1089387361054"><ele>640.8000000000001</ele><time>2026-05-02T13:29:30Z</time></trkpt><trkpt lat="37.856285395613625" lon="15.108832924917955"><ele>641.4</ele><time>2026-05-02T13:29:31Z</time></trkpt><trkpt lat="37.856331152007755" lon="15.108721158503768"><ele>642.0</ele><time>2026-05-02T13:29:32Z</time></trkpt><trkpt lat="37.85636088440759" lon="15.108595484259958"><ele>642.0</ele><time>2026-05-02T13:29:33Z</time></trkpt><trkpt lat="37.8563826933068" lon="15.108478161531421"><ele>642.0</ele><time>2026-05-02T13:29:34Z</time></trkpt><trkpt lat="37.856390873513185" lon="15.108352076677196"><ele>642.0</ele><time>2026-05-02T13:29:35Z</time></trkpt><trkpt lat="37.85638378485644" lon="15.10822704454115"><ele>642.0</ele><time>2026-05-02T13:29:36Z</time></trkpt><trkpt lat="37.85636678792948" lon="15.108094063340358"><ele>642.0</ele><time>2026-05-02T13:29:37Z</time></trkpt><trkpt lat="37.85633834586781" lon="15.107955998592539"><ele>643.8</ele><time>2026-05-02T13:29:38Z</time></trkpt><trkpt lat="37.856308239315794" lon="15.10781969458809"><ele>645.6</ele><time>2026-05-02T13:29:39Z</time></trkpt><trkpt lat="37.85627681597452" lon="15.10768542328678"><ele>647.4</ele><time>2026-05-02T13:29:40Z</time></trkpt><trkpt lat="37.85624738009114" lon="15.107556222676973"><ele>649.1999999999999</ele><time>2026-05-02T13:29:41Z</time></trkpt><trkpt lat="37.8562164721622" lon="15.107423219260365"><ele>651.0</ele><time>2026-05-02T13:29:42Z</time></trkpt><trkpt lat="37.85617927896923" lon="15.107277146419689"><ele>653.0</ele><time>2026-05-02T13:29:43Z</time></trkpt><trkpt lat="37.856133258981025" lon="15.107112718986933"><ele>655.0</ele><time>2026-05-02T13:29:44Z</time></trkpt><trkpt lat="37.856088839245245" lon="15.106950800609878"><ele>657.0</ele><time>2026-05-02T13:29:45Z</time></trkpt><trkpt lat="37.85607042172404" lon="15.106797372902692"><ele>659.0</ele><time>2026-05-02T13:29:46Z</time></trkpt><trkpt lat="37.85604060361607" lon="15.106662726832132"><ele>659.4000000000001</ele><time>2026-05-02T13:29:47Z</time></trkpt><trkpt lat="37.85600831894398" lon="15.106516943070996"><ele>659.8</ele><time>2026-05-02T13:29:48Z</time></trkpt><trkpt lat="37.85597815282484" lon="15.10638142478109"><ele>660.2</ele><time>2026-05-02T13:29:49Z</time></trkpt><trkpt lat="37.85593154994958" lon="15.106246053789924"><ele>660.5999999999999</ele><time>2026-05-02T13:29:50Z</time></trkpt><trkpt lat="37.85590911729153" lon="15.106122009603887"><ele>661.0</ele><time>2026-05-02T13:29:51Z</time></trkpt><trkpt lat="37.855896703912045" lon="15.106005941212537"><ele>661.25</ele><time>2026-05-02T13:29:52Z</time></trkpt><trkpt lat="37.85586648548282" lon="15.105857815345342"><ele>661.5</ele><time>2026-05-02T13:29:53Z</time></trkpt><trkpt lat="37.855821383887694" lon="15.10568985975655"><ele>661.75</ele><time>2026-05-02T13:29:54Z</time></trkpt><trkpt lat="37.855784186240605" lon="15.105495408951429"><ele>662.0</ele><time>2026-05-02T13:29:55Z</time></trkpt><trkpt lat="37.85574051650027" lon="15.105298612271259"><ele>662.0</ele><time>2026-05-02T13:29:56Z</time></trkpt><trkpt lat="37.85568551331695" lon="15.105074848255704"><ele>662.0</ele><time>2026-05-02T13:29:57Z</time></trkpt><trkpt lat="37.855659438180275" lon="15.104880526314352"><ele>662.0</ele><time>2026-05-02T13:29:58Z</time></trkpt><trkpt lat="37.855617489852875" lon="15.104694581557563"><ele>662.0</ele><time>2026-05-02T13:29:59Z</time></trkpt><trkpt lat="37.855556836376614" lon="15.104520883119608"><ele>662.0</ele><time>2026-05-02T13:30:00Z</time></trkpt><trkpt lat="37.855532412451204" lon="15.104335334403368"><ele>662.0</ele><time>2026-05-02T13:30:01Z</time></trkpt><trkpt lat="37.85550419256989" lon="15.104155991286982"><ele>662.0</ele><time>2026-05-02T13:30:02Z</time></trkpt><trkpt lat="37.855476439174794" lon="15.10398511113575"><ele>663.5</ele><time>2026-05-02T13:30:03Z</time></trkpt><trkpt lat="37.85547714576767" lon="15.10379978248489"><ele>665.0</ele><time>2026-05-02T13:30:04Z</time></trkpt><trkpt lat="37.85548226282997" lon="15.103621589859104"><ele>666.5</ele><time>2026-05-02T13:30:05Z</time></trkpt><trkpt lat="37.85548029466635" lon="15.103450896788653"><ele>668.0</ele><time>2026-05-02T13:30:06Z</time></trkpt><trkpt lat="37.85549036214343" lon="15.103281488659828"><ele>668.25</ele><time>2026-05-02T13:30:07Z</time></trkpt><trkpt lat="37.855524745211476" lon="15.10311475194093"><ele>668.5</ele><time>2026-05-02T13:30:08Z</time></trkpt><trkpt lat="37.85557554844024" lon="15.102966724773083"><ele>668.75</ele><time>2026-05-02T13:30:09Z</time></trkpt><trkpt lat="37.85563329837829" lon="15.102843254745514"><ele>669.0</ele><time>2026-05-02T13:30:09.999Z</time></trkpt><trkpt lat="37.85567800732473" lon="15.102728647431853"><ele>669.0</ele><time>2026-05-02T13:30:10.999Z</time></trkpt><trkpt lat="37.85572031096563" lon="15.102623017616413"><ele>669.0</ele><time>2026-05-02T13:30:11.999Z</time></trkpt><trkpt lat="37.855761482392175" lon="15.102521846300004"><ele>669.0</ele><time>2026-05-02T13:30:12.999Z</time></trkpt><trkpt lat="37.855799276905515" lon="15.102423759092519"><ele>669.0</ele><time>2026-05-02T13:30:13.999Z</time></trkpt><trkpt lat="37.8558368127164" lon="15.102324213522477"><ele>669.0</ele><time>2026-05-02T13:30:14.999Z</time></trkpt><trkpt lat="37.85586972518201" lon="15.102223116273764"><ele>669.0</ele><time>2026-05-02T13:30:15.999Z</time></trkpt><trkpt lat="37.855911599933975" lon="15.10213058897151"><ele>669.0</ele><time>2026-05-02T13:30:16.999Z</time></trkpt><trkpt lat="37.855951878795906" lon="15.10203045689461"><ele>669.0</ele><time>2026-05-02T13:30:17.999Z</time></trkpt><trkpt lat="37.855992450297165" lon="15.101928803837868"><ele>669.0</ele><time>2026-05-02T13:30:18.999Z</time></trkpt><trkpt lat="37.856033202311984" lon="15.101825837252495"><ele>669.0</ele><time>2026-05-02T13:30:19.999Z</time></trkpt><trkpt lat="37.85607178235298" lon="15.101719743125269"><ele>669.0</ele><time>2026-05-02T13:30:20.999Z</time></trkpt><trkpt lat="37.856113285329045" lon="15.101614020908306"><ele>669.0</ele><time>2026-05-02T13:30:21.999Z</time></trkpt><trkpt lat="37.85615527213379" lon="15.101505235483348"><ele>669.0</ele><time>2026-05-02T13:30:22.999Z</time></trkpt><trkpt lat="37.85619623904613" lon="15.10139708365066"><ele>669.0</ele><time>2026-05-02T13:30:23.999Z</time></trkpt><trkpt lat="37.85623493410261" lon="15.101288891506792"><ele>669.0</ele><time>2026-05-02T13:30:24.999Z</time></trkpt><trkpt lat="37.8562708332714" lon="15.101194866131316"><ele>669.0</ele><time>2026-05-02T13:30:25.999Z</time></trkpt><trkpt lat="37.856300977411664" lon="15.10110267929177"><ele>669.0</ele><time>2026-05-02T13:30:26.999Z</time></trkpt><trkpt lat="37.85633231963655" lon="15.101007706654862"><ele>669.0</ele><time>2026-05-02T13:30:27.999Z</time></trkpt><trkpt lat="37.856366366999175" lon="15.100898014302967"><ele>669.0</ele><time>2026-05-02T13:30:28.999Z</time></trkpt><trkpt lat="37.85640381897099" lon="15.100762964302199"><ele>669.0</ele><time>2026-05-02T13:30:29.999Z</time></trkpt><trkpt lat="37.85644581066362" lon="15.100630104488355"><ele>669.0</ele><time>2026-05-02T13:30:30.999Z</time></trkpt><trkpt lat="37.85648094434454" lon="15.100486664719533"><ele>669.0</ele><time>2026-05-02T13:30:31.999Z</time></trkpt><trkpt lat="37.85651256506249" lon="15.100339341049747"><ele>669.25</ele><time>2026-05-02T13:30:32.999Z</time></trkpt><trkpt lat="37.856555246051784" lon="15.100189562281244"><ele>669.5</ele><time>2026-05-02T13:30:33.999Z</time></trkpt><trkpt lat="37.85659027509337" lon="15.10002926409244"><ele>669.75</ele><time>2026-05-02T13:30:34.999Z</time></trkpt><trkpt lat="37.85662614718127" lon="15.099868766636405"><ele>670.0</ele><time>2026-05-02T13:30:35.999Z</time></trkpt><trkpt lat="37.85666287242971" lon="15.099710351919127"><ele>670.0</ele><time>2026-05-02T13:30:36.999Z</time></trkpt><trkpt lat="37.85670416311464" lon="15.099553256969473"><ele>670.0</ele><time>2026-05-02T13:30:37.999Z</time></trkpt><trkpt lat="37.856736691682386" lon="15.099403568381579"><ele>670.0</ele><time>2026-05-02T13:30:38.999Z</time></trkpt><trkpt lat="37.85676673626112" lon="15.099260990818792"><ele>670.0</ele><time>2026-05-02T13:30:39.999Z</time></trkpt><trkpt lat="37.85678500823192" lon="15.099123537462507"><ele>670.2</ele><time>2026-05-02T13:30:40.999Z</time></trkpt><trkpt lat="37.856796932344835" lon="15.098978373118367"><ele>670.4</ele><time>2026-05-02T13:30:41.999Z</time></trkpt><trkpt lat="37.856803322535626" lon="15.09883175522307"><ele>670.5999999999999</ele><time>2026-05-02T13:30:42.999Z</time></trkpt><trkpt lat="37.856805038653945" lon="15.098689867839022"><ele>670.8</ele><time>2026-05-02T13:30:43.999Z</time></trkpt><trkpt lat="37.856791733243746" lon="15.098558495041418"><ele>671.0</ele><time>2026-05-02T13:30:44.999Z</time></trkpt><trkpt lat="37.85676216175612" lon="15.098442552990186"><ele>671.0</ele><time>2026-05-02T13:30:45.999Z</time></trkpt><trkpt lat="37.85672541814519" lon="15.098334153335706"><ele>671.0</ele><time>2026-05-02T13:30:46.999Z</time></trkpt><trkpt lat="37.856680164811266" lon="15.098223690325582"><ele>671.0</ele><time>2026-05-02T13:30:47.999Z</time></trkpt><trkpt lat="37.856637797015175" lon="15.098111161251152"><ele>671.0</ele><time>2026-05-02T13:30:48.999Z</time></trkpt><trkpt lat="37.856594116229445" lon="15.098009979423624"><ele>671.0</ele><time>2026-05-02T13:30:49.999Z</time></trkpt><trkpt lat="37.85655317226086" lon="15.097915855727626"><ele>670.6666666666666</ele><time>2026-05-02T13:30:50.999Z</time></trkpt><trkpt lat="37.85651123443401" lon="15.09782789700408"><ele>670.3333333333333</ele><time>2026-05-02T13:30:51.999Z</time></trkpt><trkpt lat="37.85646981209221" lon="15.097743480225848"><ele>670.0</ele><time>2026-05-02T13:30:52.999Z</time></trkpt><trkpt lat="37.85643111404803" lon="15.097652656982474"><ele>669.6666666666666</ele><time>2026-05-02T13:30:53.999Z</time></trkpt><trkpt lat="37.85638997876692" lon="15.097560215883677"><ele>669.3333333333334</ele><time>2026-05-02T13:30:54.999Z</time></trkpt><trkpt lat="37.856350256923506" lon="15.097469061578364"><ele>669.0</ele><time>2026-05-02T13:30:55.999Z</time></trkpt><trkpt lat="37.85630844524283" lon="15.097377641728976"><ele>668.0</ele><time>2026-05-02T13:30:56.999Z</time></trkpt><trkpt lat="37.856265237801" lon="15.097286657898113"><ele>667.0</ele><time>2026-05-02T13:30:57.999Z</time></trkpt><trkpt lat="37.856220385268536" lon="15.09719148531398"><ele>666.0</ele><time>2026-05-02T13:30:58.999Z</time></trkpt><trkpt lat="37.85617478671891" lon="15.097091169158256"><ele>665.0</ele><time>2026-05-02T13:30:59.999Z</time></trkpt><trkpt lat="37.85612668782761" lon="15.096986540100218"><ele>664.0</ele><time>2026-05-02T13:31:00.999Z</time></trkpt><trkpt lat="37.85607443018377" lon="15.096880935530692"><ele>664.0</ele><time>2026-05-02T13:31:01.999Z</time></trkpt><trkpt lat="37.85601960321144" lon="15.096771596075964"><ele>664.0</ele><time>2026-05-02T13:31:02.998Z</time></trkpt><trkpt lat="37.855967746884026" lon="15.096656895319997"><ele>664.0</ele><time>2026-05-02T13:31:03.998Z</time></trkpt><trkpt lat="37.85591581187916" lon="15.096543796554672"><ele>664.0</ele><time>2026-05-02T13:31:04.998Z</time></trkpt><trkpt lat="37.85586547134321" lon="15.096428993413355"><ele>664.0</ele><time>2026-05-02T13:31:05.998Z</time></trkpt><trkpt lat="37.85581711090685" lon="15.096319081760342"><ele>664.6</ele><time>2026-05-02T13:31:06.998Z</time></trkpt><trkpt lat="37.855771222154694" lon="15.096209037461376"><ele>665.2</ele><time>2026-05-02T13:31:07.998Z</time></trkpt><trkpt lat="37.85572728447788" lon="15.096102625808253"><ele>665.8000000000001</ele><time>2026-05-02T13:31:08.998Z</time></trkpt><trkpt lat="37.85568539850109" lon="15.09600289990893"><ele>666.4000000000001</ele><time>2026-05-02T13:31:09.998Z</time></trkpt><trkpt lat="37.85564731804705" lon="15.09590756717669"><ele>667.0</ele><time>2026-05-02T13:31:10.998Z</time></trkpt><trkpt lat="37.85561079247694" lon="15.095808460712789"><ele>667.5</ele><time>2026-05-02T13:31:11.998Z</time></trkpt><trkpt lat="37.85558324031033" lon="15.09570279207922"><ele>668.0</ele><time>2026-05-02T13:31:12.998Z</time></trkpt><trkpt lat="37.85556455931713" lon="15.095594856397168"><ele>668.5</ele><time>2026-05-02T13:31:13.998Z</time></trkpt><trkpt lat="37.85555733715296" lon="15.095481510978097"><ele>669.0</ele><time>2026-05-02T13:31:14.998Z</time></trkpt><trkpt lat="37.8555624662901" lon="15.095368915803919"><ele>669.5</ele><time>2026-05-02T13:31:15.998Z</time></trkpt><trkpt lat="37.85557754348707" lon="15.095254240501381"><ele>670.0</ele><time>2026-05-02T13:31:16.998Z</time></trkpt><trkpt lat="37.85560508003713" lon="15.095136592672695"><ele>670.0</ele><time>2026-05-02T13:31:17.998Z</time></trkpt><trkpt lat="37.855637014545024" lon="15.0950191840535"><ele>670.0</ele><time>2026-05-02T13:31:18.998Z</time></trkpt><trkpt lat="37.855669784357225" lon="15.094896267432416"><ele>670.0</ele><time>2026-05-02T13:31:19.998Z</time></trkpt><trkpt lat="37.85570558075508" lon="15.094769781627974"><ele>670.0</ele><time>2026-05-02T13:31:20.998Z</time></trkpt><trkpt lat="37.85574333316459" lon="15.09464509634247"><ele>670.0</ele><time>2026-05-02T13:31:21.998Z</time></trkpt><trkpt lat="37.85578073118031" lon="15.094519485220676"><ele>670.6</ele><time>2026-05-02T13:31:22.998Z</time></trkpt><trkpt lat="37.85581689488125" lon="15.094397972914429"><ele>671.2</ele><time>2026-05-02T13:31:23.998Z</time></trkpt><trkpt lat="37.85585264216048" lon="15.094284220679745"><ele>671.8</ele><time>2026-05-02T13:31:25Z</time></trkpt><trkpt lat="37.85588547171151" lon="15.094173421934759"><ele>672.4</ele><time>2026-05-02T13:31:26Z</time></trkpt><trkpt lat="37.855920303287235" lon="15.094065106516023"><ele>673.0</ele><time>2026-05-02T13:31:27Z</time></trkpt><trkpt lat="37.85595751775595" lon="15.093959806448636"><ele>671.4</ele><time>2026-05-02T13:31:28Z</time></trkpt><trkpt lat="37.855992227330596" lon="15.093849071304172"><ele>669.8</ele><time>2026-05-02T13:31:29Z</time></trkpt><trkpt lat="37.856028381097175" lon="15.093731620484977"><ele>668.2</ele><time>2026-05-02T13:31:30Z</time></trkpt><trkpt lat="37.85606645431797" lon="15.093611111536598"><ele>666.6</ele><time>2026-05-02T13:31:31Z</time></trkpt><trkpt lat="37.856105694775714" lon="15.093489814191921"><ele>665.0</ele><time>2026-05-02T13:31:32Z</time></trkpt><trkpt lat="37.85614396873647" lon="15.093371818756339"><ele>665.0</ele><time>2026-05-02T13:31:33Z</time></trkpt><trkpt lat="37.85619099700861" lon="15.093260249782743"><ele>665.0</ele><time>2026-05-02T13:31:34Z</time></trkpt><trkpt lat="37.856229100448715" lon="15.093149055272661"><ele>665.0</ele><time>2026-05-02T13:31:35Z</time></trkpt><trkpt lat="37.85626621767576" lon="15.09303453753891"><ele>665.0</ele><time>2026-05-02T13:31:36Z</time></trkpt><trkpt lat="37.85630353221467" lon="15.092921811159172"><ele>665.0</ele><time>2026-05-02T13:31:37Z</time></trkpt><trkpt lat="37.85634137014763" lon="15.092809440668656"><ele>665.6</ele><time>2026-05-02T13:31:38Z</time></trkpt><trkpt lat="37.85638047895461" lon="15.09269684571778"><ele>666.2</ele><time>2026-05-02T13:31:39Z</time></trkpt><trkpt lat="37.85641656647006" lon="15.092587989100583"><ele>666.8</ele><time>2026-05-02T13:31:40Z</time></trkpt><trkpt lat="37.8564575857241" lon="15.092481714906409"><ele>667.4</ele><time>2026-05-02T13:31:41Z</time></trkpt><trkpt lat="37.85649397553558" lon="15.092380661709791"><ele>668.0</ele><time>2026-05-02T13:31:42Z</time></trkpt><trkpt lat="37.85652570701596" lon="15.092280719508317"><ele>668.5</ele><time>2026-05-02T13:31:43Z</time></trkpt><trkpt lat="37.85655777439377" lon="15.092182381541077"><ele>669.0</ele><time>2026-05-02T13:31:44Z</time></trkpt><trkpt lat="37.85658773394211" lon="15.092081654043698"><ele>669.5</ele><time>2026-05-02T13:31:45Z</time></trkpt><trkpt lat="37.85661824350725" lon="15.09198647443713"><ele>670.0</ele><time>2026-05-02T13:31:46Z</time></trkpt><trkpt lat="37.85664686015982" lon="15.091884346305056"><ele>670.5</ele><time>2026-05-02T13:31:47Z</time></trkpt><trkpt lat="37.85668027741551" lon="15.091778839014772"><ele>671.0</ele><time>2026-05-02T13:31:48Z</time></trkpt><trkpt lat="37.85673646977725" lon="15.091562566581365"><ele>671.4</ele><time>2026-05-02T13:31:50Z</time></trkpt><trkpt lat="37.85676695617635" lon="15.091446220683421"><ele>671.8</ele><time>2026-05-02T13:31:51Z</time></trkpt><trkpt lat="37.856796313111424" lon="15.09132588402636"><ele>672.1999999999999</ele><time>2026-05-02T13:31:52Z</time></trkpt><trkpt lat="37.85683045954383" lon="15.0911996416666"><ele>672.5999999999999</ele><time>2026-05-02T13:31:53Z</time></trkpt><trkpt lat="37.856864361330096" lon="15.091070653179584"><ele>673.0</ele><time>2026-05-02T13:31:54Z</time></trkpt><trkpt lat="37.85690186543613" lon="15.090941463682116"><ele>672.5999999999999</ele><time>2026-05-02T13:31:55Z</time></trkpt><trkpt lat="37.85693816799718" lon="15.09081374118517"><ele>672.1999999999999</ele><time>2026-05-02T13:31:56Z</time></trkpt><trkpt lat="37.85697606696834" lon="15.090688641185922"><ele>671.8</ele><time>2026-05-02T13:31:57Z</time></trkpt><trkpt lat="37.8570157697648" lon="15.090568625469539"><ele>671.4</ele><time>2026-05-02T13:31:58Z</time></trkpt><trkpt lat="37.85706586216312" lon="15.090454814459399"><ele>671.0</ele><time>2026-05-02T13:31:59Z</time></trkpt><trkpt lat="37.85712162169071" lon="15.090345903487503"><ele>671.0</ele><time>2026-05-02T13:32:00Z</time></trkpt><trkpt lat="37.85718467823697" lon="15.090240982190256"><ele>671.0</ele><time>2026-05-02T13:32:01Z</time></trkpt><trkpt lat="37.857251507303424" lon="15.090141000358246"><ele>671.0</ele><time>2026-05-02T13:32:02Z</time></trkpt><trkpt lat="37.85732180894254" lon="15.09004441246418"><ele>671.0</ele><time>2026-05-02T13:32:03Z</time></trkpt><trkpt lat="37.857387264230425" lon="15.089953661245653"><ele>671.0</ele><time>2026-05-02T13:32:04Z</time></trkpt><trkpt lat="37.857451865390274" lon="15.089867751510994"><ele>670.1666666666666</ele><time>2026-05-02T13:32:05Z</time></trkpt><trkpt lat="37.85751366555464" lon="15.08978594185928"><ele>669.3333333333333</ele><time>2026-05-02T13:32:06Z</time></trkpt><trkpt lat="37.857576739849996" lon="15.089703713903598"><ele>668.5</ele><time>2026-05-02T13:32:07Z</time></trkpt><trkpt lat="37.85763765894128" lon="15.089622446606453"><ele>667.6666666666666</ele><time>2026-05-02T13:32:08Z</time></trkpt><trkpt lat="37.85769615171722" lon="15.089541330934718"><ele>666.8333333333334</ele><time>2026-05-02T13:32:09Z</time></trkpt><trkpt lat="37.85774984895404" lon="15.089460786656295"><ele>666.0</ele><time>2026-05-02T13:32:10Z</time></trkpt><trkpt lat="37.85780295638313" lon="15.089381517854957"><ele>666.0</ele><time>2026-05-02T13:32:11Z</time></trkpt><trkpt lat="37.85785491526666" lon="15.089302236030264"><ele>666.0</ele><time>2026-05-02T13:32:12Z</time></trkpt><trkpt lat="37.85789866541896" lon="15.089221236069564"><ele>666.0</ele><time>2026-05-02T13:32:12.999Z</time></trkpt><trkpt lat="37.85793458806587" lon="15.089138713572488"><ele>666.0</ele><time>2026-05-02T13:32:13.999Z</time></trkpt><trkpt lat="37.857960399892136" lon="15.089044489697082"><ele>666.0</ele><time>2026-05-02T13:32:14.999Z</time></trkpt><trkpt lat="37.85798171655097" lon="15.088945007182625"><ele>666.0</ele><time>2026-05-02T13:32:15.999Z</time></trkpt><trkpt lat="37.85800222295439" lon="15.088841016067173"><ele>666.6666666666666</ele><time>2026-05-02T13:32:16.999Z</time></trkpt><trkpt lat="37.85802475449214" lon="15.08873402863533"><ele>667.3333333333334</ele><time>2026-05-02T13:32:17.999Z</time></trkpt><trkpt lat="37.85804673019788" lon="15.088627784255346"><ele>668.0</ele><time>2026-05-02T13:32:18.999Z</time></trkpt><trkpt lat="37.85806833904958" lon="15.088520545919458"><ele>668.6666666666667</ele><time>2026-05-02T13:32:19.999Z</time></trkpt><trkpt lat="37.858090169517844" lon="15.088417474584249"><ele>669.3333333333334</ele><time>2026-05-02T13:32:20.999Z</time></trkpt><trkpt lat="37.85811208285301" lon="15.08832059265291"><ele>670.0</ele><time>2026-05-02T13:32:21.999Z</time></trkpt><trkpt lat="37.85814215216678" lon="15.088224816102493"><ele>672.0</ele><time>2026-05-02T13:32:22.999Z</time></trkpt><trkpt lat="37.85818484858358" lon="15.088137318152347"><ele>674.0</ele><time>2026-05-02T13:32:23.999Z</time></trkpt><trkpt lat="37.858238991948994" lon="15.088059026327432"><ele>676.0</ele><time>2026-05-02T13:32:24.999Z</time></trkpt><trkpt lat="37.8583061424446" lon="15.087999201235919"><ele>678.0</ele><time>2026-05-02T13:32:25.999Z</time></trkpt><trkpt lat="37.85838268605834" lon="15.08796679263776"><ele>680.0</ele><time>2026-05-02T13:32:26.999Z</time></trkpt><trkpt lat="37.858466075119765" lon="15.087963656541183"><ele>682.0</ele><time>2026-05-02T13:32:27.999Z</time></trkpt><trkpt lat="37.858548612245826" lon="15.087985701597091"><ele>682.1666666666667</ele><time>2026-05-02T13:32:28.999Z</time></trkpt><trkpt lat="37.85863648161605" lon="15.088016268070234"><ele>682.3333333333334</ele><time>2026-05-02T13:32:29.999Z</time></trkpt><trkpt lat="37.85872339190414" lon="15.088053900589648"><ele>682.5</ele><time>2026-05-02T13:32:30.999Z</time></trkpt><trkpt lat="37.85880475382828" lon="15.088086021110472"><ele>682.6666666666666</ele><time>2026-05-02T13:32:31.999Z</time></trkpt><trkpt lat="37.85887926740371" lon="15.08811418904596"><ele>682.8333333333333</ele><time>2026-05-02T13:32:32.999Z</time></trkpt><trkpt lat="37.8589523513893" lon="15.088139340782444"><ele>683.0</ele><time>2026-05-02T13:32:33.999Z</time></trkpt><trkpt lat="37.85902396173421" lon="15.088161191790242"><ele>683.0</ele><time>2026-05-02T13:32:34.999Z</time></trkpt><trkpt lat="37.85909694929636" lon="15.088166463006775"><ele>683.0</ele><time>2026-05-02T13:32:35.999Z</time></trkpt><trkpt lat="37.85917078911866" lon="15.088144269413768"><ele>683.0</ele><time>2026-05-02T13:32:36.999Z</time></trkpt><trkpt lat="37.85923679063351" lon="15.08810383598948"><ele>683.0</ele><time>2026-05-02T13:32:37.999Z</time></trkpt><trkpt lat="37.859297331126335" lon="15.088040242724334"><ele>683.0</ele><time>2026-05-02T13:32:38.999Z</time></trkpt><trkpt lat="37.85934061246623" lon="15.087967143350095"><ele>683.0</ele><time>2026-05-02T13:32:39.999Z</time></trkpt><trkpt lat="37.85937270797723" lon="15.087884119598955"><ele>683.0</ele><time>2026-05-02T13:32:40.999Z</time></trkpt><trkpt lat="37.8593964031556" lon="15.0877956291916"><ele>682.8</ele><time>2026-05-02T13:32:41.999Z</time></trkpt><trkpt lat="37.8594119980691" lon="15.08769724350739"><ele>682.5999999999999</ele><time>2026-05-02T13:32:42.999Z</time></trkpt><trkpt lat="37.859423614532226" lon="15.087599481691417"><ele>682.4000000000001</ele><time>2026-05-02T13:32:43.999Z</time></trkpt><trkpt lat="37.85943537282498" lon="15.087509650381602"><ele>682.2</ele><time>2026-05-02T13:32:44.999Z</time></trkpt><trkpt lat="37.85945652116512" lon="15.087359887351461"><ele>682.0</ele><time>2026-05-02T13:32:46.999Z</time></trkpt><trkpt lat="37.85947224394095" lon="15.087226635710655"><ele>682.0</ele><time>2026-05-02T13:32:48.999Z</time></trkpt><trkpt lat="37.85949003863644" lon="15.087094429391787"><ele>682.0</ele><time>2026-05-02T13:32:50.999Z</time></trkpt><trkpt lat="37.85949570672694" lon="15.086986259705375"><ele>682.0</ele><time>2026-05-02T13:32:52.999Z</time></trkpt><trkpt lat="37.859494518513245" lon="15.086871422956992"><ele>682.0</ele><time>2026-05-02T13:32:54.999Z</time></trkpt><trkpt lat="37.85948803841476" lon="15.086743232687105"><ele>682.0</ele><time>2026-05-02T13:32:56.999Z</time></trkpt><trkpt lat="37.85948059895338" lon="15.086604783515346"><ele>682.0</ele><time>2026-05-02T13:32:58.999Z</time></trkpt><trkpt lat="37.859458744855516" lon="15.086459986162202"><ele>682.0</ele><time>2026-05-02T13:33:00.999Z</time></trkpt><trkpt lat="37.85944022800612" lon="15.086381294184443"><ele>682.0</ele><time>2026-05-02T13:33:01.999Z</time></trkpt><trkpt lat="37.85941581291861" lon="15.086303070306409"><ele>682.0</ele><time>2026-05-02T13:33:02.998Z</time></trkpt><trkpt lat="37.85938684062174" lon="15.086215194770507"><ele>682.0</ele><time>2026-05-02T13:33:03.998Z</time></trkpt><trkpt lat="37.85934920686642" lon="15.08611596823973"><ele>682.0</ele><time>2026-05-02T13:33:04.998Z</time></trkpt><trkpt lat="37.85931007919354" lon="15.086016057236273"><ele>683.5</ele><time>2026-05-02T13:33:05.998Z</time></trkpt><trkpt lat="37.859256895374656" lon="15.085904384741687"><ele>685.0</ele><time>2026-05-02T13:33:06.998Z</time></trkpt><trkpt lat="37.85920993733863" lon="15.085751933667687"><ele>686.5</ele><time>2026-05-02T13:33:07.998Z</time></trkpt><trkpt lat="37.85914890020786" lon="15.085597292578713"><ele>688.0</ele><time>2026-05-02T13:33:08.998Z</time></trkpt><trkpt lat="37.85909110329328" lon="15.085451255695018"><ele>688.25</ele><time>2026-05-02T13:33:09.998Z</time></trkpt><trkpt lat="37.859027808288324" lon="15.085316386920029"><ele>688.5</ele><time>2026-05-02T13:33:10.998Z</time></trkpt><trkpt lat="37.858985131431105" lon="15.08517240236236"><ele>688.75</ele><time>2026-05-02T13:33:11.998Z</time></trkpt><trkpt lat="37.858943106291875" lon="15.085034615568746"><ele>689.0</ele><time>2026-05-02T13:33:12.998Z</time></trkpt><trkpt lat="37.85890808237729" lon="15.084911240353055"><ele>689.0</ele><time>2026-05-02T13:33:13.998Z</time></trkpt><trkpt lat="37.858889029609365" lon="15.084790136363848"><ele>689.0</ele><time>2026-05-02T13:33:14.998Z</time></trkpt><trkpt lat="37.85888846807998" lon="15.08466037410231"><ele>689.0</ele><time>2026-05-02T13:33:15.998Z</time></trkpt><trkpt lat="37.85890412854878" lon="15.08453047741284"><ele>689.0</ele><time>2026-05-02T13:33:16.998Z</time></trkpt><trkpt lat="37.85892739456828" lon="15.084394335025113"><ele>689.0</ele><time>2026-05-02T13:33:17.998Z</time></trkpt><trkpt lat="37.85895509159238" lon="15.084243493870567"><ele>689.5</ele><time>2026-05-02T13:33:18.998Z</time></trkpt><trkpt lat="37.8589837307817" lon="15.084088390923784"><ele>690.0</ele><time>2026-05-02T13:33:19.998Z</time></trkpt><trkpt lat="37.85900941455359" lon="15.08392860344236"><ele>690.5</ele><time>2026-05-02T13:33:20.998Z</time></trkpt><trkpt lat="37.859036740175206" lon="15.083771235461695"><ele>691.0</ele><time>2026-05-02T13:33:21.998Z</time></trkpt><trkpt lat="37.85906282999661" lon="15.083613614675924"><ele>691.0</ele><time>2026-05-02T13:33:22.998Z</time></trkpt><trkpt lat="37.859089004352036" lon="15.083453561002251"><ele>691.0</ele><time>2026-05-02T13:33:23.998Z</time></trkpt><trkpt lat="37.85911469617309" lon="15.0832923794731"><ele>691.0</ele><time>2026-05-02T13:33:24.998Z</time></trkpt><trkpt lat="37.85914103751812" lon="15.08312866790118"><ele>691.0</ele><time>2026-05-02T13:33:25.998Z</time></trkpt><trkpt lat="37.85916741483427" lon="15.082966430043522"><ele>691.0</ele><time>2026-05-02T13:33:26.998Z</time></trkpt><trkpt lat="37.859194947980015" lon="15.082804072250568"><ele>691.0</ele><time>2026-05-02T13:33:27.998Z</time></trkpt><trkpt lat="37.8592229576439" lon="15.082640393721501"><ele>691.0</ele><time>2026-05-02T13:33:28.998Z</time></trkpt><trkpt lat="37.85925016504068" lon="15.082478823288707"><ele>691.0</ele><time>2026-05-02T13:33:29.998Z</time></trkpt><trkpt lat="37.85927724256467" lon="15.082317449571804"><ele>688.5</ele><time>2026-05-02T13:33:31Z</time></trkpt><trkpt lat="37.85930318433685" lon="15.082162348060589"><ele>686.0</ele><time>2026-05-02T13:33:32Z</time></trkpt><trkpt lat="37.859327084243446" lon="15.082010797065962"><ele>683.5</ele><time>2026-05-02T13:33:33Z</time></trkpt><trkpt lat="37.85935067639378" lon="15.081862121057286"><ele>681.0</ele><time>2026-05-02T13:33:34Z</time></trkpt><trkpt lat="37.85937914464713" lon="15.081709517160391"><ele>681.25</ele><time>2026-05-02T13:33:35Z</time></trkpt><trkpt lat="37.85940477762392" lon="15.081565053672458"><ele>681.5</ele><time>2026-05-02T13:33:36Z</time></trkpt><trkpt lat="37.8594304880011" lon="15.081411924437264"><ele>681.75</ele><time>2026-05-02T13:33:37Z</time></trkpt><trkpt lat="37.859455640062535" lon="15.081255554833856"><ele>682.0</ele><time>2026-05-02T13:33:38Z</time></trkpt><trkpt lat="37.859493970571705" lon="15.081118267410252"><ele>682.0</ele><time>2026-05-02T13:33:39Z</time></trkpt><trkpt lat="37.85954342407552" lon="15.080984648039822"><ele>682.0</ele><time>2026-05-02T13:33:40Z</time></trkpt><trkpt lat="37.859619692082106" lon="15.08089698285211"><ele>682.0</ele><time>2026-05-02T13:33:41Z</time></trkpt><trkpt lat="37.859727389786414" lon="15.080858605258538"><ele>682.0</ele><time>2026-05-02T13:33:42Z</time></trkpt><trkpt lat="37.85984654414036" lon="15.080814071083777"><ele>681.75</ele><time>2026-05-02T13:33:43Z</time></trkpt><trkpt lat="37.85997085211712" lon="15.08076139025092"><ele>681.5</ele><time>2026-05-02T13:33:44Z</time></trkpt><trkpt lat="37.86010840935917" lon="15.08072362484746"><ele>681.25</ele><time>2026-05-02T13:33:45Z</time></trkpt><trkpt lat="37.86023215916616" lon="15.080685288251571"><ele>681.0</ele><time>2026-05-02T13:33:46Z</time></trkpt><trkpt lat="37.8603432416253" lon="15.080630461829209"><ele>681.0</ele><time>2026-05-02T13:33:47Z</time></trkpt><trkpt lat="37.86044453675491" lon="15.080550106486147"><ele>681.0</ele><time>2026-05-02T13:33:48Z</time></trkpt><trkpt lat="37.860538632912416" lon="15.080443456250473"><ele>681.0</ele><time>2026-05-02T13:33:49Z</time></trkpt><trkpt lat="37.860622695223796" lon="15.08030704005856"><ele>681.0</ele><time>2026-05-02T13:33:50Z</time></trkpt><trkpt lat="37.86070248975696" lon="15.080154273504823"><ele>681.0</ele><time>2026-05-02T13:33:51Z</time></trkpt><trkpt lat="37.860779171162534" lon="15.079986691204548"><ele>681.0</ele><time>2026-05-02T13:33:52Z</time></trkpt><trkpt lat="37.860855959759846" lon="15.079819410127262"><ele>681.0</ele><time>2026-05-02T13:33:53Z</time></trkpt><trkpt lat="37.86094073442374" lon="15.079650276600017"><ele>680.3333333333334</ele><time>2026-05-02T13:33:54Z</time></trkpt><trkpt lat="37.86102740440251" lon="15.079478650306246"><ele>679.6666666666667</ele><time>2026-05-02T13:33:55Z</time></trkpt><trkpt lat="37.861114525532834" lon="15.079303884795811"><ele>679.0</ele><time>2026-05-02T13:33:56Z</time></trkpt><trkpt lat="37.86119912677795" lon="15.079132374307239"><ele>680.6666666666667</ele><time>2026-05-02T13:33:57Z</time></trkpt><trkpt lat="37.86127212859276" lon="15.078956317286313"><ele>682.3333333333334</ele><time>2026-05-02T13:33:58Z</time></trkpt><trkpt lat="37.86134802798067" lon="15.07877213381072"><ele>684.0</ele><time>2026-05-02T13:33:59Z</time></trkpt><trkpt lat="37.86142334240087" lon="15.078584895989456"><ele>684.0</ele><time>2026-05-02T13:34:00Z</time></trkpt><trkpt lat="37.861488261355895" lon="15.078401797877024"><ele>684.0</ele><time>2026-05-02T13:34:01Z</time></trkpt><trkpt lat="37.86154682061742" lon="15.07822204720019"><ele>684.0</ele><time>2026-05-02T13:34:02Z</time></trkpt><trkpt lat="37.861606540006534" lon="15.07804057961959"><ele>685.6666666666666</ele><time>2026-05-02T13:34:03Z</time></trkpt><trkpt lat="37.86166777965263" lon="15.07786230441594"><ele>687.3333333333333</ele><time>2026-05-02T13:34:04Z</time></trkpt><trkpt lat="37.86173441623772" lon="15.077684353348483"><ele>689.0</ele><time>2026-05-02T13:34:05Z</time></trkpt><trkpt lat="37.86179614274005" lon="15.077512787714996"><ele>690.25</ele><time>2026-05-02T13:34:06Z</time></trkpt><trkpt lat="37.86186667354272" lon="15.077347893176597"><ele>691.5</ele><time>2026-05-02T13:34:07Z</time></trkpt><trkpt lat="37.86193544937485" lon="15.077187408301274"><ele>692.75</ele><time>2026-05-02T13:34:08Z</time></trkpt><trkpt lat="37.862009168320036" lon="15.077031471572967"><ele>694.0</ele><time>2026-05-02T13:34:09Z</time></trkpt><trkpt lat="37.86208194028826" lon="15.07687772760535"><ele>694.0</ele><time>2026-05-02T13:34:09.999Z</time></trkpt><trkpt lat="37.86214587941422" lon="15.076718562110294"><ele>694.0</ele><time>2026-05-02T13:34:10.999Z</time></trkpt><trkpt lat="37.86219077374315" lon="15.076556488332827"><ele>694.0</ele><time>2026-05-02T13:34:11.999Z</time></trkpt><trkpt lat="37.862236264752724" lon="15.07639529720132"><ele>694.0</ele><time>2026-05-02T13:34:12.999Z</time></trkpt><trkpt lat="37.862276050651595" lon="15.076229004003027"><ele>694.75</ele><time>2026-05-02T13:34:13.999Z</time></trkpt><trkpt lat="37.862315621798224" lon="15.076061936586488"><ele>695.5</ele><time>2026-05-02T13:34:14.999Z</time></trkpt><trkpt lat="37.86236102236448" lon="15.075898272052699"><ele>696.25</ele><time>2026-05-02T13:34:15.999Z</time></trkpt><trkpt lat="37.86244101759431" lon="15.075755759755621"><ele>697.0</ele><time>2026-05-02T13:34:16.999Z</time></trkpt><trkpt lat="37.86252027564058" lon="15.075617216998968"><ele>698.5</ele><time>2026-05-02T13:34:17.999Z</time></trkpt><trkpt lat="37.86259784098423" lon="15.075481019569208"><ele>700.0</ele><time>2026-05-02T13:34:18.999Z</time></trkpt><trkpt lat="37.86267686026462" lon="15.075362979513834"><ele>701.5</ele><time>2026-05-02T13:34:19.999Z</time></trkpt><trkpt lat="37.86276315279074" lon="15.075269951003639"><ele>703.0</ele><time>2026-05-02T13:34:20.999Z</time></trkpt><trkpt lat="37.862860494035004" lon="15.07520532706985"><ele>703.0</ele><time>2026-05-02T13:34:21.999Z</time></trkpt><trkpt lat="37.862975827584535" lon="15.075208863132323"><ele>703.0</ele><time>2026-05-02T13:34:22.999Z</time></trkpt><trkpt lat="37.863092851706845" lon="15.075207111424236"><ele>703.0</ele><time>2026-05-02T13:34:23.999Z</time></trkpt><trkpt lat="37.86320602241016" lon="15.075200690750624"><ele>703.0</ele><time>2026-05-02T13:34:24.999Z</time></trkpt><trkpt lat="37.863309913699545" lon="15.07519030661461"><ele>703.0</ele><time>2026-05-02T13:34:25.999Z</time></trkpt><trkpt lat="37.86341608270153" lon="15.075159313066084"><ele>703.0</ele><time>2026-05-02T13:34:26.999Z</time></trkpt><trkpt lat="37.863516869093615" lon="15.075101503001383"><ele>703.0</ele><time>2026-05-02T13:34:27.999Z</time></trkpt><trkpt lat="37.863608928423595" lon="15.075049326426173"><ele>703.0</ele><time>2026-05-02T13:34:28.999Z</time></trkpt><trkpt lat="37.86368395959672" lon="15.074932222336754"><ele>703.0</ele><time>2026-05-02T13:34:29.999Z</time></trkpt><trkpt lat="37.863763305817734" lon="15.074855787993986"><ele>704.2</ele><time>2026-05-02T13:34:30.999Z</time></trkpt><trkpt lat="37.863843027829276" lon="15.074778991717075"><ele>705.4</ele><time>2026-05-02T13:34:31.999Z</time></trkpt><trkpt lat="37.863919684983784" lon="15.074705147804789"><ele>706.6</ele><time>2026-05-02T13:34:32.999Z</time></trkpt><trkpt lat="37.86399580719327" lon="15.07463181920133"><ele>707.8000000000001</ele><time>2026-05-02T13:34:33.999Z</time></trkpt><trkpt lat="37.86407039871228" lon="15.074559965112085"><ele>709.0</ele><time>2026-05-02T13:34:34.999Z</time></trkpt><trkpt lat="37.86414344026578" lon="15.074490415749057"><ele>709.0</ele><time>2026-05-02T13:34:35.999Z</time></trkpt><trkpt lat="37.86421931108875" lon="15.074417503406778"><ele>709.0</ele><time>2026-05-02T13:34:36.999Z</time></trkpt><trkpt lat="37.86429678331255" lon="15.074337305546685"><ele>709.0</ele><time>2026-05-02T13:34:37.999Z</time></trkpt><trkpt lat="37.864374715731614" lon="15.07425016322366"><ele>709.0</ele><time>2026-05-02T13:34:38.999Z</time></trkpt><trkpt lat="37.86444793603109" lon="15.074146030400305"><ele>709.0</ele><time>2026-05-02T13:34:39.999Z</time></trkpt><trkpt lat="37.86451297565658" lon="15.074034755139742"><ele>709.8000000000001</ele><time>2026-05-02T13:34:40.999Z</time></trkpt><trkpt lat="37.864569543848155" lon="15.073922528268323"><ele>710.6</ele><time>2026-05-02T13:34:41.999Z</time></trkpt><trkpt lat="37.86462385269403" lon="15.073807552881245"><ele>711.4</ele><time>2026-05-02T13:34:42.999Z</time></trkpt><trkpt lat="37.86467731728884" lon="15.07369366977396"><ele>712.2</ele><time>2026-05-02T13:34:43.999Z</time></trkpt><trkpt lat="37.86473246957549" lon="15.073576191800203"><ele>713.0</ele><time>2026-05-02T13:34:44.999Z</time></trkpt><trkpt lat="37.86478807422656" lon="15.073457750225817"><ele>713.0</ele><time>2026-05-02T13:34:45.999Z</time></trkpt><trkpt lat="37.864842656903754" lon="15.073341485554769"><ele>713.0</ele><time>2026-05-02T13:34:46.999Z</time></trkpt><trkpt lat="37.864895421085954" lon="15.073226284140985"><ele>713.0</ele><time>2026-05-02T13:34:47.999Z</time></trkpt><trkpt lat="37.86494302785282" lon="15.073109447575872"><ele>713.0</ele><time>2026-05-02T13:34:48.999Z</time></trkpt><trkpt lat="37.864982925706364" lon="15.072989743510542"><ele>713.0</ele><time>2026-05-02T13:34:49.999Z</time></trkpt><trkpt lat="37.86500471078073" lon="15.07286057554142"><ele>713.4</ele><time>2026-05-02T13:34:50.999Z</time></trkpt><trkpt lat="37.86501246913911" lon="15.072729370963685"><ele>713.8</ele><time>2026-05-02T13:34:51.999Z</time></trkpt><trkpt lat="37.865012987563816" lon="15.072601204917365"><ele>714.2</ele><time>2026-05-02T13:34:52.999Z</time></trkpt><trkpt lat="37.86501204885887" lon="15.072475248741656"><ele>714.6</ele><time>2026-05-02T13:34:53.999Z</time></trkpt><trkpt lat="37.86500435454561" lon="15.072347427614513"><ele>715.0</ele><time>2026-05-02T13:34:54.999Z</time></trkpt><trkpt lat="37.86499327067324" lon="15.072221087774974"><ele>715.0</ele><time>2026-05-02T13:34:55.999Z</time></trkpt><trkpt lat="37.86498080286489" lon="15.072097368939541"><ele>715.0</ele><time>2026-05-02T13:34:56.999Z</time></trkpt><trkpt lat="37.86495138610766" lon="15.071974341014863"><ele>715.0</ele><time>2026-05-02T13:34:57.999Z</time></trkpt><trkpt lat="37.86494056123332" lon="15.07184418446289"><ele>715.0</ele><time>2026-05-02T13:34:58.999Z</time></trkpt><trkpt lat="37.86492749244375" lon="15.071713142468402"><ele>715.0</ele><time>2026-05-02T13:34:59.998Z</time></trkpt><trkpt lat="37.86491606432315" lon="15.071580040237052"><ele>714.6</ele><time>2026-05-02T13:35:00.998Z</time></trkpt><trkpt lat="37.86490249655092" lon="15.071447358466445"><ele>714.2</ele><time>2026-05-02T13:35:01.998Z</time></trkpt><trkpt lat="37.86489238500738" lon="15.0713129370597"><ele>713.8</ele><time>2026-05-02T13:35:02.998Z</time></trkpt><trkpt lat="37.86487948572073" lon="15.071178934973496"><ele>713.4</ele><time>2026-05-02T13:35:03.998Z</time></trkpt><trkpt lat="37.86486531154445" lon="15.07104670989316"><ele>713.0</ele><time>2026-05-02T13:35:04.998Z</time></trkpt><trkpt lat="37.8648490889625" lon="15.07091447135768"><ele>713.0</ele><time>2026-05-02T13:35:05.998Z</time></trkpt><trkpt lat="37.86483350516329" lon="15.070780916338531"><ele>713.0</ele><time>2026-05-02T13:35:06.998Z</time></trkpt><trkpt lat="37.86482226619023" lon="15.070650144781077"><ele>713.0</ele><time>2026-05-02T13:35:07.998Z</time></trkpt><trkpt lat="37.86480720834259" lon="15.070527125201433"><ele>713.0</ele><time>2026-05-02T13:35:08.998Z</time></trkpt><trkpt lat="37.864794182468856" lon="15.070397772461131"><ele>713.0</ele><time>2026-05-02T13:35:09.998Z</time></trkpt><trkpt lat="37.86477640577718" lon="15.070276237017513"><ele>713.4</ele><time>2026-05-02T13:35:10.998Z</time></trkpt><trkpt lat="37.86475028010115" lon="15.070156658442412"><ele>713.8</ele><time>2026-05-02T13:35:11.998Z</time></trkpt><trkpt lat="37.86471789815407" lon="15.070033449325447"><ele>714.2</ele><time>2026-05-02T13:35:12.998Z</time></trkpt><trkpt lat="37.86466571436356" lon="15.069917360650287"><ele>714.6</ele><time>2026-05-02T13:35:13.998Z</time></trkpt><trkpt lat="37.86460674702869" lon="15.06979777990975"><ele>715.0</ele><time>2026-05-02T13:35:14.998Z</time></trkpt><trkpt lat="37.864550774423044" lon="15.069675771327926"><ele>716.4</ele><time>2026-05-02T13:35:15.998Z</time></trkpt><trkpt lat="37.86449420136034" lon="15.069559455621821"><ele>717.8</ele><time>2026-05-02T13:35:16.998Z</time></trkpt><trkpt lat="37.864449100713166" lon="15.069445601940544"><ele>719.2</ele><time>2026-05-02T13:35:17.998Z</time></trkpt><trkpt lat="37.86440553653309" lon="15.069329642392809"><ele>720.6</ele><time>2026-05-02T13:35:18.998Z</time></trkpt><trkpt lat="37.86437984247812" lon="15.069206138984235"><ele>722.0</ele><time>2026-05-02T13:35:19.998Z</time></trkpt><trkpt lat="37.86438349237934" lon="15.06908212823921"><ele>722.3333333333333</ele><time>2026-05-02T13:35:20.998Z</time></trkpt><trkpt lat="37.86437218914382" lon="15.068967810533382"><ele>722.6666666666666</ele><time>2026-05-02T13:35:21.998Z</time></trkpt><trkpt lat="37.86437582398368" lon="15.068866143099466"><ele>723.0</ele><time>2026-05-02T13:35:22.998Z</time></trkpt><trkpt lat="37.86437857391061" lon="15.068781389316905"><ele>723.3333333333334</ele><time>2026-05-02T13:35:23.998Z</time></trkpt><trkpt lat="37.86438511012229" lon="15.068651880070142"><ele>723.6666666666667</ele><time>2026-05-02T13:35:25.998Z</time></trkpt><trkpt lat="37.864425497141795" lon="15.06858722003652"><ele>724.0</ele><time>2026-05-02T13:35:29.998Z</time></trkpt><trkpt lat="37.86446266928779" lon="15.068518238243195"><ele>724.0</ele><time>2026-05-02T13:36:29.999Z</time></trkpt><trkpt lat="37.864620297183514" lon="15.068549193429332"><ele>724.0</ele><time>2026-05-02T13:39:10.999Z</time></trkpt><trkpt lat="37.8646882174735" lon="15.068572798455941"><ele>724.0</ele><time>2026-05-02T13:39:12.998Z</time></trkpt><trkpt lat="37.864779996236834" lon="15.068557893548306"><ele>724.0</ele><time>2026-05-02T13:39:14.998Z</time></trkpt><trkpt lat="37.864894475976435" lon="15.06861044692422"><ele>724.0</ele><time>2026-05-02T13:39:16.998Z</time></trkpt><trkpt lat="37.86495809514229" lon="15.06863986964573"><ele>724.0</ele><time>2026-05-02T13:39:17.998Z</time></trkpt><trkpt lat="37.865022300926135" lon="15.068675325575734"><ele>724.0</ele><time>2026-05-02T13:39:18.998Z</time></trkpt><trkpt lat="37.8650831579637" lon="15.06871750975519"><ele>724.0</ele><time>2026-05-02T13:39:19.998Z</time></trkpt><trkpt lat="37.86513180023312" lon="15.068792684494921"><ele>724.0</ele><time>2026-05-02T13:39:20.998Z</time></trkpt><trkpt lat="37.86518349315053" lon="15.068862595278347"><ele>724.0</ele><time>2026-05-02T13:39:21.998Z</time></trkpt><trkpt lat="37.865224367174555" lon="15.06894528464164"><ele>724.0</ele><time>2026-05-02T13:39:22.998Z</time></trkpt><trkpt lat="37.86527486331856" lon="15.069033216671302"><ele>722.8000000000001</ele><time>2026-05-02T13:39:23.998Z</time></trkpt><trkpt lat="37.86531371666897" lon="15.06914320188677"><ele>721.6</ele><time>2026-05-02T13:39:24.998Z</time></trkpt><trkpt lat="37.86535398073274" lon="15.069261932922862"><ele>720.4</ele><time>2026-05-02T13:39:25.998Z</time></trkpt><trkpt lat="37.86539944966442" lon="15.069390019359842"><ele>719.2</ele><time>2026-05-02T13:39:26.998Z</time></trkpt><trkpt lat="37.865442146756926" lon="15.06952402379349"><ele>718.0</ele><time>2026-05-02T13:39:27.998Z</time></trkpt><trkpt lat="37.86548911955711" lon="15.069655937418336"><ele>718.0</ele><time>2026-05-02T13:39:28.998Z</time></trkpt><trkpt lat="37.86553986272427" lon="15.069775679089679"><ele>718.0</ele><time>2026-05-02T13:39:29.998Z</time></trkpt><trkpt lat="37.86558121863975" lon="15.069892955938496"><ele>718.0</ele><time>2026-05-02T13:39:30.998Z</time></trkpt><trkpt lat="37.865659819134954" lon="15.069991765781854"><ele>718.0</ele><time>2026-05-02T13:39:31.998Z</time></trkpt><trkpt lat="37.86575850454868" lon="15.070048401843524"><ele>718.0</ele><time>2026-05-02T13:39:32.998Z</time></trkpt><trkpt lat="37.8658579628318" lon="15.070121989800572"><ele>715.5</ele><time>2026-05-02T13:39:33.998Z</time></trkpt><trkpt lat="37.86597458287903" lon="15.070182475644007"><ele>713.0</ele><time>2026-05-02T13:39:34.998Z</time></trkpt><trkpt lat="37.866103634712246" lon="15.070246509230884"><ele>710.5</ele><time>2026-05-02T13:39:35.998Z</time></trkpt><trkpt lat="37.86623316393288" lon="15.070326225828879"><ele>708.0</ele><time>2026-05-02T13:39:36.998Z</time></trkpt><trkpt lat="37.86637105539988" lon="15.070400470990423"><ele>708.0</ele><time>2026-05-02T13:39:37.998Z</time></trkpt><trkpt lat="37.866503192458104" lon="15.070486738934614"><ele>708.0</ele><time>2026-05-02T13:39:38.998Z</time></trkpt><trkpt lat="37.866639272221995" lon="15.070565366755945"><ele>708.0</ele><time>2026-05-02T13:39:39.998Z</time></trkpt><trkpt lat="37.86676717587553" lon="15.070645834440525"><ele>708.0</ele><time>2026-05-02T13:39:40.998Z</time></trkpt><trkpt lat="37.86689775537794" lon="15.070722798233184"><ele>705.5</ele><time>2026-05-02T13:39:41.998Z</time></trkpt><trkpt lat="37.867028497577884" lon="15.070803640427071"><ele>703.0</ele><time>2026-05-02T13:39:42.998Z</time></trkpt><trkpt lat="37.867159655510605" lon="15.070880957753731"><ele>700.5</ele><time>2026-05-02T13:39:43.998Z</time></trkpt><trkpt lat="37.86728975234099" lon="15.070954663812666"><ele>698.0</ele><time>2026-05-02T13:39:44.998Z</time></trkpt><trkpt lat="37.86740636422104" lon="15.071020594052996"><ele>698.0</ele><time>2026-05-02T13:39:45.998Z</time></trkpt><trkpt lat="37.867492927015086" lon="15.071068141087546"><ele>698.0</ele><time>2026-05-02T13:39:46.998Z</time></trkpt><trkpt lat="37.867577186097066" lon="15.071090037940404"><ele>698.0</ele><time>2026-05-02T13:39:47.998Z</time></trkpt><trkpt lat="37.86766069932669" lon="15.071077183205727"><ele>698.0</ele><time>2026-05-02T13:39:49Z</time></trkpt><trkpt lat="37.867740376804306" lon="15.071013514521226"><ele>698.0</ele><time>2026-05-02T13:39:50Z</time></trkpt><trkpt lat="37.8678153852504" lon="15.07091071030793"><ele>695.25</ele><time>2026-05-02T13:39:51Z</time></trkpt><trkpt lat="37.867886434802955" lon="15.070773687319392"><ele>692.5</ele><time>2026-05-02T13:39:52Z</time></trkpt><trkpt lat="37.86796274128699" lon="15.0706214929899"><ele>689.75</ele><time>2026-05-02T13:39:53Z</time></trkpt><trkpt lat="37.86804924567746" lon="15.070459816552416"><ele>687.0</ele><time>2026-05-02T13:39:54Z</time></trkpt><trkpt lat="37.86813308848371" lon="15.070312001145286"><ele>687.0</ele><time>2026-05-02T13:39:55Z</time></trkpt><trkpt lat="37.86820972776542" lon="15.070178266252853"><ele>687.0</ele><time>2026-05-02T13:39:56Z</time></trkpt><trkpt lat="37.86828236283115" lon="15.070050240392831"><ele>687.0</ele><time>2026-05-02T13:39:57Z</time></trkpt><trkpt lat="37.86835139255036" lon="15.069919406090841"><ele>687.0</ele><time>2026-05-02T13:39:58Z</time></trkpt><trkpt lat="37.86842406826012" lon="15.069787285191396"><ele>684.25</ele><time>2026-05-02T13:39:59Z</time></trkpt><trkpt lat="37.868512169396176" lon="15.069663304262564"><ele>681.5</ele><time>2026-05-02T13:40:00Z</time></trkpt><trkpt lat="37.86857613185365" lon="15.069512632975249"><ele>678.75</ele><time>2026-05-02T13:40:01Z</time></trkpt><trkpt lat="37.86864833726066" lon="15.069377299388888"><ele>676.0</ele><time>2026-05-02T13:40:02Z</time></trkpt><trkpt lat="37.86870595792727" lon="15.069242082814124"><ele>676.0</ele><time>2026-05-02T13:40:03Z</time></trkpt><trkpt lat="37.86876655806695" lon="15.069112303624774"><ele>676.0</ele><time>2026-05-02T13:40:04Z</time></trkpt><trkpt lat="37.86882211941388" lon="15.06897507049294"><ele>676.0</ele><time>2026-05-02T13:40:05Z</time></trkpt><trkpt lat="37.868879500457965" lon="15.068834362631167"><ele>676.0</ele><time>2026-05-02T13:40:06Z</time></trkpt><trkpt lat="37.86894176446266" lon="15.068691589218135"><ele>676.0</ele><time>2026-05-02T13:40:07Z</time></trkpt><trkpt lat="37.86900507926177" lon="15.068550344664681"><ele>676.0</ele><time>2026-05-02T13:40:08Z</time></trkpt><trkpt lat="37.8690675311359" lon="15.068412489755755"><ele>676.0</ele><time>2026-05-02T13:40:09Z</time></trkpt><trkpt lat="37.86913235825799" lon="15.068286172284138"><ele>676.0</ele><time>2026-05-02T13:40:10Z</time></trkpt><trkpt lat="37.86922565035698" lon="15.068204666279758"><ele>674.0</ele><time>2026-05-02T13:40:11Z</time></trkpt><trkpt lat="37.869322102781766" lon="15.068139196678977"><ele>672.0</ele><time>2026-05-02T13:40:12Z</time></trkpt><trkpt lat="37.8694379134433" lon="15.0681077782882"><ele>670.0</ele><time>2026-05-02T13:40:13Z</time></trkpt><trkpt lat="37.869563477557726" lon="15.06807021433597"><ele>668.0</ele><time>2026-05-02T13:40:14Z</time></trkpt><trkpt lat="37.869694018620635" lon="15.068029672789143"><ele>668.0</ele><time>2026-05-02T13:40:15Z</time></trkpt><trkpt lat="37.869816499388065" lon="15.06799471252811"><ele>668.0</ele><time>2026-05-02T13:40:16Z</time></trkpt><trkpt lat="37.86993092756467" lon="15.067971678014164"><ele>668.0</ele><time>2026-05-02T13:40:17Z</time></trkpt><trkpt lat="37.87004095277727" lon="15.067971923530939"><ele>668.0</ele><time>2026-05-02T13:40:18Z</time></trkpt><trkpt lat="37.87015391883108" lon="15.067981782499032"><ele>666.8</ele><time>2026-05-02T13:40:19Z</time></trkpt><trkpt lat="37.870267579866244" lon="15.068000026155588"><ele>665.5999999999999</ele><time>2026-05-02T13:40:20Z</time></trkpt><trkpt lat="37.87037644420872" lon="15.067998121118462"><ele>664.4000000000001</ele><time>2026-05-02T13:40:21Z</time></trkpt><trkpt lat="37.870476881493516" lon="15.068024246885665"><ele>663.2</ele><time>2026-05-02T13:40:22Z</time></trkpt><trkpt lat="37.87057378771775" lon="15.06801340423879"><ele>662.0</ele><time>2026-05-02T13:40:23Z</time></trkpt><trkpt lat="37.870671571536754" lon="15.067994245080842"><ele>662.0</ele><time>2026-05-02T13:40:24Z</time></trkpt><trkpt lat="37.87076177626921" lon="15.06793547929048"><ele>662.0</ele><time>2026-05-02T13:40:25Z</time></trkpt><trkpt lat="37.870841357641915" lon="15.067837708966984"><ele>662.0</ele><time>2026-05-02T13:40:26Z</time></trkpt><trkpt lat="37.87091394745352" lon="15.067723827659698"><ele>662.0</ele><time>2026-05-02T13:40:27Z</time></trkpt><trkpt lat="37.87097509173626" lon="15.06759339109654"><ele>662.0</ele><time>2026-05-02T13:40:28Z</time></trkpt><trkpt lat="37.87103241072358" lon="15.06744946589466"><ele>660.5</ele><time>2026-05-02T13:40:29Z</time></trkpt><trkpt lat="37.871093882408914" lon="15.067303560631885"><ele>659.0</ele><time>2026-05-02T13:40:30Z</time></trkpt><trkpt lat="37.87116117711569" lon="15.067160886333479"><ele>657.5</ele><time>2026-05-02T13:40:30.999Z</time></trkpt><trkpt lat="37.871239417274275" lon="15.067034656548287"><ele>656.0</ele><time>2026-05-02T13:40:31.999Z</time></trkpt><trkpt lat="37.871306621444674" lon="15.066917323174563"><ele>656.0</ele><time>2026-05-02T13:40:32.999Z</time></trkpt><trkpt lat="37.871389712590855" lon="15.06681525853391"><ele>656.0</ele><time>2026-05-02T13:40:33.999Z</time></trkpt><trkpt lat="37.871490407495976" lon="15.066730459239347"><ele>656.0</ele><time>2026-05-02T13:40:34.999Z</time></trkpt><trkpt lat="37.87160394294806" lon="15.066667912059827"><ele>656.0</ele><time>2026-05-02T13:40:35.999Z</time></trkpt><trkpt lat="37.87172182983248" lon="15.06661092397148"><ele>654.5999999999999</ele><time>2026-05-02T13:40:36.999Z</time></trkpt><trkpt lat="37.87183415855924" lon="15.066554052409519"><ele>653.2</ele><time>2026-05-02T13:40:37.999Z</time></trkpt><trkpt lat="37.87193594769725" lon="15.066496522864448"><ele>651.8</ele><time>2026-05-02T13:40:38.999Z</time></trkpt><trkpt lat="37.87203563943952" lon="15.06644562336091"><ele>650.4000000000001</ele><time>2026-05-02T13:40:39.999Z</time></trkpt><trkpt lat="37.87213143751294" lon="15.066389393602503"><ele>649.0</ele><time>2026-05-02T13:40:40.999Z</time></trkpt><trkpt lat="37.87222062887421" lon="15.066334193272143"><ele>649.0</ele><time>2026-05-02T13:40:41.999Z</time></trkpt><trkpt lat="37.872300316061306" lon="15.066264770350909"><ele>649.0</ele><time>2026-05-02T13:40:42.999Z</time></trkpt><trkpt lat="37.872374135854784" lon="15.066200873361819"><ele>649.0</ele><time>2026-05-02T13:40:43.999Z</time></trkpt><trkpt lat="37.87244864776917" lon="15.066130580473262"><ele>649.0</ele><time>2026-05-02T13:40:44.999Z</time></trkpt><trkpt lat="37.872526710822065" lon="15.066051285243937"><ele>649.0</ele><time>2026-05-02T13:40:45.999Z</time></trkpt><trkpt lat="37.87260990274593" lon="15.065964067576472"><ele>647.0</ele><time>2026-05-02T13:40:46.999Z</time></trkpt><trkpt lat="37.87270443559227" lon="15.065885059392816"><ele>645.0</ele><time>2026-05-02T13:40:47.999Z</time></trkpt><trkpt lat="37.872800075667726" lon="15.06579483753371"><ele>643.0</ele><time>2026-05-02T13:40:48.999Z</time></trkpt><trkpt lat="37.872900354249346" lon="15.065702697243042"><ele>641.0</ele><time>2026-05-02T13:40:49.999Z</time></trkpt><trkpt lat="37.87299122886955" lon="15.065609822543667"><ele>641.0</ele><time>2026-05-02T13:40:50.999Z</time></trkpt><trkpt lat="37.87306951239399" lon="15.065501703462761"><ele>641.0</ele><time>2026-05-02T13:40:51.999Z</time></trkpt><trkpt lat="37.87313979147733" lon="15.065391307418835"><ele>641.0</ele><time>2026-05-02T13:40:52.999Z</time></trkpt><trkpt lat="37.87319506867455" lon="15.065269908442938"><ele>641.0</ele><time>2026-05-02T13:40:53.999Z</time></trkpt><trkpt lat="37.87322869803126" lon="15.065128683996946"><ele>641.0</ele><time>2026-05-02T13:40:54.999Z</time></trkpt><trkpt lat="37.87324928892157" lon="15.06495350503509"><ele>641.0</ele><time>2026-05-02T13:40:55.999Z</time></trkpt><trkpt lat="37.87326735028735" lon="15.064782839852679"><ele>641.0</ele><time>2026-05-02T13:40:56.999Z</time></trkpt><trkpt lat="37.87327218334483" lon="15.064613800000794"><ele>641.0</ele><time>2026-05-02T13:40:57.999Z</time></trkpt><trkpt lat="37.873303241081295" lon="15.064449308092296"><ele>641.25</ele><time>2026-05-02T13:40:58.999Z</time></trkpt><trkpt lat="37.87334785848187" lon="15.064296301056714"><ele>641.5</ele><time>2026-05-02T13:40:59.999Z</time></trkpt><trkpt lat="37.873412836664286" lon="15.064152763860434"><ele>641.75</ele><time>2026-05-02T13:41:00.999Z</time></trkpt><trkpt lat="37.87346904460531" lon="15.06400646528963"><ele>642.0</ele><time>2026-05-02T13:41:01.999Z</time></trkpt><trkpt lat="37.873527664970766" lon="15.063867012841591"><ele>641.0</ele><time>2026-05-02T13:41:02.999Z</time></trkpt><trkpt lat="37.873590864475126" lon="15.063730098061788"><ele>640.0</ele><time>2026-05-02T13:41:03.999Z</time></trkpt><trkpt lat="37.87365888588397" lon="15.06359720446575"><ele>639.0</ele><time>2026-05-02T13:41:04.999Z</time></trkpt><trkpt lat="37.87372327413865" lon="15.063460500691953"><ele>638.0</ele><time>2026-05-02T13:41:05.999Z</time></trkpt><trkpt lat="37.87380885286425" lon="15.063341605780307"><ele>638.0</ele><time>2026-05-02T13:41:06.999Z</time></trkpt><trkpt lat="37.87389112562995" lon="15.063215738060128"><ele>638.0</ele><time>2026-05-02T13:41:07.999Z</time></trkpt><trkpt lat="37.87399033830107" lon="15.063109827267063"><ele>638.0</ele><time>2026-05-02T13:41:08.999Z</time></trkpt><trkpt lat="37.87407092253454" lon="15.062974237023909"><ele>638.0</ele><time>2026-05-02T13:41:09.999Z</time></trkpt><trkpt lat="37.87416010345833" lon="15.062848502615912"><ele>638.0</ele><time>2026-05-02T13:41:10.999Z</time></trkpt><trkpt lat="37.87423961834207" lon="15.062720726292593"><ele>638.0</ele><time>2026-05-02T13:41:11.999Z</time></trkpt><trkpt lat="37.874311831157414" lon="15.062583472755337"><ele>638.0</ele><time>2026-05-02T13:41:12.999Z</time></trkpt><trkpt lat="37.87436804743674" lon="15.062425592012222"><ele>638.0</ele><time>2026-05-02T13:41:13.999Z</time></trkpt><trkpt lat="37.8744192842339" lon="15.062272078741024"><ele>637.6</ele><time>2026-05-02T13:41:14.999Z</time></trkpt><trkpt lat="37.874480948906694" lon="15.062133711198458"><ele>637.1999999999999</ele><time>2026-05-02T13:41:15.999Z</time></trkpt><trkpt lat="37.87453691205346" lon="15.062016434746214"><ele>636.8</ele><time>2026-05-02T13:41:16.998Z</time></trkpt><trkpt lat="37.87460857831593" lon="15.061922399541587"><ele>636.4</ele><time>2026-05-02T13:41:17.998Z</time></trkpt><trkpt lat="37.87468572547152" lon="15.061850088469347"><ele>636.0</ele><time>2026-05-02T13:41:18.998Z</time></trkpt><trkpt lat="37.87477394437626" lon="15.061810229645147"><ele>636.0</ele><time>2026-05-02T13:41:19.998Z</time></trkpt><trkpt lat="37.874869618078016" lon="15.061797079959035"><ele>636.0</ele><time>2026-05-02T13:41:20.998Z</time></trkpt><trkpt lat="37.8749775384186" lon="15.06181874601665"><ele>636.0</ele><time>2026-05-02T13:41:21.998Z</time></trkpt><trkpt lat="37.87509115586343" lon="15.061866385073497"><ele>636.0</ele><time>2026-05-02T13:41:22.998Z</time></trkpt><trkpt lat="37.87520277579404" lon="15.061912500354552"><ele>636.0</ele><time>2026-05-02T13:41:23.998Z</time></trkpt><trkpt lat="37.875309943615136" lon="15.061964078237368"><ele>636.75</ele><time>2026-05-02T13:41:24.998Z</time></trkpt><trkpt lat="37.875411757127544" lon="15.062036761737902"><ele>637.5</ele><time>2026-05-02T13:41:25.998Z</time></trkpt><trkpt lat="37.87551585673761" lon="15.06209857215485"><ele>638.25</ele><time>2026-05-02T13:41:26.998Z</time></trkpt><trkpt lat="37.875614521173524" lon="15.062174243058656"><ele>639.0</ele><time>2026-05-02T13:41:27.998Z</time></trkpt><trkpt lat="37.87572140586" lon="15.062247467356475"><ele>639.0</ele><time>2026-05-02T13:41:28.998Z</time></trkpt><trkpt lat="37.875808100694705" lon="15.062343231348107"><ele>639.0</ele><time>2026-05-02T13:41:29.998Z</time></trkpt><trkpt lat="37.87589393526354" lon="15.062428103863729"><ele>639.0</ele><time>2026-05-02T13:41:30.998Z</time></trkpt><trkpt lat="37.87597366658851" lon="15.062535477008687"><ele>639.0</ele><time>2026-05-02T13:41:31.998Z</time></trkpt><trkpt lat="37.87603104250134" lon="15.062668888790899"><ele>637.0</ele><time>2026-05-02T13:41:32.998Z</time></trkpt><trkpt lat="37.87609974259373" lon="15.062791497280964"><ele>635.0</ele><time>2026-05-02T13:41:33.998Z</time></trkpt><trkpt lat="37.87616789039865" lon="15.06291720307608"><ele>633.0</ele><time>2026-05-02T13:41:34.998Z</time></trkpt><trkpt lat="37.876236711342266" lon="15.063040820881943"><ele>631.0</ele><time>2026-05-02T13:41:35.998Z</time></trkpt><trkpt lat="37.87632654054869" lon="15.063149989600026"><ele>631.0</ele><time>2026-05-02T13:41:36.998Z</time></trkpt><trkpt lat="37.87640939691024" lon="15.06325524686303"><ele>631.0</ele><time>2026-05-02T13:41:37.998Z</time></trkpt><trkpt lat="37.8765006390333" lon="15.06332315183152"><ele>631.0</ele><time>2026-05-02T13:41:38.998Z</time></trkpt><trkpt lat="37.87660502966364" lon="15.063353925962177"><ele>631.0</ele><time>2026-05-02T13:41:39.998Z</time></trkpt><trkpt lat="37.87672414941275" lon="15.063350732106786"><ele>631.0</ele><time>2026-05-02T13:41:40.998Z</time></trkpt><trkpt lat="37.876852086538726" lon="15.063307714975215"><ele>629.0</ele><time>2026-05-02T13:41:41.998Z</time></trkpt><trkpt lat="37.87698284741525" lon="15.063250321999327"><ele>627.0</ele><time>2026-05-02T13:41:42.998Z</time></trkpt><trkpt lat="37.8771065482623" lon="15.063242117756428"><ele>625.0</ele><time>2026-05-02T13:41:43.998Z</time></trkpt><trkpt lat="37.877223106852384" lon="15.063243757022068"><ele>623.0</ele><time>2026-05-02T13:41:44.998Z</time></trkpt><trkpt lat="37.87731959830048" lon="15.0632988892966"><ele>621.75</ele><time>2026-05-02T13:41:45.998Z</time></trkpt><trkpt lat="37.87741309584382" lon="15.06337686671985"><ele>620.5</ele><time>2026-05-02T13:41:46.998Z</time></trkpt><trkpt lat="37.87746143629749" lon="15.063514566828443"><ele>619.25</ele><time>2026-05-02T13:41:47.998Z</time></trkpt><trkpt lat="37.87753863241874" lon="15.063641982831175"><ele>618.0</ele><time>2026-05-02T13:41:48.998Z</time></trkpt><trkpt lat="37.87760793458529" lon="15.063748852021961"><ele>617.1999999999999</ele><time>2026-05-02T13:41:49.998Z</time></trkpt><trkpt lat="37.87768058681112" lon="15.063839416536629"><ele>616.4</ele><time>2026-05-02T13:41:50.998Z</time></trkpt><trkpt lat="37.87777589915675" lon="15.0638780266126"><ele>615.5999999999999</ele><time>2026-05-02T13:41:51.998Z</time></trkpt><trkpt lat="37.87786569393299" lon="15.063940421649653"><ele>614.8</ele><time>2026-05-02T13:41:52.998Z</time></trkpt><trkpt lat="37.877974693254664" lon="15.063910458503141"><ele>614.0</ele><time>2026-05-02T13:41:53.998Z</time></trkpt><trkpt lat="37.87806982686863" lon="15.06387865992411"><ele>614.0</ele><time>2026-05-02T13:41:55Z</time></trkpt><trkpt lat="37.87816151400992" lon="15.063835074081629"><ele>614.0</ele><time>2026-05-02T13:41:56Z</time></trkpt><trkpt lat="37.87825128070964" lon="15.063788015578064"><ele>614.0</ele><time>2026-05-02T13:41:57Z</time></trkpt><trkpt lat="37.87833627884155" lon="15.063731261584044"><ele>614.0</ele><time>2026-05-02T13:41:58Z</time></trkpt><trkpt lat="37.87842540845552" lon="15.063684004817457"><ele>614.0</ele><time>2026-05-02T13:41:59Z</time></trkpt><trkpt lat="37.87851079583364" lon="15.063634349630435"><ele>612.8</ele><time>2026-05-02T13:42:00Z</time></trkpt><trkpt lat="37.87859519138045" lon="15.063590365037198"><ele>611.5999999999999</ele><time>2026-05-02T13:42:01Z</time></trkpt><trkpt lat="37.87867869985879" lon="15.063558132158823"><ele>610.4</ele><time>2026-05-02T13:42:02Z</time></trkpt><trkpt lat="37.87876655293706" lon="15.063554706824917"><ele>609.1999999999999</ele><time>2026-05-02T13:42:03Z</time></trkpt><trkpt lat="37.878863269692374" lon="15.063556459662706"><ele>608.0</ele><time>2026-05-02T13:42:04Z</time></trkpt><trkpt lat="37.87896831856962" lon="15.063567715286128"><ele>608.0</ele><time>2026-05-02T13:42:05Z</time></trkpt><trkpt lat="37.87907090505245" lon="15.063570724248562"><ele>608.0</ele><time>2026-05-02T13:42:06Z</time></trkpt><trkpt lat="37.87917994218409" lon="15.063573739663873"><ele>608.0</ele><time>2026-05-02T13:42:07Z</time></trkpt><trkpt lat="37.879294436150275" lon="15.063575527281413"><ele>608.0</ele><time>2026-05-02T13:42:08Z</time></trkpt><trkpt lat="37.879412053731244" lon="15.063578112740688"><ele>608.0</ele><time>2026-05-02T13:42:09Z</time></trkpt><trkpt lat="37.87953655890329" lon="15.063578819058336"><ele>605.5</ele><time>2026-05-02T13:42:10Z</time></trkpt><trkpt lat="37.879669127797065" lon="15.063584777548286"><ele>603.0</ele><time>2026-05-02T13:42:11Z</time></trkpt><trkpt lat="37.879801477554096" lon="15.063592553138543"><ele>600.5</ele><time>2026-05-02T13:42:12Z</time></trkpt><trkpt lat="37.879927721235134" lon="15.063619648973111"><ele>598.0</ele><time>2026-05-02T13:42:13Z</time></trkpt><trkpt lat="37.880046296029995" lon="15.063701486645165"><ele>593.5</ele><time>2026-05-02T13:42:14Z</time></trkpt><trkpt lat="37.88016410770367" lon="15.06376995044041"><ele>589.0</ele><time>2026-05-02T13:42:15Z</time></trkpt><trkpt lat="37.880275626601744" lon="15.063845041266687"><ele>584.5</ele><time>2026-05-02T13:42:16Z</time></trkpt><trkpt lat="37.88038525615308" lon="15.063918005067336"><ele>580.0</ele><time>2026-05-02T13:42:17Z</time></trkpt><trkpt lat="37.88049379470255" lon="15.063989349599296"><ele>580.0</ele><time>2026-05-02T13:42:18Z</time></trkpt><trkpt lat="37.88059252641015" lon="15.064053513707123"><ele>580.0</ele><time>2026-05-02T13:42:19Z</time></trkpt><trkpt lat="37.880682253478774" lon="15.064108352401055"><ele>580.0</ele><time>2026-05-02T13:42:20Z</time></trkpt><trkpt lat="37.88077226276565" lon="15.064141245870998"><ele>580.0</ele><time>2026-05-02T13:42:21Z</time></trkpt><trkpt lat="37.88084452391265" lon="15.064193376990225"><ele>580.0</ele><time>2026-05-02T13:42:22Z</time></trkpt><trkpt lat="37.88090303026716" lon="15.064245898387767"><ele>579.0</ele><time>2026-05-02T13:42:23Z</time></trkpt><trkpt lat="37.88097014353803" lon="15.064277012549583"><ele>578.0</ele><time>2026-05-02T13:42:24Z</time></trkpt><trkpt lat="37.88103216465891" lon="15.064313635149414"><ele>577.0</ele><time>2026-05-02T13:42:25Z</time></trkpt><trkpt lat="37.881133383104356" lon="15.064372150037428"><ele>576.0</ele><time>2026-05-02T13:42:27Z</time></trkpt><trkpt lat="37.88124064324295" lon="15.064404824234694"><ele>575.0</ele><time>2026-05-02T13:42:29Z</time></trkpt><trkpt lat="37.881357433968375" lon="15.064439865621813"><ele>575.0</ele><time>2026-05-02T13:42:30.999Z</time></trkpt><trkpt lat="37.88142864452359" lon="15.064415405133856"><ele>575.0</ele><time>2026-05-02T13:42:31.999Z</time></trkpt><trkpt lat="37.881502968079594" lon="15.06440417648809"><ele>575.0</ele><time>2026-05-02T13:42:32.999Z</time></trkpt><trkpt lat="37.88158266084229" lon="15.06438909929706"><ele>575.0</ele><time>2026-05-02T13:42:33.999Z</time></trkpt><trkpt lat="37.88166876383737" lon="15.064368077315804"><ele>575.0</ele><time>2026-05-02T13:42:34.999Z</time></trkpt><trkpt lat="37.8817570736648" lon="15.06434493681821"><ele>575.0</ele><time>2026-05-02T13:42:35.999Z</time></trkpt><trkpt lat="37.88185008747096" lon="15.064322567331086"><ele>574.3333333333333</ele><time>2026-05-02T13:42:36.999Z</time></trkpt><trkpt lat="37.88193519806269" lon="15.064303467861203"><ele>573.6666666666666</ele><time>2026-05-02T13:42:37.999Z</time></trkpt><trkpt lat="37.882020614548274" lon="15.064283109856204"><ele>573.0</ele><time>2026-05-02T13:42:38.999Z</time></trkpt><trkpt lat="37.882101812857435" lon="15.064259739625824"><ele>572.3333333333334</ele><time>2026-05-02T13:42:39.999Z</time></trkpt><trkpt lat="37.88218676392538" lon="15.064240618065424"><ele>571.6666666666667</ele><time>2026-05-02T13:42:40.999Z</time></trkpt><trkpt lat="37.882271750904934" lon="15.064220818862115"><ele>571.0</ele><time>2026-05-02T13:42:41.999Z</time></trkpt><trkpt lat="37.88235881004721" lon="15.06420388974925"><ele>571.0</ele><time>2026-05-02T13:42:42.999Z</time></trkpt><trkpt lat="37.882451174159236" lon="15.064211471598783"><ele>571.0</ele><time>2026-05-02T13:42:43.999Z</time></trkpt><trkpt lat="37.88254058017982" lon="15.064233793779033"><ele>571.0</ele><time>2026-05-02T13:42:44.999Z</time></trkpt><trkpt lat="37.88262141400179" lon="15.064295541488578"><ele>571.0</ele><time>2026-05-02T13:42:45.999Z</time></trkpt><trkpt lat="37.882706909248085" lon="15.064350278477445"><ele>571.0</ele><time>2026-05-02T13:42:46.999Z</time></trkpt><trkpt lat="37.88279427542755" lon="15.064411301345109"><ele>569.6</ele><time>2026-05-02T13:42:47.999Z</time></trkpt><trkpt lat="37.88288796500993" lon="15.064463233340009"><ele>568.2</ele><time>2026-05-02T13:42:48.999Z</time></trkpt><trkpt lat="37.88298741545888" lon="15.064500488276904"><ele>566.8</ele><time>2026-05-02T13:42:49.999Z</time></trkpt><trkpt lat="37.88308900446584" lon="15.064513282443125"><ele>565.4</ele><time>2026-05-02T13:42:50.999Z</time></trkpt><trkpt lat="37.88317851634948" lon="15.064545804354562"><ele>564.0</ele><time>2026-05-02T13:42:51.999Z</time></trkpt><trkpt lat="37.883266734470965" lon="15.064564251624947"><ele>564.0</ele><time>2026-05-02T13:42:52.999Z</time></trkpt><trkpt lat="37.88334282804146" lon="15.0645742833279"><ele>564.0</ele><time>2026-05-02T13:42:53.999Z</time></trkpt><trkpt lat="37.883410320628094" lon="15.064581493797483"><ele>564.0</ele><time>2026-05-02T13:42:54.999Z</time></trkpt><trkpt lat="37.88353091876881" lon="15.064577698534107"><ele>564.0</ele><time>2026-05-02T13:42:56.999Z</time></trkpt><trkpt lat="37.88362003291595" lon="15.064554060268785"><ele>564.0</ele><time>2026-05-02T13:42:58.999Z</time></trkpt><trkpt lat="37.88372812452776" lon="15.06469562716521"><ele>563.1666666666666</ele><time>2026-05-02T13:43:00.999Z</time></trkpt><trkpt lat="37.88376998064641" lon="15.06478447603294"><ele>562.3333333333334</ele><time>2026-05-02T13:43:01.999Z</time></trkpt><trkpt lat="37.883761247933926" lon="15.06488599736147"><ele>561.5</ele><time>2026-05-02T13:43:02.999Z</time></trkpt><trkpt lat="37.88375739571318" lon="15.064971977253151"><ele>560.6666666666667</ele><time>2026-05-02T13:43:03.999Z</time></trkpt><trkpt lat="37.88371756969975" lon="15.065046618039736"><ele>559.8333333333334</ele><time>2026-05-02T13:43:04.999Z</time></trkpt><trkpt lat="37.88368187184508" lon="15.065128711109683"><ele>559.0</ele><time>2026-05-02T13:43:05.999Z</time></trkpt><trkpt lat="37.88363768011052" lon="15.065206443907812"><ele>558.8333333333334</ele><time>2026-05-02T13:43:06.999Z</time></trkpt><trkpt lat="37.88360721816946" lon="15.065299608153982"><ele>558.6666666666667</ele><time>2026-05-02T13:43:07.999Z</time></trkpt><trkpt lat="37.883598268125866" lon="15.065406997323775"><ele>558.5</ele><time>2026-05-02T13:43:08.999Z</time></trkpt><trkpt lat="37.88362035135972" lon="15.06551693040455"><ele>558.3333333333334</ele><time>2026-05-02T13:43:09.999Z</time></trkpt><trkpt lat="37.883662124167394" lon="15.065622937326667"><ele>558.1666666666666</ele><time>2026-05-02T13:43:10.999Z</time></trkpt><trkpt lat="37.88369007101004" lon="15.06573733068153"><ele>558.0</ele><time>2026-05-02T13:43:11.999Z</time></trkpt><trkpt lat="37.88371906128979" lon="15.06584861211523"><ele>557.8</ele><time>2026-05-02T13:43:12.999Z</time></trkpt><trkpt lat="37.88374630985917" lon="15.065956130408091"><ele>557.5999999999999</ele><time>2026-05-02T13:43:13.999Z</time></trkpt><trkpt lat="37.88375881763246" lon="15.066056955887825"><ele>557.4000000000001</ele><time>2026-05-02T13:43:14.999Z</time></trkpt><trkpt lat="37.88375945279425" lon="15.066141149889335"><ele>557.2</ele><time>2026-05-02T13:43:15.999Z</time></trkpt><trkpt lat="37.883735992499204" lon="15.066251242330251"><ele>557.0</ele><time>2026-05-02T13:43:17.999Z</time></trkpt><trkpt lat="37.88382370931389" lon="15.066371179152416"><ele>557.0</ele><time>2026-05-02T13:43:20.998Z</time></trkpt><trkpt lat="37.88389187907578" lon="15.06641434041515"><ele>557.0</ele><time>2026-05-02T13:43:21.998Z</time></trkpt><trkpt lat="37.88397994904904" lon="15.066433797723057"><ele>557.0</ele><time>2026-05-02T13:43:22.998Z</time></trkpt><trkpt lat="37.88407233327164" lon="15.066472750777017"><ele>557.0</ele><time>2026-05-02T13:43:23.998Z</time></trkpt><trkpt lat="37.88416742547822" lon="15.066510415288576"><ele>557.0</ele><time>2026-05-02T13:43:24.998Z</time></trkpt><trkpt lat="37.88426462706834" lon="15.06654932000703"><ele>557.0</ele><time>2026-05-02T13:43:25.998Z</time></trkpt><trkpt lat="37.88435876341571" lon="15.06659302726711"><ele>557.0</ele><time>2026-05-02T13:43:26.998Z</time></trkpt><trkpt lat="37.884458896489434" lon="15.066630164490332"><ele>557.0</ele><time>2026-05-02T13:43:27.998Z</time></trkpt><trkpt lat="37.884562520340666" lon="15.066664475241705"><ele>557.0</ele><time>2026-05-02T13:43:28.998Z</time></trkpt><trkpt lat="37.88466888777307" lon="15.066681216425364"><ele>557.0</ele><time>2026-05-02T13:43:29.998Z</time></trkpt><trkpt lat="37.884757405791554" lon="15.066721983231348"><ele>556.8333333333333</ele><time>2026-05-02T13:43:30.998Z</time></trkpt><trkpt lat="37.8848390020585" lon="15.066749052626886"><ele>556.6666666666666</ele><time>2026-05-02T13:43:31.998Z</time></trkpt><trkpt lat="37.88492575983129" lon="15.066781869878769"><ele>556.5</ele><time>2026-05-02T13:43:32.998Z</time></trkpt><trkpt lat="37.885012707909716" lon="15.066786208230583"><ele>556.3333333333334</ele><time>2026-05-02T13:43:33.998Z</time></trkpt><trkpt lat="37.88508979306625" lon="15.06680947981618"><ele>556.1666666666667</ele><time>2026-05-02T13:43:34.998Z</time></trkpt><trkpt lat="37.88515589971365" lon="15.066860650662962"><ele>556.0</ele><time>2026-05-02T13:43:35.998Z</time></trkpt><trkpt lat="37.885234075893216" lon="15.066858411537623"><ele>555.1666666666667</ele><time>2026-05-02T13:43:36.998Z</time></trkpt><trkpt lat="37.885318925826255" lon="15.066848539394892"><ele>554.3333333333334</ele><time>2026-05-02T13:43:37.998Z</time></trkpt><trkpt lat="37.88540835390993" lon="15.066833706161788"><ele>553.5</ele><time>2026-05-02T13:43:38.998Z</time></trkpt><trkpt lat="37.885496108111404" lon="15.066815913332508"><ele>552.6666666666666</ele><time>2026-05-02T13:43:39.998Z</time></trkpt><trkpt lat="37.88557617554224" lon="15.066792749101678"><ele>551.8333333333333</ele><time>2026-05-02T13:43:40.998Z</time></trkpt><trkpt lat="37.885650178947174" lon="15.066789518579375"><ele>551.0</ele><time>2026-05-02T13:43:41.998Z</time></trkpt><trkpt lat="37.88571449955327" lon="15.066845772066765"><ele>551.0</ele><time>2026-05-02T13:43:42.998Z</time></trkpt><trkpt lat="37.88577780400761" lon="15.066893419378601"><ele>551.0</ele><time>2026-05-02T13:43:43.998Z</time></trkpt><trkpt lat="37.88582607337725" lon="15.066991836357646"><ele>551.0</ele><time>2026-05-02T13:43:44.998Z</time></trkpt><trkpt lat="37.88590786478403" lon="15.067068590542508"><ele>551.0</ele><time>2026-05-02T13:43:45.998Z</time></trkpt><trkpt lat="37.88598843798925" lon="15.067121955230927"><ele>551.0</ele><time>2026-05-02T13:43:46.998Z</time></trkpt><trkpt lat="37.88605919365918" lon="15.067165881667542"><ele>551.0</ele><time>2026-05-02T13:43:47.998Z</time></trkpt><trkpt lat="37.886128270283876" lon="15.067213070866693"><ele>550.8333333333333</ele><time>2026-05-02T13:43:48.998Z</time></trkpt><trkpt lat="37.88619425334782" lon="15.067270356976241"><ele>550.6666666666666</ele><time>2026-05-02T13:43:49.998Z</time></trkpt><trkpt lat="37.88626043662226" lon="15.06733951598673"><ele>550.5</ele><time>2026-05-02T13:43:50.998Z</time></trkpt><trkpt lat="37.886328502169036" lon="15.067406372036501"><ele>550.3333333333334</ele><time>2026-05-02T13:43:51.998Z</time></trkpt><trkpt lat="37.886410529671394" lon="15.067430936032194"><ele>550.1666666666667</ele><time>2026-05-02T13:43:52.998Z</time></trkpt><trkpt lat="37.88649452141451" lon="15.067461689686798"><ele>550.0</ele><time>2026-05-02T13:43:53.998Z</time></trkpt><trkpt lat="37.88656833932228" lon="15.067524985810511"><ele>549.8</ele><time>2026-05-02T13:43:54.998Z</time></trkpt><trkpt lat="37.88664884317337" lon="15.067576476487751"><ele>549.6</ele><time>2026-05-02T13:43:55.998Z</time></trkpt><trkpt lat="37.88673047636977" lon="15.0676209745381"><ele>549.4</ele><time>2026-05-02T13:43:56.998Z</time></trkpt><trkpt lat="37.88681121348891" lon="15.06766231664523"><ele>549.2</ele><time>2026-05-02T13:43:57.998Z</time></trkpt><trkpt lat="37.88689443643682" lon="15.067704931589068"><ele>549.0</ele><time>2026-05-02T13:43:58.998Z</time></trkpt><trkpt lat="37.88698145677459" lon="15.067749017139983"><ele>548.5</ele><time>2026-05-02T13:43:59.998Z</time></trkpt><trkpt lat="37.88707087393846" lon="15.067781480118366"><ele>548.0</ele><time>2026-05-02T13:44:01Z</time></trkpt><trkpt lat="37.887154610290644" lon="15.06781630770074"><ele>547.5</ele><time>2026-05-02T13:44:02Z</time></trkpt><trkpt lat="37.88723338341401" lon="15.067873769470374"><ele>547.0</ele><time>2026-05-02T13:44:03Z</time></trkpt><trkpt lat="37.88730992841796" lon="15.067912965455697"><ele>546.5</ele><time>2026-05-02T13:44:04Z</time></trkpt><trkpt lat="37.88738461915789" lon="15.067928983629388"><ele>546.0</ele><time>2026-05-02T13:44:05Z</time></trkpt><trkpt lat="37.88744781065407" lon="15.067963532214339"><ele>546.0</ele><time>2026-05-02T13:44:06Z</time></trkpt><trkpt lat="37.88755617486967" lon="15.068060454947794"><ele>546.0</ele><time>2026-05-02T13:44:08Z</time></trkpt><trkpt lat="37.887614761136724" lon="15.068113268988377"><ele>546.0</ele><time>2026-05-02T13:44:09Z</time></trkpt><trkpt lat="37.887673797558364" lon="15.068173997394446"><ele>546.0</ele><time>2026-05-02T13:44:10Z</time></trkpt><trkpt lat="37.88773345407266" lon="15.068232381059971"><ele>546.0</ele><time>2026-05-02T13:44:11Z</time></trkpt><trkpt lat="37.8877966294572" lon="15.06828707277519"><ele>546.0</ele><time>2026-05-02T13:44:12Z</time></trkpt><trkpt lat="37.88785472585821" lon="15.06833282000127"><ele>544.0</ele><time>2026-05-02T13:44:13Z</time></trkpt><trkpt lat="37.8879487777809" lon="15.06839557497574"><ele>542.0</ele><time>2026-05-02T13:44:15Z</time></trkpt><trkpt lat="37.8880525551878" lon="15.068370743133391"><ele>540.0</ele><time>2026-05-02T13:44:17Z</time></trkpt><trkpt lat="37.88815699055386" lon="15.068397884192555"><ele>538.0</ele><time>2026-05-02T13:44:19Z</time></trkpt><trkpt lat="37.88824176690106" lon="15.068462208252168"><ele>536.0</ele><time>2026-05-02T13:44:21Z</time></trkpt><trkpt lat="37.888304879751026" lon="15.068492043296281"><ele>536.0</ele><time>2026-05-02T13:44:22Z</time></trkpt><trkpt lat="37.88836422154488" lon="15.068522476781316"><ele>536.0</ele><time>2026-05-02T13:44:23Z</time></trkpt><trkpt lat="37.8884808968363" lon="15.068576486871182"><ele>536.0</ele><time>2026-05-02T13:44:25Z</time></trkpt><trkpt lat="37.8885652865162" lon="15.068583874532424"><ele>536.0</ele><time>2026-05-02T13:44:26Z</time></trkpt><trkpt lat="37.888649558620436" lon="15.068622406172326"><ele>536.0</ele><time>2026-05-02T13:44:27Z</time></trkpt><trkpt lat="37.8887373172588" lon="15.068658846783311"><ele>535.3333333333333</ele><time>2026-05-02T13:44:28Z</time></trkpt><trkpt lat="37.88882123875542" lon="15.068708460236374"><ele>534.6666666666666</ele><time>2026-05-02T13:44:29Z</time></trkpt><trkpt lat="37.88889303687209" lon="15.068756486044395"><ele>534.0</ele><time>2026-05-02T13:44:30Z</time></trkpt><trkpt lat="37.888974444334316" lon="15.06880254461271"><ele>533.3333333333334</ele><time>2026-05-02T13:44:32Z</time></trkpt><trkpt lat="37.88907088657585" lon="15.068818463505904"><ele>532.6666666666667</ele><time>2026-05-02T13:44:33.999Z</time></trkpt><trkpt lat="37.88913593400369" lon="15.068825448281096"><ele>532.0</ele><time>2026-05-02T13:44:34.999Z</time></trkpt><trkpt lat="37.88920824253925" lon="15.068854434350442"><ele>530.5</ele><time>2026-05-02T13:44:35.999Z</time></trkpt><trkpt lat="37.889290814705305" lon="15.06889907594257"><ele>529.0</ele><time>2026-05-02T13:44:36.999Z</time></trkpt><trkpt lat="37.889376090115896" lon="15.068959614779953"><ele>527.5</ele><time>2026-05-02T13:44:37.999Z</time></trkpt><trkpt lat="37.889450850557274" lon="15.06901959215783"><ele>526.0</ele><time>2026-05-02T13:44:38.999Z</time></trkpt><trkpt lat="37.88952655418483" lon="15.069071617079237"><ele>524.5</ele><time>2026-05-02T13:44:39.999Z</time></trkpt><trkpt lat="37.88960222479537" lon="15.069123012651506"><ele>523.0</ele><time>2026-05-02T13:44:40.999Z</time></trkpt><trkpt lat="37.88967484171571" lon="15.069164405856528"><ele>523.0</ele><time>2026-05-02T13:44:41.999Z</time></trkpt><trkpt lat="37.8897372339835" lon="15.069199817573859"><ele>523.0</ele><time>2026-05-02T13:44:42.999Z</time></trkpt><trkpt lat="37.889810764839126" lon="15.06925552526088"><ele>523.0</ele><time>2026-05-02T13:44:44.999Z</time></trkpt><trkpt lat="37.88989870024738" lon="15.069255760205188"><ele>523.0</ele><time>2026-05-02T13:44:48.999Z</time></trkpt><trkpt lat="37.88996724221265" lon="15.069111665928345"><ele>523.0</ele><time>2026-05-02T13:44:50.999Z</time></trkpt><trkpt lat="37.89001005576292" lon="15.069012148216126"><ele>523.0</ele><time>2026-05-02T13:44:51.999Z</time></trkpt><trkpt lat="37.89006252704426" lon="15.068902946498044"><ele>523.0</ele><time>2026-05-02T13:44:52.999Z</time></trkpt><trkpt lat="37.890117064593674" lon="15.068788456766944"><ele>523.0</ele><time>2026-05-02T13:44:53.999Z</time></trkpt><trkpt lat="37.890176012298944" lon="15.068679533565241"><ele>523.0</ele><time>2026-05-02T13:44:54.999Z</time></trkpt><trkpt lat="37.890229749850285" lon="15.068571175835896"><ele>523.0</ele><time>2026-05-02T13:44:55.999Z</time></trkpt><trkpt lat="37.89027440791248" lon="15.068471902737578"><ele>523.0</ele><time>2026-05-02T13:44:56.999Z</time></trkpt><trkpt lat="37.89031529566403" lon="15.068378682067708"><ele>523.0</ele><time>2026-05-02T13:44:57.999Z</time></trkpt><trkpt lat="37.89035580049463" lon="15.068277853320307"><ele>523.0</ele><time>2026-05-02T13:44:58.999Z</time></trkpt><trkpt lat="37.890395244572694" lon="15.06816767762724"><ele>523.0</ele><time>2026-05-02T13:44:59.999Z</time></trkpt><trkpt lat="37.89044237880452" lon="15.068056794302583"><ele>523.0</ele><time>2026-05-02T13:45:00.999Z</time></trkpt><trkpt lat="37.890495617911576" lon="15.067937439565336"><ele>524.25</ele><time>2026-05-02T13:45:01.999Z</time></trkpt><trkpt lat="37.8905593340294" lon="15.067810822645372"><ele>525.5</ele><time>2026-05-02T13:45:02.999Z</time></trkpt><trkpt lat="37.89062801508489" lon="15.067680151693118"><ele>526.75</ele><time>2026-05-02T13:45:03.999Z</time></trkpt><trkpt lat="37.890705313173335" lon="15.06755500681365"><ele>528.0</ele><time>2026-05-02T13:45:04.999Z</time></trkpt><trkpt lat="37.89077399078894" lon="15.067431129222802"><ele>527.0</ele><time>2026-05-02T13:45:05.999Z</time></trkpt><trkpt lat="37.89085076420225" lon="15.067307541616396"><ele>526.0</ele><time>2026-05-02T13:45:06.999Z</time></trkpt><trkpt lat="37.89091309988765" lon="15.067165119304141"><ele>525.0</ele><time>2026-05-02T13:45:07.999Z</time></trkpt><trkpt lat="37.890966390475356" lon="15.067008809242747"><ele>524.0</ele><time>2026-05-02T13:45:08.999Z</time></trkpt><trkpt lat="37.89103763868043" lon="15.06687013577651"><ele>524.0</ele><time>2026-05-02T13:45:09.999Z</time></trkpt><trkpt lat="37.89110071497656" lon="15.066721613937602"><ele>524.0</ele><time>2026-05-02T13:45:10.999Z</time></trkpt><trkpt lat="37.89116692759568" lon="15.066570845477552"><ele>524.0</ele><time>2026-05-02T13:45:11.999Z</time></trkpt><trkpt lat="37.89123727246976" lon="15.066418402331754"><ele>524.0</ele><time>2026-05-02T13:45:12.999Z</time></trkpt><trkpt lat="37.89129804908441" lon="15.06625342757081"><ele>524.5</ele><time>2026-05-02T13:45:13.999Z</time></trkpt><trkpt lat="37.89138664828019" lon="15.066107717453756"><ele>525.0</ele><time>2026-05-02T13:45:14.999Z</time></trkpt><trkpt lat="37.89145785513647" lon="15.065952566803077"><ele>525.5</ele><time>2026-05-02T13:45:15.999Z</time></trkpt><trkpt lat="37.89151784167146" lon="15.065788653587136"><ele>526.0</ele><time>2026-05-02T13:45:16.999Z</time></trkpt><trkpt lat="37.89156204143123" lon="15.065627923056377"><ele>526.5</ele><time>2026-05-02T13:45:17.999Z</time></trkpt><trkpt lat="37.89161047741618" lon="15.065467042516328"><ele>527.0</ele><time>2026-05-02T13:45:18.999Z</time></trkpt><trkpt lat="37.89164611923124" lon="15.065296522924356"><ele>527.5</ele><time>2026-05-02T13:45:19.999Z</time></trkpt><trkpt lat="37.891673967592645" lon="15.065118044122048"><ele>528.0</ele><time>2026-05-02T13:45:20.999Z</time></trkpt><trkpt lat="37.89168269535366" lon="15.064945746267087"><ele>528.5</ele><time>2026-05-02T13:45:21.998Z</time></trkpt><trkpt lat="37.891663057782246" lon="15.064773096478278"><ele>529.0</ele><time>2026-05-02T13:45:22.998Z</time></trkpt><trkpt lat="37.89162620637798" lon="15.064592186116128"><ele>529.5</ele><time>2026-05-02T13:45:23.998Z</time></trkpt><trkpt lat="37.89159185720283" lon="15.064405815494426"><ele>530.0</ele><time>2026-05-02T13:45:24.998Z</time></trkpt><trkpt lat="37.891575822136474" lon="15.064219118891536"><ele>530.5</ele><time>2026-05-02T13:45:25.998Z</time></trkpt><trkpt lat="37.891558690612605" lon="15.064043595514212"><ele>531.0</ele><time>2026-05-02T13:45:26.998Z</time></trkpt><trkpt lat="37.89159570822826" lon="15.063878814771943"><ele>531.5</ele><time>2026-05-02T13:45:27.998Z</time></trkpt><trkpt lat="37.8916455385025" lon="15.063736558262413"><ele>532.0</ele><time>2026-05-02T13:45:28.998Z</time></trkpt><trkpt lat="37.891708702924" lon="15.06359704909531"><ele>531.25</ele><time>2026-05-02T13:45:29.998Z</time></trkpt><trkpt lat="37.891784430350704" lon="15.06346299675568"><ele>530.5</ele><time>2026-05-02T13:45:30.998Z</time></trkpt><trkpt lat="37.891853826514556" lon="15.06332758417462"><ele>529.75</ele><time>2026-05-02T13:45:31.998Z</time></trkpt><trkpt lat="37.89191944408341" lon="15.063186084864029"><ele>529.0</ele><time>2026-05-02T13:45:32.998Z</time></trkpt><trkpt lat="37.89198115736455" lon="15.063043453143473"><ele>528.8</ele><time>2026-05-02T13:45:33.998Z</time></trkpt><trkpt lat="37.892046436615104" lon="15.062921177457868"><ele>528.5999999999999</ele><time>2026-05-02T13:45:34.998Z</time></trkpt><trkpt lat="37.89210484091346" lon="15.062811484475871"><ele>528.4</ele><time>2026-05-02T13:45:35.998Z</time></trkpt><trkpt lat="37.89215854585031" lon="15.06270703168969"><ele>528.1999999999999</ele><time>2026-05-02T13:45:36.998Z</time></trkpt><trkpt lat="37.8922156886928" lon="15.062616346283253"><ele>528.0</ele><time>2026-05-02T13:45:37.998Z</time></trkpt><trkpt lat="37.89228045425373" lon="15.06252895498397"><ele>528.0</ele><time>2026-05-02T13:45:38.998Z</time></trkpt><trkpt lat="37.89237001137452" lon="15.062448562841617"><ele>528.0</ele><time>2026-05-02T13:45:39.998Z</time></trkpt><trkpt lat="37.89246815514592" lon="15.062373887585405"><ele>528.0</ele><time>2026-05-02T13:45:40.998Z</time></trkpt><trkpt lat="37.8925540564028" lon="15.062280739905265"><ele>528.0</ele><time>2026-05-02T13:45:41.998Z</time></trkpt><trkpt lat="37.892611008997406" lon="15.062165180622078"><ele>528.0</ele><time>2026-05-02T13:45:42.998Z</time></trkpt><trkpt lat="37.89264683333701" lon="15.062026920113418"><ele>527.75</ele><time>2026-05-02T13:45:43.998Z</time></trkpt><trkpt lat="37.89266077340778" lon="15.061876017708139"><ele>527.5</ele><time>2026-05-02T13:45:44.998Z</time></trkpt><trkpt lat="37.892652267097255" lon="15.061714644938748"><ele>527.25</ele><time>2026-05-02T13:45:45.998Z</time></trkpt><trkpt lat="37.89263466554324" lon="15.061548940895603"><ele>527.0</ele><time>2026-05-02T13:45:46.998Z</time></trkpt><trkpt lat="37.89264638149299" lon="15.061395312623263"><ele>526.25</ele><time>2026-05-02T13:45:47.998Z</time></trkpt><trkpt lat="37.8926744311399" lon="15.061239656202243"><ele>525.5</ele><time>2026-05-02T13:45:48.998Z</time></trkpt><trkpt lat="37.892701105016" lon="15.061077221517449"><ele>524.75</ele><time>2026-05-02T13:45:49.998Z</time></trkpt><trkpt lat="37.89274340594096" lon="15.060911184948612"><ele>524.0</ele><time>2026-05-02T13:45:50.998Z</time></trkpt><trkpt lat="37.89279380457902" lon="15.060745671803126"><ele>524.0</ele><time>2026-05-02T13:45:51.998Z</time></trkpt><trkpt lat="37.892828041902824" lon="15.060577710274712"><ele>524.0</ele><time>2026-05-02T13:45:52.998Z</time></trkpt><trkpt lat="37.89287298093867" lon="15.060423109428164"><ele>524.0</ele><time>2026-05-02T13:45:53.998Z</time></trkpt><trkpt lat="37.892914205636345" lon="15.060278373495443"><ele>524.0</ele><time>2026-05-02T13:45:54.998Z</time></trkpt><trkpt lat="37.89295292029447" lon="15.060131782933503"><ele>524.0</ele><time>2026-05-02T13:45:55.998Z</time></trkpt><trkpt lat="37.89302729314322" lon="15.060015425383188"><ele>524.0</ele><time>2026-05-02T13:45:56.998Z</time></trkpt><trkpt lat="37.89309749696657" lon="15.059898832157456"><ele>524.0</ele><time>2026-05-02T13:45:57.998Z</time></trkpt><trkpt lat="37.89316744501859" lon="15.059787465955813"><ele>524.0</ele><time>2026-05-02T13:45:58.998Z</time></trkpt><trkpt lat="37.893226715051355" lon="15.059664979978303"><ele>524.5</ele><time>2026-05-02T13:45:59.998Z</time></trkpt><trkpt lat="37.893309762425964" lon="15.059570175168046"><ele>525.0</ele><time>2026-05-02T13:46:00.998Z</time></trkpt><trkpt lat="37.89338957646009" lon="15.059464741855916"><ele>525.5</ele><time>2026-05-02T13:46:01.998Z</time></trkpt><trkpt lat="37.893470779135505" lon="15.059364674529371"><ele>526.0</ele><time>2026-05-02T13:46:02.998Z</time></trkpt><trkpt lat="37.89355842924379" lon="15.05926216511008"><ele>526.25</ele><time>2026-05-02T13:46:03.998Z</time></trkpt><trkpt lat="37.893651320916625" lon="15.05915698808753"><ele>526.5</ele><time>2026-05-02T13:46:04.998Z</time></trkpt><trkpt lat="37.89375123679776" lon="15.059055080600976"><ele>526.75</ele><time>2026-05-02T13:46:05.998Z</time></trkpt><trkpt lat="37.893843029034336" lon="15.05893731313554"><ele>527.0</ele><time>2026-05-02T13:46:07Z</time></trkpt><trkpt lat="37.893913211668895" lon="15.058798461866017"><ele>527.0</ele><time>2026-05-02T13:46:08Z</time></trkpt><trkpt lat="37.89396381829688" lon="15.058650332602022"><ele>527.0</ele><time>2026-05-02T13:46:09Z</time></trkpt><trkpt lat="37.89400429294119" lon="15.05849029422181"><ele>527.0</ele><time>2026-05-02T13:46:10Z</time></trkpt><trkpt lat="37.894035358910514" lon="15.058325497359741"><ele>527.0</ele><time>2026-05-02T13:46:11Z</time></trkpt><trkpt lat="37.89405794197641" lon="15.058158011732099"><ele>527.75</ele><time>2026-05-02T13:46:12Z</time></trkpt><trkpt lat="37.89408070736827" lon="15.057994284372654"><ele>528.5</ele><time>2026-05-02T13:46:13Z</time></trkpt><trkpt lat="37.89411604859101" lon="15.057837005030242"><ele>529.25</ele><time>2026-05-02T13:46:14Z</time></trkpt><trkpt lat="37.89416267652687" lon="15.05769199004774"><ele>530.0</ele><time>2026-05-02T13:46:15Z</time></trkpt><trkpt lat="37.894222163911856" lon="15.057571058208797"><ele>529.75</ele><time>2026-05-02T13:46:16Z</time></trkpt><trkpt lat="37.89430120004599" lon="15.05747678660139"><ele>529.5</ele><time>2026-05-02T13:46:17Z</time></trkpt><trkpt lat="37.89441735049433" lon="15.057447117136075"><ele>529.25</ele><time>2026-05-02T13:46:18Z</time></trkpt><trkpt lat="37.89452604482709" lon="15.05737952028015"><ele>529.0</ele><time>2026-05-02T13:46:19Z</time></trkpt><trkpt lat="37.89464582304957" lon="15.057326172334104"><ele>529.0</ele><time>2026-05-02T13:46:20Z</time></trkpt><trkpt lat="37.894749442602375" lon="15.057224238663434"><ele>529.0</ele><time>2026-05-02T13:46:21Z</time></trkpt><trkpt lat="37.89483900377463" lon="15.057096962752103"><ele>529.0</ele><time>2026-05-02T13:46:22Z</time></trkpt><trkpt lat="37.89493369440921" lon="15.056981241729341"><ele>529.0</ele><time>2026-05-02T13:46:23Z</time></trkpt><trkpt lat="37.89504739143905" lon="15.056901426272791"><ele>528.75</ele><time>2026-05-02T13:46:24Z</time></trkpt><trkpt lat="37.89517785413252" lon="15.056869733301435"><ele>528.5</ele><time>2026-05-02T13:46:25Z</time></trkpt><trkpt lat="37.895304955153684" lon="15.056809378905378"><ele>528.25</ele><time>2026-05-02T13:46:26Z</time></trkpt><trkpt lat="37.895440749734064" lon="15.056768185683003"><ele>528.0</ele><time>2026-05-02T13:46:27Z</time></trkpt><trkpt lat="37.89556663718122" lon="15.056737500933396"><ele>528.0</ele><time>2026-05-02T13:46:28Z</time></trkpt><trkpt lat="37.895675307711976" lon="15.056713716956445"><ele>528.0</ele><time>2026-05-02T13:46:29Z</time></trkpt><trkpt lat="37.895774107286044" lon="15.056700632037456"><ele>528.0</ele><time>2026-05-02T13:46:30Z</time></trkpt><trkpt lat="37.895864179087866" lon="15.056704261533135"><ele>528.0</ele><time>2026-05-02T13:46:31Z</time></trkpt><trkpt lat="37.895946620327756" lon="15.056680516841407"><ele>528.0</ele><time>2026-05-02T13:46:32Z</time></trkpt><trkpt lat="37.89601426279316" lon="15.056624761221402"><ele>527.5</ele><time>2026-05-02T13:46:33Z</time></trkpt><trkpt lat="37.896079665365576" lon="15.056603157520842"><ele>527.0</ele><time>2026-05-02T13:46:34Z</time></trkpt><trkpt lat="37.89615988537016" lon="15.056541159170914"><ele>526.5</ele><time>2026-05-02T13:46:36Z</time></trkpt><trkpt lat="37.89616582689121" lon="15.056639046366977"><ele>526.0</ele><time>2026-05-02T13:46:37Z</time></trkpt><trkpt lat="37.89627739971785" lon="15.05672188164587"><ele>525.5</ele><time>2026-05-02T13:46:39Z</time></trkpt><trkpt lat="37.89634147409741" lon="15.056763549471206"><ele>525.0</ele><time>2026-05-02T13:46:39.999Z</time></trkpt><trkpt lat="37.89642352551956" lon="15.056781992809729"><ele>525.0</ele><time>2026-05-02T13:46:40.999Z</time></trkpt><trkpt lat="37.89650783060177" lon="15.05678313203567"><ele>525.0</ele><time>2026-05-02T13:46:41.999Z</time></trkpt><trkpt lat="37.89659629655921" lon="15.056762441003915"><ele>525.0</ele><time>2026-05-02T13:46:42.999Z</time></trkpt><trkpt lat="37.89667984573015" lon="15.056726736609045"><ele>525.0</ele><time>2026-05-02T13:46:43.999Z</time></trkpt><trkpt lat="37.896760428370825" lon="15.056687168145995"><ele>525.0</ele><time>2026-05-02T13:46:44.999Z</time></trkpt><trkpt lat="37.89683406648235" lon="15.056631545274747"><ele>525.0</ele><time>2026-05-02T13:46:45.999Z</time></trkpt><trkpt lat="37.89689399443675" lon="15.056558532592048"><ele>524.6666666666666</ele><time>2026-05-02T13:46:46.999Z</time></trkpt><trkpt lat="37.896940805150216" lon="15.056477192214608"><ele>524.3333333333334</ele><time>2026-05-02T13:46:47.999Z</time></trkpt><trkpt lat="37.896978094238165" lon="15.056388586868533"><ele>524.0</ele><time>2026-05-02T13:46:48.999Z</time></trkpt><trkpt lat="37.89701602961607" lon="15.056284953287893"><ele>523.6666666666667</ele><time>2026-05-02T13:46:49.999Z</time></trkpt><trkpt lat="37.89705143112421" lon="15.056177096319157"><ele>523.3333333333334</ele><time>2026-05-02T13:46:50.999Z</time></trkpt><trkpt lat="37.897084653711104" lon="15.056088175481271"><ele>523.0</ele><time>2026-05-02T13:46:51.999Z</time></trkpt><trkpt lat="37.897125914543615" lon="15.055979839813668"><ele>523.0</ele><time>2026-05-02T13:46:53.999Z</time></trkpt><trkpt lat="37.89715930890626" lon="15.05590580965218"><ele>523.0</ele><time>2026-05-02T13:46:54.999Z</time></trkpt><trkpt lat="37.89719253608796" lon="15.055817438899563"><ele>523.0</ele><time>2026-05-02T13:46:55.999Z</time></trkpt><trkpt lat="37.89721808298974" lon="15.055708748866625"><ele>523.0</ele><time>2026-05-02T13:46:56.999Z</time></trkpt><trkpt lat="37.89726336416067" lon="15.05560850403118"><ele>523.0</ele><time>2026-05-02T13:46:57.999Z</time></trkpt><trkpt lat="37.897304307250366" lon="15.055499990675418"><ele>523.0</ele><time>2026-05-02T13:46:58.999Z</time></trkpt><trkpt lat="37.89734806051229" lon="15.055383927769673"><ele>523.75</ele><time>2026-05-02T13:46:59.999Z</time></trkpt><trkpt lat="37.897392704851455" lon="15.055263193808933"><ele>524.5</ele><time>2026-05-02T13:47:00.999Z</time></trkpt><trkpt lat="37.89744175028808" lon="15.055135058872171"><ele>525.25</ele><time>2026-05-02T13:47:01.999Z</time></trkpt><trkpt lat="37.8974915646348" lon="15.055002142675727"><ele>526.0</ele><time>2026-05-02T13:47:02.999Z</time></trkpt><trkpt lat="37.89754997366553" lon="15.054866371877612"><ele>526.25</ele><time>2026-05-02T13:47:03.999Z</time></trkpt><trkpt lat="37.897605277657426" lon="15.054719768320501"><ele>526.5</ele><time>2026-05-02T13:47:04.999Z</time></trkpt><trkpt lat="37.89766786729722" lon="15.05456875042181"><ele>526.75</ele><time>2026-05-02T13:47:05.999Z</time></trkpt><trkpt lat="37.89772924754997" lon="15.054418341256845"><ele>527.0</ele><time>2026-05-02T13:47:06.999Z</time></trkpt><trkpt lat="37.89779007366166" lon="15.054260214261713"><ele>527.75</ele><time>2026-05-02T13:47:07.999Z</time></trkpt><trkpt lat="37.89785309221453" lon="15.054099895416224"><ele>528.5</ele><time>2026-05-02T13:47:08.999Z</time></trkpt><trkpt lat="37.89791625492023" lon="15.053941082884284"><ele>529.25</ele><time>2026-05-02T13:47:09.999Z</time></trkpt><trkpt lat="37.89798163246133" lon="15.053780697821038"><ele>530.0</ele><time>2026-05-02T13:47:10.999Z</time></trkpt><trkpt lat="37.898045495973165" lon="15.053618216937167"><ele>530.0</ele><time>2026-05-02T13:47:11.999Z</time></trkpt><trkpt lat="37.8981094170507" lon="15.05345851878628"><ele>530.0</ele><time>2026-05-02T13:47:12.999Z</time></trkpt><trkpt lat="37.8981677584778" lon="15.053296802414378"><ele>530.0</ele><time>2026-05-02T13:47:13.999Z</time></trkpt><trkpt lat="37.89822756607085" lon="15.053142795132995"><ele>530.0</ele><time>2026-05-02T13:47:14.999Z</time></trkpt><trkpt lat="37.898286594325775" lon="15.052994636343348"><ele>530.0</ele><time>2026-05-02T13:47:15.999Z</time></trkpt><trkpt lat="37.89833836888521" lon="15.052863062167239"><ele>530.0</ele><time>2026-05-02T13:47:16.999Z</time></trkpt><trkpt lat="37.8983905145458" lon="15.052742402616918"><ele>530.0</ele><time>2026-05-02T13:47:17.999Z</time></trkpt><trkpt lat="37.898453232023456" lon="15.052643007389124"><ele>530.0</ele><time>2026-05-02T13:47:18.999Z</time></trkpt><trkpt lat="37.89852853779879" lon="15.052575536214208"><ele>530.0</ele><time>2026-05-02T13:47:19.999Z</time></trkpt><trkpt lat="37.89861006486231" lon="15.052524353488055"><ele>530.6</ele><time>2026-05-02T13:47:20.999Z</time></trkpt><trkpt lat="37.89869680655204" lon="15.05248703693395"><ele>531.2</ele><time>2026-05-02T13:47:21.999Z</time></trkpt><trkpt lat="37.89878219530987" lon="15.052454668970705"><ele>531.8</ele><time>2026-05-02T13:47:22.999Z</time></trkpt><trkpt lat="37.89887509941892" lon="15.052428759120238"><ele>532.4</ele><time>2026-05-02T13:47:23.999Z</time></trkpt><trkpt lat="37.89897560582497" lon="15.05241961835307"><ele>533.0</ele><time>2026-05-02T13:47:24.999Z</time></trkpt><trkpt lat="37.899078751219974" lon="15.052392409372684"><ele>533.4</ele><time>2026-05-02T13:47:25.999Z</time></trkpt><trkpt lat="37.89917729722206" lon="15.052347221787512"><ele>533.8</ele><time>2026-05-02T13:47:26.999Z</time></trkpt><trkpt lat="37.89927464506326" lon="15.052343064924214"><ele>534.2</ele><time>2026-05-02T13:47:27.998Z</time></trkpt><trkpt lat="37.8993602847318" lon="15.05232101455402"><ele>534.6</ele><time>2026-05-02T13:47:28.998Z</time></trkpt><trkpt lat="37.89944327975024" lon="15.052299529417235"><ele>535.0</ele><time>2026-05-02T13:47:29.998Z</time></trkpt><trkpt lat="37.89952335913605" lon="15.052278265867173"><ele>535.2</ele><time>2026-05-02T13:47:30.998Z</time></trkpt><trkpt lat="37.899592373915205" lon="15.052258949952211"><ele>535.4</ele><time>2026-05-02T13:47:31.998Z</time></trkpt><trkpt lat="37.89965533001978" lon="15.052241329758406"><ele>535.6</ele><time>2026-05-02T13:47:32.998Z</time></trkpt><trkpt lat="37.899753435662" lon="15.052201311027602"><ele>535.8</ele><time>2026-05-02T13:47:34.998Z</time></trkpt><trkpt lat="37.89982022709192" lon="15.052195178224135"><ele>536.0</ele><time>2026-05-02T13:47:36.998Z</time></trkpt><trkpt lat="37.89979614875522" lon="15.051995292600079"><ele>536.0</ele><time>2026-05-02T13:47:39.998Z</time></trkpt><trkpt lat="37.899760836400134" lon="15.051920737309159"><ele>536.0</ele><time>2026-05-02T13:47:40.998Z</time></trkpt><trkpt lat="37.8997250865197" lon="15.051831065292898"><ele>536.0</ele><time>2026-05-02T13:47:41.998Z</time></trkpt><trkpt lat="37.899687721636454" lon="15.051731963707809"><ele>536.0</ele><time>2026-05-02T13:47:42.998Z</time></trkpt><trkpt lat="37.89964482239167" lon="15.051619132159471"><ele>536.0</ele><time>2026-05-02T13:47:43.998Z</time></trkpt><trkpt lat="37.89959947545652" lon="15.051485903858298"><ele>536.0</ele><time>2026-05-02T13:47:44.998Z</time></trkpt><trkpt lat="37.89955309865906" lon="15.051364247983429"><ele>536.0</ele><time>2026-05-02T13:47:45.998Z</time></trkpt><trkpt lat="37.89952645099421" lon="15.051239614341165"><ele>536.0</ele><time>2026-05-02T13:47:46.998Z</time></trkpt><trkpt lat="37.899488311763044" lon="15.051132203787224"><ele>536.0</ele><time>2026-05-02T13:47:47.998Z</time></trkpt><trkpt lat="37.899449077534" lon="15.051021709184639"><ele>536.0</ele><time>2026-05-02T13:47:48.998Z</time></trkpt><trkpt lat="37.89939632857195" lon="15.050920687776376"><ele>536.0</ele><time>2026-05-02T13:47:49.998Z</time></trkpt><trkpt lat="37.899372243841405" lon="15.050804446357752"><ele>535.8333333333333</ele><time>2026-05-02T13:47:50.998Z</time></trkpt><trkpt lat="37.89934021447372" lon="15.050713931859086"><ele>535.6666666666666</ele><time>2026-05-02T13:47:51.998Z</time></trkpt><trkpt lat="37.89931115937372" lon="15.05063202939885"><ele>535.5</ele><time>2026-05-02T13:47:52.998Z</time></trkpt><trkpt lat="37.899256016698004" lon="15.050513216234451"><ele>535.3333333333334</ele><time>2026-05-02T13:47:54.998Z</time></trkpt><trkpt lat="37.899232247054066" lon="15.050427075528617"><ele>535.1666666666667</ele><time>2026-05-02T13:47:56.998Z</time></trkpt><trkpt lat="37.899209367671595" lon="15.050293014652054"><ele>535.0</ele><time>2026-05-02T13:47:58.998Z</time></trkpt><trkpt lat="37.899188290396474" lon="15.050205473418838"><ele>535.0</ele><time>2026-05-02T13:47:59.998Z</time></trkpt><trkpt lat="37.89916657159712" lon="15.050114000210762"><ele>535.0</ele><time>2026-05-02T13:48:00.998Z</time></trkpt><trkpt lat="37.89914410612441" lon="15.050010122983348"><ele>535.0</ele><time>2026-05-02T13:48:01.998Z</time></trkpt><trkpt lat="37.89915368173848" lon="15.049892680346671"><ele>535.0</ele><time>2026-05-02T13:48:02.998Z</time></trkpt><trkpt lat="37.899165456410024" lon="15.049781529479493"><ele>535.0</ele><time>2026-05-02T13:48:03.998Z</time></trkpt><trkpt lat="37.899175400308586" lon="15.049672277388117"><ele>535.0</ele><time>2026-05-02T13:48:04.998Z</time></trkpt><trkpt lat="37.89918081408738" lon="15.049564889424756"><ele>535.0</ele><time>2026-05-02T13:48:05.998Z</time></trkpt><trkpt lat="37.89918431036157" lon="15.049453761598622"><ele>535.0</ele><time>2026-05-02T13:48:06.998Z</time></trkpt><trkpt lat="37.89918697381803" lon="15.049331337307123"><ele>535.0</ele><time>2026-05-02T13:48:07.998Z</time></trkpt><trkpt lat="37.89919502188763" lon="15.0492125284127"><ele>535.0</ele><time>2026-05-02T13:48:08.998Z</time></trkpt><trkpt lat="37.89919372926438" lon="15.049085298831505"><ele>535.0</ele><time>2026-05-02T13:48:09.998Z</time></trkpt><trkpt lat="37.89919318812549" lon="15.048963722816485"><ele>535.0</ele><time>2026-05-02T13:48:10.998Z</time></trkpt><trkpt lat="37.89919596931457" lon="15.048853877569385"><ele>535.0</ele><time>2026-05-02T13:48:11.998Z</time></trkpt><trkpt lat="37.89920162709547" lon="15.048753206525154"><ele>535.0</ele><time>2026-05-02T13:48:13Z</time></trkpt><trkpt lat="37.89920326660912" lon="15.04865598677828"><ele>535.0</ele><time>2026-05-02T13:48:14Z</time></trkpt><trkpt lat="37.89919618428694" lon="15.048573470234986"><ele>535.0</ele><time>2026-05-02T13:48:15Z</time></trkpt><trkpt lat="37.899213095909246" lon="15.04842966817366"><ele>535.0</ele><time>2026-05-02T13:48:17Z</time></trkpt><trkpt lat="37.899252560757496" lon="15.048303212541454"><ele>535.2</ele><time>2026-05-02T13:48:19Z</time></trkpt><trkpt lat="37.8992593386867" lon="15.048213144141537"><ele>535.4</ele><time>2026-05-02T13:48:20Z</time></trkpt><trkpt lat="37.89925498476901" lon="15.048103160367747"><ele>535.6</ele><time>2026-05-02T13:48:21Z</time></trkpt><trkpt lat="37.89924361483023" lon="15.04796940690721"><ele>535.8</ele><time>2026-05-02T13:48:22Z</time></trkpt><trkpt lat="37.89922159491143" lon="15.047816717891694"><ele>536.0</ele><time>2026-05-02T13:48:23Z</time></trkpt><trkpt lat="37.89920740719255" lon="15.047660318678354"><ele>536.0</ele><time>2026-05-02T13:48:24Z</time></trkpt><trkpt lat="37.89919073584725" lon="15.047506083281943"><ele>536.0</ele><time>2026-05-02T13:48:25Z</time></trkpt><trkpt lat="37.89917685829952" lon="15.047351378913895"><ele>536.0</ele><time>2026-05-02T13:48:26Z</time></trkpt><trkpt lat="37.89916584143756" lon="15.047194076564832"><ele>536.0</ele><time>2026-05-02T13:48:27Z</time></trkpt><trkpt lat="37.899150411973785" lon="15.047038458439962"><ele>536.0</ele><time>2026-05-02T13:48:28Z</time></trkpt><trkpt lat="37.89913664022346" lon="15.04688836352525"><ele>536.0</ele><time>2026-05-02T13:48:29Z</time></trkpt><trkpt lat="37.89912483399252" lon="15.046746543310096"><ele>536.0</ele><time>2026-05-02T13:48:30Z</time></trkpt><trkpt lat="37.89910695265655" lon="15.046599300344628"><ele>536.0</ele><time>2026-05-02T13:48:31Z</time></trkpt><trkpt lat="37.899093562521905" lon="15.046456875518771"><ele>536.0</ele><time>2026-05-02T13:48:32Z</time></trkpt><trkpt lat="37.8990807937331" lon="15.046307531775943"><ele>536.0</ele><time>2026-05-02T13:48:33Z</time></trkpt><trkpt lat="37.899069855767735" lon="15.046157711896853"><ele>536.0</ele><time>2026-05-02T13:48:34Z</time></trkpt><trkpt lat="37.8990527869895" lon="15.046010918187799"><ele>536.0</ele><time>2026-05-02T13:48:35Z</time></trkpt><trkpt lat="37.89903496230517" lon="15.045863144741967"><ele>535.75</ele><time>2026-05-02T13:48:36Z</time></trkpt><trkpt lat="37.899021966966046" lon="15.045711635776465"><ele>535.5</ele><time>2026-05-02T13:48:37Z</time></trkpt><trkpt lat="37.89900780997869" lon="15.04555624968246"><ele>535.25</ele><time>2026-05-02T13:48:38Z</time></trkpt><trkpt lat="37.89899326681162" lon="15.045397622014926"><ele>535.0</ele><time>2026-05-02T13:48:39Z</time></trkpt><trkpt lat="37.89897942255235" lon="15.045239923229403"><ele>535.0</ele><time>2026-05-02T13:48:40Z</time></trkpt><trkpt lat="37.898956653247446" lon="15.045084376446795"><ele>535.0</ele><time>2026-05-02T13:48:41Z</time></trkpt><trkpt lat="37.898944145193425" lon="15.044926398944009"><ele>535.0</ele><time>2026-05-02T13:48:42Z</time></trkpt><trkpt lat="37.89893707917628" lon="15.044762573597337"><ele>535.0</ele><time>2026-05-02T13:48:43Z</time></trkpt><trkpt lat="37.89892394091762" lon="15.044601419592846"><ele>535.5</ele><time>2026-05-02T13:48:44Z</time></trkpt><trkpt lat="37.898908718327384" lon="15.044437073460838"><ele>536.0</ele><time>2026-05-02T13:48:45Z</time></trkpt><trkpt lat="37.89889463386634" lon="15.044287792741411"><ele>536.5</ele><time>2026-05-02T13:48:46Z</time></trkpt><trkpt lat="37.8988881093653" lon="15.044145751584406"><ele>537.0</ele><time>2026-05-02T13:48:47Z</time></trkpt><trkpt lat="37.89887258252666" lon="15.043994684027368"><ele>537.0</ele><time>2026-05-02T13:48:48Z</time></trkpt><trkpt lat="37.898854994236736" lon="15.04383488973162"><ele>537.0</ele><time>2026-05-02T13:48:48.999Z</time></trkpt><trkpt lat="37.89883370612968" lon="15.043671962363943"><ele>537.0</ele><time>2026-05-02T13:48:49.999Z</time></trkpt><trkpt lat="37.89881940802677" lon="15.043504666894702"><ele>537.0</ele><time>2026-05-02T13:48:50.999Z</time></trkpt><trkpt lat="37.89880438101835" lon="15.04332898877719"><ele>537.25</ele><time>2026-05-02T13:48:51.999Z</time></trkpt><trkpt lat="37.898787791992795" lon="15.043152539121614"><ele>537.5</ele><time>2026-05-02T13:48:52.999Z</time></trkpt><trkpt lat="37.8987718976954" lon="15.042974348920598"><ele>537.75</ele><time>2026-05-02T13:48:53.999Z</time></trkpt><trkpt lat="37.8987564513479" lon="15.042791242360407"><ele>538.0</ele><time>2026-05-02T13:48:54.999Z</time></trkpt><trkpt lat="37.89874166690289" lon="15.042605181608513"><ele>537.75</ele><time>2026-05-02T13:48:55.999Z</time></trkpt><trkpt lat="37.89872693895972" lon="15.042421537220331"><ele>537.5</ele><time>2026-05-02T13:48:56.999Z</time></trkpt><trkpt lat="37.89871316295852" lon="15.042236261726902"><ele>537.25</ele><time>2026-05-02T13:48:57.999Z</time></trkpt><trkpt lat="37.898697555101606" lon="15.042054024576808"><ele>537.0</ele><time>2026-05-02T13:48:58.999Z</time></trkpt><trkpt lat="37.89868100188604" lon="15.041870947282318"><ele>537.0</ele><time>2026-05-02T13:48:59.999Z</time></trkpt><trkpt lat="37.898660335488124" lon="15.041693624690927"><ele>537.0</ele><time>2026-05-02T13:49:00.999Z</time></trkpt><trkpt lat="37.89864452400392" lon="15.041514143383155"><ele>537.0</ele><time>2026-05-02T13:49:01.999Z</time></trkpt><trkpt lat="37.89862751348314" lon="15.04133784465538"><ele>537.0</ele><time>2026-05-02T13:49:02.999Z</time></trkpt><trkpt lat="37.89861263898713" lon="15.041161532147862"><ele>537.0</ele><time>2026-05-02T13:49:03.999Z</time></trkpt><trkpt lat="37.89859496781812" lon="15.040980260901305"><ele>537.0</ele><time>2026-05-02T13:49:04.999Z</time></trkpt><trkpt lat="37.8985741349786" lon="15.040802887217831"><ele>537.0</ele><time>2026-05-02T13:49:05.999Z</time></trkpt><trkpt lat="37.89855786331189" lon="15.040626290355535"><ele>537.0</ele><time>2026-05-02T13:49:06.999Z</time></trkpt><trkpt lat="37.89854313367135" lon="15.04044836103866"><ele>538.0</ele><time>2026-05-02T13:49:07.999Z</time></trkpt><trkpt lat="37.89852396912416" lon="15.0402769141451"><ele>539.0</ele><time>2026-05-02T13:49:08.999Z</time></trkpt><trkpt lat="37.89850695875812" lon="15.040106109681977"><ele>540.0</ele><time>2026-05-02T13:49:09.999Z</time></trkpt><trkpt lat="37.89849000666038" lon="15.039937588942548"><ele>541.0</ele><time>2026-05-02T13:49:10.999Z</time></trkpt><trkpt lat="37.89847294212907" lon="15.039769110770516"><ele>541.0</ele><time>2026-05-02T13:49:11.999Z</time></trkpt><trkpt lat="37.89845824834513" lon="15.039596842250651"><ele>541.0</ele><time>2026-05-02T13:49:12.999Z</time></trkpt><trkpt lat="37.89844303050841" lon="15.039424244851865"><ele>541.0</ele><time>2026-05-02T13:49:13.999Z</time></trkpt><trkpt lat="37.89842956613555" lon="15.039249686091395"><ele>541.0</ele><time>2026-05-02T13:49:14.999Z</time></trkpt><trkpt lat="37.89841417795755" lon="15.039074204940713"><ele>541.0</ele><time>2026-05-02T13:49:15.999Z</time></trkpt><trkpt lat="37.89840040741008" lon="15.03889810362631"><ele>541.0</ele><time>2026-05-02T13:49:16.999Z</time></trkpt><trkpt lat="37.89838341845372" lon="15.038727673882088"><ele>541.0</ele><time>2026-05-02T13:49:17.999Z</time></trkpt><trkpt lat="37.89836989298219" lon="15.038554374257492"><ele>541.0</ele><time>2026-05-02T13:49:18.999Z</time></trkpt><trkpt lat="37.89835453979939" lon="15.03838141714183"><ele>541.25</ele><time>2026-05-02T13:49:19.999Z</time></trkpt><trkpt lat="37.89833840515159" lon="15.038206709266243"><ele>541.5</ele><time>2026-05-02T13:49:20.999Z</time></trkpt><trkpt lat="37.89832195166864" lon="15.038027687759955"><ele>541.75</ele><time>2026-05-02T13:49:21.999Z</time></trkpt><trkpt lat="37.89830626415087" lon="15.037846767473646"><ele>542.0</ele><time>2026-05-02T13:49:22.999Z</time></trkpt><trkpt lat="37.898289739709064" lon="15.037666176083631"><ele>542.0</ele><time>2026-05-02T13:49:23.999Z</time></trkpt><trkpt lat="37.898272784787935" lon="15.037487537748811"><ele>542.0</ele><time>2026-05-02T13:49:24.999Z</time></trkpt><trkpt lat="37.89825454457737" lon="15.037305873479303"><ele>542.0</ele><time>2026-05-02T13:49:25.999Z</time></trkpt><trkpt lat="37.89823668348588" lon="15.037124600877036"><ele>542.0</ele><time>2026-05-02T13:49:26.999Z</time></trkpt><trkpt lat="37.89821971748653" lon="15.036943877678118"><ele>542.5</ele><time>2026-05-02T13:49:27.999Z</time></trkpt><trkpt lat="37.89820257042498" lon="15.036759341723814"><ele>543.0</ele><time>2026-05-02T13:49:28.999Z</time></trkpt><trkpt lat="37.89818675764095" lon="15.036576384960984"><ele>543.5</ele><time>2026-05-02T13:49:29.999Z</time></trkpt><trkpt lat="37.89816930670148" lon="15.03639077257078"><ele>544.0</ele><time>2026-05-02T13:49:30.999Z</time></trkpt><trkpt lat="37.89815056851343" lon="15.036208070856212"><ele>544.0</ele><time>2026-05-02T13:49:31.999Z</time></trkpt><trkpt lat="37.89813443261663" lon="15.036024490611323"><ele>544.0</ele><time>2026-05-02T13:49:32.999Z</time></trkpt><trkpt lat="37.898118841548545" lon="15.03583970914234"><ele>544.0</ele><time>2026-05-02T13:49:33.999Z</time></trkpt><trkpt lat="37.898103197204776" lon="15.035656252231496"><ele>544.0</ele><time>2026-05-02T13:49:34.999Z</time></trkpt><trkpt lat="37.89808657071604" lon="15.035473718731748"><ele>544.0</ele><time>2026-05-02T13:49:35.999Z</time></trkpt><trkpt lat="37.898068612323186" lon="15.035295156578204"><ele>544.0</ele><time>2026-05-02T13:49:36.999Z</time></trkpt><trkpt lat="37.89805259123509" lon="15.035113978220673"><ele>544.0</ele><time>2026-05-02T13:49:37.999Z</time></trkpt><trkpt lat="37.89803413152631" lon="15.03493332144411"><ele>544.0</ele><time>2026-05-02T13:49:38.999Z</time></trkpt><trkpt lat="37.89801747948781" lon="15.034752268158366"><ele>544.0</ele><time>2026-05-02T13:49:39.998Z</time></trkpt><trkpt lat="37.89800145352539" lon="15.03457121100153"><ele>544.0</ele><time>2026-05-02T13:49:40.998Z</time></trkpt><trkpt lat="37.89798610090741" lon="15.034393273465307"><ele>544.0</ele><time>2026-05-02T13:49:41.998Z</time></trkpt><trkpt lat="37.89796934920288" lon="15.034216532537828"><ele>544.0</ele><time>2026-05-02T13:49:42.998Z</time></trkpt><trkpt lat="37.89795192374491" lon="15.034038577105425"><ele>544.75</ele><time>2026-05-02T13:49:43.998Z</time></trkpt><trkpt lat="37.89793542522431" lon="15.033857642059179"><ele>545.5</ele><time>2026-05-02T13:49:44.998Z</time></trkpt><trkpt lat="37.89791605205585" lon="15.03367711924867"><ele>546.25</ele><time>2026-05-02T13:49:45.998Z</time></trkpt><trkpt lat="37.897901821683234" lon="15.033499414646194"><ele>547.0</ele><time>2026-05-02T13:49:46.998Z</time></trkpt><trkpt lat="37.89788633101628" lon="15.033321341885891"><ele>547.25</ele><time>2026-05-02T13:49:47.998Z</time></trkpt><trkpt lat="37.89786985914097" lon="15.033146422665581"><ele>547.5</ele><time>2026-05-02T13:49:48.998Z</time></trkpt><trkpt lat="37.89785477666974" lon="15.032972355439885"><ele>547.75</ele><time>2026-05-02T13:49:49.998Z</time></trkpt><trkpt lat="37.8978373940567" lon="15.03280190623606"><ele>548.0</ele><time>2026-05-02T13:49:50.998Z</time></trkpt><trkpt lat="37.89782356266257" lon="15.032631849482668"><ele>548.5</ele><time>2026-05-02T13:49:51.998Z</time></trkpt><trkpt lat="37.8978084470843" lon="15.03246006316512"><ele>549.0</ele><time>2026-05-02T13:49:52.998Z</time></trkpt><trkpt lat="37.89779351991293" lon="15.032287389634526"><ele>549.5</ele><time>2026-05-02T13:49:53.998Z</time></trkpt><trkpt lat="37.897780428747446" lon="15.032113309682009"><ele>550.0</ele><time>2026-05-02T13:49:54.998Z</time></trkpt><trkpt lat="37.89776424309699" lon="15.03194196227707"><ele>550.0</ele><time>2026-05-02T13:49:55.998Z</time></trkpt><trkpt lat="37.89774856485371" lon="15.031776209342475"><ele>550.0</ele><time>2026-05-02T13:49:56.998Z</time></trkpt><trkpt lat="37.897737741945996" lon="15.031608859237922"><ele>550.0</ele><time>2026-05-02T13:49:57.998Z</time></trkpt><trkpt lat="37.89772257050486" lon="15.031442485958584"><ele>550.0</ele><time>2026-05-02T13:49:58.998Z</time></trkpt><trkpt lat="37.8977066154528" lon="15.031277933230742"><ele>551.0</ele><time>2026-05-02T13:49:59.998Z</time></trkpt><trkpt lat="37.89768787519045" lon="15.031111209618484"><ele>552.0</ele><time>2026-05-02T13:50:00.998Z</time></trkpt><trkpt lat="37.8976708516681" lon="15.030944043759686"><ele>553.0</ele><time>2026-05-02T13:50:01.998Z</time></trkpt><trkpt lat="37.897656055063344" lon="15.03076987695681"><ele>554.0</ele><time>2026-05-02T13:50:02.998Z</time></trkpt><trkpt lat="37.897639556682094" lon="15.030592647651172"><ele>555.5</ele><time>2026-05-02T13:50:03.998Z</time></trkpt><trkpt lat="37.89762460819642" lon="15.030414754684905"><ele>557.0</ele><time>2026-05-02T13:50:04.998Z</time></trkpt><trkpt lat="37.8976102563401" lon="15.03023860422432"><ele>558.5</ele><time>2026-05-02T13:50:05.998Z</time></trkpt><trkpt lat="37.89759543714927" lon="15.030058512390083"><ele>560.0</ele><time>2026-05-02T13:50:06.998Z</time></trkpt><trkpt lat="37.89757332064835" lon="15.029874574453862"><ele>560.0</ele><time>2026-05-02T13:50:07.998Z</time></trkpt><trkpt lat="37.897545479432175" lon="15.029689504110431"><ele>560.0</ele><time>2026-05-02T13:50:08.998Z</time></trkpt><trkpt lat="37.89750487487388" lon="15.029509540702508"><ele>560.0</ele><time>2026-05-02T13:50:09.998Z</time></trkpt><trkpt lat="37.89745452475448" lon="15.029334843643412"><ele>560.0</ele><time>2026-05-02T13:50:10.998Z</time></trkpt><trkpt lat="37.897400767363436" lon="15.029168378774594"><ele>560.5</ele><time>2026-05-02T13:50:11.998Z</time></trkpt><trkpt lat="37.89734366319999" lon="15.029010415638986"><ele>561.0</ele><time>2026-05-02T13:50:12.998Z</time></trkpt><trkpt lat="37.89729125729345" lon="15.028854434220776"><ele>561.5</ele><time>2026-05-02T13:50:13.998Z</time></trkpt><trkpt lat="37.8972473898343" lon="15.028704807024644"><ele>562.0</ele><time>2026-05-02T13:50:14.998Z</time></trkpt><trkpt lat="37.897225956422616" lon="15.028558069704662"><ele>562.0</ele><time>2026-05-02T13:50:15.998Z</time></trkpt><trkpt lat="37.89722066245698" lon="15.02841572316751"><ele>562.0</ele><time>2026-05-02T13:50:16.998Z</time></trkpt><trkpt lat="37.89723484574937" lon="15.028272183753128"><ele>562.0</ele><time>2026-05-02T13:50:17.998Z</time></trkpt><trkpt lat="37.897259730187685" lon="15.02812820169463"><ele>562.0</ele><time>2026-05-02T13:50:19Z</time></trkpt><trkpt lat="37.89729194394289" lon="15.027983309665336"><ele>561.5</ele><time>2026-05-02T13:50:20Z</time></trkpt><trkpt lat="37.89732668117258" lon="15.027842065252344"><ele>561.0</ele><time>2026-05-02T13:50:21Z</time></trkpt><trkpt lat="37.89736058077213" lon="15.027701488518137"><ele>560.5</ele><time>2026-05-02T13:50:22Z</time></trkpt><trkpt lat="37.89739240753833" lon="15.027568895237827"><ele>560.0</ele><time>2026-05-02T13:50:23Z</time></trkpt><trkpt lat="37.897431887684505" lon="15.027441512494477"><ele>559.0</ele><time>2026-05-02T13:50:24Z</time></trkpt><trkpt lat="37.89749075930311" lon="15.027322761706845"><ele>558.0</ele><time>2026-05-02T13:50:25Z</time></trkpt><trkpt lat="37.89756959168997" lon="15.027215355621362"><ele>557.0</ele><time>2026-05-02T13:50:26Z</time></trkpt><trkpt lat="37.89766679808493" lon="15.027122009351931"><ele>556.0</ele><time>2026-05-02T13:50:27Z</time></trkpt><trkpt lat="37.89776720072496" lon="15.02702943716541"><ele>559.0</ele><time>2026-05-02T13:50:28Z</time></trkpt><trkpt lat="37.89786548793464" lon="15.026928623739638"><ele>562.0</ele><time>2026-05-02T13:50:29Z</time></trkpt><trkpt lat="37.89798301345855" lon="15.026857633273794"><ele>565.0</ele><time>2026-05-02T13:50:30Z</time></trkpt><trkpt lat="37.89809692757252" lon="15.026783753970241"><ele>568.0</ele><time>2026-05-02T13:50:31Z</time></trkpt><trkpt lat="37.898199410408004" lon="15.02668953068239"><ele>567.0</ele><time>2026-05-02T13:50:32Z</time></trkpt><trkpt lat="37.898294254786606" lon="15.026577095808719"><ele>566.0</ele><time>2026-05-02T13:50:33Z</time></trkpt><trkpt lat="37.89837043253424" lon="15.026448857579604"><ele>565.0</ele><time>2026-05-02T13:50:34Z</time></trkpt><trkpt lat="37.89843469620898" lon="15.026319511973613"><ele>564.0</ele><time>2026-05-02T13:50:35Z</time></trkpt><trkpt lat="37.898501608041975" lon="15.026195785050023"><ele>564.0</ele><time>2026-05-02T13:50:36Z</time></trkpt><trkpt lat="37.898570769542516" lon="15.026073965615995"><ele>564.0</ele><time>2026-05-02T13:50:37Z</time></trkpt><trkpt lat="37.89865601913033" lon="15.025972171282216"><ele>564.0</ele><time>2026-05-02T13:50:38Z</time></trkpt><trkpt lat="37.89875641501141" lon="15.02589746723013"><ele>564.0</ele><time>2026-05-02T13:50:39Z</time></trkpt><trkpt lat="37.8988652066963" lon="15.025847655130518"><ele>564.0</ele><time>2026-05-02T13:50:40Z</time></trkpt><trkpt lat="37.89898361613588" lon="15.02583100482834"><ele>564.0</ele><time>2026-05-02T13:50:41Z</time></trkpt><trkpt lat="37.89910581592231" lon="15.025836012203436"><ele>564.0</ele><time>2026-05-02T13:50:42Z</time></trkpt><trkpt lat="37.89922864108626" lon="15.025837758655914"><ele>564.0</ele><time>2026-05-02T13:50:43Z</time></trkpt><trkpt lat="37.899357224749565" lon="15.025831194839018"><ele>562.25</ele><time>2026-05-02T13:50:44Z</time></trkpt><trkpt lat="37.89948759002941" lon="15.02581097747749"><ele>560.5</ele><time>2026-05-02T13:50:45Z</time></trkpt><trkpt lat="37.89962240760161" lon="15.025770052734142"><ele>558.75</ele><time>2026-05-02T13:50:46Z</time></trkpt><trkpt lat="37.899759710525196" lon="15.02571460655263"><ele>557.0</ele><time>2026-05-02T13:50:47Z</time></trkpt><trkpt lat="37.89989918922156" lon="15.025653396100925"><ele>557.0</ele><time>2026-05-02T13:50:48Z</time></trkpt><trkpt lat="37.90003814250405" lon="15.025584500897502"><ele>557.0</ele><time>2026-05-02T13:50:49Z</time></trkpt><trkpt lat="37.90017957458636" lon="15.025519913240876"><ele>557.0</ele><time>2026-05-02T13:50:50Z</time></trkpt><trkpt lat="37.90032001488402" lon="15.02546097268764"><ele>557.0</ele><time>2026-05-02T13:50:51Z</time></trkpt><trkpt lat="37.90045980127424" lon="15.025397989523364"><ele>558.0</ele><time>2026-05-02T13:50:52Z</time></trkpt><trkpt lat="37.90060455514187" lon="15.025338352379592"><ele>559.0</ele><time>2026-05-02T13:50:53Z</time></trkpt><trkpt lat="37.900749547446225" lon="15.0252812292437"><ele>560.0</ele><time>2026-05-02T13:50:54Z</time></trkpt><trkpt lat="37.900891506631226" lon="15.025216035294175"><ele>560.75</ele><time>2026-05-02T13:50:55Z</time></trkpt><trkpt lat="37.901030795283724" lon="15.025159099839758"><ele>561.5</ele><time>2026-05-02T13:50:56Z</time></trkpt><trkpt lat="37.901163813728104" lon="15.025089924521863"><ele>562.25</ele><time>2026-05-02T13:50:56.999Z</time></trkpt><trkpt lat="37.901292753868546" lon="15.025006742516869"><ele>563.0</ele><time>2026-05-02T13:50:57.999Z</time></trkpt><trkpt lat="37.90141646081025" lon="15.024902783524377"><ele>563.0</ele><time>2026-05-02T13:50:58.999Z</time></trkpt><trkpt lat="37.90153361190738" lon="15.02478876000623"><ele>563.0</ele><time>2026-05-02T13:50:59.999Z</time></trkpt><trkpt lat="37.90165074245893" lon="15.02466879197605"><ele>563.0</ele><time>2026-05-02T13:51:00.999Z</time></trkpt><trkpt lat="37.901769980626085" lon="15.024552221530962"><ele>563.0</ele><time>2026-05-02T13:51:01.999Z</time></trkpt><trkpt lat="37.90188731801862" lon="15.024436324135635"><ele>563.75</ele><time>2026-05-02T13:51:02.999Z</time></trkpt><trkpt lat="37.902004895522026" lon="15.024322506771407"><ele>564.5</ele><time>2026-05-02T13:51:03.999Z</time></trkpt><trkpt lat="37.90211852618137" lon="15.024210662804798"><ele>565.25</ele><time>2026-05-02T13:51:04.999Z</time></trkpt><trkpt lat="37.90223477167456" lon="15.024104437325846"><ele>566.0</ele><time>2026-05-02T13:51:05.999Z</time></trkpt><trkpt lat="37.90233754164022" lon="15.023984929121092"><ele>566.0</ele><time>2026-05-02T13:51:06.999Z</time></trkpt><trkpt lat="37.90243264218621" lon="15.023855580292716"><ele>566.0</ele><time>2026-05-02T13:51:07.999Z</time></trkpt><trkpt lat="37.90251536057669" lon="15.023710941615082"><ele>566.0</ele><time>2026-05-02T13:51:08.999Z</time></trkpt><trkpt lat="37.90259299562144" lon="15.023567369926567"><ele>566.0</ele><time>2026-05-02T13:51:09.999Z</time></trkpt><trkpt lat="37.9026699485261" lon="15.023425036358766"><ele>567.25</ele><time>2026-05-02T13:51:10.999Z</time></trkpt><trkpt lat="37.90274639782479" lon="15.02328574252833"><ele>568.5</ele><time>2026-05-02T13:51:11.999Z</time></trkpt><trkpt lat="37.902821907622666" lon="15.023152007627962"><ele>569.75</ele><time>2026-05-02T13:51:12.999Z</time></trkpt><trkpt lat="37.90291164154763" lon="15.02303375539064"><ele>571.0</ele><time>2026-05-02T13:51:13.999Z</time></trkpt><trkpt lat="37.902993442599616" lon="15.022909649313297"><ele>571.0</ele><time>2026-05-02T13:51:14.999Z</time></trkpt><trkpt lat="37.9030871388116" lon="15.022805349956622"><ele>571.0</ele><time>2026-05-02T13:51:15.999Z</time></trkpt><trkpt lat="37.903192606815864" lon="15.022709519812233"><ele>571.0</ele><time>2026-05-02T13:51:16.999Z</time></trkpt><trkpt lat="37.90330291708353" lon="15.022613294193043"><ele>571.0</ele><time>2026-05-02T13:51:17.999Z</time></trkpt><trkpt lat="37.90341662122705" lon="15.022511886376488"><ele>571.5</ele><time>2026-05-02T13:51:18.999Z</time></trkpt><trkpt lat="37.90353110550121" lon="15.022411635554647"><ele>572.0</ele><time>2026-05-02T13:51:19.999Z</time></trkpt><trkpt lat="37.903647268609234" lon="15.02231097974494"><ele>572.5</ele><time>2026-05-02T13:51:20.999Z</time></trkpt><trkpt lat="37.90375109231492" lon="15.0221962569152"><ele>573.0</ele><time>2026-05-02T13:51:21.999Z</time></trkpt><trkpt lat="37.9038633461322" lon="15.022097737963875"><ele>573.0</ele><time>2026-05-02T13:51:22.999Z</time></trkpt><trkpt lat="37.90397571493645" lon="15.022002264619557"><ele>573.0</ele><time>2026-05-02T13:51:23.999Z</time></trkpt><trkpt lat="37.90408774683778" lon="15.02190406947233"><ele>573.0</ele><time>2026-05-02T13:51:24.999Z</time></trkpt><trkpt lat="37.90420163245003" lon="15.021804419285644"><ele>573.0</ele><time>2026-05-02T13:51:25.999Z</time></trkpt><trkpt lat="37.90431517300632" lon="15.021704308685747"><ele>574.75</ele><time>2026-05-02T13:51:26.999Z</time></trkpt><trkpt lat="37.904429980038365" lon="15.021607547681189"><ele>576.5</ele><time>2026-05-02T13:51:27.999Z</time></trkpt><trkpt lat="37.90454184297244" lon="15.021509006328364"><ele>578.25</ele><time>2026-05-02T13:51:28.999Z</time></trkpt><trkpt lat="37.90464945534446" lon="15.021409895795227"><ele>580.0</ele><time>2026-05-02T13:51:29.999Z</time></trkpt><trkpt lat="37.90475669813756" lon="15.021314602622711"><ele>580.0</ele><time>2026-05-02T13:51:30.999Z</time></trkpt><trkpt lat="37.90482167917747" lon="15.021170999927968"><ele>580.0</ele><time>2026-05-02T13:51:31.999Z</time></trkpt><trkpt lat="37.90489447890084" lon="15.021041745409914"><ele>580.0</ele><time>2026-05-02T13:51:32.999Z</time></trkpt><trkpt lat="37.904964082863394" lon="15.020913943032928"><ele>580.0</ele><time>2026-05-02T13:51:33.999Z</time></trkpt><trkpt lat="37.90504008394644" lon="15.020807574406344"><ele>578.25</ele><time>2026-05-02T13:51:34.999Z</time></trkpt><trkpt lat="37.905124716094036" lon="15.020721977054432"><ele>576.5</ele><time>2026-05-02T13:51:35.999Z</time></trkpt><trkpt lat="37.90522348681512" lon="15.020659914749551"><ele>574.75</ele><time>2026-05-02T13:51:36.999Z</time></trkpt><trkpt lat="37.9053366469463" lon="15.020619155521976"><ele>573.0</ele><time>2026-05-02T13:51:37.999Z</time></trkpt><trkpt lat="37.905458293326674" lon="15.020587030506164"><ele>573.0</ele><time>2026-05-02T13:51:38.999Z</time></trkpt><trkpt lat="37.90558022415892" lon="15.020559181167197"><ele>573.0</ele><time>2026-05-02T13:51:39.999Z</time></trkpt><trkpt lat="37.905697731913875" lon="15.020530039599487"><ele>573.0</ele><time>2026-05-02T13:51:40.999Z</time></trkpt><trkpt lat="37.90580725865681" lon="15.020504728811249"><ele>573.0</ele><time>2026-05-02T13:51:41.999Z</time></trkpt><trkpt lat="37.905914331859286" lon="15.02049599054378"><ele>574.6</ele><time>2026-05-02T13:51:42.999Z</time></trkpt><trkpt lat="37.90601254381153" lon="15.020510662788292"><ele>576.1999999999999</ele><time>2026-05-02T13:51:43.999Z</time></trkpt><trkpt lat="37.906086612528775" lon="15.020600816395774"><ele>577.8</ele><time>2026-05-02T13:51:44.999Z</time></trkpt><trkpt lat="37.90614991517416" lon="15.020683125521995"><ele>579.4</ele><time>2026-05-02T13:51:45.999Z</time></trkpt><trkpt lat="37.90618488497692" lon="15.020798578953233"><ele>581.0</ele><time>2026-05-02T13:51:46.998Z</time></trkpt><trkpt lat="37.90623989316257" lon="15.020896191260238"><ele>582.2</ele><time>2026-05-02T13:51:47.998Z</time></trkpt><trkpt lat="37.906302819261875" lon="15.020973265959602"><ele>583.4000000000001</ele><time>2026-05-02T13:51:48.998Z</time></trkpt><trkpt lat="37.9064007492495" lon="15.020996718925687"><ele>584.6</ele><time>2026-05-02T13:51:49.998Z</time></trkpt><trkpt lat="37.90650586503365" lon="15.020953660782741"><ele>585.8000000000001</ele><time>2026-05-02T13:51:50.998Z</time></trkpt><trkpt lat="37.906603048782934" lon="15.020899161825385"><ele>587.0</ele><time>2026-05-02T13:51:51.998Z</time></trkpt><trkpt lat="37.90669987956604" lon="15.020817179102616"><ele>585.75</ele><time>2026-05-02T13:51:52.998Z</time></trkpt><trkpt lat="37.906804087965554" lon="15.020736366364831"><ele>584.5</ele><time>2026-05-02T13:51:53.998Z</time></trkpt><trkpt lat="37.90691274166083" lon="15.020658704795718"><ele>583.25</ele><time>2026-05-02T13:51:54.998Z</time></trkpt><trkpt lat="37.90702412594364" lon="15.020590463092748"><ele>582.0</ele><time>2026-05-02T13:51:55.998Z</time></trkpt><trkpt lat="37.907129429304725" lon="15.020529274716816"><ele>582.0</ele><time>2026-05-02T13:51:56.998Z</time></trkpt><trkpt lat="37.907215933883954" lon="15.020478543711304"><ele>582.0</ele><time>2026-05-02T13:51:57.998Z</time></trkpt><trkpt lat="37.90730020387134" lon="15.020464844661157"><ele>582.0</ele><time>2026-05-02T13:51:58.998Z</time></trkpt><trkpt lat="37.90739302791797" lon="15.020485682006827"><ele>582.0</ele><time>2026-05-02T13:51:59.998Z</time></trkpt><trkpt lat="37.90748820994986" lon="15.020557407336401"><ele>582.0</ele><time>2026-05-02T13:52:00.998Z</time></trkpt><trkpt lat="37.90760286293014" lon="15.02060234157095"><ele>581.75</ele><time>2026-05-02T13:52:01.998Z</time></trkpt><trkpt lat="37.907712510544734" lon="15.020671567911721"><ele>581.5</ele><time>2026-05-02T13:52:02.998Z</time></trkpt><trkpt lat="37.907818600903944" lon="15.020728475208458"><ele>581.25</ele><time>2026-05-02T13:52:03.998Z</time></trkpt><trkpt lat="37.90792417915859" lon="15.020796233957899"><ele>581.0</ele><time>2026-05-02T13:52:04.998Z</time></trkpt><trkpt lat="37.908034618037114" lon="15.020861224326751"><ele>582.0</ele><time>2026-05-02T13:52:05.998Z</time></trkpt><trkpt lat="37.908149835540705" lon="15.020926434553575"><ele>583.0</ele><time>2026-05-02T13:52:06.998Z</time></trkpt><trkpt lat="37.90826630375431" lon="15.020990990437355"><ele>584.0</ele><time>2026-05-02T13:52:07.998Z</time></trkpt><trkpt lat="37.908384108341444" lon="15.021054926369048"><ele>585.0</ele><time>2026-05-02T13:52:08.998Z</time></trkpt><trkpt lat="37.90849845272278" lon="15.021128250095982"><ele>585.0</ele><time>2026-05-02T13:52:09.998Z</time></trkpt><trkpt lat="37.908583391527365" lon="15.021222977877192"><ele>585.0</ele><time>2026-05-02T13:52:10.998Z</time></trkpt><trkpt lat="37.90864528034535" lon="15.021304718759895"><ele>585.0</ele><time>2026-05-02T13:52:11.998Z</time></trkpt><trkpt lat="37.9087014409511" lon="15.021380569563524"><ele>585.0</ele><time>2026-05-02T13:52:12.998Z</time></trkpt><trkpt lat="37.90872020809899" lon="15.021494548104402"><ele>585.0</ele><time>2026-05-02T13:52:13.998Z</time></trkpt><trkpt lat="37.90876364369868" lon="15.021620394719566"><ele>586.8</ele><time>2026-05-02T13:52:14.998Z</time></trkpt><trkpt lat="37.90878726601399" lon="15.021759636279866"><ele>588.6</ele><time>2026-05-02T13:52:15.998Z</time></trkpt><trkpt lat="37.90881888268339" lon="15.021888607449013"><ele>590.4</ele><time>2026-05-02T13:52:16.998Z</time></trkpt><trkpt lat="37.90884218468582" lon="15.02201374073093"><ele>592.2</ele><time>2026-05-02T13:52:17.998Z</time></trkpt><trkpt lat="37.90887009878217" lon="15.022126973826973"><ele>594.0</ele><time>2026-05-02T13:52:18.998Z</time></trkpt><trkpt lat="37.908925598054935" lon="15.022214123056646"><ele>594.0</ele><time>2026-05-02T13:52:19.998Z</time></trkpt><trkpt lat="37.90900256911172" lon="15.022278963568628"><ele>594.0</ele><time>2026-05-02T13:52:20.998Z</time></trkpt><trkpt lat="37.90909418175482" lon="15.022311132940446"><ele>594.0</ele><time>2026-05-02T13:52:21.998Z</time></trkpt><trkpt lat="37.90919457605849" lon="15.022309942482401"><ele>594.0</ele><time>2026-05-02T13:52:22.998Z</time></trkpt><trkpt lat="37.9093000020973" lon="15.02227377285703"><ele>594.0</ele><time>2026-05-02T13:52:23.998Z</time></trkpt><trkpt lat="37.909412179916416" lon="15.022221237857377"><ele>595.0</ele><time>2026-05-02T13:52:25Z</time></trkpt><trkpt lat="37.90953152778002" lon="15.022176409715044"><ele>596.0</ele><time>2026-05-02T13:52:26Z</time></trkpt><trkpt lat="37.909652438464185" lon="15.022145548378079"><ele>597.0</ele><time>2026-05-02T13:52:27Z</time></trkpt><trkpt lat="37.90977483828014" lon="15.022128896105798"><ele>598.0</ele><time>2026-05-02T13:52:28Z</time></trkpt><trkpt lat="37.90990538517503" lon="15.022124971150554"><ele>598.0</ele><time>2026-05-02T13:52:29Z</time></trkpt><trkpt lat="37.91003142602192" lon="15.02212095175519"><ele>598.0</ele><time>2026-05-02T13:52:30Z</time></trkpt><trkpt lat="37.91015608387608" lon="15.022100269889924"><ele>598.0</ele><time>2026-05-02T13:52:31Z</time></trkpt><trkpt lat="37.91027354771477" lon="15.022061256432691"><ele>598.0</ele><time>2026-05-02T13:52:32Z</time></trkpt><trkpt lat="37.910385611171186" lon="15.021999251152714"><ele>599.0</ele><time>2026-05-02T13:52:33Z</time></trkpt><trkpt lat="37.91049875615976" lon="15.021950377377115"><ele>600.0</ele><time>2026-05-02T13:52:34Z</time></trkpt><trkpt lat="37.91061428767516" lon="15.02193028013391"><ele>601.0</ele><time>2026-05-02T13:52:35Z</time></trkpt><trkpt lat="37.910727820611775" lon="15.021938330584199"><ele>602.0</ele><time>2026-05-02T13:52:36Z</time></trkpt><trkpt lat="37.91083453693532" lon="15.021983465236525"><ele>602.75</ele><time>2026-05-02T13:52:37Z</time></trkpt><trkpt lat="37.910932253210326" lon="15.022051857789478"><ele>603.5</ele><time>2026-05-02T13:52:38Z</time></trkpt><trkpt lat="37.91102499839975" lon="15.02213143496677"><ele>604.25</ele><time>2026-05-02T13:52:39Z</time></trkpt><trkpt lat="37.91112637533577" lon="15.022207551208004"><ele>605.0</ele><time>2026-05-02T13:52:40Z</time></trkpt><trkpt lat="37.91123433201839" lon="15.02228046332381"><ele>605.0</ele><time>2026-05-02T13:52:41Z</time></trkpt><trkpt lat="37.91134016373138" lon="15.022353999263904"><ele>605.0</ele><time>2026-05-02T13:52:42Z</time></trkpt><trkpt lat="37.911438575519796" lon="15.022420733797446"><ele>605.0</ele><time>2026-05-02T13:52:43Z</time></trkpt><trkpt lat="37.911533267606345" lon="15.02247107446226"><ele>605.0</ele><time>2026-05-02T13:52:44Z</time></trkpt><trkpt lat="37.91164129594942" lon="15.022478834386959"><ele>605.0</ele><time>2026-05-02T13:52:45Z</time></trkpt><trkpt lat="37.91174623788946" lon="15.022450873697624"><ele>608.0</ele><time>2026-05-02T13:52:46Z</time></trkpt><trkpt lat="37.91185273577708" lon="15.02238968006506"><ele>611.0</ele><time>2026-05-02T13:52:47Z</time></trkpt><trkpt lat="37.91195511733114" lon="15.02230489914871"><ele>614.0</ele><time>2026-05-02T13:52:48Z</time></trkpt><trkpt lat="37.91206163424974" lon="15.02220999020167"><ele>617.0</ele><time>2026-05-02T13:52:49Z</time></trkpt><trkpt lat="37.91216969223651" lon="15.022111117243387"><ele>617.0</ele><time>2026-05-02T13:52:50Z</time></trkpt><trkpt lat="37.91228128673865" lon="15.022010404863527"><ele>617.0</ele><time>2026-05-02T13:52:51Z</time></trkpt><trkpt lat="37.91239634523833" lon="15.02190594531317"><ele>617.0</ele><time>2026-05-02T13:52:52Z</time></trkpt><trkpt lat="37.91249739076249" lon="15.021829723364922"><ele>617.0</ele><time>2026-05-02T13:52:53Z</time></trkpt><trkpt lat="37.91258277033375" lon="15.021743693160403"><ele>620.0</ele><time>2026-05-02T13:52:54Z</time></trkpt><trkpt lat="37.912645292091526" lon="15.021629769453014"><ele>623.0</ele><time>2026-05-02T13:52:55Z</time></trkpt><trkpt lat="37.91268673497638" lon="15.021495833982403"><ele>626.0</ele><time>2026-05-02T13:52:56Z</time></trkpt><trkpt lat="37.91270071567961" lon="15.021347305762102"><ele>629.0</ele><time>2026-05-02T13:52:57Z</time></trkpt><trkpt lat="37.912694750268514" lon="15.02119637881724"><ele>629.0</ele><time>2026-05-02T13:52:58Z</time></trkpt><trkpt lat="37.912691117497644" lon="15.021066969928635"><ele>629.0</ele><time>2026-05-02T13:52:59Z</time></trkpt><trkpt lat="37.91270245498995" lon="15.02094941905084"><ele>629.0</ele><time>2026-05-02T13:53:00Z</time></trkpt><trkpt lat="37.912740151739335" lon="15.02085691581425"><ele>629.0</ele><time>2026-05-02T13:53:01Z</time></trkpt><trkpt lat="37.912814329146286" lon="15.020772116686631"><ele>629.0</ele><time>2026-05-02T13:53:02Z</time></trkpt><trkpt lat="37.91289989457886" lon="15.020707995081706"><ele>625.8</ele><time>2026-05-02T13:53:03Z</time></trkpt><trkpt lat="37.91298845725176" lon="15.020641373430847"><ele>622.5999999999999</ele><time>2026-05-02T13:53:03.999Z</time></trkpt><trkpt lat="37.91307875946992" lon="15.020562771686924"><ele>619.4</ele><time>2026-05-02T13:53:04.999Z</time></trkpt><trkpt lat="37.91317422035593" lon="15.02048033405594"><ele>616.1999999999999</ele><time>2026-05-02T13:53:05.999Z</time></trkpt><trkpt lat="37.9132760865546" lon="15.020402506696485"><ele>613.0</ele><time>2026-05-02T13:53:06.999Z</time></trkpt><trkpt lat="37.913380504409865" lon="15.020319106039759"><ele>617.0</ele><time>2026-05-02T13:53:07.999Z</time></trkpt><trkpt lat="37.91348542164703" lon="15.020232467300527"><ele>621.0</ele><time>2026-05-02T13:53:08.999Z</time></trkpt><trkpt lat="37.91358499962627" lon="15.020147465770929"><ele>625.0</ele><time>2026-05-02T13:53:09.999Z</time></trkpt><trkpt lat="37.913683947194194" lon="15.020066878175648"><ele>629.0</ele><time>2026-05-02T13:53:10.999Z</time></trkpt><trkpt lat="37.913790451455796" lon="15.01999463769593"><ele>629.0</ele><time>2026-05-02T13:53:11.999Z</time></trkpt><trkpt lat="37.91390497784119" lon="15.019940880745668"><ele>629.0</ele><time>2026-05-02T13:53:12.999Z</time></trkpt><trkpt lat="37.91402265583615" lon="15.019912017889647"><ele>629.0</ele><time>2026-05-02T13:53:13.999Z</time></trkpt><trkpt lat="37.91414130633121" lon="15.019898956895373"><ele>629.0</ele><time>2026-05-02T13:53:14.999Z</time></trkpt><trkpt lat="37.91426307496152" lon="15.019900949409296"><ele>629.0</ele><time>2026-05-02T13:53:15.999Z</time></trkpt><trkpt lat="37.91438094599234" lon="15.019890066397325"><ele>629.0</ele><time>2026-05-02T13:53:16.999Z</time></trkpt><trkpt lat="37.91450064674755" lon="15.019881244044331"><ele>629.0</ele><time>2026-05-02T13:53:17.999Z</time></trkpt><trkpt lat="37.91461804015397" lon="15.01985449441761"><ele>629.0</ele><time>2026-05-02T13:53:18.999Z</time></trkpt><trkpt lat="37.914725742031465" lon="15.019806060618258"><ele>629.0</ele><time>2026-05-02T13:53:19.999Z</time></trkpt><trkpt lat="37.91481953974793" lon="15.019729218840657"><ele>629.0</ele><time>2026-05-02T13:53:20.999Z</time></trkpt><trkpt lat="37.914900987774395" lon="15.019624084700464"><ele>629.0</ele><time>2026-05-02T13:53:21.999Z</time></trkpt><trkpt lat="37.91497233801688" lon="15.019495079983308"><ele>629.0</ele><time>2026-05-02T13:53:22.999Z</time></trkpt><trkpt lat="37.91502344217689" lon="15.019352828991435"><ele>629.0</ele><time>2026-05-02T13:53:23.999Z</time></trkpt><trkpt lat="37.915034733137325" lon="15.019216698945618"><ele>629.0</ele><time>2026-05-02T13:53:24.999Z</time></trkpt><trkpt lat="37.91501465823204" lon="15.019088197652394"><ele>629.0</ele><time>2026-05-02T13:53:25.999Z</time></trkpt><trkpt lat="37.91496473127864" lon="15.018966658437915"><ele>629.0</ele><time>2026-05-02T13:53:26.999Z</time></trkpt><trkpt lat="37.91489122831487" lon="15.018852276329946"><ele>629.0</ele><time>2026-05-02T13:53:27.999Z</time></trkpt><trkpt lat="37.914794672592194" lon="15.018743634069187"><ele>631.25</ele><time>2026-05-02T13:53:28.999Z</time></trkpt><trkpt lat="37.91469069854284" lon="15.01862924203422"><ele>633.5</ele><time>2026-05-02T13:53:29.999Z</time></trkpt><trkpt lat="37.91458028889967" lon="15.018504379013418"><ele>635.75</ele><time>2026-05-02T13:53:30.999Z</time></trkpt><trkpt lat="37.914466497409784" lon="15.018382909184115"><ele>638.0</ele><time>2026-05-02T13:53:31.999Z</time></trkpt><trkpt lat="37.914351241422594" lon="15.018258559864925"><ele>639.0</ele><time>2026-05-02T13:53:32.999Z</time></trkpt><trkpt lat="37.9142349701886" lon="15.018137445293062"><ele>640.0</ele><time>2026-05-02T13:53:33.999Z</time></trkpt><trkpt lat="37.91412481181622" lon="15.018015876765737"><ele>641.0</ele><time>2026-05-02T13:53:34.999Z</time></trkpt><trkpt lat="37.9140253809185" lon="15.017907949116848"><ele>642.0</ele><time>2026-05-02T13:53:35.999Z</time></trkpt><trkpt lat="37.91394122825083" lon="15.017803363003232"><ele>642.0</ele><time>2026-05-02T13:53:36.999Z</time></trkpt><trkpt lat="37.91387609815229" lon="15.017702422003731"><ele>642.0</ele><time>2026-05-02T13:53:37.999Z</time></trkpt><trkpt lat="37.91384044589497" lon="15.017596055066857"><ele>642.0</ele><time>2026-05-02T13:53:38.999Z</time></trkpt><trkpt lat="37.913832447114174" lon="15.017482311056813"><ele>642.0</ele><time>2026-05-02T13:53:39.999Z</time></trkpt><trkpt lat="37.91385016054365" lon="15.017358099259182"><ele>642.0</ele><time>2026-05-02T13:53:40.999Z</time></trkpt><trkpt lat="37.9138838617292" lon="15.017237816813351"><ele>642.75</ele><time>2026-05-02T13:53:41.999Z</time></trkpt><trkpt lat="37.91392401212099" lon="15.017113392715606"><ele>643.5</ele><time>2026-05-02T13:53:42.999Z</time></trkpt><trkpt lat="37.91396044112801" lon="15.016982750031158"><ele>644.25</ele><time>2026-05-02T13:53:43.999Z</time></trkpt><trkpt lat="37.913998294749284" lon="15.016843451208127"><ele>645.0</ele><time>2026-05-02T13:53:44.999Z</time></trkpt><trkpt lat="37.91403605005584" lon="15.01669979255249"><ele>643.75</ele><time>2026-05-02T13:53:45.999Z</time></trkpt><trkpt lat="37.91406837307556" lon="15.016550153096265"><ele>642.5</ele><time>2026-05-02T13:53:46.999Z</time></trkpt><trkpt lat="37.91410554358512" lon="15.016392945914735"><ele>641.25</ele><time>2026-05-02T13:53:47.999Z</time></trkpt><trkpt lat="37.9141489254688" lon="15.016237381498607"><ele>640.0</ele><time>2026-05-02T13:53:48.999Z</time></trkpt><trkpt lat="37.91419340396722" lon="15.01609007028687"><ele>640.0</ele><time>2026-05-02T13:53:49.999Z</time></trkpt><trkpt lat="37.914233904566764" lon="15.01595708342073"><ele>640.0</ele><time>2026-05-02T13:53:50.999Z</time></trkpt><trkpt lat="37.914280740377954" lon="15.015848778173059"><ele>640.0</ele><time>2026-05-02T13:53:51.998Z</time></trkpt><trkpt lat="37.91435188193824" lon="15.01577769047515"><ele>640.0</ele><time>2026-05-02T13:53:52.998Z</time></trkpt><trkpt lat="37.91443235243709" lon="15.01573572548327"><ele>640.0</ele><time>2026-05-02T13:53:53.998Z</time></trkpt><trkpt lat="37.91451868538587" lon="15.015725378498203"><ele>640.4</ele><time>2026-05-02T13:53:54.998Z</time></trkpt><trkpt lat="37.91459811474428" lon="15.015771658618961"><ele>640.8</ele><time>2026-05-02T13:53:55.998Z</time></trkpt><trkpt lat="37.914688011578804" lon="15.015798888781346"><ele>641.2</ele><time>2026-05-02T13:53:56.998Z</time></trkpt><trkpt lat="37.91478636719116" lon="15.015815502379398"><ele>641.6</ele><time>2026-05-02T13:53:57.998Z</time></trkpt><trkpt lat="37.914891237738786" lon="15.015851336636343"><ele>642.0</ele><time>2026-05-02T13:53:58.998Z</time></trkpt><trkpt lat="37.91499887393985" lon="15.015880992973628"><ele>642.0</ele><time>2026-05-02T13:53:59.998Z</time></trkpt><trkpt lat="37.91510908594143" lon="15.015911099334238"><ele>642.0</ele><time>2026-05-02T13:54:00.998Z</time></trkpt><trkpt lat="37.91522210791925" lon="15.015949335768935"><ele>642.0</ele><time>2026-05-02T13:54:01.998Z</time></trkpt><trkpt lat="37.91534269524354" lon="15.01598436335445"><ele>642.0</ele><time>2026-05-02T13:54:02.998Z</time></trkpt><trkpt lat="37.91547120315304" lon="15.01602315352222"><ele>642.0</ele><time>2026-05-02T13:54:03.998Z</time></trkpt><trkpt lat="37.91559935364799" lon="15.016054707801539"><ele>642.0</ele><time>2026-05-02T13:54:04.998Z</time></trkpt><trkpt lat="37.91572191277473" lon="15.016095053176084"><ele>642.0</ele><time>2026-05-02T13:54:05.998Z</time></trkpt><trkpt lat="37.91583774051696" lon="15.016133771593784"><ele>642.0</ele><time>2026-05-02T13:54:06.998Z</time></trkpt><trkpt lat="37.91594680512129" lon="15.016154644941297"><ele>643.8</ele><time>2026-05-02T13:54:07.998Z</time></trkpt><trkpt lat="37.91605002318563" lon="15.016153261487867"><ele>645.6</ele><time>2026-05-02T13:54:08.998Z</time></trkpt><trkpt lat="37.91615756635164" lon="15.01613953083361"><ele>647.4</ele><time>2026-05-02T13:54:09.998Z</time></trkpt><trkpt lat="37.91624807429014" lon="15.016047196183127"><ele>649.1999999999999</ele><time>2026-05-02T13:54:10.998Z</time></trkpt><trkpt lat="37.91633121199812" lon="15.015951836222717"><ele>651.0</ele><time>2026-05-02T13:54:11.998Z</time></trkpt><trkpt lat="37.916392402765986" lon="15.015825825021441"><ele>648.75</ele><time>2026-05-02T13:54:12.998Z</time></trkpt><trkpt lat="37.91643426055348" lon="15.0156791520841"><ele>646.5</ele><time>2026-05-02T13:54:13.998Z</time></trkpt><trkpt lat="37.91647772047542" lon="15.01554526876287"><ele>644.25</ele><time>2026-05-02T13:54:14.998Z</time></trkpt><trkpt lat="37.91653701240376" lon="15.015431319546401"><ele>642.0</ele><time>2026-05-02T13:54:15.998Z</time></trkpt><trkpt lat="37.91661876522487" lon="15.015327276487072"><ele>642.0</ele><time>2026-05-02T13:54:16.998Z</time></trkpt><trkpt lat="37.9167192375702" lon="15.015245848839887"><ele>642.0</ele><time>2026-05-02T13:54:17.998Z</time></trkpt><trkpt lat="37.91683646377186" lon="15.015197477789341"><ele>642.0</ele><time>2026-05-02T13:54:18.998Z</time></trkpt><trkpt lat="37.91696033025348" lon="15.015151147539955"><ele>642.0</ele><time>2026-05-02T13:54:19.998Z</time></trkpt><trkpt lat="37.91708549245582" lon="15.015100907704202"><ele>644.5</ele><time>2026-05-02T13:54:20.998Z</time></trkpt><trkpt lat="37.91720313963909" lon="15.015063605737529"><ele>647.0</ele><time>2026-05-02T13:54:21.998Z</time></trkpt><trkpt lat="37.917304732641284" lon="15.0150063504758"><ele>649.5</ele><time>2026-05-02T13:54:22.998Z</time></trkpt><trkpt lat="37.91739012995937" lon="15.01490996282114"><ele>652.0</ele><time>2026-05-02T13:54:23.998Z</time></trkpt><trkpt lat="37.91745510426962" lon="15.014788216881229"><ele>652.0</ele><time>2026-05-02T13:54:24.998Z</time></trkpt><trkpt lat="37.9174930026186" lon="15.014647970288271"><ele>652.0</ele><time>2026-05-02T13:54:25.998Z</time></trkpt><trkpt lat="37.91751266057169" lon="15.014495430412094"><ele>652.0</ele><time>2026-05-02T13:54:26.998Z</time></trkpt><trkpt lat="37.91752431479426" lon="15.014335194645632"><ele>652.0</ele><time>2026-05-02T13:54:27.998Z</time></trkpt><trkpt lat="37.91753955911797" lon="15.014167343589069"><ele>652.25</ele><time>2026-05-02T13:54:28.998Z</time></trkpt><trkpt lat="37.91755414813049" lon="15.014002041586814"><ele>652.5</ele><time>2026-05-02T13:54:29.998Z</time></trkpt><trkpt lat="37.91757881819594" lon="15.013837251567265"><ele>652.75</ele><time>2026-05-02T13:54:31Z</time></trkpt><trkpt lat="37.91760624465794" lon="15.013674602417765"><ele>653.0</ele><time>2026-05-02T13:54:32Z</time></trkpt><trkpt lat="37.91761583932668" lon="15.013513390864484"><ele>652.0</ele><time>2026-05-02T13:54:33Z</time></trkpt><trkpt lat="37.91760346688908" lon="15.013354621865417"><ele>651.0</ele><time>2026-05-02T13:54:34Z</time></trkpt><trkpt lat="37.917571878883756" lon="15.013201104623773"><ele>650.0</ele><time>2026-05-02T13:54:35Z</time></trkpt><trkpt lat="37.91752973003966" lon="15.013053714018515"><ele>649.0</ele><time>2026-05-02T13:54:36Z</time></trkpt><trkpt lat="37.917501580514475" lon="15.012901235022639"><ele>649.0</ele><time>2026-05-02T13:54:37Z</time></trkpt><trkpt lat="37.91749897241505" lon="15.01274641612336"><ele>649.0</ele><time>2026-05-02T13:54:38Z</time></trkpt><trkpt lat="37.917515907103216" lon="15.012597090824976"><ele>649.0</ele><time>2026-05-02T13:54:39Z</time></trkpt><trkpt lat="37.917558929642055" lon="15.012454326000695"><ele>649.0</ele><time>2026-05-02T13:54:40Z</time></trkpt><trkpt lat="37.91761635439741" lon="15.012318038032612"><ele>648.75</ele><time>2026-05-02T13:54:41Z</time></trkpt><trkpt lat="37.91767773051523" lon="15.012182922290977"><ele>648.5</ele><time>2026-05-02T13:54:42Z</time></trkpt><trkpt lat="37.91775126871289" lon="15.012058288634536"><ele>648.25</ele><time>2026-05-02T13:54:43Z</time></trkpt><trkpt lat="37.917829912670186" lon="15.011962532491584"><ele>648.0</ele><time>2026-05-02T13:54:44Z</time></trkpt><trkpt lat="37.917912397355195" lon="15.011899633338848"><ele>648.0</ele><time>2026-05-02T13:54:45Z</time></trkpt><trkpt lat="37.918008130838004" lon="15.01187921652323"><ele>648.0</ele><time>2026-05-02T13:54:46Z</time></trkpt><trkpt lat="37.918105228219325" lon="15.011897778879982"><ele>648.0</ele><time>2026-05-02T13:54:47Z</time></trkpt><trkpt lat="37.91819932543544" lon="15.011954319936265"><ele>648.0</ele><time>2026-05-02T13:54:48Z</time></trkpt><trkpt lat="37.9182920312694" lon="15.012019418804902"><ele>648.0</ele><time>2026-05-02T13:54:49Z</time></trkpt><trkpt lat="37.91839709292852" lon="15.012068684729687"><ele>648.4</ele><time>2026-05-02T13:54:50Z</time></trkpt><trkpt lat="37.91850702896465" lon="15.012106158713914"><ele>648.8</ele><time>2026-05-02T13:54:51Z</time></trkpt><trkpt lat="37.918619439816894" lon="15.012142115049656"><ele>649.2</ele><time>2026-05-02T13:54:52Z</time></trkpt><trkpt lat="37.91872401420312" lon="15.012183750992586"><ele>649.6</ele><time>2026-05-02T13:54:53Z</time></trkpt><trkpt lat="37.91881773359354" lon="15.012245097298822"><ele>650.0</ele><time>2026-05-02T13:54:54Z</time></trkpt><trkpt lat="37.918914938147694" lon="15.012297253345595"><ele>650.0</ele><time>2026-05-02T13:54:55Z</time></trkpt><trkpt lat="37.919020482435016" lon="15.012312092752305"><ele>650.0</ele><time>2026-05-02T13:54:56Z</time></trkpt><trkpt lat="37.919126641590275" lon="15.012286486258875"><ele>650.0</ele><time>2026-05-02T13:54:57Z</time></trkpt><trkpt lat="37.91923234469478" lon="15.012227782650658"><ele>650.0</ele><time>2026-05-02T13:54:58Z</time></trkpt><trkpt lat="37.91933284138919" lon="15.012143748357039"><ele>648.5</ele><time>2026-05-02T13:54:59Z</time></trkpt><trkpt lat="37.919426198988354" lon="15.012041247256104"><ele>647.0</ele><time>2026-05-02T13:55:00Z</time></trkpt><trkpt lat="37.91951296940743" lon="15.011919783823949"><ele>645.5</ele><time>2026-05-02T13:55:01Z</time></trkpt><trkpt lat="37.919589351463024" lon="15.011787926454238"><ele>644.0</ele><time>2026-05-02T13:55:02Z</time></trkpt><trkpt lat="37.919651130360215" lon="15.011649675599429"><ele>644.0</ele><time>2026-05-02T13:55:03Z</time></trkpt><trkpt lat="37.91971579107251" lon="15.011525329115196"><ele>644.0</ele><time>2026-05-02T13:55:04Z</time></trkpt><trkpt lat="37.919794878582614" lon="15.011437168282239"><ele>644.0</ele><time>2026-05-02T13:55:05Z</time></trkpt><trkpt lat="37.919884915058226" lon="15.011385394615898"><ele>644.0</ele><time>2026-05-02T13:55:06Z</time></trkpt><trkpt lat="37.91998776650283" lon="15.01136328638812"><ele>644.0</ele><time>2026-05-02T13:55:07Z</time></trkpt><trkpt lat="37.92009510926318" lon="15.011354275090554"><ele>644.0</ele><time>2026-05-02T13:55:08Z</time></trkpt><trkpt lat="37.92020545687875" lon="15.011352624291474"><ele>644.0</ele><time>2026-05-02T13:55:09Z</time></trkpt><trkpt lat="37.920309838512814" lon="15.011384416356623"><ele>644.0</ele><time>2026-05-02T13:55:10Z</time></trkpt><trkpt lat="37.92040348328938" lon="15.011446801435158"><ele>644.0</ele><time>2026-05-02T13:55:11Z</time></trkpt><trkpt lat="37.92049265877034" lon="15.011520323872741"><ele>644.0</ele><time>2026-05-02T13:55:12Z</time></trkpt><trkpt lat="37.92058951324789" lon="15.011592522665858"><ele>649.75</ele><time>2026-05-02T13:55:12.999Z</time></trkpt><trkpt lat="37.920697058181744" lon="15.0116611543707"><ele>655.5</ele><time>2026-05-02T13:55:13.999Z</time></trkpt><trkpt lat="37.92080852446046" lon="15.0117198390791"><ele>661.25</ele><time>2026-05-02T13:55:14.999Z</time></trkpt><trkpt lat="37.92091959868818" lon="15.011764870161395"><ele>667.0</ele><time>2026-05-02T13:55:15.999Z</time></trkpt><trkpt lat="37.921029898309804" lon="15.011781446746483"><ele>667.0</ele><time>2026-05-02T13:55:16.999Z</time></trkpt><trkpt lat="37.92113276524335" lon="15.011771579870778"><ele>667.0</ele><time>2026-05-02T13:55:17.999Z</time></trkpt><trkpt lat="37.92123222913513" lon="15.011745394663196"><ele>667.0</ele><time>2026-05-02T13:55:18.999Z</time></trkpt><trkpt lat="37.921333378051315" lon="15.011733926408985"><ele>667.0</ele><time>2026-05-02T13:55:19.999Z</time></trkpt><trkpt lat="37.92142930780274" lon="15.011738346871185"><ele>667.0</ele><time>2026-05-02T13:55:20.999Z</time></trkpt><trkpt lat="37.921517698202635" lon="15.01175826852871"><ele>667.0</ele><time>2026-05-02T13:55:21.999Z</time></trkpt><trkpt lat="37.9215946248472" lon="15.011807543133243"><ele>667.0</ele><time>2026-05-02T13:55:22.999Z</time></trkpt><trkpt lat="37.92165257523769" lon="15.011889067162627"><ele>667.0</ele><time>2026-05-02T13:55:23.999Z</time></trkpt><trkpt lat="37.92170219952459" lon="15.011988944967804"><ele>667.0</ele><time>2026-05-02T13:55:24.999Z</time></trkpt><trkpt lat="37.92174314221559" lon="15.012100321790623"><ele>667.0</ele><time>2026-05-02T13:55:25.999Z</time></trkpt><trkpt lat="37.921782194917874" lon="15.012219766110842"><ele>666.0</ele><time>2026-05-02T13:55:26.999Z</time></trkpt><trkpt lat="37.92182072294497" lon="15.012339997335761"><ele>665.0</ele><time>2026-05-02T13:55:27.999Z</time></trkpt><trkpt lat="37.921860450470234" lon="15.01245178730988"><ele>664.0</ele><time>2026-05-02T13:55:28.999Z</time></trkpt><trkpt lat="37.921904239238636" lon="15.01255223953833"><ele>663.0</ele><time>2026-05-02T13:55:29.999Z</time></trkpt><trkpt lat="37.921971087731414" lon="15.012626676389697"><ele>662.0</ele><time>2026-05-02T13:55:30.999Z</time></trkpt><trkpt lat="37.922057808597486" lon="15.012674208398316"><ele>665.6</ele><time>2026-05-02T13:55:31.999Z</time></trkpt><trkpt lat="37.92215683148972" lon="15.012692600684296"><ele>669.2</ele><time>2026-05-02T13:55:32.999Z</time></trkpt><trkpt lat="37.922266010422554" lon="15.012686895235893"><ele>672.8</ele><time>2026-05-02T13:55:33.999Z</time></trkpt><trkpt lat="37.92238090891346" lon="15.012667289611313"><ele>676.4</ele><time>2026-05-02T13:55:34.999Z</time></trkpt><trkpt lat="37.922499334471695" lon="15.012660239715904"><ele>680.0</ele><time>2026-05-02T13:55:35.999Z</time></trkpt><trkpt lat="37.92261433005151" lon="15.012675255735257"><ele>681.2</ele><time>2026-05-02T13:55:36.999Z</time></trkpt><trkpt lat="37.922724950549345" lon="15.012697465136887"><ele>682.4</ele><time>2026-05-02T13:55:37.999Z</time></trkpt><trkpt lat="37.92283235798606" lon="15.012705756910506"><ele>683.5999999999999</ele><time>2026-05-02T13:55:38.999Z</time></trkpt><trkpt lat="37.92294413243896" lon="15.012698345647955"><ele>684.8</ele><time>2026-05-02T13:55:39.999Z</time></trkpt><trkpt lat="37.9230576761307" lon="15.012684575518158"><ele>686.0</ele><time>2026-05-02T13:55:40.999Z</time></trkpt><trkpt lat="37.92316632450917" lon="15.012667744511775"><ele>686.0</ele><time>2026-05-02T13:55:41.999Z</time></trkpt><trkpt lat="37.923271596161875" lon="15.012646191284423"><ele>686.0</ele><time>2026-05-02T13:55:42.999Z</time></trkpt><trkpt lat="37.92337148642626" lon="15.01261502170147"><ele>686.0</ele><time>2026-05-02T13:55:43.999Z</time></trkpt><trkpt lat="37.923455825285714" lon="15.012588987736681"><ele>686.0</ele><time>2026-05-02T13:55:44.999Z</time></trkpt><trkpt lat="37.92353763185813" lon="15.012584846475438"><ele>686.0</ele><time>2026-05-02T13:55:45.999Z</time></trkpt><trkpt lat="37.92362855187493" lon="15.012599317283753"><ele>686.8</ele><time>2026-05-02T13:55:46.999Z</time></trkpt><trkpt lat="37.923716203640794" lon="15.01263421283902"><ele>687.5999999999999</ele><time>2026-05-02T13:55:47.999Z</time></trkpt><trkpt lat="37.923800952626394" lon="15.012689851526748"><ele>688.4</ele><time>2026-05-02T13:55:48.999Z</time></trkpt><trkpt lat="37.923881428604574" lon="15.012748719500847"><ele>689.2</ele><time>2026-05-02T13:55:49.999Z</time></trkpt><trkpt lat="37.92396669917269" lon="15.012806082618413"><ele>690.0</ele><time>2026-05-02T13:55:50.999Z</time></trkpt><trkpt lat="37.924036603765046" lon="15.012864075314278"><ele>690.0</ele><time>2026-05-02T13:55:51.999Z</time></trkpt><trkpt lat="37.924104650039624" lon="15.012917836916662"><ele>690.0</ele><time>2026-05-02T13:55:52.999Z</time></trkpt><trkpt lat="37.924186944133666" lon="15.012949029984458"><ele>690.0</ele><time>2026-05-02T13:55:53.999Z</time></trkpt><trkpt lat="37.92427773869074" lon="15.012951334106145"><ele>690.0</ele><time>2026-05-02T13:55:54.999Z</time></trkpt><trkpt lat="37.92437071204429" lon="15.012929099137889"><ele>690.0</ele><time>2026-05-02T13:55:55.999Z</time></trkpt><trkpt lat="37.924467281433245" lon="15.012884653480565"><ele>690.0</ele><time>2026-05-02T13:55:56.999Z</time></trkpt><trkpt lat="37.92456531404941" lon="15.012839178474689"><ele>690.0</ele><time>2026-05-02T13:55:57.999Z</time></trkpt><trkpt lat="37.924669979003795" lon="15.012818742557622"><ele>690.0</ele><time>2026-05-02T13:55:58.999Z</time></trkpt><trkpt lat="37.924777247372894" lon="15.012825232294933"><ele>690.0</ele><time>2026-05-02T13:55:59.999Z</time></trkpt><trkpt lat="37.92487968723226" lon="15.012847361532371"><ele>690.0</ele><time>2026-05-02T13:56:00.999Z</time></trkpt><trkpt lat="37.92496974558781" lon="15.01290841246782"><ele>690.0</ele><time>2026-05-02T13:56:01.998Z</time></trkpt><trkpt lat="37.9250430228282" lon="15.012983312227652"><ele>690.0</ele><time>2026-05-02T13:56:02.998Z</time></trkpt><trkpt lat="37.925124668058004" lon="15.013040715079"><ele>690.0</ele><time>2026-05-02T13:56:03.998Z</time></trkpt><trkpt lat="37.92521957169164" lon="15.013062051693407"><ele>690.0</ele><time>2026-05-02T13:56:04.998Z</time></trkpt><trkpt lat="37.92532264864401" lon="15.013046060619503"><ele>690.0</ele><time>2026-05-02T13:56:05.998Z</time></trkpt><trkpt lat="37.92542638284047" lon="15.013019173480341"><ele>692.25</ele><time>2026-05-02T13:56:06.998Z</time></trkpt><trkpt lat="37.925535229252155" lon="15.012984792216164"><ele>694.5</ele><time>2026-05-02T13:56:07.998Z</time></trkpt><trkpt lat="37.925646598791" lon="15.012951658594229"><ele>696.75</ele><time>2026-05-02T13:56:08.998Z</time></trkpt><trkpt lat="37.9257546850017" lon="15.012908141429584"><ele>699.0</ele><time>2026-05-02T13:56:09.998Z</time></trkpt><trkpt lat="37.92585522839311" lon="15.012839775232765"><ele>697.4000000000001</ele><time>2026-05-02T13:56:10.998Z</time></trkpt><trkpt lat="37.92594593285251" lon="15.012756534300289"><ele>695.8</ele><time>2026-05-02T13:56:11.998Z</time></trkpt><trkpt lat="37.92602724203396" lon="15.012663917808657"><ele>694.2</ele><time>2026-05-02T13:56:12.998Z</time></trkpt><trkpt lat="37.92611035005076" lon="15.012580419783"><ele>692.5999999999999</ele><time>2026-05-02T13:56:13.998Z</time></trkpt><trkpt lat="37.92619482101799" lon="15.012499326447646"><ele>691.0</ele><time>2026-05-02T13:56:14.998Z</time></trkpt><trkpt lat="37.926286703538075" lon="15.012448854186001"><ele>691.0</ele><time>2026-05-02T13:56:15.998Z</time></trkpt><trkpt lat="37.92638397036951" lon="15.012424958171893"><ele>691.0</ele><time>2026-05-02T13:56:16.998Z</time></trkpt><trkpt lat="37.92648705996551" lon="15.012417245423059"><ele>691.0</ele><time>2026-05-02T13:56:17.998Z</time></trkpt><trkpt lat="37.92658908763178" lon="15.012412934223697"><ele>691.0</ele><time>2026-05-02T13:56:18.998Z</time></trkpt><trkpt lat="37.9266896573514" lon="15.012407876630524"><ele>691.0</ele><time>2026-05-02T13:56:19.998Z</time></trkpt><trkpt lat="37.926790261301036" lon="15.012410433762335"><ele>691.6666666666667</ele><time>2026-05-02T13:56:20.998Z</time></trkpt><trkpt lat="37.92688941004274" lon="15.01240595820162"><ele>692.3333333333334</ele><time>2026-05-02T13:56:21.998Z</time></trkpt><trkpt lat="37.9269813205954" lon="15.012401946763196"><ele>693.0</ele><time>2026-05-02T13:56:22.998Z</time></trkpt><trkpt lat="37.92706834207621" lon="15.012404408188631"><ele>693.6666666666666</ele><time>2026-05-02T13:56:23.998Z</time></trkpt><trkpt lat="37.92714725436628" lon="15.012405559052901"><ele>694.3333333333333</ele><time>2026-05-02T13:56:24.998Z</time></trkpt><trkpt lat="37.927218203487286" lon="15.012408292533896"><ele>695.0</ele><time>2026-05-02T13:56:25.998Z</time></trkpt><trkpt lat="37.92733837903828" lon="15.012428385055417"><ele>695.0</ele><time>2026-05-02T13:56:27.998Z</time></trkpt><trkpt lat="37.92744339657681" lon="15.012438799779865"><ele>695.0</ele><time>2026-05-02T13:56:29.998Z</time></trkpt><trkpt lat="37.92751010118174" lon="15.01231969550348"><ele>695.0</ele><time>2026-05-02T13:56:30.998Z</time></trkpt><trkpt lat="37.92758405012339" lon="15.01230053069089"><ele>695.0</ele><time>2026-05-02T13:56:31.998Z</time></trkpt><trkpt lat="37.92766403705538" lon="15.01229222914543"><ele>695.0</ele><time>2026-05-02T13:56:32.998Z</time></trkpt><trkpt lat="37.92774817096663" lon="15.01229521279446"><ele>693.1666666666666</ele><time>2026-05-02T13:56:33.998Z</time></trkpt><trkpt lat="37.92783385059188" lon="15.012310983400006"><ele>691.3333333333333</ele><time>2026-05-02T13:56:34.998Z</time></trkpt><trkpt lat="37.92791078509139" lon="15.01233230708906"><ele>689.5</ele><time>2026-05-02T13:56:35.998Z</time></trkpt><trkpt lat="37.92798987471708" lon="15.012367296814201"><ele>687.6666666666666</ele><time>2026-05-02T13:56:37Z</time></trkpt><trkpt lat="37.928069889559595" lon="15.012404096602383"><ele>685.8333333333334</ele><time>2026-05-02T13:56:38Z</time></trkpt><trkpt lat="37.928154847939894" lon="15.012433457671403"><ele>684.0</ele><time>2026-05-02T13:56:39Z</time></trkpt><trkpt lat="37.9282471944289" lon="15.012468957079543"><ele>684.0</ele><time>2026-05-02T13:56:40Z</time></trkpt><trkpt lat="37.92834646167282" lon="15.01251298673213"><ele>684.0</ele><time>2026-05-02T13:56:41Z</time></trkpt><trkpt lat="37.92844471096673" lon="15.012570371428074"><ele>684.0</ele><time>2026-05-02T13:56:42Z</time></trkpt><trkpt lat="37.92854240587035" lon="15.012648265021905"><ele>684.0</ele><time>2026-05-02T13:56:43Z</time></trkpt><trkpt lat="37.928633846299284" lon="15.012730641608707"><ele>684.0</ele><time>2026-05-02T13:56:44Z</time></trkpt><trkpt lat="37.92872408194013" lon="15.0128110232022"><ele>684.0</ele><time>2026-05-02T13:56:45Z</time></trkpt><trkpt lat="37.928807660951634" lon="15.012892196890913"><ele>684.0</ele><time>2026-05-02T13:56:46Z</time></trkpt><trkpt lat="37.92888516882148" lon="15.012962486850137"><ele>684.0</ele><time>2026-05-02T13:56:47Z</time></trkpt><trkpt lat="37.92896269588653" lon="15.01302273402968"><ele>684.0</ele><time>2026-05-02T13:56:48Z</time></trkpt><trkpt lat="37.92904334763489" lon="15.013078787744135"><ele>684.0</ele><time>2026-05-02T13:56:49Z</time></trkpt><trkpt lat="37.929129679312716" lon="15.013129732298747"><ele>684.0</ele><time>2026-05-02T13:56:50Z</time></trkpt><trkpt lat="37.92922081315336" lon="15.013176228167573"><ele>684.0</ele><time>2026-05-02T13:56:51Z</time></trkpt><trkpt lat="37.92931330238579" lon="15.01322194246741"><ele>684.0</ele><time>2026-05-02T13:56:52Z</time></trkpt><trkpt lat="37.92940375026989" lon="15.013273789785172"><ele>684.0</ele><time>2026-05-02T13:56:53Z</time></trkpt><trkpt lat="37.92949603619574" lon="15.013327909690261"><ele>684.0</ele><time>2026-05-02T13:56:54Z</time></trkpt><trkpt lat="37.92959135353257" lon="15.01336561697346"><ele>686.4000000000001</ele><time>2026-05-02T13:56:55Z</time></trkpt><trkpt lat="37.929691478750925" lon="15.013390293409431"><ele>688.8</ele><time>2026-05-02T13:56:56Z</time></trkpt><trkpt lat="37.92979492229004" lon="15.013410644564592"><ele>691.2</ele><time>2026-05-02T13:56:57Z</time></trkpt><trkpt lat="37.92990033847658" lon="15.013445215982863"><ele>693.5999999999999</ele><time>2026-05-02T13:56:58Z</time></trkpt><trkpt lat="37.93000807137427" lon="15.013446059600927"><ele>696.0</ele><time>2026-05-02T13:56:59Z</time></trkpt><trkpt lat="37.930113037157476" lon="15.013446817862969"><ele>696.0</ele><time>2026-05-02T13:57:00Z</time></trkpt><trkpt lat="37.93021383169061" lon="15.013453508392809"><ele>696.0</ele><time>2026-05-02T13:57:01Z</time></trkpt><trkpt lat="37.9303072505485" lon="15.013460105192564"><ele>696.0</ele><time>2026-05-02T13:57:02Z</time></trkpt><trkpt lat="37.93039856337062" lon="15.013456219561332"><ele>696.0</ele><time>2026-05-02T13:57:03Z</time></trkpt><trkpt lat="37.93049152522091" lon="15.013430018098493"><ele>696.0</ele><time>2026-05-02T13:57:04Z</time></trkpt><trkpt lat="37.93058274302325" lon="15.013374133006128"><ele>694.8</ele><time>2026-05-02T13:57:05Z</time></trkpt><trkpt lat="37.93067199622326" lon="15.01330470729652"><ele>693.5999999999999</ele><time>2026-05-02T13:57:06Z</time></trkpt><trkpt lat="37.93075707873729" lon="15.013231748015599"><ele>692.4</ele><time>2026-05-02T13:57:07Z</time></trkpt><trkpt lat="37.93084194915387" lon="15.01314784061057"><ele>691.2</ele><time>2026-05-02T13:57:08Z</time></trkpt><trkpt lat="37.93092783664117" lon="15.013060557553239"><ele>690.0</ele><time>2026-05-02T13:57:09Z</time></trkpt><trkpt lat="37.931014092843576" lon="15.012969318115715"><ele>695.25</ele><time>2026-05-02T13:57:10Z</time></trkpt><trkpt lat="37.93110424540025" lon="15.012875280556749"><ele>700.5</ele><time>2026-05-02T13:57:11Z</time></trkpt><trkpt lat="37.93118887670769" lon="15.012774700912972"><ele>705.75</ele><time>2026-05-02T13:57:11.999Z</time></trkpt><trkpt lat="37.93126891815804" lon="15.012661401150531"><ele>711.0</ele><time>2026-05-02T13:57:12.999Z</time></trkpt><trkpt lat="37.931332308427706" lon="15.012530037052668"><ele>710.5</ele><time>2026-05-02T13:57:13.999Z</time></trkpt><trkpt lat="37.93138710140338" lon="15.012399859498023"><ele>710.0</ele><time>2026-05-02T13:57:14.999Z</time></trkpt><trkpt lat="37.93143164424478" lon="15.012264512699737"><ele>709.5</ele><time>2026-05-02T13:57:15.999Z</time></trkpt><trkpt lat="37.93144693217449" lon="15.012116931103273"><ele>709.0</ele><time>2026-05-02T13:57:16.999Z</time></trkpt><trkpt lat="37.93146252501861" lon="15.011966716082458"><ele>709.0</ele><time>2026-05-02T13:57:17.999Z</time></trkpt><trkpt lat="37.931476430320494" lon="15.011829083777554"><ele>709.0</ele><time>2026-05-02T13:57:18.999Z</time></trkpt><trkpt lat="37.93149055071463" lon="15.01169604696371"><ele>709.0</ele><time>2026-05-02T13:57:19.999Z</time></trkpt><trkpt lat="37.93150595494138" lon="15.011595899248926"><ele>709.0</ele><time>2026-05-02T13:57:20.999Z</time></trkpt><trkpt lat="37.93151467758327" lon="15.011509003799985"><ele>709.0</ele><time>2026-05-02T13:57:21.999Z</time></trkpt><trkpt lat="37.931518606070796" lon="15.011381749442743"><ele>709.8000000000001</ele><time>2026-05-02T13:57:23.999Z</time></trkpt><trkpt lat="37.93157115051412" lon="15.011309436467853"><ele>710.6</ele><time>2026-05-02T13:57:25.999Z</time></trkpt><trkpt lat="37.93165856214382" lon="15.011420960620413"><ele>711.4</ele><time>2026-05-02T13:57:27.999Z</time></trkpt><trkpt lat="37.931696443420805" lon="15.011504611201856"><ele>712.2</ele><time>2026-05-02T13:57:28.999Z</time></trkpt><trkpt lat="37.93174567221714" lon="15.011589549367573"><ele>713.0</ele><time>2026-05-02T13:57:29.999Z</time></trkpt><trkpt lat="37.9317751960396" lon="15.01170107146176"><ele>718.8</ele><time>2026-05-02T13:57:30.999Z</time></trkpt><trkpt lat="37.93180380184784" lon="15.011815579243915"><ele>724.5999999999999</ele><time>2026-05-02T13:57:31.999Z</time></trkpt><trkpt lat="37.931811420489254" lon="15.011948414505806"><ele>730.4000000000001</ele><time>2026-05-02T13:57:32.999Z</time></trkpt><trkpt lat="37.931828979581596" lon="15.012071562161077"><ele>736.2</ele><time>2026-05-02T13:57:33.999Z</time></trkpt><trkpt lat="37.93183823438459" lon="15.012203346614674"><ele>742.0</ele><time>2026-05-02T13:57:34.999Z</time></trkpt><trkpt lat="37.9318510023332" lon="15.01233325199554"><ele>742.0</ele><time>2026-05-02T13:57:35.999Z</time></trkpt><trkpt lat="37.93186386609021" lon="15.012461892084486"><ele>742.0</ele><time>2026-05-02T13:57:36.999Z</time></trkpt><trkpt lat="37.931878938026145" lon="15.012587437609751"><ele>742.0</ele><time>2026-05-02T13:57:37.999Z</time></trkpt><trkpt lat="37.93189283301589" lon="15.012706677797135"><ele>742.0</ele><time>2026-05-02T13:57:38.999Z</time></trkpt><trkpt lat="37.93191089583572" lon="15.012822661950748"><ele>742.0</ele><time>2026-05-02T13:57:39.999Z</time></trkpt><trkpt lat="37.931923316124944" lon="15.012933585843506"><ele>741.5</ele><time>2026-05-02T13:57:40.999Z</time></trkpt><trkpt lat="37.93192913238259" lon="15.0130348705138"><ele>741.0</ele><time>2026-05-02T13:57:41.999Z</time></trkpt><trkpt lat="37.931952385563015" lon="15.013120036040533"><ele>740.5</ele><time>2026-05-02T13:57:42.999Z</time></trkpt><trkpt lat="37.9319847052794" lon="15.01321158418913"><ele>740.0</ele><time>2026-05-02T13:57:43.999Z</time></trkpt><trkpt lat="37.93207443414703" lon="15.013226228986833"><ele>739.5</ele><time>2026-05-02T13:57:44.999Z</time></trkpt><trkpt lat="37.932148398867334" lon="15.013226983155446"><ele>739.0</ele><time>2026-05-02T13:57:45.999Z</time></trkpt><trkpt lat="37.932212711297055" lon="15.013189595479624"><ele>739.0</ele><time>2026-05-02T13:57:46.999Z</time></trkpt><trkpt lat="37.93225770761597" lon="15.013123636431288"><ele>739.0</ele><time>2026-05-02T13:57:47.999Z</time></trkpt><trkpt lat="37.932289329250416" lon="15.013028298790008"><ele>739.0</ele><time>2026-05-02T13:57:48.999Z</time></trkpt><trkpt lat="37.93230486482154" lon="15.012911284232372"><ele>739.0</ele><time>2026-05-02T13:57:49.999Z</time></trkpt><trkpt lat="37.932320694723465" lon="15.01278494921925"><ele>739.0</ele><time>2026-05-02T13:57:50.999Z</time></trkpt><trkpt lat="37.93234314768292" lon="15.012645068478658"><ele>739.75</ele><time>2026-05-02T13:57:51.999Z</time></trkpt><trkpt lat="37.93238116363303" lon="15.012487132966767"><ele>740.5</ele><time>2026-05-02T13:57:52.999Z</time></trkpt><trkpt lat="37.93240839033989" lon="15.012336460156137"><ele>741.25</ele><time>2026-05-02T13:57:53.999Z</time></trkpt><trkpt lat="37.93242934399338" lon="15.01219562189867"><ele>742.0</ele><time>2026-05-02T13:57:54.999Z</time></trkpt><trkpt lat="37.93244924466361" lon="15.012059965421498"><ele>742.0</ele><time>2026-05-02T13:57:55.999Z</time></trkpt><trkpt lat="37.93247551307236" lon="15.011925211360309"><ele>742.0</ele><time>2026-05-02T13:57:56.999Z</time></trkpt><trkpt lat="37.93250190250962" lon="15.011795823028077"><ele>742.0</ele><time>2026-05-02T13:57:57.999Z</time></trkpt><trkpt lat="37.93254380758989" lon="15.011681097644317"><ele>742.0</ele><time>2026-05-02T13:57:58.999Z</time></trkpt><trkpt lat="37.93259097777597" lon="15.011567684018335"><ele>742.0</ele><time>2026-05-02T13:57:59.998Z</time></trkpt><trkpt lat="37.932622370892155" lon="15.011445851505675"><ele>748.0</ele><time>2026-05-02T13:58:00.998Z</time></trkpt><trkpt lat="37.93265385558082" lon="15.011325039601587"><ele>754.0</ele><time>2026-05-02T13:58:01.998Z</time></trkpt><trkpt lat="37.932691532719076" lon="15.011213356369836"><ele>760.0</ele><time>2026-05-02T13:58:02.998Z</time></trkpt><trkpt lat="37.93272597741932" lon="15.0111155193819"><ele>766.0</ele><time>2026-05-02T13:58:03.998Z</time></trkpt><trkpt lat="37.93274979632497" lon="15.011025606561091"><ele>771.9999999999999</ele><time>2026-05-02T13:58:04.998Z</time></trkpt><trkpt lat="37.932772213350034" lon="15.010944331189327"><ele>778.0</ele><time>2026-05-02T13:58:05.998Z</time></trkpt><trkpt lat="37.93279981845663" lon="15.01083588720088"><ele>778.0</ele><time>2026-05-02T13:58:07.998Z</time></trkpt><trkpt lat="37.93287698281091" lon="15.0108016545688"><ele>778.0</ele><time>2026-05-02T13:58:10.998Z</time></trkpt><trkpt lat="37.932848397471574" lon="15.01091922383351"><ele>778.0</ele><time>2026-05-02T13:58:12.998Z</time></trkpt><trkpt lat="37.93284332505119" lon="15.011003093372493"><ele>778.0</ele><time>2026-05-02T13:58:13.998Z</time></trkpt><trkpt lat="37.932844245496845" lon="15.011174977560385"><ele>778.0</ele><time>2026-05-02T13:58:15.998Z</time></trkpt><trkpt lat="37.93284177439939" lon="15.01132785769635"><ele>778.0</ele><time>2026-05-02T13:58:17.998Z</time></trkpt><trkpt lat="37.93289270977391" lon="15.011439986807558"><ele>778.0</ele><time>2026-05-02T13:58:19.998Z</time></trkpt><trkpt lat="37.933004505500556" lon="15.011365028332742"><ele>778.0</ele><time>2026-05-02T13:58:20.998Z</time></trkpt><trkpt lat="37.93303764481647" lon="15.011289818729162"><ele>778.0</ele><time>2026-05-02T13:58:21.998Z</time></trkpt><trkpt lat="37.9330459226565" lon="15.011187551159132"><ele>778.0</ele><time>2026-05-02T13:58:22.998Z</time></trkpt><trkpt lat="37.93303564159235" lon="15.01109622274237"><ele>778.0</ele><time>2026-05-02T13:58:23.998Z</time></trkpt><trkpt lat="37.93301870135196" lon="15.011010167565942"><ele>778.0</ele><time>2026-05-02T13:58:24.998Z</time></trkpt><trkpt lat="37.9330553056533" lon="15.01088359506717"><ele>778.0</ele><time>2026-05-02T13:58:26.998Z</time></trkpt><trkpt lat="37.93315777142199" lon="15.0109243057226"><ele>778.0</ele><time>2026-05-02T13:58:28.998Z</time></trkpt><trkpt lat="37.933154262967186" lon="15.011013067453908"><ele>778.0</ele><time>2026-05-02T13:58:29.998Z</time></trkpt><trkpt lat="37.93315393160814" lon="15.01119026417798"><ele>777.9999999999999</ele><time>2026-05-02T13:58:31.998Z</time></trkpt><trkpt lat="37.9331668250199" lon="15.011280321389588"><ele>778.0</ele><time>2026-05-02T13:58:32.998Z</time></trkpt><trkpt lat="37.93319596852107" lon="15.011372077085275"><ele>778.0</ele><time>2026-05-02T13:58:34.998Z</time></trkpt><trkpt lat="37.933221198845" lon="15.011461234074918"><ele>778.0</ele><time>2026-05-02T13:58:36.998Z</time></trkpt><trkpt lat="37.93321322443063" lon="15.011598767876354"><ele>777.9999999999999</ele><time>2026-05-02T13:58:38.998Z</time></trkpt><trkpt lat="37.9331887362974" lon="15.011709610426715"><ele>778.0</ele><time>2026-05-02T13:58:39.998Z</time></trkpt><trkpt lat="37.933167880493265" lon="15.011825744295379"><ele>780.4999999999999</ele><time>2026-05-02T13:58:40.998Z</time></trkpt><trkpt lat="37.933152422998894" lon="15.011948830051471"><ele>783.0</ele><time>2026-05-02T13:58:41.998Z</time></trkpt><trkpt lat="37.93314532862845" lon="15.012054436964288"><ele>785.5</ele><time>2026-05-02T13:58:43Z</time></trkpt><trkpt lat="37.93314619265239" lon="15.012149306780918"><ele>788.0</ele><time>2026-05-02T13:58:44Z</time></trkpt><trkpt lat="37.93315401941629" lon="15.012235073856278"><ele>790.4999999999999</ele><time>2026-05-02T13:58:45Z</time></trkpt><trkpt lat="37.933177162558" lon="15.012386303472827"><ele>793.0</ele><time>2026-05-02T13:58:47Z</time></trkpt><trkpt lat="37.93323184272451" lon="15.012432169376257"><ele>793.0</ele><time>2026-05-02T13:58:48Z</time></trkpt><trkpt lat="37.933324406146774" lon="15.012444414491409"><ele>793.0</ele><time>2026-05-02T13:58:50Z</time></trkpt><trkpt lat="37.933393024154746" lon="15.012497506713807"><ele>793.0</ele><time>2026-05-02T13:58:52Z</time></trkpt><trkpt lat="37.93333017629771" lon="15.012283737881774"><ele>793.0</ele><time>2026-05-02T13:58:53Z</time></trkpt><trkpt lat="37.93329740765825" lon="15.012209043382212"><ele>793.0</ele><time>2026-05-02T13:58:54Z</time></trkpt><trkpt lat="37.93328542484894" lon="15.012119043615462"><ele>792.9999999999999</ele><time>2026-05-02T13:58:55Z</time></trkpt><trkpt lat="37.933286857465774" lon="15.012019531930004"><ele>793.0</ele><time>2026-05-02T13:58:56Z</time></trkpt><trkpt lat="37.93330987061737" lon="15.011929531513449"><ele>793.0</ele><time>2026-05-02T13:58:57Z</time></trkpt><trkpt lat="37.93334818255136" lon="15.011841249565773"><ele>793.0</ele><time>2026-05-02T13:58:58Z</time></trkpt><trkpt lat="37.933398914439906" lon="15.011758372833024"><ele>792.9999999999999</ele><time>2026-05-02T13:58:59Z</time></trkpt><trkpt lat="37.933450359853275" lon="15.011681442351037"><ele>793.0</ele><time>2026-05-02T13:59:00Z</time></trkpt><trkpt lat="37.93350011177032" lon="15.011596646551268"><ele>796.3333333333333</ele><time>2026-05-02T13:59:01Z</time></trkpt><trkpt lat="37.93354980641995" lon="15.011511815391984"><ele>799.6666666666666</ele><time>2026-05-02T13:59:02Z</time></trkpt><trkpt lat="37.93360137477322" lon="15.011428344136094"><ele>803.0</ele><time>2026-05-02T13:59:03Z</time></trkpt><trkpt lat="37.93365300952667" lon="15.011355616496449"><ele>806.3333333333333</ele><time>2026-05-02T13:59:04Z</time></trkpt><trkpt lat="37.93370552537172" lon="15.011275502486045"><ele>809.6666666666666</ele><time>2026-05-02T13:59:05Z</time></trkpt><trkpt lat="37.933750218548326" lon="15.011200330718758"><ele>813.0</ele><time>2026-05-02T13:59:06Z</time></trkpt><trkpt lat="37.93377796975411" lon="15.011110637689043"><ele>813.0</ele><time>2026-05-02T13:59:07Z</time></trkpt><trkpt lat="37.933778010877774" lon="15.01100459241419"><ele>813.0</ele><time>2026-05-02T13:59:08Z</time></trkpt><trkpt lat="37.933821300797845" lon="15.010919419427678"><ele>813.0</ele><time>2026-05-02T13:59:09Z</time></trkpt><trkpt lat="37.93385366528657" lon="15.010822277344642"><ele>813.0</ele><time>2026-05-02T13:59:10Z</time></trkpt><trkpt lat="37.93387426161809" lon="15.010716088252627"><ele>813.0</ele><time>2026-05-02T13:59:11Z</time></trkpt><trkpt lat="37.933936556028165" lon="15.01064260631569"><ele>813.0</ele><time>2026-05-02T13:59:12Z</time></trkpt><trkpt lat="37.93401026437525" lon="15.01057697701296"><ele>813.0</ele><time>2026-05-02T13:59:13Z</time></trkpt><trkpt lat="37.934067187967734" lon="15.010516283956166"><ele>813.0</ele><time>2026-05-02T13:59:14Z</time></trkpt><trkpt lat="37.93414083657489" lon="15.010467154809652"><ele>813.0</ele><time>2026-05-02T13:59:15Z</time></trkpt><trkpt lat="37.934216827599855" lon="15.010421854118482"><ele>813.0</ele><time>2026-05-02T13:59:16Z</time></trkpt><trkpt lat="37.93428705731652" lon="15.010371831494947"><ele>813.0</ele><time>2026-05-02T13:59:17Z</time></trkpt><trkpt lat="37.93436280156238" lon="15.010320768202298"><ele>813.0</ele><time>2026-05-02T13:59:18Z</time></trkpt><trkpt lat="37.93443258465705" lon="15.010265619007283"><ele>813.0</ele><time>2026-05-02T13:59:19Z</time></trkpt><trkpt lat="37.9344905199138" lon="15.010202838729914"><ele>813.0</ele><time>2026-05-02T13:59:20Z</time></trkpt><trkpt lat="37.93455203416333" lon="15.010153069006519"><ele>813.0</ele><time>2026-05-02T13:59:21Z</time></trkpt><trkpt lat="37.934587362446415" lon="15.010071049488307"><ele>813.0</ele><time>2026-05-02T13:59:21.999Z</time></trkpt><trkpt lat="37.93463232722249" lon="15.009998917072956"><ele>813.0</ele><time>2026-05-02T13:59:22.999Z</time></trkpt><trkpt lat="37.934677400250735" lon="15.00993247981595"><ele>813.0</ele><time>2026-05-02T13:59:23.999Z</time></trkpt><trkpt lat="37.9347467999718" lon="15.009896829458203"><ele>813.0</ele><time>2026-05-02T13:59:24.999Z</time></trkpt><trkpt lat="37.93481954749369" lon="15.009829348177862"><ele>808.5</ele><time>2026-05-02T13:59:25.999Z</time></trkpt><trkpt lat="37.934907525918675" lon="15.009809907316818"><ele>804.0</ele><time>2026-05-02T13:59:26.999Z</time></trkpt><trkpt lat="37.93498919345813" lon="15.009807962068681"><ele>799.5</ele><time>2026-05-02T13:59:27.999Z</time></trkpt><trkpt lat="37.93506470772961" lon="15.009818047930215"><ele>795.0</ele><time>2026-05-02T13:59:28.999Z</time></trkpt><trkpt lat="37.93512900861703" lon="15.009845541112812"><ele>790.5</ele><time>2026-05-02T13:59:29.999Z</time></trkpt><trkpt lat="37.93522236273148" lon="15.009822990503991"><ele>786.0</ele><time>2026-05-02T13:59:31.999Z</time></trkpt><trkpt lat="37.93516226781028" lon="15.009645092651418"><ele>786.0</ele><time>2026-05-02T13:59:34.999Z</time></trkpt><trkpt lat="37.93508859169676" lon="15.009596339563261"><ele>786.0</ele><time>2026-05-02T13:59:35.999Z</time></trkpt><trkpt lat="37.93501275671863" lon="15.009578996846376"><ele>786.0</ele><time>2026-05-02T13:59:36.999Z</time></trkpt><trkpt lat="37.93495734977162" lon="15.009524148979388"><ele>786.0</ele><time>2026-05-02T13:59:37.999Z</time></trkpt><trkpt lat="37.93489841646596" lon="15.009488253035567"><ele>786.0</ele><time>2026-05-02T13:59:38.999Z</time></trkpt><trkpt lat="37.93488094557114" lon="15.009342701645831"><ele>786.0</ele><time>2026-05-02T13:59:40.999Z</time></trkpt><trkpt lat="37.934930658866875" lon="15.009276094995807"><ele>786.0</ele><time>2026-05-02T13:59:41.999Z</time></trkpt><trkpt lat="37.93500714664706" lon="15.00924625490405"><ele>786.0</ele><time>2026-05-02T13:59:42.999Z</time></trkpt><trkpt lat="37.935100048818626" lon="15.009252901055707"><ele>786.0</ele><time>2026-05-02T13:59:43.999Z</time></trkpt><trkpt lat="37.935202918387816" lon="15.009238285265646"><ele>786.0</ele><time>2026-05-02T13:59:44.999Z</time></trkpt><trkpt lat="37.93531583532053" lon="15.009220197355392"><ele>786.0</ele><time>2026-05-02T13:59:45.999Z</time></trkpt><trkpt lat="37.935432221737216" lon="15.009192794207163"><ele>781.0</ele><time>2026-05-02T13:59:46.999Z</time></trkpt><trkpt lat="37.935541030849045" lon="15.0091559190356"><ele>776.0</ele><time>2026-05-02T13:59:47.999Z</time></trkpt><trkpt lat="37.93563647708549" lon="15.009103316513418"><ele>771.0</ele><time>2026-05-02T13:59:48.999Z</time></trkpt><trkpt lat="37.93571695410464" lon="15.009055075668854"><ele>766.0</ele><time>2026-05-02T13:59:49.999Z</time></trkpt><trkpt lat="37.93578480655442" lon="15.009006334010678"><ele>761.0</ele><time>2026-05-02T13:59:50.999Z</time></trkpt><trkpt lat="37.935845897186695" lon="15.008879065837956"><ele>761.0</ele><time>2026-05-02T13:59:52.999Z</time></trkpt><trkpt lat="37.935769111869064" lon="15.008750881604687"><ele>761.0</ele><time>2026-05-02T13:59:54.999Z</time></trkpt><trkpt lat="37.93568647637507" lon="15.008743145156371"><ele>761.0</ele><time>2026-05-02T13:59:55.999Z</time></trkpt><trkpt lat="37.93558920574726" lon="15.008748760259989"><ele>761.0</ele><time>2026-05-02T13:59:56.999Z</time></trkpt><trkpt lat="37.935485357775526" lon="15.008744362609079"><ele>761.0</ele><time>2026-05-02T13:59:57.999Z</time></trkpt><trkpt lat="37.93537993033879" lon="15.008714722994192"><ele>761.0</ele><time>2026-05-02T13:59:58.999Z</time></trkpt><trkpt lat="37.93528302312227" lon="15.00872174219034"><ele>761.0</ele><time>2026-05-02T13:59:59.999Z</time></trkpt><trkpt lat="37.93519984549218" lon="15.00870285845415"><ele>761.0</ele><time>2026-05-02T14:00:00.999Z</time></trkpt><trkpt lat="37.93513031227945" lon="15.008690416604235"><ele>761.0</ele><time>2026-05-02T14:00:01.999Z</time></trkpt><trkpt lat="37.93506266585489" lon="15.008679025627167"><ele>761.0</ele><time>2026-05-02T14:00:02.999Z</time></trkpt><trkpt lat="37.93499789314569" lon="15.008656296832767"><ele>761.0</ele><time>2026-05-02T14:00:03.999Z</time></trkpt><trkpt lat="37.93491966974974" lon="15.008550855059779"><ele>761.0</ele><time>2026-05-02T14:00:05.999Z</time></trkpt><trkpt lat="37.93495419689739" lon="15.008401701478133"><ele>761.0</ele><time>2026-05-02T14:00:07.999Z</time></trkpt><trkpt lat="37.935007285025904" lon="15.00835784408526"><ele>761.0</ele><time>2026-05-02T14:00:08.998Z</time></trkpt><trkpt lat="37.93507930444501" lon="15.00833380618573"><ele>761.0</ele><time>2026-05-02T14:00:09.998Z</time></trkpt><trkpt lat="37.93516110128518" lon="15.00833338351469"><ele>761.0</ele><time>2026-05-02T14:00:10.998Z</time></trkpt><trkpt lat="37.93525021631142" lon="15.008336766718163"><ele>761.0</ele><time>2026-05-02T14:00:11.998Z</time></trkpt><trkpt lat="37.93535294662765" lon="15.008330482786425"><ele>757.0</ele><time>2026-05-02T14:00:12.998Z</time></trkpt><trkpt lat="37.93546068039139" lon="15.008306373250981"><ele>753.0</ele><time>2026-05-02T14:00:13.998Z</time></trkpt><trkpt lat="37.93557142240318" lon="15.008264836397244"><ele>749.0</ele><time>2026-05-02T14:00:14.998Z</time></trkpt><trkpt lat="37.93568863450984" lon="15.008218606672848"><ele>745.0</ele><time>2026-05-02T14:00:15.998Z</time></trkpt><trkpt lat="37.93581101155353" lon="15.008160342298897"><ele>745.25</ele><time>2026-05-02T14:00:16.998Z</time></trkpt><trkpt lat="37.935932757786475" lon="15.008095239979498"><ele>745.5</ele><time>2026-05-02T14:00:17.998Z</time></trkpt><trkpt lat="37.93605724710039" lon="15.008032691451039"><ele>745.75</ele><time>2026-05-02T14:00:18.998Z</time></trkpt><trkpt lat="37.936178094048245" lon="15.007967067532947"><ele>746.0</ele><time>2026-05-02T14:00:19.998Z</time></trkpt><trkpt lat="37.93629095152892" lon="15.007909196905514"><ele>746.0</ele><time>2026-05-02T14:00:20.998Z</time></trkpt><trkpt lat="37.93639703539269" lon="15.007851142827123"><ele>746.0</ele><time>2026-05-02T14:00:21.998Z</time></trkpt><trkpt lat="37.9364987637832" lon="15.007802226248321"><ele>746.0</ele><time>2026-05-02T14:00:22.998Z</time></trkpt><trkpt lat="37.93659514172657" lon="15.007762391406226"><ele>746.0</ele><time>2026-05-02T14:00:23.998Z</time></trkpt><trkpt lat="37.93669242611965" lon="15.00775202006497"><ele>746.0</ele><time>2026-05-02T14:00:24.998Z</time></trkpt><trkpt lat="37.93679075713191" lon="15.007782626262749"><ele>743.75</ele><time>2026-05-02T14:00:25.998Z</time></trkpt><trkpt lat="37.9368724744792" lon="15.007873553248704"><ele>741.5</ele><time>2026-05-02T14:00:26.998Z</time></trkpt><trkpt lat="37.93697262972025" lon="15.007942098193977"><ele>739.25</ele><time>2026-05-02T14:00:27.998Z</time></trkpt><trkpt lat="37.93706912450545" lon="15.008023223122642"><ele>737.0</ele><time>2026-05-02T14:00:28.998Z</time></trkpt><trkpt lat="37.93718505689875" lon="15.008024309313033"><ele>737.0</ele><time>2026-05-02T14:00:29.998Z</time></trkpt><trkpt lat="37.93729523491732" lon="15.008016947643322"><ele>737.0</ele><time>2026-05-02T14:00:30.998Z</time></trkpt><trkpt lat="37.937403740826014" lon="15.00799179457195"><ele>737.0</ele><time>2026-05-02T14:00:31.998Z</time></trkpt><trkpt lat="37.937507836776774" lon="15.007972648926241"><ele>737.0</ele><time>2026-05-02T14:00:32.998Z</time></trkpt><trkpt lat="37.93760624068077" lon="15.00800336127943"><ele>737.0</ele><time>2026-05-02T14:00:33.998Z</time></trkpt><trkpt lat="37.93770639990583" lon="15.008034628841932"><ele>737.8</ele><time>2026-05-02T14:00:34.998Z</time></trkpt><trkpt lat="37.9377699613508" lon="15.00814815982313"><ele>738.6</ele><time>2026-05-02T14:00:35.998Z</time></trkpt><trkpt lat="37.93784970608927" lon="15.008237115585665"><ele>739.4</ele><time>2026-05-02T14:00:36.998Z</time></trkpt><trkpt lat="37.937927488123904" lon="15.008326872090791"><ele>740.1999999999999</ele><time>2026-05-02T14:00:37.998Z</time></trkpt><trkpt lat="37.937997081237455" lon="15.008408288946827"><ele>741.0</ele><time>2026-05-02T14:00:38.998Z</time></trkpt><trkpt lat="37.9380732281699" lon="15.008464508686615"><ele>741.0</ele><time>2026-05-02T14:00:39.998Z</time></trkpt><trkpt lat="37.938142285870505" lon="15.008510335563303"><ele>741.0</ele><time>2026-05-02T14:00:40.998Z</time></trkpt><trkpt lat="37.93821951497429" lon="15.008522189572824"><ele>741.0</ele><time>2026-05-02T14:00:41.998Z</time></trkpt><trkpt lat="37.93829928205686" lon="15.008499181126297"><ele>741.0</ele><time>2026-05-02T14:00:42.998Z</time></trkpt><trkpt lat="37.93837940759481" lon="15.008446072916746"><ele>741.0</ele><time>2026-05-02T14:00:43.998Z</time></trkpt><trkpt lat="37.93844791231579" lon="15.008358316721003"><ele>741.0</ele><time>2026-05-02T14:00:44.998Z</time></trkpt><trkpt lat="37.93850259821526" lon="15.008245765696866"><ele>742.5</ele><time>2026-05-02T14:00:45.998Z</time></trkpt><trkpt lat="37.93854975243406" lon="15.008120066592124"><ele>744.0</ele><time>2026-05-02T14:00:46.998Z</time></trkpt><trkpt lat="37.93859985277524" lon="15.007989805724375"><ele>745.5</ele><time>2026-05-02T14:00:47.998Z</time></trkpt><trkpt lat="37.93866584282031" lon="15.007871640512947"><ele>747.0</ele><time>2026-05-02T14:00:49Z</time></trkpt><trkpt lat="37.93874826429934" lon="15.007769182922834"><ele>747.0</ele><time>2026-05-02T14:00:50Z</time></trkpt><trkpt lat="37.938845360909205" lon="15.00769032186846"><ele>747.0</ele><time>2026-05-02T14:00:51Z</time></trkpt><trkpt lat="37.93894249474005" lon="15.007610756178954"><ele>747.0</ele><time>2026-05-02T14:00:52Z</time></trkpt><trkpt lat="37.93904950345553" lon="15.007568620930227"><ele>747.0</ele><time>2026-05-02T14:00:53Z</time></trkpt><trkpt lat="37.93915887525762" lon="15.007524169090342"><ele>746.2</ele><time>2026-05-02T14:00:54Z</time></trkpt><trkpt lat="37.93925465599617" lon="15.007449787527456"><ele>745.4000000000001</ele><time>2026-05-02T14:00:55Z</time></trkpt><trkpt lat="37.93931914425675" lon="15.00734621431109"><ele>744.5999999999999</ele><time>2026-05-02T14:00:56Z</time></trkpt><trkpt lat="37.93938812609868" lon="15.007256144905737"><ele>743.8</ele><time>2026-05-02T14:00:57Z</time></trkpt><trkpt lat="37.93945426547338" lon="15.00715471281932"><ele>743.0</ele><time>2026-05-02T14:00:58Z</time></trkpt><trkpt lat="37.939527878041396" lon="15.007061676934185"><ele>743.0</ele><time>2026-05-02T14:00:59Z</time></trkpt><trkpt lat="37.93960895903211" lon="15.006986234550645"><ele>743.0</ele><time>2026-05-02T14:01:00Z</time></trkpt><trkpt lat="37.9397050350885" lon="15.006964461879399"><ele>743.0</ele><time>2026-05-02T14:01:01Z</time></trkpt><trkpt lat="37.939795446466356" lon="15.00693046375861"><ele>743.0</ele><time>2026-05-02T14:01:02Z</time></trkpt><trkpt lat="37.93988435603363" lon="15.006914718139852"><ele>743.0</ele><time>2026-05-02T14:01:03Z</time></trkpt><trkpt lat="37.9399638338226" lon="15.006866961191484"><ele>743.0</ele><time>2026-05-02T14:01:04Z</time></trkpt><trkpt lat="37.940027037645685" lon="15.006788627656594"><ele>743.0</ele><time>2026-05-02T14:01:05Z</time></trkpt><trkpt lat="37.940070960214115" lon="15.006687671901622"><ele>743.0</ele><time>2026-05-02T14:01:06Z</time></trkpt><trkpt lat="37.940095265390156" lon="15.006570794259874"><ele>743.0</ele><time>2026-05-02T14:01:07Z</time></trkpt><trkpt lat="37.94011901720517" lon="15.006461104329734"><ele>743.0</ele><time>2026-05-02T14:01:08Z</time></trkpt><trkpt lat="37.94016129450908" lon="15.006362324924686"><ele>741.5999999999999</ele><time>2026-05-02T14:01:09Z</time></trkpt><trkpt lat="37.94021948638413" lon="15.006283908101132"><ele>740.1999999999999</ele><time>2026-05-02T14:01:10Z</time></trkpt><trkpt lat="37.94030055021628" lon="15.006241873630824"><ele>738.8</ele><time>2026-05-02T14:01:11Z</time></trkpt><trkpt lat="37.940392718698284" lon="15.006276537981787"><ele>737.4</ele><time>2026-05-02T14:01:12Z</time></trkpt><trkpt lat="37.940485572737664" lon="15.006266010625698"><ele>736.0</ele><time>2026-05-02T14:01:13Z</time></trkpt><trkpt lat="37.940583531433305" lon="15.006277068645616"><ele>736.0</ele><time>2026-05-02T14:01:14Z</time></trkpt><trkpt lat="37.9406854596691" lon="15.006281240428608"><ele>736.0</ele><time>2026-05-02T14:01:15Z</time></trkpt><trkpt lat="37.9407893332072" lon="15.00627970673851"><ele>736.0</ele><time>2026-05-02T14:01:16Z</time></trkpt><trkpt lat="37.940893181750376" lon="15.006258000170934"><ele>736.0</ele><time>2026-05-02T14:01:17Z</time></trkpt><trkpt lat="37.94099576938035" lon="15.006206788792102"><ele>736.0</ele><time>2026-05-02T14:01:18Z</time></trkpt><trkpt lat="37.94109425338328" lon="15.00613820135009"><ele>740.0</ele><time>2026-05-02T14:01:19Z</time></trkpt><trkpt lat="37.941191610230426" lon="15.006062461220242"><ele>744.0</ele><time>2026-05-02T14:01:20Z</time></trkpt><trkpt lat="37.94129057885287" lon="15.005993363435712"><ele>748.0</ele><time>2026-05-02T14:01:21Z</time></trkpt><trkpt lat="37.9413885712463" lon="15.005925845554223"><ele>752.0</ele><time>2026-05-02T14:01:22Z</time></trkpt><trkpt lat="37.94148954728241" lon="15.00586210958989"><ele>748.6</ele><time>2026-05-02T14:01:23Z</time></trkpt><trkpt lat="37.94158899496783" lon="15.00579569578205"><ele>745.2</ele><time>2026-05-02T14:01:24Z</time></trkpt><trkpt lat="37.94169322555799" lon="15.005746437406636"><ele>741.8</ele><time>2026-05-02T14:01:25Z</time></trkpt><trkpt lat="37.9417977525" lon="15.005712485147225"><ele>738.4</ele><time>2026-05-02T14:01:26Z</time></trkpt><trkpt lat="37.94190425139273" lon="15.00570225803796"><ele>735.0</ele><time>2026-05-02T14:01:27Z</time></trkpt><trkpt lat="37.94201005324096" lon="15.005724791014085"><ele>734.0</ele><time>2026-05-02T14:01:28Z</time></trkpt><trkpt lat="37.942108443151376" lon="15.005769034863095"><ele>733.0</ele><time>2026-05-02T14:01:29Z</time></trkpt><trkpt lat="37.94220517190231" lon="15.005825096961157"><ele>732.0</ele><time>2026-05-02T14:01:29.999Z</time></trkpt><trkpt lat="37.94226878731434" lon="15.005924636057836"><ele>731.0</ele><time>2026-05-02T14:01:30.999Z</time></trkpt><trkpt lat="37.94231953538246" lon="15.00602984308522"><ele>730.0</ele><time>2026-05-02T14:01:31.999Z</time></trkpt><trkpt lat="37.942338409120985" lon="15.006147775704136"><ele>733.5</ele><time>2026-05-02T14:01:32.999Z</time></trkpt><trkpt lat="37.94236143368353" lon="15.006268456962399"><ele>737.0</ele><time>2026-05-02T14:01:33.999Z</time></trkpt><trkpt lat="37.94238306718607" lon="15.006389149561361"><ele>740.5</ele><time>2026-05-02T14:01:34.999Z</time></trkpt><trkpt lat="37.942406968502915" lon="15.006505420652653"><ele>744.0</ele><time>2026-05-02T14:01:35.999Z</time></trkpt><trkpt lat="37.94244594513754" lon="15.006591322496062"><ele>747.5</ele><time>2026-05-02T14:01:36.999Z</time></trkpt><trkpt lat="37.942484073098214" lon="15.006678712548663"><ele>751.0</ele><time>2026-05-02T14:01:37.999Z</time></trkpt><trkpt lat="37.942547291434096" lon="15.006751769844751"><ele>756.0</ele><time>2026-05-02T14:01:38.999Z</time></trkpt><trkpt lat="37.94262587629113" lon="15.006807607095439"><ele>761.0</ele><time>2026-05-02T14:01:39.999Z</time></trkpt><trkpt lat="37.942717643101034" lon="15.006839739779013"><ele>766.0</ele><time>2026-05-02T14:01:40.999Z</time></trkpt><trkpt lat="37.942813029752976" lon="15.006831697638743"><ele>771.0</ele><time>2026-05-02T14:01:41.999Z</time></trkpt><trkpt lat="37.94289790400611" lon="15.006780370396271"><ele>776.0</ele><time>2026-05-02T14:01:42.999Z</time></trkpt><trkpt lat="37.942973151689294" lon="15.006697888401401"><ele>770.4</ele><time>2026-05-02T14:01:43.999Z</time></trkpt><trkpt lat="37.94304300952082" lon="15.006597054485551"><ele>764.8</ele><time>2026-05-02T14:01:44.999Z</time></trkpt><trkpt lat="37.94311415531326" lon="15.006512117239277"><ele>759.1999999999999</ele><time>2026-05-02T14:01:45.999Z</time></trkpt><trkpt lat="37.94319017392429" lon="15.006463192799345"><ele>753.5999999999999</ele><time>2026-05-02T14:01:46.999Z</time></trkpt><trkpt lat="37.94327708339693" lon="15.006437579171864"><ele>748.0</ele><time>2026-05-02T14:01:47.999Z</time></trkpt><trkpt lat="37.94336712447967" lon="15.006421337255084"><ele>747.8</ele><time>2026-05-02T14:01:48.999Z</time></trkpt><trkpt lat="37.94345939594766" lon="15.0063969165595"><ele>747.5999999999999</ele><time>2026-05-02T14:01:49.999Z</time></trkpt><trkpt lat="37.943561190787605" lon="15.00637384839598"><ele>747.4000000000001</ele><time>2026-05-02T14:01:50.999Z</time></trkpt><trkpt lat="37.9436691243475" lon="15.006354852181575"><ele>747.2</ele><time>2026-05-02T14:01:51.999Z</time></trkpt><trkpt lat="37.94378234670755" lon="15.006344106003025"><ele>747.0</ele><time>2026-05-02T14:01:52.999Z</time></trkpt><trkpt lat="37.943897842232914" lon="15.006332189644025"><ele>747.0</ele><time>2026-05-02T14:01:53.999Z</time></trkpt><trkpt lat="37.94401659038796" lon="15.006301569405132"><ele>747.0</ele><time>2026-05-02T14:01:54.999Z</time></trkpt><trkpt lat="37.944133141807235" lon="15.0062498629007"><ele>747.0</ele><time>2026-05-02T14:01:55.999Z</time></trkpt><trkpt lat="37.94425056579672" lon="15.00619447908013"><ele>747.0</ele><time>2026-05-02T14:01:56.999Z</time></trkpt><trkpt lat="37.944370032866736" lon="15.006145427384732"><ele>750.4000000000001</ele><time>2026-05-02T14:01:57.999Z</time></trkpt><trkpt lat="37.94448186860843" lon="15.006099730335603"><ele>753.8000000000001</ele><time>2026-05-02T14:01:58.999Z</time></trkpt><trkpt lat="37.94458989258909" lon="15.006067593817304"><ele>757.2</ele><time>2026-05-02T14:01:59.999Z</time></trkpt><trkpt lat="37.944693686805124" lon="15.006048458839288"><ele>760.6</ele><time>2026-05-02T14:02:00.999Z</time></trkpt><trkpt lat="37.944795034218075" lon="15.005993314611064"><ele>764.0</ele><time>2026-05-02T14:02:01.999Z</time></trkpt><trkpt lat="37.94489238786369" lon="15.005919074304227"><ele>764.0</ele><time>2026-05-02T14:02:02.999Z</time></trkpt><trkpt lat="37.94498813861534" lon="15.00583347489727"><ele>764.0</ele><time>2026-05-02T14:02:03.999Z</time></trkpt><trkpt lat="37.94508140813608" lon="15.005745286336868"><ele>764.0</ele><time>2026-05-02T14:02:04.999Z</time></trkpt><trkpt lat="37.945162567877894" lon="15.00565968070421"><ele>764.0</ele><time>2026-05-02T14:02:05.999Z</time></trkpt><trkpt lat="37.94524081835478" lon="15.005567374456717"><ele>764.0</ele><time>2026-05-02T14:02:06.999Z</time></trkpt><trkpt lat="37.94531028217928" lon="15.005464465293192"><ele>760.2</ele><time>2026-05-02T14:02:07.999Z</time></trkpt><trkpt lat="37.94537780125434" lon="15.005367912131668"><ele>756.4000000000001</ele><time>2026-05-02T14:02:08.999Z</time></trkpt><trkpt lat="37.945441299587706" lon="15.005277958842681"><ele>752.6</ele><time>2026-05-02T14:02:09.999Z</time></trkpt><trkpt lat="37.94551616885622" lon="15.005221017464796"><ele>748.8</ele><time>2026-05-02T14:02:10.999Z</time></trkpt><trkpt lat="37.94560416474134" lon="15.005201471223868"><ele>745.0</ele><time>2026-05-02T14:02:11.999Z</time></trkpt><trkpt lat="37.945701569565195" lon="15.005221598726585"><ele>745.0</ele><time>2026-05-02T14:02:12.999Z</time></trkpt><trkpt lat="37.94579706054274" lon="15.00526097854034"><ele>745.0</ele><time>2026-05-02T14:02:13.999Z</time></trkpt><trkpt lat="37.94590195446775" lon="15.005264608117919"><ele>745.0</ele><time>2026-05-02T14:02:14.999Z</time></trkpt><trkpt lat="37.945998899501966" lon="15.00523339363363"><ele>745.0</ele><time>2026-05-02T14:02:15.999Z</time></trkpt><trkpt lat="37.94607784538315" lon="15.005180568666114"><ele>745.0</ele><time>2026-05-02T14:02:16.998Z</time></trkpt><trkpt lat="37.946147158367765" lon="15.00512973469518"><ele>744.3333333333334</ele><time>2026-05-02T14:02:17.998Z</time></trkpt><trkpt lat="37.946223342793445" lon="15.00510544304733"><ele>743.6666666666667</ele><time>2026-05-02T14:02:18.998Z</time></trkpt><trkpt lat="37.946305165604024" lon="15.005113913464614"><ele>743.0</ele><time>2026-05-02T14:02:19.998Z</time></trkpt><trkpt lat="37.94636363330614" lon="15.005191497454877"><ele>742.3333333333334</ele><time>2026-05-02T14:02:20.998Z</time></trkpt><trkpt lat="37.94640194352604" lon="15.005273909897902"><ele>741.6666666666666</ele><time>2026-05-02T14:02:21.998Z</time></trkpt><trkpt lat="37.946433823730665" lon="15.005370972855035"><ele>741.0</ele><time>2026-05-02T14:02:22.998Z</time></trkpt><trkpt lat="37.94644199426206" lon="15.005478122724142"><ele>741.0</ele><time>2026-05-02T14:02:23.998Z</time></trkpt><trkpt lat="37.946430926619016" lon="15.005590449174813"><ele>741.0</ele><time>2026-05-02T14:02:24.998Z</time></trkpt><trkpt lat="37.946427401965146" lon="15.005717815884056"><ele>741.0</ele><time>2026-05-02T14:02:25.998Z</time></trkpt><trkpt lat="37.946450477542314" lon="15.005857409471338"><ele>741.0</ele><time>2026-05-02T14:02:26.998Z</time></trkpt><trkpt lat="37.94650131279986" lon="15.00599367201281"><ele>741.0</ele><time>2026-05-02T14:02:27.998Z</time></trkpt><trkpt lat="37.94654184079492" lon="15.006129109127874"><ele>742.8</ele><time>2026-05-02T14:02:28.998Z</time></trkpt><trkpt lat="37.94658526608835" lon="15.006258443610252"><ele>744.5999999999999</ele><time>2026-05-02T14:02:29.998Z</time></trkpt><trkpt lat="37.946634893329424" lon="15.00636842511733"><ele>746.4</ele><time>2026-05-02T14:02:30.998Z</time></trkpt><trkpt lat="37.94672591182038" lon="15.006442657706852"><ele>748.2</ele><time>2026-05-02T14:02:31.998Z</time></trkpt><trkpt lat="37.94681084287313" lon="15.006524253430118"><ele>750.0</ele><time>2026-05-02T14:02:32.998Z</time></trkpt><trkpt lat="37.94690390121036" lon="15.006604266235234"><ele>750.25</ele><time>2026-05-02T14:02:33.998Z</time></trkpt><trkpt lat="37.94701083971868" lon="15.006676380228646"><ele>750.5</ele><time>2026-05-02T14:02:34.998Z</time></trkpt><trkpt lat="37.947119454478575" lon="15.006733529323263"><ele>750.75</ele><time>2026-05-02T14:02:35.998Z</time></trkpt><trkpt lat="37.94722431409646" lon="15.006787675812275"><ele>751.0</ele><time>2026-05-02T14:02:36.998Z</time></trkpt><trkpt lat="37.94730858806755" lon="15.006860032848884"><ele>751.0</ele><time>2026-05-02T14:02:37.998Z</time></trkpt><trkpt lat="37.94738267143623" lon="15.006925003826604"><ele>751.0</ele><time>2026-05-02T14:02:38.998Z</time></trkpt><trkpt lat="37.947418347189554" lon="15.007027526047606"><ele>751.0</ele><time>2026-05-02T14:02:39.998Z</time></trkpt><trkpt lat="37.94745544161455" lon="15.007142810438449"><ele>751.0</ele><time>2026-05-02T14:02:40.998Z</time></trkpt><trkpt lat="37.94749715607964" lon="15.007265086384441"><ele>751.0</ele><time>2026-05-02T14:02:41.998Z</time></trkpt><trkpt lat="37.947548999340455" lon="15.007378106826375"><ele>753.0</ele><time>2026-05-02T14:02:42.998Z</time></trkpt><trkpt lat="37.94761576444683" lon="15.007457105773605"><ele>755.0</ele><time>2026-05-02T14:02:43.998Z</time></trkpt><trkpt lat="37.94767319044382" lon="15.007535447025917"><ele>757.0</ele><time>2026-05-02T14:02:44.998Z</time></trkpt><trkpt lat="37.94772920842873" lon="15.007604195599793"><ele>759.0</ele><time>2026-05-02T14:02:45.998Z</time></trkpt><trkpt lat="37.94778881447536" lon="15.00766141844908"><ele>761.0</ele><time>2026-05-02T14:02:46.998Z</time></trkpt><trkpt lat="37.94785224251777" lon="15.007709597170914"><ele>763.0</ele><time>2026-05-02T14:02:47.998Z</time></trkpt><trkpt lat="37.947919170383926" lon="15.007744332289862"><ele>763.0</ele><time>2026-05-02T14:02:48.998Z</time></trkpt><trkpt lat="37.94798290394509" lon="15.007778494038119"><ele>763.0</ele><time>2026-05-02T14:02:49.998Z</time></trkpt><trkpt lat="37.9480450241034" lon="15.007824598356084"><ele>763.0</ele><time>2026-05-02T14:02:50.998Z</time></trkpt><trkpt lat="37.94810394830888" lon="15.0078707344749"><ele>763.0</ele><time>2026-05-02T14:02:51.998Z</time></trkpt><trkpt lat="37.94814821527869" lon="15.007942881626851"><ele>763.0</ele><time>2026-05-02T14:02:52.998Z</time></trkpt><trkpt lat="37.94816641069095" lon="15.008026215786064"><ele>763.0</ele><time>2026-05-02T14:02:53.998Z</time></trkpt><trkpt lat="37.94813148974454" lon="15.00810880917136"><ele>763.0</ele><time>2026-05-02T14:02:55Z</time></trkpt><trkpt lat="37.948114718692985" lon="15.008199832736665"><ele>763.0</ele><time>2026-05-02T14:02:56Z</time></trkpt><trkpt lat="37.94809631891657" lon="15.008297076673344"><ele>763.0</ele><time>2026-05-02T14:02:57Z</time></trkpt><trkpt lat="37.94807914602419" lon="15.008394871734154"><ele>763.0</ele><time>2026-05-02T14:02:58Z</time></trkpt><trkpt lat="37.948062756088206" lon="15.008505460830607"><ele>763.0</ele><time>2026-05-02T14:02:59Z</time></trkpt><trkpt lat="37.94805141159619" lon="15.008633461621075"><ele>763.0</ele><time>2026-05-02T14:03:00Z</time></trkpt><trkpt lat="37.94805204315808" lon="15.008774777991759"><ele>763.75</ele><time>2026-05-02T14:03:01Z</time></trkpt><trkpt lat="37.94806776071369" lon="15.00891569817954"><ele>764.5</ele><time>2026-05-02T14:03:02Z</time></trkpt><trkpt lat="37.94809877766552" lon="15.00905160698333"><ele>765.25</ele><time>2026-05-02T14:03:03Z</time></trkpt><trkpt lat="37.94814274034997" lon="15.009191126767325"><ele>766.0</ele><time>2026-05-02T14:03:04Z</time></trkpt><trkpt lat="37.948194457070734" lon="15.009324740508468"><ele>766.0</ele><time>2026-05-02T14:03:05Z</time></trkpt><trkpt lat="37.948242944376254" lon="15.009455879599168"><ele>766.0</ele><time>2026-05-02T14:03:06Z</time></trkpt><trkpt lat="37.94829537291006" lon="15.009593239391345"><ele>766.0</ele><time>2026-05-02T14:03:07Z</time></trkpt><trkpt lat="37.948345811818236" lon="15.009721530456401"><ele>766.0</ele><time>2026-05-02T14:03:08Z</time></trkpt><trkpt lat="37.948400794551475" lon="15.009829711519947"><ele>766.0</ele><time>2026-05-02T14:03:09Z</time></trkpt><trkpt lat="37.948475563760034" lon="15.009925285774083"><ele>768.5999999999999</ele><time>2026-05-02T14:03:10Z</time></trkpt><trkpt lat="37.94856225556036" lon="15.009994092713267"><ele>771.2</ele><time>2026-05-02T14:03:11Z</time></trkpt><trkpt lat="37.94866077899109" lon="15.010057892589161"><ele>773.8</ele><time>2026-05-02T14:03:12Z</time></trkpt><trkpt lat="37.94876311145115" lon="15.01012434158097"><ele>776.4000000000001</ele><time>2026-05-02T14:03:13Z</time></trkpt><trkpt lat="37.948866845422764" lon="15.010196996766652"><ele>779.0</ele><time>2026-05-02T14:03:14Z</time></trkpt><trkpt lat="37.948971308295505" lon="15.010264391777907"><ele>779.0</ele><time>2026-05-02T14:03:15Z</time></trkpt><trkpt lat="37.94909108978706" lon="15.010320685350132"><ele>779.0</ele><time>2026-05-02T14:03:16Z</time></trkpt><trkpt lat="37.94921496571186" lon="15.010372852035415"><ele>779.0</ele><time>2026-05-02T14:03:17Z</time></trkpt><trkpt lat="37.94934291543824" lon="15.010422835336023"><ele>779.0</ele><time>2026-05-02T14:03:18Z</time></trkpt><trkpt lat="37.94947217862142" lon="15.01047402937667"><ele>784.5</ele><time>2026-05-02T14:03:19Z</time></trkpt><trkpt lat="37.94959745864679" lon="15.010523057866845"><ele>790.0</ele><time>2026-05-02T14:03:20Z</time></trkpt><trkpt lat="37.94972330766769" lon="15.010562860141585"><ele>795.5</ele><time>2026-05-02T14:03:21Z</time></trkpt><trkpt lat="37.949841367361415" lon="15.010604698848969"><ele>801.0</ele><time>2026-05-02T14:03:22Z</time></trkpt><trkpt lat="37.94995098896931" lon="15.010654054160884"><ele>802.0</ele><time>2026-05-02T14:03:23Z</time></trkpt><trkpt lat="37.9500504972054" lon="15.010717296530384"><ele>803.0</ele><time>2026-05-02T14:03:24Z</time></trkpt><trkpt lat="37.950140189325765" lon="15.01079857638952"><ele>804.0</ele><time>2026-05-02T14:03:25Z</time></trkpt><trkpt lat="37.950223191705106" lon="15.01088449249536"><ele>805.0</ele><time>2026-05-02T14:03:26Z</time></trkpt><trkpt lat="37.950299925632784" lon="15.010975724564142"><ele>806.0</ele><time>2026-05-02T14:03:27Z</time></trkpt><trkpt lat="37.95036689174426" lon="15.011056872087602"><ele>803.1428571428572</ele><time>2026-05-02T14:03:28Z</time></trkpt><trkpt lat="37.950424876005854" lon="15.011120416251028"><ele>800.2857142857142</ele><time>2026-05-02T14:03:29Z</time></trkpt><trkpt lat="37.950490698241836" lon="15.011155633767412"><ele>797.4285714285714</ele><time>2026-05-02T14:03:30Z</time></trkpt><trkpt lat="37.95056661772777" lon="15.011156195492235"><ele>794.5714285714287</ele><time>2026-05-02T14:03:31Z</time></trkpt><trkpt lat="37.950625600449996" lon="15.011113004002837"><ele>791.7142857142858</ele><time>2026-05-02T14:03:32Z</time></trkpt><trkpt lat="37.95066748365138" lon="15.01103187743101"><ele>788.8571428571429</ele><time>2026-05-02T14:03:33Z</time></trkpt><trkpt lat="37.950667604349846" lon="15.010938535161964"><ele>786.0</ele><time>2026-05-02T14:03:34Z</time></trkpt><trkpt lat="37.9506233083976" lon="15.010842874002687"><ele>790.0</ele><time>2026-05-02T14:03:35Z</time></trkpt><trkpt lat="37.95055957680349" lon="15.010763011519288"><ele>794.0</ele><time>2026-05-02T14:03:36Z</time></trkpt><trkpt lat="37.9504799988898" lon="15.010691098549145"><ele>798.0</ele><time>2026-05-02T14:03:37Z</time></trkpt><trkpt lat="37.95040217868782" lon="15.010610313969927"><ele>802.0</ele><time>2026-05-02T14:03:37.999Z</time></trkpt><trkpt lat="37.950332078850955" lon="15.010525968505515"><ele>806.0</ele><time>2026-05-02T14:03:38.999Z</time></trkpt><trkpt lat="37.950271779606425" lon="15.010456749527268"><ele>806.0000000000001</ele><time>2026-05-02T14:03:39.999Z</time></trkpt><trkpt lat="37.950224413187485" lon="15.010403825464694"><ele>806.0</ele><time>2026-05-02T14:03:40.999Z</time></trkpt><trkpt lat="37.9501663334732" lon="15.010337334303506"><ele>806.0</ele><time>2026-05-02T14:03:42.999Z</time></trkpt><trkpt lat="37.9501343532822" lon="15.010252078441983"><ele>806.0</ele><time>2026-05-02T14:03:46.999Z</time></trkpt><trkpt lat="37.95001127778057" lon="15.010217513075844"><ele>806.0000000000001</ele><time>2026-05-02T14:03:48.999Z</time></trkpt><trkpt lat="37.949908718010576" lon="15.01020794327221"><ele>806.0</ele><time>2026-05-02T14:03:50.999Z</time></trkpt><trkpt lat="37.949810394933955" lon="15.010197431766782"><ele>805.0</ele><time>2026-05-02T14:03:52.999Z</time></trkpt><trkpt lat="37.94970339506075" lon="15.010174327814573"><ele>804.0</ele><time>2026-05-02T14:03:54.999Z</time></trkpt><trkpt lat="37.94959630436226" lon="15.010127515138505"><ele>803.0</ele><time>2026-05-02T14:03:56.999Z</time></trkpt><trkpt lat="37.94948741672065" lon="15.010060288107887"><ele>802.0</ele><time>2026-05-02T14:03:58.999Z</time></trkpt><trkpt lat="37.949433253313686" lon="15.010003190593782"><ele>801.0</ele><time>2026-05-02T14:03:59.999Z</time></trkpt><trkpt lat="37.94939482085308" lon="15.009928298694613"><ele>801.6666666666666</ele><time>2026-05-02T14:04:00.999Z</time></trkpt><trkpt lat="37.94935743046712" lon="15.009857401936948"><ele>802.3333333333333</ele><time>2026-05-02T14:04:01.999Z</time></trkpt><trkpt lat="37.94931941101492" lon="15.009778281920816"><ele>803.0</ele><time>2026-05-02T14:04:02.999Z</time></trkpt><trkpt lat="37.9492763760919" lon="15.009705676244478"><ele>803.6666666666666</ele><time>2026-05-02T14:04:03.999Z</time></trkpt><trkpt lat="37.949274677782476" lon="15.009618315857379"><ele>804.3333333333333</ele><time>2026-05-02T14:04:04.999Z</time></trkpt><trkpt lat="37.94922705812852" lon="15.00950629688363"><ele>805.0</ele><time>2026-05-02T14:04:06.999Z</time></trkpt><trkpt lat="37.94917946317294" lon="15.009408387952409"><ele>805.0</ele><time>2026-05-02T14:04:08.999Z</time></trkpt><trkpt lat="37.9491047833478" lon="15.009361941484027"><ele>805.0</ele><time>2026-05-02T14:04:10.999Z</time></trkpt><trkpt lat="37.94902387838924" lon="15.009294631105648"><ele>805.0</ele><time>2026-05-02T14:04:12.999Z</time></trkpt><trkpt lat="37.94898639063" lon="15.009144088666016"><ele>805.0</ele><time>2026-05-02T14:04:14.999Z</time></trkpt><trkpt lat="37.94899769339335" lon="15.009062518560958"><ele>805.0</ele><time>2026-05-02T14:04:15.999Z</time></trkpt><trkpt lat="37.949016195731005" lon="15.008956160990264"><ele>807.4</ele><time>2026-05-02T14:04:17.999Z</time></trkpt><trkpt lat="37.949036639170586" lon="15.00887006332145"><ele>809.8</ele><time>2026-05-02T14:04:19.999Z</time></trkpt><trkpt lat="37.94901351863691" lon="15.008745259303204"><ele>812.2</ele><time>2026-05-02T14:04:21.999Z</time></trkpt><trkpt lat="37.94892914086844" lon="15.008665824398504"><ele>814.6</ele><time>2026-05-02T14:04:23.998Z</time></trkpt><trkpt lat="37.94885264597181" lon="15.008611063249154"><ele>817.0</ele><time>2026-05-02T14:04:25.998Z</time></trkpt><trkpt lat="37.94878755224761" lon="15.00853823863999"><ele>817.0</ele><time>2026-05-02T14:04:27.998Z</time></trkpt><trkpt lat="37.94880085574618" lon="15.008405808673672"><ele>817.0</ele><time>2026-05-02T14:04:29.998Z</time></trkpt><trkpt lat="37.94890513888521" lon="15.00837617213012"><ele>817.0</ele><time>2026-05-02T14:04:31.998Z</time></trkpt><trkpt lat="37.94898173662871" lon="15.008501038774149"><ele>817.0</ele><time>2026-05-02T14:04:33.998Z</time></trkpt><trkpt lat="37.94909399135741" lon="15.008571459353815"><ele>817.0</ele><time>2026-05-02T14:04:35.998Z</time></trkpt><trkpt lat="37.949159149249766" lon="15.008614898127599"><ele>817.0</ele><time>2026-05-02T14:04:36.998Z</time></trkpt><trkpt lat="37.9492101125912" lon="15.008664998498395"><ele>817.0</ele><time>2026-05-02T14:04:37.998Z</time></trkpt><trkpt lat="37.949242385519625" lon="15.008796107872655"><ele>817.0</ele><time>2026-05-02T14:04:39.998Z</time></trkpt><trkpt lat="37.949246908644085" lon="15.00894309031298"><ele>817.0</ele><time>2026-05-02T14:04:41.998Z</time></trkpt><trkpt lat="37.949309997224695" lon="15.009072001299844"><ele>819.9999999999999</ele><time>2026-05-02T14:04:43.998Z</time></trkpt><trkpt lat="37.949351416546406" lon="15.009135372577195"><ele>823.0</ele><time>2026-05-02T14:04:44.998Z</time></trkpt><trkpt lat="37.949411170324154" lon="15.009175128772965"><ele>826.0</ele><time>2026-05-02T14:04:45.998Z</time></trkpt><trkpt lat="37.949466570382604" lon="15.009222690422785"><ele>829.0</ele><time>2026-05-02T14:04:46.998Z</time></trkpt><trkpt lat="37.949527481990046" lon="15.009327807378103"><ele>831.9999999999999</ele><time>2026-05-02T14:04:48.998Z</time></trkpt><trkpt lat="37.949579421926884" lon="15.009387701721696"><ele>835.0</ele><time>2026-05-02T14:04:50.998Z</time></trkpt><trkpt lat="37.94964114017038" lon="15.009488819767018"><ele>834.9999999999999</ele><time>2026-05-02T14:04:52.998Z</time></trkpt><trkpt lat="37.94972578810885" lon="15.009583574640816"><ele>835.0</ele><time>2026-05-02T14:04:54.998Z</time></trkpt><trkpt lat="37.94979372572263" lon="15.009606431431381"><ele>835.0</ele><time>2026-05-02T14:04:55.998Z</time></trkpt><trkpt lat="37.94985970354029" lon="15.009610774532524"><ele>835.0</ele><time>2026-05-02T14:04:56.998Z</time></trkpt><trkpt lat="37.94992952761514" lon="15.009557463696899"><ele>834.9999999999999</ele><time>2026-05-02T14:04:57.998Z</time></trkpt><trkpt lat="37.94999314074574" lon="15.009512534542864"><ele>835.0</ele><time>2026-05-02T14:04:58.998Z</time></trkpt><trkpt lat="37.950057599231506" lon="15.009497699414329"><ele>835.8</ele><time>2026-05-02T14:04:59.998Z</time></trkpt><trkpt lat="37.95014830680087" lon="15.009450959194735"><ele>836.6</ele><time>2026-05-02T14:05:02Z</time></trkpt><trkpt lat="37.950241567846504" lon="15.00940647062816"><ele>837.4000000000001</ele><time>2026-05-02T14:05:04Z</time></trkpt><trkpt lat="37.95034685195196" lon="15.009382893464458"><ele>838.2</ele><time>2026-05-02T14:05:06Z</time></trkpt><trkpt lat="37.9504320404391" lon="15.009426303792786"><ele>839.0</ele><time>2026-05-02T14:05:08Z</time></trkpt><trkpt lat="37.9504954992733" lon="15.00951586363786"><ele>839.0000000000001</ele><time>2026-05-02T14:05:10Z</time></trkpt><trkpt lat="37.95057210341566" lon="15.009555139745267"><ele>839.0</ele><time>2026-05-02T14:05:12Z</time></trkpt><trkpt lat="37.95062715463369" lon="15.009597161163516"><ele>839.0</ele><time>2026-05-02T14:05:13Z</time></trkpt><trkpt lat="37.95074353052801" lon="15.00964536691237"><ele>839.0</ele><time>2026-05-02T14:05:15Z</time></trkpt><trkpt lat="37.950811669610246" lon="15.009608214442876"><ele>839.0000000000001</ele><time>2026-05-02T14:05:16Z</time></trkpt><trkpt lat="37.95086119058053" lon="15.009537990247335"><ele>839.0</ele><time>2026-05-02T14:05:17Z</time></trkpt><trkpt lat="37.95090657909446" lon="15.009469990196342"><ele>838.0000000000001</ele><time>2026-05-02T14:05:18Z</time></trkpt><trkpt lat="37.95094945545058" lon="15.009400341639674"><ele>837.0</ele><time>2026-05-02T14:05:19Z</time></trkpt><trkpt lat="37.95097503749012" lon="15.00930921191458"><ele>836.0</ele><time>2026-05-02T14:05:20Z</time></trkpt><trkpt lat="37.95102442145978" lon="15.009238263304287"><ele>835.0</ele><time>2026-05-02T14:05:21Z</time></trkpt><trkpt lat="37.95108478256724" lon="15.00912877467746"><ele>834.0000000000001</ele><time>2026-05-02T14:05:23Z</time></trkpt><trkpt lat="37.951155950622734" lon="15.009036987692138"><ele>833.0</ele><time>2026-05-02T14:05:26Z</time></trkpt><trkpt lat="37.95118331299642" lon="15.008960135588953"><ele>837.0</ele><time>2026-05-02T14:05:27Z</time></trkpt><trkpt lat="37.95123259512755" lon="15.008827592152981"><ele>841.0</ele><time>2026-05-02T14:05:29Z</time></trkpt><trkpt lat="37.951290803193345" lon="15.008697465496121"><ele>845.0</ele><time>2026-05-02T14:05:31Z</time></trkpt><trkpt lat="37.951346675701856" lon="15.00857976111286"><ele>849.0</ele><time>2026-05-02T14:05:33Z</time></trkpt><trkpt lat="37.95138562351608" lon="15.008491314714236"><ele>853.0</ele><time>2026-05-02T14:05:35Z</time></trkpt><trkpt lat="37.95145625323179" lon="15.008421357057278"><ele>852.9999999999999</ele><time>2026-05-02T14:05:37Z</time></trkpt><trkpt lat="37.95151795102232" lon="15.008402868220125"><ele>853.0</ele><time>2026-05-02T14:05:38Z</time></trkpt><trkpt lat="37.95161569361783" lon="15.008297601700834"><ele>853.0</ele><time>2026-05-02T14:05:39.999Z</time></trkpt><trkpt lat="37.95165966115308" lon="15.008239238486983"><ele>853.0</ele><time>2026-05-02T14:05:40.999Z</time></trkpt><trkpt lat="37.9517230224836" lon="15.00821362313447"><ele>852.9999999999999</ele><time>2026-05-02T14:05:41.999Z</time></trkpt><trkpt lat="37.95181681532923" lon="15.008190901795084"><ele>853.0</ele><time>2026-05-02T14:05:43.999Z</time></trkpt><trkpt lat="37.951887258787394" lon="15.008244377852037"><ele>857.5999999999999</ele><time>2026-05-02T14:05:46.999Z</time></trkpt><trkpt lat="37.95192015194031" lon="15.008347507844285"><ele>862.1999999999999</ele><time>2026-05-02T14:05:49.999Z</time></trkpt><trkpt lat="37.9519283647827" lon="15.008457732507189"><ele>866.8</ele><time>2026-05-02T14:05:56.999Z</time></trkpt><trkpt lat="37.95194307249835" lon="15.008574529950732"><ele>871.4</ele><time>2026-05-02T14:05:58.999Z</time></trkpt><trkpt lat="37.95199599406025" lon="15.008679486314987"><ele>876.0</ele><time>2026-05-02T14:06:00.999Z</time></trkpt><trkpt lat="37.95204937322376" lon="15.008790873365157"><ele>876.0</ele><time>2026-05-02T14:06:02.999Z</time></trkpt><trkpt lat="37.95210424616482" lon="15.008906272980925"><ele>876.0</ele><time>2026-05-02T14:06:04.999Z</time></trkpt><trkpt lat="37.95212228050092" lon="15.00898493566341"><ele>876.0</ele><time>2026-05-02T14:06:05.999Z</time></trkpt><trkpt lat="37.95214369030571" lon="15.009076993826664"><ele>876.0</ele><time>2026-05-02T14:06:06.999Z</time></trkpt><trkpt lat="37.95215973464782" lon="15.00917377717662"><ele>876.0</ele><time>2026-05-02T14:06:07.999Z</time></trkpt><trkpt lat="37.95217490643841" lon="15.009268788934023"><ele>876.0</ele><time>2026-05-02T14:06:08.999Z</time></trkpt><trkpt lat="37.952196149557246" lon="15.009367272400697"><ele>874.7142857142858</ele><time>2026-05-02T14:06:09.999Z</time></trkpt><trkpt lat="37.95221857069556" lon="15.009462525521744"><ele>873.4285714285713</ele><time>2026-05-02T14:06:10.999Z</time></trkpt><trkpt lat="37.95222887528972" lon="15.009560128001349"><ele>872.1428571428571</ele><time>2026-05-02T14:06:11.999Z</time></trkpt><trkpt lat="37.95224337746198" lon="15.00965121838506"><ele>870.8571428571429</ele><time>2026-05-02T14:06:12.999Z</time></trkpt><trkpt lat="37.952266622990706" lon="15.009732935605607"><ele>869.5714285714287</ele><time>2026-05-02T14:06:13.999Z</time></trkpt><trkpt lat="37.95227268263167" lon="15.009818908477978"><ele>868.2857142857142</ele><time>2026-05-02T14:06:14.999Z</time></trkpt><trkpt lat="37.952281106548526" lon="15.009904458226941"><ele>867.0</ele><time>2026-05-02T14:06:15.999Z</time></trkpt><trkpt lat="37.952290860613864" lon="15.00999729511175"><ele>864.8333333333334</ele><time>2026-05-02T14:06:16.999Z</time></trkpt><trkpt lat="37.95227211407246" lon="15.010080044275298"><ele>862.6666666666667</ele><time>2026-05-02T14:06:17.999Z</time></trkpt><trkpt lat="37.952273121841024" lon="15.01018027439232"><ele>860.5</ele><time>2026-05-02T14:06:18.999Z</time></trkpt><trkpt lat="37.95227390194925" lon="15.010286431426842"><ele>858.3333333333334</ele><time>2026-05-02T14:06:19.999Z</time></trkpt><trkpt lat="37.95226576234991" lon="15.010380596747293"><ele>856.1666666666667</ele><time>2026-05-02T14:06:20.999Z</time></trkpt><trkpt lat="37.952265224493594" lon="15.010471596700452"><ele>854.0</ele><time>2026-05-02T14:06:21.999Z</time></trkpt><trkpt lat="37.952255112810434" lon="15.010569803897514"><ele>854.0</ele><time>2026-05-02T14:06:22.999Z</time></trkpt><trkpt lat="37.952286332295685" lon="15.010645833598756"><ele>854.0</ele><time>2026-05-02T14:06:23.998Z</time></trkpt><trkpt lat="37.95234426126732" lon="15.010688404056197"><ele>854.0</ele><time>2026-05-02T14:06:24.998Z</time></trkpt><trkpt lat="37.95241128702003" lon="15.0106854067271"><ele>854.0</ele><time>2026-05-02T14:06:25.998Z</time></trkpt><trkpt lat="37.95247363503136" lon="15.010624330469438"><ele>854.0</ele><time>2026-05-02T14:06:26.998Z</time></trkpt><trkpt lat="37.95249028292659" lon="15.010534116752423"><ele>854.0</ele><time>2026-05-02T14:06:27.998Z</time></trkpt><trkpt lat="37.95247846118806" lon="15.010449386716864"><ele>854.0</ele><time>2026-05-02T14:06:28.998Z</time></trkpt><trkpt lat="37.95245965804307" lon="15.010309414466516"><ele>854.0</ele><time>2026-05-02T14:06:30.998Z</time></trkpt><trkpt lat="37.952456910758066" lon="15.010145534609869"><ele>854.0000000000001</ele><time>2026-05-02T14:06:32.998Z</time></trkpt><trkpt lat="37.95247646993062" lon="15.01001190136608"><ele>854.0000000000001</ele><time>2026-05-02T14:06:34.998Z</time></trkpt><trkpt lat="37.95245093919562" lon="15.009858725044127"><ele>854.0</ele><time>2026-05-02T14:06:36.998Z</time></trkpt><trkpt lat="37.95245277190374" lon="15.009766726743939"><ele>854.0</ele><time>2026-05-02T14:06:37.998Z</time></trkpt><trkpt lat="37.952454959625335" lon="15.00964360011363"><ele>856.6</ele><time>2026-05-02T14:06:39.998Z</time></trkpt><trkpt lat="37.952458769241154" lon="15.009519290306901"><ele>859.2</ele><time>2026-05-02T14:06:41.998Z</time></trkpt><trkpt lat="37.952472849348155" lon="15.009387524552238"><ele>861.8000000000001</ele><time>2026-05-02T14:06:43.998Z</time></trkpt><trkpt lat="37.952469624548804" lon="15.009259505120745"><ele>864.4000000000001</ele><time>2026-05-02T14:06:45.998Z</time></trkpt><trkpt lat="37.952471992707444" lon="15.009172850406157"><ele>867.0</ele><time>2026-05-02T14:06:46.998Z</time></trkpt><trkpt lat="37.95247416024416" lon="15.009024780176638"><ele>868.8</ele><time>2026-05-02T14:06:48.998Z</time></trkpt><trkpt lat="37.95246502007578" lon="15.008875347769923"><ele>870.6</ele><time>2026-05-02T14:06:50.998Z</time></trkpt><trkpt lat="37.95244932109262" lon="15.008797619199711"><ele>872.3999999999999</ele><time>2026-05-02T14:06:51.998Z</time></trkpt><trkpt lat="37.952398476083" lon="15.008651180586849"><ele>874.1999999999999</ele><time>2026-05-02T14:06:53.998Z</time></trkpt><trkpt lat="37.95237530049629" lon="15.008494850846775"><ele>876.0</ele><time>2026-05-02T14:06:55.998Z</time></trkpt><trkpt lat="37.95236883003889" lon="15.008357295826949"><ele>879.4</ele><time>2026-05-02T14:06:57.998Z</time></trkpt><trkpt lat="37.95239472425531" lon="15.008258737096922"><ele>882.8</ele><time>2026-05-02T14:06:59.998Z</time></trkpt><trkpt lat="37.95237806704127" lon="15.00811605276015"><ele>886.1999999999999</ele><time>2026-05-02T14:07:01.998Z</time></trkpt><trkpt lat="37.9523929601498" lon="15.007966685689059"><ele>889.5999999999999</ele><time>2026-05-02T14:07:03.998Z</time></trkpt><trkpt lat="37.95239413138487" lon="15.007883234881477"><ele>893.0</ele><time>2026-05-02T14:07:04.998Z</time></trkpt><trkpt lat="37.9523961143067" lon="15.007741951803204"><ele>893.0</ele><time>2026-05-02T14:07:07Z</time></trkpt><trkpt lat="37.95239002124165" lon="15.007611188639714"><ele>893.0</ele><time>2026-05-02T14:07:09Z</time></trkpt><trkpt lat="37.95239162901639" lon="15.007475943850897"><ele>893.0</ele><time>2026-05-02T14:07:11Z</time></trkpt><trkpt lat="37.952396271963124" lon="15.007355118494772"><ele>893.0</ele><time>2026-05-02T14:07:13Z</time></trkpt><trkpt lat="37.952405416837664" lon="15.007240047124057"><ele>893.0</ele><time>2026-05-02T14:07:15Z</time></trkpt><trkpt lat="37.95236163921636" lon="15.00716518194953"><ele>898.4</ele><time>2026-05-02T14:07:17Z</time></trkpt><trkpt lat="37.95230995968552" lon="15.007101196541592"><ele>903.8</ele><time>2026-05-02T14:07:38Z</time></trkpt><trkpt lat="37.952213849064265" lon="15.007076161118285"><ele>909.2</ele><time>2026-05-02T14:07:40Z</time></trkpt><trkpt lat="37.9520988015515" lon="15.007113086293167"><ele>914.6</ele><time>2026-05-02T14:07:42Z</time></trkpt><trkpt lat="37.95199307919355" lon="15.00716074344752"><ele>920.0</ele><time>2026-05-02T14:07:44Z</time></trkpt><trkpt lat="37.95189736247466" lon="15.007232450339075"><ele>920.0</ele><time>2026-05-02T14:07:47.999Z</time></trkpt><trkpt lat="37.95179324956777" lon="15.007297945273233"><ele>920.0</ele><time>2026-05-02T14:07:49.999Z</time></trkpt><trkpt lat="37.951685250315066" lon="15.007376480012647"><ele>920.0</ele><time>2026-05-02T14:07:51.999Z</time></trkpt><trkpt lat="37.95161617892233" lon="15.007384607244033"><ele>920.0</ele><time>2026-05-02T14:07:52.999Z</time></trkpt><trkpt lat="37.9515584174258" lon="15.007421731899884"><ele>920.0</ele><time>2026-05-02T14:07:53.999Z</time></trkpt><trkpt lat="37.95149004764177" lon="15.00747773292801"><ele>912.8</ele><time>2026-05-02T14:07:54.999Z</time></trkpt><trkpt lat="37.95140214859021" lon="15.007540044242948"><ele>905.6</ele><time>2026-05-02T14:07:55.999Z</time></trkpt><trkpt lat="37.95131128692394" lon="15.007596671323311"><ele>898.4000000000001</ele><time>2026-05-02T14:07:56.999Z</time></trkpt><trkpt lat="37.95123886646782" lon="15.007662246637528"><ele>891.2</ele><time>2026-05-02T14:07:57.999Z</time></trkpt><trkpt lat="37.951169415720095" lon="15.007727407891856"><ele>884.0</ele><time>2026-05-02T14:07:58.999Z</time></trkpt><trkpt lat="37.95110092476963" lon="15.007772132047759"><ele>884.0</ele><time>2026-05-02T14:07:59.999Z</time></trkpt><trkpt lat="37.95103871451334" lon="15.007819246007422"><ele>884.0000000000001</ele><time>2026-05-02T14:08:00.999Z</time></trkpt><trkpt lat="37.95098527496902" lon="15.007862503828564"><ele>884.0000000000001</ele><time>2026-05-02T14:08:01.999Z</time></trkpt><trkpt lat="37.95089393103456" lon="15.007965262850808"><ele>884.0</ele><time>2026-05-02T14:08:03.999Z</time></trkpt><trkpt lat="37.95081318921259" lon="15.008069909628365"><ele>884.0</ele><time>2026-05-02T14:08:05.999Z</time></trkpt><trkpt lat="37.95071227714961" lon="15.008047842747136"><ele>884.0</ele><time>2026-05-02T14:08:07.999Z</time></trkpt><trkpt lat="37.95071957828733" lon="15.007904368553834"><ele>884.0000000000001</ele><time>2026-05-02T14:08:09.999Z</time></trkpt><trkpt lat="37.950840359447504" lon="15.007836689986258"><ele>884.0000000000001</ele><time>2026-05-02T14:08:11.999Z</time></trkpt><trkpt lat="37.95089963363803" lon="15.007805262043215"><ele>884.0</ele><time>2026-05-02T14:08:12.999Z</time></trkpt><trkpt lat="37.95096060466983" lon="15.007767365445954"><ele>884.0</ele><time>2026-05-02T14:08:13.999Z</time></trkpt><trkpt lat="37.951019808136415" lon="15.007713510949186"><ele>884.0000000000001</ele><time>2026-05-02T14:08:14.999Z</time></trkpt><trkpt lat="37.9510753369662" lon="15.007667517116571"><ele>884.0</ele><time>2026-05-02T14:08:15.999Z</time></trkpt><trkpt lat="37.95113618409931" lon="15.00760569398487"><ele>884.0</ele><time>2026-05-02T14:08:16.999Z</time></trkpt><trkpt lat="37.95120115392594" lon="15.007564717011322"><ele>884.0</ele><time>2026-05-02T14:08:17.999Z</time></trkpt><trkpt lat="37.951258517382854" lon="15.00749537850855"><ele>884.0000000000001</ele><time>2026-05-02T14:08:18.999Z</time></trkpt><trkpt lat="37.95131104571443" lon="15.007415372799299"><ele>884.0</ele><time>2026-05-02T14:08:19.999Z</time></trkpt><trkpt lat="37.95136349252849" lon="15.007347484603065"><ele>886.6666666666667</ele><time>2026-05-02T14:08:20.999Z</time></trkpt><trkpt lat="37.951441734519086" lon="15.007267171849087"><ele>889.3333333333334</ele><time>2026-05-02T14:08:22.999Z</time></trkpt><trkpt lat="37.9514805914971" lon="15.007169615179459"><ele>892.0</ele><time>2026-05-02T14:08:24.999Z</time></trkpt><trkpt lat="37.951511242211424" lon="15.007055976932536"><ele>894.6666666666667</ele><time>2026-05-02T14:08:26.999Z</time></trkpt><trkpt lat="37.951526267824526" lon="15.006954441511185"><ele>897.3333333333334</ele><time>2026-05-02T14:08:28.999Z</time></trkpt><trkpt lat="37.951555158082215" lon="15.006858098147417"><ele>900.0</ele><time>2026-05-02T14:08:30.998Z</time></trkpt><trkpt lat="37.95157360522723" lon="15.00674897494465"><ele>902.1666666666666</ele><time>2026-05-02T14:08:32.998Z</time></trkpt><trkpt lat="37.9515740545453" lon="15.006647510623"><ele>904.3333333333333</ele><time>2026-05-02T14:08:34.998Z</time></trkpt><trkpt lat="37.95155860815659" lon="15.006524322041184"><ele>906.5</ele><time>2026-05-02T14:08:36.998Z</time></trkpt><trkpt lat="37.95151055647888" lon="15.006417371641142"><ele>908.6666666666666</ele><time>2026-05-02T14:08:38.998Z</time></trkpt><trkpt lat="37.95148232566235" lon="15.006336113755479"><ele>910.8333333333333</ele><time>2026-05-02T14:08:40.998Z</time></trkpt><trkpt lat="37.951451920991836" lon="15.006250475926029"><ele>913.0</ele><time>2026-05-02T14:08:42.998Z</time></trkpt><trkpt lat="37.951398747706065" lon="15.006145931650812"><ele>912.9999999999999</ele><time>2026-05-02T14:08:44.998Z</time></trkpt><trkpt lat="37.9513109470932" lon="15.00607889693405"><ele>913.0</ele><time>2026-05-02T14:08:46.998Z</time></trkpt><trkpt lat="37.95122990318314" lon="15.00601917994366"><ele>913.0</ele><time>2026-05-02T14:08:53.998Z</time></trkpt><trkpt lat="37.951163983780106" lon="15.005981384310285"><ele>913.0</ele><time>2026-05-02T14:08:56.998Z</time></trkpt><trkpt lat="37.951100792151074" lon="15.005954477614598"><ele>912.9999999999999</ele><time>2026-05-02T14:08:58.998Z</time></trkpt><trkpt lat="37.951024320558716" lon="15.005929514638591"><ele>913.0</ele><time>2026-05-02T14:09:01.998Z</time></trkpt><trkpt lat="37.95095039733646" lon="15.005828182522304"><ele>910.5999999999999</ele><time>2026-05-02T14:09:03.998Z</time></trkpt><trkpt lat="37.95089664011387" lon="15.005715603311119"><ele>908.1999999999999</ele><time>2026-05-02T14:09:05.998Z</time></trkpt><trkpt lat="37.950844190412106" lon="15.005625960045332"><ele>905.8</ele><time>2026-05-02T14:09:07.998Z</time></trkpt><trkpt lat="37.950781702935075" lon="15.0055212340968"><ele>903.4</ele><time>2026-05-02T14:09:09.998Z</time></trkpt><trkpt lat="37.95071656682604" lon="15.005436668949967"><ele>901.0</ele><time>2026-05-02T14:09:11.998Z</time></trkpt><trkpt lat="37.95060536052444" lon="15.005389522124796"><ele>901.0</ele><time>2026-05-02T14:09:14Z</time></trkpt><trkpt lat="37.95051423105356" lon="15.005333044087504"><ele>900.9999999999999</ele><time>2026-05-02T14:09:16Z</time></trkpt><trkpt lat="37.950431967913154" lon="15.005263615176412"><ele>900.9999999999999</ele><time>2026-05-02T14:09:18Z</time></trkpt><trkpt lat="37.95042700775531" lon="15.005119772577554"><ele>901.0</ele><time>2026-05-02T14:09:20Z</time></trkpt><trkpt lat="37.9504901305695" lon="15.005061247823122"><ele>901.0</ele><time>2026-05-02T14:09:21Z</time></trkpt><trkpt lat="37.95055803841407" lon="15.005047830735624"><ele>901.0</ele><time>2026-05-02T14:09:22Z</time></trkpt><trkpt lat="37.9506140167531" lon="15.005086893101447"><ele>900.9999999999999</ele><time>2026-05-02T14:09:23Z</time></trkpt><trkpt lat="37.95069242082896" lon="15.005188419926311"><ele>900.9999999999999</ele><time>2026-05-02T14:09:25Z</time></trkpt><trkpt lat="37.95078495987974" lon="15.00527194883014"><ele>901.0</ele><time>2026-05-02T14:09:27Z</time></trkpt><trkpt lat="37.950859734930454" lon="15.005341714827148"><ele>901.0</ele><time>2026-05-02T14:09:29Z</time></trkpt><trkpt lat="37.95093311996285" lon="15.005402628426179"><ele>901.0</ele><time>2026-05-02T14:09:31Z</time></trkpt><trkpt lat="37.951001604399245" lon="15.005436816735116"><ele>901.0000000000001</ele><time>2026-05-02T14:09:33Z</time></trkpt><trkpt lat="37.951053444840944" lon="15.005486765497027"><ele>901.0</ele><time>2026-05-02T14:09:35Z</time></trkpt><trkpt lat="37.95111445725643" lon="15.005520634595282"><ele>901.0</ele><time>2026-05-02T14:09:37Z</time></trkpt><trkpt lat="37.9511750209138" lon="15.005559080792914"><ele>901.0000000000001</ele><time>2026-05-02T14:09:39Z</time></trkpt><trkpt lat="37.95122488547735" lon="15.005621851116336"><ele>901.0</ele><time>2026-05-02T14:09:41Z</time></trkpt><trkpt lat="37.95130879630569" lon="15.005677168301567"><ele>901.0</ele><time>2026-05-02T14:09:43Z</time></trkpt><trkpt lat="37.95140416337004" lon="15.005700812931549"><ele>901.0</ele><time>2026-05-02T14:09:45Z</time></trkpt><trkpt lat="37.95146848024297" lon="15.00574821352418"><ele>900.9999999999999</ele><time>2026-05-02T14:09:47Z</time></trkpt><trkpt lat="37.951554695054504" lon="15.005800228629749"><ele>900.9999999999999</ele><time>2026-05-02T14:09:49Z</time></trkpt><trkpt lat="37.951651083027315" lon="15.005860909238772"><ele>901.0</ele><time>2026-05-02T14:09:50.999Z</time></trkpt><trkpt lat="37.95173440355137" lon="15.005901807145152"><ele>901.0</ele><time>2026-05-02T14:09:52.999Z</time></trkpt><trkpt lat="37.95182324029725" lon="15.005958825863686"><ele>906.1666666666666</ele><time>2026-05-02T14:09:54.999Z</time></trkpt><trkpt lat="37.951899156894505" lon="15.006015798460332"><ele>911.3333333333333</ele><time>2026-05-02T14:09:56.999Z</time></trkpt><trkpt lat="37.95196495865111" lon="15.006074913167229"><ele>916.5</ele><time>2026-05-02T14:09:58.999Z</time></trkpt><trkpt lat="37.952087329779054" lon="15.006110436606647"><ele>921.6666666666667</ele><time>2026-05-02T14:10:00.999Z</time></trkpt><trkpt lat="37.952151695485455" lon="15.006140540648152"><ele>926.8333333333334</ele><time>2026-05-02T14:10:01.999Z</time></trkpt><trkpt lat="37.95221605572781" lon="15.006143810260403"><ele>932.0</ele><time>2026-05-02T14:10:02.999Z</time></trkpt><trkpt lat="37.95232927520761" lon="15.006140768834385"><ele>932.0000000000001</ele><time>2026-05-02T14:10:04.999Z</time></trkpt><trkpt lat="37.95239977135558" lon="15.006147152173094"><ele>932.0</ele><time>2026-05-02T14:10:06.999Z</time></trkpt><trkpt lat="37.95249216302603" lon="15.006134364558699"><ele>932.0</ele><time>2026-05-02T14:10:08.999Z</time></trkpt><trkpt lat="37.952576997412" lon="15.006153631016938"><ele>932.0</ele><time>2026-05-02T14:10:10.999Z</time></trkpt><trkpt lat="37.95265979024003" lon="15.006158110459166"><ele>932.0000000000001</ele><time>2026-05-02T14:10:12.999Z</time></trkpt><trkpt lat="37.9527313944863" lon="15.006178965595524"><ele>932.0</ele><time>2026-05-02T14:10:14.999Z</time></trkpt><trkpt lat="37.95280052588761" lon="15.00621361839834"><ele>937.6666666666667</ele><time>2026-05-02T14:10:16.999Z</time></trkpt><trkpt lat="37.952868437209645" lon="15.006267380063129"><ele>943.3333333333334</ele><time>2026-05-02T14:10:23.999Z</time></trkpt><trkpt lat="37.95294877828199" lon="15.006329994034568"><ele>949.0</ele><time>2026-05-02T14:10:25.999Z</time></trkpt><trkpt lat="37.953024147285916" lon="15.00642075922218"><ele>954.6666666666667</ele><time>2026-05-02T14:10:27.999Z</time></trkpt><trkpt lat="37.953054313404124" lon="15.006493499754976"><ele>960.3333333333334</ele><time>2026-05-02T14:10:28.999Z</time></trkpt><trkpt lat="37.95309868652601" lon="15.006563537515753"><ele>966.0</ele><time>2026-05-02T14:10:29.999Z</time></trkpt><trkpt lat="37.953142503188076" lon="15.006637378598835"><ele>962.0</ele><time>2026-05-02T14:10:30.999Z</time></trkpt><trkpt lat="37.9531856816705" lon="15.006704617903898"><ele>957.9999999999999</ele><time>2026-05-02T14:10:31.999Z</time></trkpt><trkpt lat="37.95327668688968" lon="15.006804034444903"><ele>953.9999999999999</ele><time>2026-05-02T14:10:33.999Z</time></trkpt><trkpt lat="37.953380899006" lon="15.006869321040567"><ele>950.0</ele><time>2026-05-02T14:10:35.998Z</time></trkpt><trkpt lat="37.953452484278515" lon="15.006827878163996"><ele>946.0</ele><time>2026-05-02T14:10:36.998Z</time></trkpt><trkpt lat="37.95354856399867" lon="15.00673906607645"><ele>947.1999999999999</ele><time>2026-05-02T14:10:38.998Z</time></trkpt><trkpt lat="37.95363274520639" lon="15.00661104710693"><ele>948.3999999999999</ele><time>2026-05-02T14:10:40.998Z</time></trkpt><trkpt lat="37.95365737055146" lon="15.006537269686865"><ele>949.6</ele><time>2026-05-02T14:10:41.998Z</time></trkpt><trkpt lat="37.95368495723669" lon="15.006452046336685"><ele>950.8</ele><time>2026-05-02T14:10:42.998Z</time></trkpt><trkpt lat="37.953711339837994" lon="15.006375706780513"><ele>952.0</ele><time>2026-05-02T14:10:43.998Z</time></trkpt><trkpt lat="37.95377233687509" lon="15.006231780434"><ele>951.9999999999999</ele><time>2026-05-02T14:10:45.998Z</time></trkpt><trkpt lat="37.95381360583397" lon="15.006099393595509"><ele>952.0</ele><time>2026-05-02T14:10:47.998Z</time></trkpt><trkpt lat="37.95387237787599" lon="15.00597469840715"><ele>952.0</ele><time>2026-05-02T14:10:49.998Z</time></trkpt><trkpt lat="37.953906508969226" lon="15.005883358575186"><ele>952.0</ele><time>2026-05-02T14:10:50.998Z</time></trkpt><trkpt lat="37.95393486600509" lon="15.005798567088108"><ele>951.9999999999999</ele><time>2026-05-02T14:10:51.998Z</time></trkpt><trkpt lat="37.953954241483636" lon="15.005717373257912"><ele>952.0</ele><time>2026-05-02T14:10:52.998Z</time></trkpt><trkpt lat="37.95396477971469" lon="15.005626893144845"><ele>956.8</ele><time>2026-05-02T14:10:53.998Z</time></trkpt><trkpt lat="37.953996437384745" lon="15.005530120984977"><ele>961.6</ele><time>2026-05-02T14:10:55.998Z</time></trkpt><trkpt lat="37.95399651253055" lon="15.005414917738909"><ele>966.3999999999999</ele><time>2026-05-02T14:10:58.998Z</time></trkpt><trkpt lat="37.954030970546185" lon="15.005286457463685"><ele>971.1999999999999</ele><time>2026-05-02T14:11:00.998Z</time></trkpt><trkpt lat="37.954087098332394" lon="15.005147771950924"><ele>976.0</ele><time>2026-05-02T14:11:11.998Z</time></trkpt><trkpt lat="37.9541349408767" lon="15.005071716676879"><ele>975.9999999999999</ele><time>2026-05-02T14:11:14.998Z</time></trkpt><trkpt lat="37.954184784828854" lon="15.005009969401474"><ele>976.0</ele><time>2026-05-02T14:11:16.998Z</time></trkpt><trkpt lat="37.9542534565581" lon="15.004893129954175"><ele>976.0</ele><time>2026-05-02T14:11:20Z</time></trkpt><trkpt lat="37.95429626537648" lon="15.00479599336929"><ele>976.0</ele><time>2026-05-02T14:11:22Z</time></trkpt><trkpt lat="37.95433499329929" lon="15.004709518493708"><ele>975.9999999999999</ele><time>2026-05-02T14:11:24Z</time></trkpt><trkpt lat="37.95435689837026" lon="15.004598696120024"><ele>976.0</ele><time>2026-05-02T14:11:26Z</time></trkpt><trkpt lat="37.95436757396456" lon="15.004498559963865"><ele>978.8</ele><time>2026-05-02T14:11:28Z</time></trkpt><trkpt lat="37.954369835578774" lon="15.004395682931326"><ele>981.5999999999999</ele><time>2026-05-02T14:11:31Z</time></trkpt><trkpt lat="37.95437175992294" lon="15.00430743153587"><ele>984.4</ele><time>2026-05-02T14:11:33Z</time></trkpt><trkpt lat="37.95436445552724" lon="15.004168871900212"><ele>987.2</ele><time>2026-05-02T14:11:35Z</time></trkpt><trkpt lat="37.95437915909639" lon="15.004027768510825"><ele>990.0</ele><time>2026-05-02T14:11:37Z</time></trkpt><trkpt lat="37.954425981171156" lon="15.003934933419355"><ele>990.0</ele><time>2026-05-02T14:11:39Z</time></trkpt><trkpt lat="37.95450233864859" lon="15.003816697431445"><ele>990.0</ele><time>2026-05-02T14:11:41Z</time></trkpt><trkpt lat="37.954612895243955" lon="15.003736347943528"><ele>990.0</ele><time>2026-05-02T14:11:43Z</time></trkpt><trkpt lat="37.95466852848169" lon="15.003674391490746"><ele>990.0</ele><time>2026-05-02T14:11:44Z</time></trkpt><trkpt lat="37.954714194250364" lon="15.003611254444374"><ele>990.0</ele><time>2026-05-02T14:11:45Z</time></trkpt><trkpt lat="37.954762879517936" lon="15.003554023435994"><ele>990.0</ele><time>2026-05-02T14:11:46Z</time></trkpt><trkpt lat="37.954843009019555" lon="15.003440682755228"><ele>990.0</ele><time>2026-05-02T14:11:48Z</time></trkpt><trkpt lat="37.95494314726296" lon="15.003399573825588"><ele>990.0</ele><time>2026-05-02T14:11:50Z</time></trkpt><trkpt lat="37.95503507561824" lon="15.003420595171315"><ele>990.0</ele><time>2026-05-02T14:11:52Z</time></trkpt><trkpt lat="37.95511939275197" lon="15.0034440441331"><ele>990.0</ele><time>2026-05-02T14:11:54Z</time></trkpt><trkpt lat="37.955233744241" lon="15.00343174046927"><ele>987.2</ele><time>2026-05-02T14:11:55.999Z</time></trkpt><trkpt lat="37.95532199796146" lon="15.003388060817729"><ele>984.4</ele><time>2026-05-02T14:11:57.999Z</time></trkpt><trkpt lat="37.955402013639045" lon="15.003321160885204"><ele>981.5999999999999</ele><time>2026-05-02T14:11:59.999Z</time></trkpt><trkpt lat="37.9554763789633" lon="15.00325438348274"><ele>978.8</ele><time>2026-05-02T14:12:01.999Z</time></trkpt><trkpt lat="37.95553872751499" lon="15.003173759365259"><ele>976.0</ele><time>2026-05-02T14:12:03.999Z</time></trkpt><trkpt lat="37.955609687656576" lon="15.003111273653717"><ele>982.5999999999999</ele><time>2026-05-02T14:12:05.999Z</time></trkpt><trkpt lat="37.95568539551495" lon="15.003109626793456"><ele>989.1999999999999</ele><time>2026-05-02T14:12:07.999Z</time></trkpt><trkpt lat="37.95577578357158" lon="15.00307415621899"><ele>995.8000000000001</ele><time>2026-05-02T14:12:10.999Z</time></trkpt><trkpt lat="37.95585746700354" lon="15.003030057514566"><ele>1002.4000000000001</ele><time>2026-05-02T14:12:12.999Z</time></trkpt><trkpt lat="37.95594447341025" lon="15.002982134309388"><ele>1009.0</ele><time>2026-05-02T14:12:14.999Z</time></trkpt><trkpt lat="37.95601052646173" lon="15.00288700753106"><ele>1009.0</ele><time>2026-05-02T14:12:16.999Z</time></trkpt><trkpt lat="37.956086585354136" lon="15.002808812013726"><ele>1009.0000000000001</ele><time>2026-05-02T14:12:18.999Z</time></trkpt><trkpt lat="37.956187141116914" lon="15.002749958405575"><ele>1009.0000000000001</ele><time>2026-05-02T14:12:20.999Z</time></trkpt><trkpt lat="37.956271083578415" lon="15.00269678882101"><ele>1009.0</ele><time>2026-05-02T14:12:22.999Z</time></trkpt><trkpt lat="37.95633522016567" lon="15.00266873236523"><ele>1009.0</ele><time>2026-05-02T14:12:25.999Z</time></trkpt><trkpt lat="37.95643599056402" lon="15.002640586630369"><ele>1008.9999999999999</ele><time>2026-05-02T14:12:27.999Z</time></trkpt><trkpt lat="37.95648936703017" lon="15.002687694495377"><ele>1009.0</ele><time>2026-05-02T14:12:28.999Z</time></trkpt><trkpt lat="37.956547038641375" lon="15.00276363764615"><ele>1009.0</ele><time>2026-05-02T14:12:30.999Z</time></trkpt><trkpt lat="37.95661475843605" lon="15.002829028027005"><ele>1009.0</ele><time>2026-05-02T14:12:32.999Z</time></trkpt><trkpt lat="37.95669778461255" lon="15.002893821264298"><ele>1008.9999999999999</ele><time>2026-05-02T14:12:34.999Z</time></trkpt><trkpt lat="37.95676460966359" lon="15.002972121529616"><ele>1009.0</ele><time>2026-05-02T14:12:36.999Z</time></trkpt><trkpt lat="37.95681746449488" lon="15.003052402909661"><ele>1006.6</ele><time>2026-05-02T14:12:38.999Z</time></trkpt><trkpt lat="37.95688072411525" lon="15.003148386259662"><ele>1004.2</ele><time>2026-05-02T14:12:40.998Z</time></trkpt><trkpt lat="37.956937274124854" lon="15.003214052102464"><ele>1001.8000000000001</ele><time>2026-05-02T14:12:42.998Z</time></trkpt><trkpt lat="37.95702503369915" lon="15.003283740335693"><ele>999.4000000000001</ele><time>2026-05-02T14:12:44.998Z</time></trkpt><trkpt lat="37.95711093576658" lon="15.003352055810694"><ele>997.0</ele><time>2026-05-02T14:12:46.998Z</time></trkpt><trkpt lat="37.95722586693681" lon="15.003379726133593"><ele>996.9999999999999</ele><time>2026-05-02T14:12:48.998Z</time></trkpt><trkpt lat="37.95728954606928" lon="15.003375041105722"><ele>997.0</ele><time>2026-05-02T14:12:49.998Z</time></trkpt><trkpt lat="37.95735601089231" lon="15.003369130272523"><ele>997.0</ele><time>2026-05-02T14:12:50.998Z</time></trkpt><trkpt lat="37.957447906064715" lon="15.00329520400519"><ele>997.0</ele><time>2026-05-02T14:12:52.998Z</time></trkpt><trkpt lat="37.957530394418015" lon="15.003224316643676"><ele>996.9999999999999</ele><time>2026-05-02T14:12:54.998Z</time></trkpt><trkpt lat="37.95760078770483" lon="15.00318725795329"><ele>997.0</ele><time>2026-05-02T14:12:58.998Z</time></trkpt><trkpt lat="37.957678308341706" lon="15.00312883428563"><ele>1004.1666666666666</ele><time>2026-05-02T14:13:01.998Z</time></trkpt><trkpt lat="37.95775358120672" lon="15.003112053838423"><ele>1011.3333333333333</ele><time>2026-05-02T14:13:03.998Z</time></trkpt><trkpt lat="37.957826309105194" lon="15.003064262570216"><ele>1018.5</ele><time>2026-05-02T14:13:05.998Z</time></trkpt><trkpt lat="37.95789351881888" lon="15.003055855483575"><ele>1025.6666666666667</ele><time>2026-05-02T14:13:08.998Z</time></trkpt><trkpt lat="37.957993817348665" lon="15.003062127241924"><ele>1032.8333333333335</ele><time>2026-05-02T14:13:11.998Z</time></trkpt><trkpt lat="37.95807790776224" lon="15.003074845016018"><ele>1040.0</ele><time>2026-05-02T14:13:13.998Z</time></trkpt><trkpt lat="37.95815336481836" lon="15.003130218724452"><ele>1040.0</ele><time>2026-05-02T14:13:15.998Z</time></trkpt><trkpt lat="37.95820700514451" lon="15.003188777075616"><ele>1040.0</ele><time>2026-05-02T14:13:17.998Z</time></trkpt><trkpt lat="37.95826496892478" lon="15.003260812248678"><ele>1040.0</ele><time>2026-05-02T14:13:19.998Z</time></trkpt><trkpt lat="37.958333031146104" lon="15.003337378371"><ele>1040.0</ele><time>2026-05-02T14:13:21.998Z</time></trkpt><trkpt lat="37.95842634954351" lon="15.003437910171378"><ele>1040.0</ele><time>2026-05-02T14:13:23.997Z</time></trkpt><trkpt lat="37.958481226397694" lon="15.003489034738053"><ele>1040.0</ele><time>2026-05-02T14:13:25Z</time></trkpt><trkpt lat="37.95853770183309" lon="15.003537217314724"><ele>1039.8333333333335</ele><time>2026-05-02T14:13:26Z</time></trkpt><trkpt lat="37.95859667286975" lon="15.003573087644531"><ele>1039.6666666666667</ele><time>2026-05-02T14:13:27Z</time></trkpt><trkpt lat="37.95866708805384" lon="15.00356714373513"><ele>1039.5</ele><time>2026-05-02T14:13:28Z</time></trkpt><trkpt lat="37.95879193433853" lon="15.00355466248109"><ele>1039.3333333333333</ele><time>2026-05-02T14:13:30Z</time></trkpt><trkpt lat="37.958883510378456" lon="15.00345612228321"><ele>1039.1666666666665</ele><time>2026-05-02T14:13:32Z</time></trkpt><trkpt lat="37.95892785886222" lon="15.003397500747447"><ele>1039.0</ele><time>2026-05-02T14:13:33Z</time></trkpt><trkpt lat="37.958966193115614" lon="15.00332464136936"><ele>1038.9999999999998</ele><time>2026-05-02T14:13:34Z</time></trkpt><trkpt lat="37.959014679016114" lon="15.003249897815998"><ele>1039.0</ele><time>2026-05-02T14:13:35Z</time></trkpt><trkpt lat="37.95905698462676" lon="15.003173904800402"><ele>1039.0</ele><time>2026-05-02T14:13:36Z</time></trkpt><trkpt lat="37.95910086157311" lon="15.003101443899324"><ele>1039.0</ele><time>2026-05-02T14:13:37Z</time></trkpt><trkpt lat="37.959138897474965" lon="15.003029190876816"><ele>1039.0</ele><time>2026-05-02T14:13:38Z</time></trkpt><trkpt lat="37.959174346475" lon="15.0029542209036"><ele>1038.9999999999998</ele><time>2026-05-02T14:13:39Z</time></trkpt><trkpt lat="37.959197926023386" lon="15.002876796357647"><ele>1039.0</ele><time>2026-05-02T14:13:40Z</time></trkpt><trkpt lat="37.959229811588905" lon="15.002799942735212"><ele>1037.8</ele><time>2026-05-02T14:13:41Z</time></trkpt><trkpt lat="37.95927632222226" lon="15.00267631983483"><ele>1036.6000000000001</ele><time>2026-05-02T14:13:43Z</time></trkpt><trkpt lat="37.959340359606" lon="15.00256393502887"><ele>1035.4</ele><time>2026-05-02T14:13:45Z</time></trkpt><trkpt lat="37.95938785393978" lon="15.002424480058176"><ele>1034.2</ele><time>2026-05-02T14:13:47Z</time></trkpt><trkpt lat="37.95942256365705" lon="15.002307635171992"><ele>1033.0</ele><time>2026-05-02T14:13:49Z</time></trkpt><trkpt lat="37.959476822079495" lon="15.002221954646146"><ele>1033.0000000000002</ele><time>2026-05-02T14:13:51Z</time></trkpt><trkpt lat="37.95949748563616" lon="15.002130356298021"><ele>1033.0</ele><time>2026-05-02T14:13:53Z</time></trkpt><trkpt lat="37.95952929447396" lon="15.002054614530362"><ele>1033.0</ele><time>2026-05-02T14:13:55Z</time></trkpt><trkpt lat="37.959566237613245" lon="15.001974341788586"><ele>1033.0</ele><time>2026-05-02T14:13:58Z</time></trkpt><trkpt lat="37.95957724958987" lon="15.001893684144395"><ele>1033.0</ele><time>2026-05-02T14:14:00.999Z</time></trkpt><trkpt lat="37.95962819774042" lon="15.001833300716193"><ele>1033.0000000000002</ele><time>2026-05-02T14:14:02.999Z</time></trkpt><trkpt lat="37.95968892976799" lon="15.001785296637632"><ele>1033.0</ele><time>2026-05-02T14:14:05.999Z</time></trkpt><trkpt lat="37.95971188197894" lon="15.001710222636348"><ele>1033.0</ele><time>2026-05-02T14:14:07.999Z</time></trkpt><trkpt lat="37.95979311047311" lon="15.001670957751502"><ele>1033.0</ele><time>2026-05-02T14:14:10.999Z</time></trkpt><trkpt lat="37.95985264505254" lon="15.001594177668037"><ele>1033.0</ele><time>2026-05-02T14:14:13.999Z</time></trkpt><trkpt lat="37.95991873945267" lon="15.00150903023031"><ele>1033.0</ele><time>2026-05-02T14:14:16.999Z</time></trkpt><trkpt lat="37.95998000070386" lon="15.001472140302427"><ele>1033.0</ele><time>2026-05-02T14:14:18.999Z</time></trkpt><trkpt lat="37.96005232125316" lon="15.001410879365634"><ele>1033.0</ele><time>2026-05-02T14:14:21.999Z</time></trkpt><trkpt lat="37.960092031555206" lon="15.001314831756082"><ele>1036.0</ele><time>2026-05-02T14:14:23.999Z</time></trkpt><trkpt lat="37.960157698520256" lon="15.001222627565765"><ele>1039.0</ele><time>2026-05-02T14:14:25.999Z</time></trkpt><trkpt lat="37.96021193338184" lon="15.00110991575436"><ele>1042.0</ele><time>2026-05-02T14:14:27.999Z</time></trkpt><trkpt lat="37.96025623505017" lon="15.000974928320582"><ele>1045.0</ele><time>2026-05-02T14:14:29.999Z</time></trkpt><trkpt lat="37.96028357590304" lon="15.000838321656007"><ele>1048.0</ele><time>2026-05-02T14:14:31.999Z</time></trkpt><trkpt lat="37.96031052650467" lon="15.000753811697006"><ele>1048.6</ele><time>2026-05-02T14:14:35.999Z</time></trkpt><trkpt lat="37.96037029220345" lon="15.000658105768743"><ele>1049.1999999999998</ele><time>2026-05-02T14:14:38.999Z</time></trkpt><trkpt lat="37.96039818657994" lon="15.000576826852598"><ele>1049.8</ele><time>2026-05-02T14:14:40.999Z</time></trkpt><trkpt lat="37.96044096580332" lon="15.00045567937392"><ele>1050.3999999999999</ele><time>2026-05-02T14:14:42.999Z</time></trkpt><trkpt lat="37.96049232380323" lon="15.000329821201342"><ele>1051.0</ele><time>2026-05-02T14:14:44.999Z</time></trkpt><trkpt lat="37.96053191202929" lon="15.000196769948497"><ele>1051.0</ele><time>2026-05-02T14:14:46.998Z</time></trkpt><trkpt lat="37.96055747703115" lon="15.000122967440333"><ele>1051.0</ele><time>2026-05-02T14:14:47.998Z</time></trkpt><trkpt lat="37.960620857162695" lon="14.999983416259166"><ele>1051.0</ele><time>2026-05-02T14:14:49.998Z</time></trkpt><trkpt lat="37.960680720144566" lon="14.99985574256992"><ele>1051.0</ele><time>2026-05-02T14:14:51.998Z</time></trkpt><trkpt lat="37.96072687947368" lon="14.999789504261017"><ele>1051.0</ele><time>2026-05-02T14:14:52.998Z</time></trkpt><trkpt lat="37.960782408608104" lon="14.99970629716931"><ele>1051.0</ele><time>2026-05-02T14:14:53.998Z</time></trkpt><trkpt lat="37.96083148708467" lon="14.999635528598327"><ele>1051.0</ele><time>2026-05-02T14:14:54.998Z</time></trkpt><trkpt lat="37.9608820826102" lon="14.999574840261849"><ele>1051.0</ele><time>2026-05-02T14:14:55.998Z</time></trkpt><trkpt lat="37.96092854258819" lon="14.999514577305831"><ele>1051.0</ele><time>2026-05-02T14:14:56.998Z</time></trkpt><trkpt lat="37.96101015206208" lon="14.999403806159046"><ele>1051.0</ele><time>2026-05-02T14:14:58.998Z</time></trkpt><trkpt lat="37.96108962175071" lon="14.999311518647197"><ele>1051.0</ele><time>2026-05-02T14:15:00.998Z</time></trkpt><trkpt lat="37.9611888294546" lon="14.999196515480259"><ele>1052.6</ele><time>2026-05-02T14:15:02.998Z</time></trkpt><trkpt lat="37.96125455426491" lon="14.999106581032983"><ele>1054.1999999999998</ele><time>2026-05-02T14:15:03.998Z</time></trkpt><trkpt lat="37.96133359823326" lon="14.999010305211268"><ele>1055.8000000000002</ele><time>2026-05-02T14:15:04.998Z</time></trkpt><trkpt lat="37.961414272582985" lon="14.998931586941296"><ele>1057.4</ele><time>2026-05-02T14:15:05.998Z</time></trkpt><trkpt lat="37.961489677338456" lon="14.99886832806913"><ele>1059.0</ele><time>2026-05-02T14:15:06.998Z</time></trkpt><trkpt lat="37.96156059237947" lon="14.998800550565369"><ele>1059.0</ele><time>2026-05-02T14:15:07.998Z</time></trkpt><trkpt lat="37.961634668740146" lon="14.998743123696682"><ele>1059.0</ele><time>2026-05-02T14:15:08.998Z</time></trkpt><trkpt lat="37.96171038904218" lon="14.99869394658015"><ele>1059.0</ele><time>2026-05-02T14:15:09.998Z</time></trkpt><trkpt lat="37.961778597993366" lon="14.99864685238052"><ele>1059.0</ele><time>2026-05-02T14:15:10.998Z</time></trkpt><trkpt lat="37.96183743631558" lon="14.998594971382076"><ele>1059.0</ele><time>2026-05-02T14:15:11.998Z</time></trkpt><trkpt lat="37.96191632057179" lon="14.998470610607962"><ele>1059.0</ele><time>2026-05-02T14:15:13.998Z</time></trkpt><trkpt lat="37.961953637884086" lon="14.998376723601272"><ele>1060.6000000000001</ele><time>2026-05-02T14:15:14.998Z</time></trkpt><trkpt lat="37.961991105742165" lon="14.998248600018128"><ele>1062.2</ele><time>2026-05-02T14:15:15.998Z</time></trkpt><trkpt lat="37.96202203098095" lon="14.998135066982222"><ele>1063.8000000000002</ele><time>2026-05-02T14:15:16.998Z</time></trkpt><trkpt lat="37.962047128086546" lon="14.998022436605286"><ele>1065.4</ele><time>2026-05-02T14:15:17.998Z</time></trkpt><trkpt lat="37.962086094440984" lon="14.997923909236256"><ele>1067.0</ele><time>2026-05-02T14:15:18.998Z</time></trkpt><trkpt lat="37.96210196571065" lon="14.997819615220926"><ele>1067.0</ele><time>2026-05-02T14:15:19.998Z</time></trkpt><trkpt lat="37.96212789012014" lon="14.997731776767726"><ele>1067.0</ele><time>2026-05-02T14:15:20.998Z</time></trkpt><trkpt lat="37.962161487067675" lon="14.997653371064112"><ele>1067.0</ele><time>2026-05-02T14:15:21.998Z</time></trkpt><trkpt lat="37.9622002133745" lon="14.997507932583458"><ele>1067.0</ele><time>2026-05-02T14:15:23.998Z</time></trkpt><trkpt lat="37.96221527734286" lon="14.997357932240332"><ele>1067.0</ele><time>2026-05-02T14:15:25.998Z</time></trkpt><trkpt lat="37.96225438599795" lon="14.99722851999736"><ele>1065.6</ele><time>2026-05-02T14:15:27.998Z</time></trkpt><trkpt lat="37.96228294146371" lon="14.997113715851016"><ele>1064.2</ele><time>2026-05-02T14:15:29.997Z</time></trkpt><trkpt lat="37.96226586651514" lon="14.99697883185152"><ele>1062.8</ele><time>2026-05-02T14:15:32Z</time></trkpt><trkpt lat="37.962202984191606" lon="14.99686890142191"><ele>1061.4</ele><time>2026-05-02T14:15:34Z</time></trkpt><trkpt lat="37.96212427953379" lon="14.996782619897823"><ele>1060.0</ele><time>2026-05-02T14:15:36Z</time></trkpt><trkpt lat="37.962030777574554" lon="14.996712350100683"><ele>1061.3333333333333</ele><time>2026-05-02T14:15:38Z</time></trkpt><trkpt lat="37.961990581481025" lon="14.996647245872243"><ele>1062.6666666666665</ele><time>2026-05-02T14:15:40Z</time></trkpt><trkpt lat="37.96193798828092" lon="14.996601340899007"><ele>1064.0</ele><time>2026-05-02T14:15:44Z</time></trkpt><trkpt lat="37.96184879700055" lon="14.996504240257355"><ele>1065.3333333333333</ele><time>2026-05-02T14:15:59Z</time></trkpt><trkpt lat="37.96179311337283" lon="14.996435391114249"><ele>1066.6666666666667</ele><time>2026-05-02T14:16:00Z</time></trkpt><trkpt lat="37.961734603708294" lon="14.996368950875794"><ele>1068.0</ele><time>2026-05-02T14:16:01Z</time></trkpt><trkpt lat="37.9616980319506" lon="14.996278699722088"><ele>1069.4</ele><time>2026-05-02T14:16:02Z</time></trkpt><trkpt lat="37.961689937885964" lon="14.996184919493459"><ele>1070.8</ele><time>2026-05-02T14:16:03Z</time></trkpt><trkpt lat="37.96167767743251" lon="14.996095248173326"><ele>1072.2</ele><time>2026-05-02T14:16:04Z</time></trkpt><trkpt lat="37.96169710519533" lon="14.995973747292632"><ele>1073.6</ele><time>2026-05-02T14:16:05Z</time></trkpt><trkpt lat="37.961724738979434" lon="14.995830759409126"><ele>1075.0</ele><time>2026-05-02T14:16:06Z</time></trkpt><trkpt lat="37.9617597238625" lon="14.99567197191214"><ele>1075.0</ele><time>2026-05-02T14:16:07Z</time></trkpt><trkpt lat="37.961789081731325" lon="14.995496887788697"><ele>1075.0</ele><time>2026-05-02T14:16:07.999Z</time></trkpt><trkpt lat="37.96180629927682" lon="14.995333532159052"><ele>1075.0</ele><time>2026-05-02T14:16:08.999Z</time></trkpt><trkpt lat="37.96182730339453" lon="14.995215186545156"><ele>1075.0</ele><time>2026-05-02T14:16:09.999Z</time></trkpt><trkpt lat="37.96184644141905" lon="14.9951045422852"><ele>1075.0</ele><time>2026-05-02T14:16:11.999Z</time></trkpt><trkpt lat="37.961912289826024" lon="14.995018761541807"><ele>1075.0</ele><time>2026-05-02T14:16:22.999Z</time></trkpt><trkpt lat="37.96196864184916" lon="14.994893071019712"><ele>1075.0</ele><time>2026-05-02T14:16:24.999Z</time></trkpt><trkpt lat="37.96200673787642" lon="14.994821376711029"><ele>1075.0</ele><time>2026-05-02T14:16:25.999Z</time></trkpt><trkpt lat="37.962052750375314" lon="14.99475196667777"><ele>1075.0</ele><time>2026-05-02T14:16:26.999Z</time></trkpt><trkpt lat="37.96209094881818" lon="14.994681358941683"><ele>1075.0</ele><time>2026-05-02T14:16:27.999Z</time></trkpt><trkpt lat="37.962132101245054" lon="14.994617551200866"><ele>1074.2</ele><time>2026-05-02T14:16:28.999Z</time></trkpt><trkpt lat="37.962176221222" lon="14.994556790711398"><ele>1073.4</ele><time>2026-05-02T14:16:29.999Z</time></trkpt><trkpt lat="37.962246119905714" lon="14.99443588117267"><ele>1072.6</ele><time>2026-05-02T14:16:31.999Z</time></trkpt><trkpt lat="37.962320126416614" lon="14.994310553481363"><ele>1071.8</ele><time>2026-05-02T14:16:33.999Z</time></trkpt><trkpt lat="37.9623650570552" lon="14.994246423405933"><ele>1071.0</ele><time>2026-05-02T14:16:34.999Z</time></trkpt><trkpt lat="37.96243307735706" lon="14.994193172516319"><ele>1072.0</ele><time>2026-05-02T14:16:35.999Z</time></trkpt><trkpt lat="37.96248063885518" lon="14.994125567331725"><ele>1073.0</ele><time>2026-05-02T14:16:36.999Z</time></trkpt><trkpt lat="37.962525335243775" lon="14.99405526444005"><ele>1074.0</ele><time>2026-05-02T14:16:37.999Z</time></trkpt><trkpt lat="37.96257783462759" lon="14.994003225766615"><ele>1075.0</ele><time>2026-05-02T14:16:38.999Z</time></trkpt><trkpt lat="37.96264574239457" lon="14.993976108705938"><ele>1076.0</ele><time>2026-05-02T14:16:39.999Z</time></trkpt><trkpt lat="37.962700309988044" lon="14.993912387012003"><ele>1077.0</ele><time>2026-05-02T14:16:40.999Z</time></trkpt><trkpt lat="37.9627453925149" lon="14.993845488912553"><ele>1078.0</ele><time>2026-05-02T14:16:41.999Z</time></trkpt><trkpt lat="37.962808026459896" lon="14.993800944241487"><ele>1078.0</ele><time>2026-05-02T14:16:42.999Z</time></trkpt><trkpt lat="37.962867870549935" lon="14.993752075528427"><ele>1078.0</ele><time>2026-05-02T14:16:43.999Z</time></trkpt><trkpt lat="37.9629298041075" lon="14.993709056376673"><ele>1078.0</ele><time>2026-05-02T14:16:44.999Z</time></trkpt><trkpt lat="37.962992575201305" lon="14.99365917806452"><ele>1078.0</ele><time>2026-05-02T14:16:45.999Z</time></trkpt><trkpt lat="37.96304479163986" lon="14.99359670815328"><ele>1078.0</ele><time>2026-05-02T14:16:46.999Z</time></trkpt><trkpt lat="37.963089874337264" lon="14.99352628101973"><ele>1078.0</ele><time>2026-05-02T14:16:47.999Z</time></trkpt><trkpt lat="37.963150096472816" lon="14.993481464433106"><ele>1078.0</ele><time>2026-05-02T14:16:48.999Z</time></trkpt><trkpt lat="37.96320535511111" lon="14.993423707843196"><ele>1078.0</ele><time>2026-05-02T14:16:49.999Z</time></trkpt><trkpt lat="37.96324800036343" lon="14.993345276435564"><ele>1078.0</ele><time>2026-05-02T14:16:50.999Z</time></trkpt><trkpt lat="37.963268307452196" lon="14.993256586017631"><ele>1078.0</ele><time>2026-05-02T14:16:51.999Z</time></trkpt><trkpt lat="37.96328867595751" lon="14.99313018477294"><ele>1078.0</ele><time>2026-05-02T14:16:53.998Z</time></trkpt><trkpt lat="37.96328498536313" lon="14.993028065367797"><ele>1078.0</ele><time>2026-05-02T14:16:55.998Z</time></trkpt><trkpt lat="37.963310482240686" lon="14.992938575111634"><ele>1078.0</ele><time>2026-05-02T14:16:57.998Z</time></trkpt><trkpt lat="37.96331785659847" lon="14.992853769032928"><ele>1076.1666666666665</ele><time>2026-05-02T14:17:00.998Z</time></trkpt><trkpt lat="37.96332124552166" lon="14.992760770588966"><ele>1074.3333333333333</ele><time>2026-05-02T14:17:06.998Z</time></trkpt><trkpt lat="37.96332278158089" lon="14.992621988411306"><ele>1072.5</ele><time>2026-05-02T14:17:09.998Z</time></trkpt><trkpt lat="37.96330586962286" lon="14.99254150981169"><ele>1070.6666666666667</ele><time>2026-05-02T14:17:11.998Z</time></trkpt><trkpt lat="37.96331738077009" lon="14.992451848236328"><ele>1068.8333333333335</ele><time>2026-05-02T14:17:14.998Z</time></trkpt><trkpt lat="37.963330130458104" lon="14.992364591373969"><ele>1067.0</ele><time>2026-05-02T14:17:16.998Z</time></trkpt><trkpt lat="37.96332691767827" lon="14.992248781847831"><ele>1066.8333333333335</ele><time>2026-05-02T14:17:18.998Z</time></trkpt><trkpt lat="37.96331940770254" lon="14.992081152129565"><ele>1066.6666666666667</ele><time>2026-05-02T14:17:20.998Z</time></trkpt><trkpt lat="37.9633293488266" lon="14.991992614834384"><ele>1066.5</ele><time>2026-05-02T14:17:21.998Z</time></trkpt><trkpt lat="37.96337771884594" lon="14.991918645065349"><ele>1066.3333333333333</ele><time>2026-05-02T14:17:22.998Z</time></trkpt><trkpt lat="37.96343053739791" lon="14.991843144784358"><ele>1066.1666666666665</ele><time>2026-05-02T14:17:23.998Z</time></trkpt><trkpt lat="37.96348767175343" lon="14.991776251672748"><ele>1066.0</ele><time>2026-05-02T14:17:24.998Z</time></trkpt><trkpt lat="37.963543993189695" lon="14.99170032543694"><ele>1068.1666666666665</ele><time>2026-05-02T14:17:25.998Z</time></trkpt><trkpt lat="37.96360218402819" lon="14.991625853731048"><ele>1070.3333333333333</ele><time>2026-05-02T14:17:26.998Z</time></trkpt><trkpt lat="37.96366001854193" lon="14.991555784905238"><ele>1072.5</ele><time>2026-05-02T14:17:27.998Z</time></trkpt><trkpt lat="37.96371712417299" lon="14.991491524274352"><ele>1074.6666666666667</ele><time>2026-05-02T14:17:28.998Z</time></trkpt><trkpt lat="37.96377628058484" lon="14.991429975612391"><ele>1076.8333333333335</ele><time>2026-05-02T14:17:29.998Z</time></trkpt><trkpt lat="37.96384129062109" lon="14.991368031951472"><ele>1079.0</ele><time>2026-05-02T14:17:30.998Z</time></trkpt><trkpt lat="37.9639183808557" lon="14.991296924330367"><ele>1079.0</ele><time>2026-05-02T14:17:31.998Z</time></trkpt><trkpt lat="37.96399691671211" lon="14.991224214686458"><ele>1079.0</ele><time>2026-05-02T14:17:32.998Z</time></trkpt><trkpt lat="37.964072027252634" lon="14.991154454893278"><ele>1079.0</ele><time>2026-05-02T14:17:33.998Z</time></trkpt><trkpt lat="37.96414950956557" lon="14.991080396625238"><ele>1079.0</ele><time>2026-05-02T14:17:34.998Z</time></trkpt><trkpt lat="37.96421818920269" lon="14.99099275199762"><ele>1079.0</ele><time>2026-05-02T14:17:35.998Z</time></trkpt><trkpt lat="37.96430169769333" lon="14.99092955473008"><ele>1080.0</ele><time>2026-05-02T14:17:37Z</time></trkpt><trkpt lat="37.964373084441775" lon="14.990847523526051"><ele>1081.0</ele><time>2026-05-02T14:17:38Z</time></trkpt><trkpt lat="37.964436102209696" lon="14.99077328488851"><ele>1082.0</ele><time>2026-05-02T14:17:39Z</time></trkpt><trkpt lat="37.964476400608255" lon="14.99068167476128"><ele>1083.0</ele><time>2026-05-02T14:17:40Z</time></trkpt><trkpt lat="37.964510244984716" lon="14.990572144608162"><ele>1084.0</ele><time>2026-05-02T14:17:41Z</time></trkpt><trkpt lat="37.96452843040192" lon="14.990458485063892"><ele>1085.0</ele><time>2026-05-02T14:17:42Z</time></trkpt><trkpt lat="37.96452786183174" lon="14.990334297528168"><ele>1085.0</ele><time>2026-05-02T14:17:43Z</time></trkpt><trkpt lat="37.964527231017996" lon="14.990222114412783"><ele>1085.0</ele><time>2026-05-02T14:17:44Z</time></trkpt><trkpt lat="37.96452797189003" lon="14.990095932656196"><ele>1085.0</ele><time>2026-05-02T14:17:45Z</time></trkpt><trkpt lat="37.96453800217065" lon="14.989968262963634"><ele>1085.0</ele><time>2026-05-02T14:17:46Z</time></trkpt><trkpt lat="37.96456605247294" lon="14.989860741289354"><ele>1085.0</ele><time>2026-05-02T14:17:47Z</time></trkpt><trkpt lat="37.9646189574905" lon="14.989766478421004"><ele>1083.6</ele><time>2026-05-02T14:17:48Z</time></trkpt><trkpt lat="37.96469902636231" lon="14.989696613385625"><ele>1082.2</ele><time>2026-05-02T14:17:49Z</time></trkpt><trkpt lat="37.96479808814966" lon="14.989647104517372"><ele>1080.8</ele><time>2026-05-02T14:17:50Z</time></trkpt><trkpt lat="37.96491421393125" lon="14.989614245146903"><ele>1079.4</ele><time>2026-05-02T14:17:51Z</time></trkpt><trkpt lat="37.96503140373321" lon="14.989568546459477"><ele>1078.0</ele><time>2026-05-02T14:17:52Z</time></trkpt><trkpt lat="37.96513857509545" lon="14.989520257809218"><ele>1076.8333333333333</ele><time>2026-05-02T14:17:53Z</time></trkpt><trkpt lat="37.96523602158123" lon="14.989478499773107"><ele>1075.6666666666665</ele><time>2026-05-02T14:17:54Z</time></trkpt><trkpt lat="37.96531178870439" lon="14.98946210774048"><ele>1074.5</ele><time>2026-05-02T14:17:55Z</time></trkpt><trkpt lat="37.96537653306583" lon="14.98950412121093"><ele>1073.3333333333333</ele><time>2026-05-02T14:17:56Z</time></trkpt><trkpt lat="37.965414514289435" lon="14.989572239153894"><ele>1072.1666666666667</ele><time>2026-05-02T14:17:57Z</time></trkpt><trkpt lat="37.965427920412225" lon="14.989667067348352"><ele>1071.0</ele><time>2026-05-02T14:17:58Z</time></trkpt><trkpt lat="37.96546409388035" lon="14.989789145239683"><ele>1071.0</ele><time>2026-05-02T14:17:59Z</time></trkpt><trkpt lat="37.96549943285309" lon="14.98991542931021"><ele>1071.0</ele><time>2026-05-02T14:18:00Z</time></trkpt><trkpt lat="37.96553615502681" lon="14.990041543806566"><ele>1071.0</ele><time>2026-05-02T14:18:01Z</time></trkpt><trkpt lat="37.965574732474636" lon="14.990165741409074"><ele>1071.0</ele><time>2026-05-02T14:18:02Z</time></trkpt><trkpt lat="37.9656121046666" lon="14.990277858012043"><ele>1071.0</ele><time>2026-05-02T14:18:03Z</time></trkpt><trkpt lat="37.965650870386646" lon="14.990394155321935"><ele>1072.6</ele><time>2026-05-02T14:18:04Z</time></trkpt><trkpt lat="37.96569222375718" lon="14.990502668051436"><ele>1074.1999999999998</ele><time>2026-05-02T14:18:05Z</time></trkpt><trkpt lat="37.96572971704065" lon="14.990620778240933"><ele>1075.8000000000002</ele><time>2026-05-02T14:18:06Z</time></trkpt><trkpt lat="37.965752103550216" lon="14.990740876331042"><ele>1077.4</ele><time>2026-05-02T14:18:07Z</time></trkpt><trkpt lat="37.965769248756665" lon="14.990869708841798"><ele>1079.0</ele><time>2026-05-02T14:18:08Z</time></trkpt><trkpt lat="37.96578406393416" lon="14.99100652859308"><ele>1081.2</ele><time>2026-05-02T14:18:09Z</time></trkpt><trkpt lat="37.96579671037451" lon="14.991142938445165"><ele>1083.4</ele><time>2026-05-02T14:18:10Z</time></trkpt><trkpt lat="37.96581111534069" lon="14.991273388514578"><ele>1085.6</ele><time>2026-05-02T14:18:10.999Z</time></trkpt><trkpt lat="37.96583721560017" lon="14.991387821665985"><ele>1087.8</ele><time>2026-05-02T14:18:11.999Z</time></trkpt><trkpt lat="37.965875928598855" lon="14.991483129995299"><ele>1090.0</ele><time>2026-05-02T14:18:12.999Z</time></trkpt><trkpt lat="37.96590532814631" lon="14.991568716616298"><ele>1090.0</ele><time>2026-05-02T14:18:13.999Z</time></trkpt><trkpt lat="37.96594916301737" lon="14.99163587821498"><ele>1090.0</ele><time>2026-05-02T14:18:14.999Z</time></trkpt><trkpt lat="37.96599308557555" lon="14.991705832387991"><ele>1090.0</ele><time>2026-05-02T14:18:15.999Z</time></trkpt><trkpt lat="37.966068931451666" lon="14.991747660172333"><ele>1090.0</ele><time>2026-05-02T14:18:16.999Z</time></trkpt><trkpt lat="37.966162120137945" lon="14.991731324621073"><ele>1090.0</ele><time>2026-05-02T14:18:17.999Z</time></trkpt><trkpt lat="37.966248482561674" lon="14.991672932406765"><ele>1090.0</ele><time>2026-05-02T14:18:18.999Z</time></trkpt><trkpt lat="37.96633901375356" lon="14.99162381317185"><ele>1090.0</ele><time>2026-05-02T14:18:19.999Z</time></trkpt><trkpt lat="37.96643200814287" lon="14.991557193976671"><ele>1090.0</ele><time>2026-05-02T14:18:20.999Z</time></trkpt><trkpt lat="37.966528847465106" lon="14.991498647419345"><ele>1090.0</ele><time>2026-05-02T14:18:21.999Z</time></trkpt><trkpt lat="37.96661621294297" lon="14.991449610620277"><ele>1090.0</ele><time>2026-05-02T14:18:22.999Z</time></trkpt><trkpt lat="37.96668916883854" lon="14.991408548114356"><ele>1090.0</ele><time>2026-05-02T14:18:23.999Z</time></trkpt><trkpt lat="37.96674812983102" lon="14.991375092336712"><ele>1089.8333333333333</ele><time>2026-05-02T14:18:24.999Z</time></trkpt><trkpt lat="37.96686252230431" lon="14.991307283078946"><ele>1089.6666666666665</ele><time>2026-05-02T14:18:26.999Z</time></trkpt><trkpt lat="37.96693465312002" lon="14.991330760857428"><ele>1089.5</ele><time>2026-05-02T14:18:27.999Z</time></trkpt><trkpt lat="37.9670065550876" lon="14.991354083934723"><ele>1089.3333333333333</ele><time>2026-05-02T14:18:28.999Z</time></trkpt><trkpt lat="37.96707346235328" lon="14.991401438889241"><ele>1089.1666666666667</ele><time>2026-05-02T14:18:29.999Z</time></trkpt><trkpt lat="37.9671274342341" lon="14.991475198755476"><ele>1089.0</ele><time>2026-05-02T14:18:30.999Z</time></trkpt><trkpt lat="37.96716970780192" lon="14.991571256047221"><ele>1090.5</ele><time>2026-05-02T14:18:31.999Z</time></trkpt><trkpt lat="37.96720799302981" lon="14.9916885427482"><ele>1092.0</ele><time>2026-05-02T14:18:32.999Z</time></trkpt><trkpt lat="37.96725480443966" lon="14.991822246591834"><ele>1093.5</ele><time>2026-05-02T14:18:33.999Z</time></trkpt><trkpt lat="37.96730437388525" lon="14.9919603414405"><ele>1095.0</ele><time>2026-05-02T14:18:34.999Z</time></trkpt><trkpt lat="37.967357715909195" lon="14.992106882953749"><ele>1095.0</ele><time>2026-05-02T14:18:35.999Z</time></trkpt><trkpt lat="37.96742176867895" lon="14.992240719323005"><ele>1095.0</ele><time>2026-05-02T14:18:36.999Z</time></trkpt><trkpt lat="37.96746329067917" lon="14.992382201795301"><ele>1095.0</ele><time>2026-05-02T14:18:37.999Z</time></trkpt><trkpt lat="37.96750750194689" lon="14.992497620410857"><ele>1095.0</ele><time>2026-05-02T14:18:38.999Z</time></trkpt><trkpt lat="37.967562721037744" lon="14.992577750545113"><ele>1095.0</ele><time>2026-05-02T14:18:39.999Z</time></trkpt><trkpt lat="37.96762939736147" lon="14.992618732547015"><ele>1093.6666666666667</ele><time>2026-05-02T14:18:40.999Z</time></trkpt><trkpt lat="37.967694402677175" lon="14.992654249940134"><ele>1092.3333333333333</ele><time>2026-05-02T14:18:41.999Z</time></trkpt><trkpt lat="37.967765619589684" lon="14.992671706635015"><ele>1091.0</ele><time>2026-05-02T14:18:42.999Z</time></trkpt><trkpt lat="37.967842465813135" lon="14.992684662683649"><ele>1089.6666666666665</ele><time>2026-05-02T14:18:43.999Z</time></trkpt><trkpt lat="37.96792427483528" lon="14.99271567916382"><ele>1088.3333333333333</ele><time>2026-05-02T14:18:44.999Z</time></trkpt><trkpt lat="37.968007032366884" lon="14.99272140623954"><ele>1087.0</ele><time>2026-05-02T14:18:45.999Z</time></trkpt><trkpt lat="37.96808926151583" lon="14.992731268100156"><ele>1087.0</ele><time>2026-05-02T14:18:46.999Z</time></trkpt><trkpt lat="37.96818403881974" lon="14.99274380135478"><ele>1087.0</ele><time>2026-05-02T14:18:47.999Z</time></trkpt><trkpt lat="37.96830104021518" lon="14.992764679796176"><ele>1087.0</ele><time>2026-05-02T14:18:48.999Z</time></trkpt><trkpt lat="37.968430875895585" lon="14.992783752882662"><ele>1087.0</ele><time>2026-05-02T14:18:49.999Z</time></trkpt><trkpt lat="37.96856278929719" lon="14.992812889413058"><ele>1087.25</ele><time>2026-05-02T14:18:50.999Z</time></trkpt><trkpt lat="37.96869856265811" lon="14.99283764894761"><ele>1087.5</ele><time>2026-05-02T14:18:51.999Z</time></trkpt><trkpt lat="37.96882342038755" lon="14.992833211709229"><ele>1087.75</ele><time>2026-05-02T14:18:52.999Z</time></trkpt><trkpt lat="37.968943642910965" lon="14.992808726242776"><ele>1088.0</ele><time>2026-05-02T14:18:53.999Z</time></trkpt><trkpt lat="37.96905374998901" lon="14.99276211204744"><ele>1088.0</ele><time>2026-05-02T14:18:54.998Z</time></trkpt><trkpt lat="37.969165510727926" lon="14.992721130622074"><ele>1088.0</ele><time>2026-05-02T14:18:55.998Z</time></trkpt><trkpt lat="37.96926549438563" lon="14.992688217520204"><ele>1088.0</ele><time>2026-05-02T14:18:56.998Z</time></trkpt><trkpt lat="37.96936464374964" lon="14.99265799670917"><ele>1088.0</ele><time>2026-05-02T14:18:57.998Z</time></trkpt><trkpt lat="37.969462955392906" lon="14.992629925538091"><ele>1088.0</ele><time>2026-05-02T14:18:58.998Z</time></trkpt><trkpt lat="37.96955656500371" lon="14.99259986134068"><ele>1086.2</ele><time>2026-05-02T14:18:59.998Z</time></trkpt><trkpt lat="37.96964654200775" lon="14.992558548582478"><ele>1084.4</ele><time>2026-05-02T14:19:00.998Z</time></trkpt><trkpt lat="37.969733518859876" lon="14.99250476832604"><ele>1082.6000000000001</ele><time>2026-05-02T14:19:01.998Z</time></trkpt><trkpt lat="37.96981022544522" lon="14.992434436757117"><ele>1080.8</ele><time>2026-05-02T14:19:02.998Z</time></trkpt><trkpt lat="37.96989354856666" lon="14.992361806212518"><ele>1079.0</ele><time>2026-05-02T14:19:03.998Z</time></trkpt><trkpt lat="37.96994784463944" lon="14.992234696345731"><ele>1083.0</ele><time>2026-05-02T14:19:04.998Z</time></trkpt><trkpt lat="37.97001179283221" lon="14.992110655299525"><ele>1087.0</ele><time>2026-05-02T14:19:05.998Z</time></trkpt><trkpt lat="37.97008129968959" lon="14.991992292699168"><ele>1091.0</ele><time>2026-05-02T14:19:06.998Z</time></trkpt><trkpt lat="37.97014472102965" lon="14.99187061691403"><ele>1095.0</ele><time>2026-05-02T14:19:07.998Z</time></trkpt><trkpt lat="37.97021380724979" lon="14.991751412738553"><ele>1099.5</ele><time>2026-05-02T14:19:08.998Z</time></trkpt><trkpt lat="37.970287223648064" lon="14.991632965088444"><ele>1104.0</ele><time>2026-05-02T14:19:09.998Z</time></trkpt><trkpt lat="37.970354401997305" lon="14.991503618484899"><ele>1108.5</ele><time>2026-05-02T14:19:10.998Z</time></trkpt><trkpt lat="37.97043289353068" lon="14.991377644141664"><ele>1113.0</ele><time>2026-05-02T14:19:11.998Z</time></trkpt><trkpt lat="37.97050790630279" lon="14.991245827142107"><ele>1113.0</ele><time>2026-05-02T14:19:12.998Z</time></trkpt><trkpt lat="37.97058033431997" lon="14.991124343764211"><ele>1113.0</ele><time>2026-05-02T14:19:13.998Z</time></trkpt><trkpt lat="37.97064950538124" lon="14.99101822852552"><ele>1113.0</ele><time>2026-05-02T14:19:14.998Z</time></trkpt><trkpt lat="37.97070974894433" lon="14.990917306417844"><ele>1113.0</ele><time>2026-05-02T14:19:15.998Z</time></trkpt><trkpt lat="37.97077135043997" lon="14.990832701502388"><ele>1113.0</ele><time>2026-05-02T14:19:16.998Z</time></trkpt><trkpt lat="37.97085889636721" lon="14.990792682600574"><ele>1114.4</ele><time>2026-05-02T14:19:17.998Z</time></trkpt><trkpt lat="37.970957840585505" lon="14.990822002981437"><ele>1115.8</ele><time>2026-05-02T14:19:18.998Z</time></trkpt><trkpt lat="37.97106624700469" lon="14.990822965981248"><ele>1117.2</ele><time>2026-05-02T14:19:19.998Z</time></trkpt><trkpt lat="37.971177285193704" lon="14.990811483260009"><ele>1118.6</ele><time>2026-05-02T14:19:20.998Z</time></trkpt><trkpt lat="37.97128331947775" lon="14.990821602523495"><ele>1120.0</ele><time>2026-05-02T14:19:21.998Z</time></trkpt><trkpt lat="37.971395331702816" lon="14.990810921132184"><ele>1120.0</ele><time>2026-05-02T14:19:22.998Z</time></trkpt><trkpt lat="37.971498308195414" lon="14.990787252787843"><ele>1120.0</ele><time>2026-05-02T14:19:23.998Z</time></trkpt><trkpt lat="37.97158017836254" lon="14.990735002426785"><ele>1120.0</ele><time>2026-05-02T14:19:24.998Z</time></trkpt><trkpt lat="37.97164609989382" lon="14.990652112356212"><ele>1120.0</ele><time>2026-05-02T14:19:25.998Z</time></trkpt><trkpt lat="37.97169897820498" lon="14.990550376994552"><ele>1120.0</ele><time>2026-05-02T14:19:26.998Z</time></trkpt><trkpt lat="37.97174898574726" lon="14.990424203784773"><ele>1122.0</ele><time>2026-05-02T14:19:27.998Z</time></trkpt><trkpt lat="37.971807310263515" lon="14.99030014767036"><ele>1124.0</ele><time>2026-05-02T14:19:28.998Z</time></trkpt><trkpt lat="37.97185927481007" lon="14.990168992958722"><ele>1126.0</ele><time>2026-05-02T14:19:29.998Z</time></trkpt><trkpt lat="37.971922608170104" lon="14.990041488256427"><ele>1128.0</ele><time>2026-05-02T14:19:30.998Z</time></trkpt><trkpt lat="37.97198326077906" lon="14.989911430490379"><ele>1131.25</ele><time>2026-05-02T14:19:31.998Z</time></trkpt><trkpt lat="37.972042278367" lon="14.989784153195103"><ele>1134.5</ele><time>2026-05-02T14:19:32.998Z</time></trkpt><trkpt lat="37.972100089904686" lon="14.989658389170081"><ele>1137.75</ele><time>2026-05-02T14:19:33.998Z</time></trkpt><trkpt lat="37.97215937831767" lon="14.989536825628136"><ele>1141.0</ele><time>2026-05-02T14:19:34.998Z</time></trkpt><trkpt lat="37.97221605721462" lon="14.989414022273808"><ele>1141.0</ele><time>2026-05-02T14:19:35.998Z</time></trkpt><trkpt lat="37.97227109381192" lon="14.989295915804927"><ele>1141.0</ele><time>2026-05-02T14:19:36.998Z</time></trkpt><trkpt lat="37.972326122373815" lon="14.98918069392639"><ele>1141.0</ele><time>2026-05-02T14:19:37.998Z</time></trkpt><trkpt lat="37.97237898192396" lon="14.989067561779175"><ele>1141.0</ele><time>2026-05-02T14:19:38.997Z</time></trkpt><trkpt lat="37.972430814930796" lon="14.98895739046302"><ele>1141.0</ele><time>2026-05-02T14:19:39.997Z</time></trkpt><trkpt lat="37.97248125526819" lon="14.98885306938588"><ele>1142.0</ele><time>2026-05-02T14:19:40.997Z</time></trkpt><trkpt lat="37.97254562599315" lon="14.988774045443195"><ele>1143.0</ele><time>2026-05-02T14:19:41.997Z</time></trkpt><trkpt lat="37.972620851597455" lon="14.988721327156396"><ele>1144.0</ele><time>2026-05-02T14:19:43Z</time></trkpt><trkpt lat="37.972703940678834" lon="14.988695534972575"><ele>1145.0</ele><time>2026-05-02T14:19:44Z</time></trkpt><trkpt lat="37.97279787464301" lon="14.988702613641838"><ele>1146.0</ele><time>2026-05-02T14:19:45Z</time></trkpt><trkpt lat="37.97288756395726" lon="14.988727198733182"><ele>1147.0</ele><time>2026-05-02T14:19:46Z</time></trkpt><trkpt lat="37.9729802413632" lon="14.98876864642912"><ele>1147.0</ele><time>2026-05-02T14:19:47Z</time></trkpt><trkpt lat="37.97307528072561" lon="14.988819387378665"><ele>1147.0</ele><time>2026-05-02T14:19:48Z</time></trkpt><trkpt lat="37.97317182005182" lon="14.988865725615494"><ele>1147.0</ele><time>2026-05-02T14:19:49Z</time></trkpt><trkpt lat="37.9732784143111" lon="14.988912856102672"><ele>1147.0</ele><time>2026-05-02T14:19:50Z</time></trkpt><trkpt lat="37.97338928281993" lon="14.98896511721048"><ele>1147.0</ele><time>2026-05-02T14:19:51Z</time></trkpt><trkpt lat="37.97350020933375" lon="14.989016076964313"><ele>1147.25</ele><time>2026-05-02T14:19:52Z</time></trkpt><trkpt lat="37.97361264094419" lon="14.989070652581466"><ele>1147.5</ele><time>2026-05-02T14:19:53Z</time></trkpt><trkpt lat="37.97372680481439" lon="14.989122238057185"><ele>1147.75</ele><time>2026-05-02T14:19:54Z</time></trkpt><trkpt lat="37.973838678495895" lon="14.989171357022716"><ele>1148.0</ele><time>2026-05-02T14:19:55Z</time></trkpt><trkpt lat="37.97394818511304" lon="14.989222985624338"><ele>1148.0</ele><time>2026-05-02T14:19:56Z</time></trkpt><trkpt lat="37.974055842654536" lon="14.989273187290728"><ele>1148.0</ele><time>2026-05-02T14:19:57Z</time></trkpt><trkpt lat="37.97415971683421" lon="14.989321461491324"><ele>1148.0</ele><time>2026-05-02T14:19:58Z</time></trkpt><trkpt lat="37.97426270760514" lon="14.989370850779189"><ele>1148.0</ele><time>2026-05-02T14:19:59Z</time></trkpt><trkpt lat="37.974366083172754" lon="14.989398004479975"><ele>1148.0</ele><time>2026-05-02T14:20:00Z</time></trkpt><trkpt lat="37.97446533656532" lon="14.989397831288674"><ele>1148.8</ele><time>2026-05-02T14:20:01Z</time></trkpt><trkpt lat="37.974563039285165" lon="14.989366012921273"><ele>1149.6</ele><time>2026-05-02T14:20:02Z</time></trkpt><trkpt lat="37.97466086358421" lon="14.98931538574757"><ele>1150.4</ele><time>2026-05-02T14:20:03Z</time></trkpt><trkpt lat="37.974757514870355" lon="14.98924587481455"><ele>1151.2</ele><time>2026-05-02T14:20:04Z</time></trkpt><trkpt lat="37.97485899843331" lon="14.989173464839004"><ele>1152.0</ele><time>2026-05-02T14:20:05Z</time></trkpt><trkpt lat="37.97495571453598" lon="14.989101505538057"><ele>1150.5</ele><time>2026-05-02T14:20:06Z</time></trkpt><trkpt lat="37.97505519972095" lon="14.989029382090512"><ele>1149.0</ele><time>2026-05-02T14:20:07Z</time></trkpt><trkpt lat="37.97515322615611" lon="14.988956768126206"><ele>1147.5</ele><time>2026-05-02T14:20:08Z</time></trkpt><trkpt lat="37.97524950557887" lon="14.988884090287762"><ele>1146.0</ele><time>2026-05-02T14:20:09Z</time></trkpt><trkpt lat="37.975346691565974" lon="14.988812184884925"><ele>1146.0</ele><time>2026-05-02T14:20:10Z</time></trkpt><trkpt lat="37.97544219757157" lon="14.988738543696043"><ele>1146.0</ele><time>2026-05-02T14:20:11Z</time></trkpt><trkpt lat="37.97554068775263" lon="14.988668471939151"><ele>1146.0</ele><time>2026-05-02T14:20:12Z</time></trkpt><trkpt lat="37.975642202357335" lon="14.988592702953415"><ele>1146.0</ele><time>2026-05-02T14:20:13Z</time></trkpt><trkpt lat="37.97574139903516" lon="14.988512625668752"><ele>1146.0</ele><time>2026-05-02T14:20:14Z</time></trkpt><trkpt lat="37.97584339608334" lon="14.988435486023644"><ele>1146.0</ele><time>2026-05-02T14:20:15Z</time></trkpt><trkpt lat="37.97594529131897" lon="14.988360352568742"><ele>1146.0</ele><time>2026-05-02T14:20:16Z</time></trkpt><trkpt lat="37.97604640631325" lon="14.988293739615074"><ele>1146.0</ele><time>2026-05-02T14:20:16.999Z</time></trkpt><trkpt lat="37.976144323004576" lon="14.988231992960669"><ele>1147.8</ele><time>2026-05-02T14:20:17.999Z</time></trkpt><trkpt lat="37.976238645838094" lon="14.988164082564186"><ele>1149.6</ele><time>2026-05-02T14:20:18.999Z</time></trkpt><trkpt lat="37.976335625967245" lon="14.988096848112145"><ele>1151.4</ele><time>2026-05-02T14:20:19.999Z</time></trkpt><trkpt lat="37.97643077796053" lon="14.988023531714646"><ele>1153.2</ele><time>2026-05-02T14:20:20.999Z</time></trkpt><trkpt lat="37.97651582864134" lon="14.987935436212734"><ele>1155.0</ele><time>2026-05-02T14:20:21.999Z</time></trkpt><trkpt lat="37.97660564375" lon="14.987848589125836"><ele>1155.0</ele><time>2026-05-02T14:20:22.999Z</time></trkpt><trkpt lat="37.97666426816793" lon="14.987720178652786"><ele>1155.0</ele><time>2026-05-02T14:20:23.999Z</time></trkpt><trkpt lat="37.976691038634264" lon="14.98757565092453"><ele>1155.0</ele><time>2026-05-02T14:20:24.999Z</time></trkpt><trkpt lat="37.976730721850046" lon="14.987435002861043"><ele>1155.0</ele><time>2026-05-02T14:20:25.999Z</time></trkpt><trkpt lat="37.97676683533234" lon="14.987287008076848"><ele>1160.25</ele><time>2026-05-02T14:20:26.999Z</time></trkpt><trkpt lat="37.976799508858015" lon="14.987137552154705"><ele>1165.5</ele><time>2026-05-02T14:20:27.999Z</time></trkpt><trkpt lat="37.97682933784987" lon="14.986995638757683"><ele>1170.75</ele><time>2026-05-02T14:20:28.999Z</time></trkpt><trkpt lat="37.97684000175949" lon="14.98685731541137"><ele>1176.0</ele><time>2026-05-02T14:20:29.999Z</time></trkpt><trkpt lat="37.97683063887723" lon="14.986719046455702"><ele>1174.25</ele><time>2026-05-02T14:20:30.999Z</time></trkpt><trkpt lat="37.97679904365211" lon="14.986581787184667"><ele>1172.5</ele><time>2026-05-02T14:20:31.999Z</time></trkpt><trkpt lat="37.97675329773713" lon="14.986444995171967"><ele>1170.75</ele><time>2026-05-02T14:20:32.999Z</time></trkpt><trkpt lat="37.97669809293896" lon="14.98631446877571"><ele>1169.0</ele><time>2026-05-02T14:20:33.999Z</time></trkpt><trkpt lat="37.976644975129965" lon="14.986184416140606"><ele>1169.0</ele><time>2026-05-02T14:20:34.999Z</time></trkpt><trkpt lat="37.9766088615381" lon="14.986049119914519"><ele>1169.0</ele><time>2026-05-02T14:20:35.999Z</time></trkpt><trkpt lat="37.97658015734816" lon="14.985920265134991"><ele>1169.0</ele><time>2026-05-02T14:20:36.999Z</time></trkpt><trkpt lat="37.97657719079153" lon="14.98579846713494"><ele>1169.0</ele><time>2026-05-02T14:20:37.999Z</time></trkpt><trkpt lat="37.97659528864768" lon="14.985679176823428"><ele>1169.0</ele><time>2026-05-02T14:20:38.999Z</time></trkpt><trkpt lat="37.97663776688062" lon="14.985565236487998"><ele>1174.8</ele><time>2026-05-02T14:20:39.999Z</time></trkpt><trkpt lat="37.97669412503914" lon="14.985458331143809"><ele>1180.6000000000001</ele><time>2026-05-02T14:20:40.999Z</time></trkpt><trkpt lat="37.976768009402356" lon="14.985362309118665"><ele>1186.4</ele><time>2026-05-02T14:20:41.999Z</time></trkpt><trkpt lat="37.97684832492929" lon="14.98527663843154"><ele>1192.2</ele><time>2026-05-02T14:20:42.999Z</time></trkpt><trkpt lat="37.97694559283276" lon="14.985208584080695"><ele>1198.0</ele><time>2026-05-02T14:20:43.999Z</time></trkpt><trkpt lat="37.977061870945306" lon="14.985179194944536"><ele>1198.0</ele><time>2026-05-02T14:20:44.999Z</time></trkpt><trkpt lat="37.97717673785153" lon="14.985127829525863"><ele>1198.0</ele><time>2026-05-02T14:20:45.999Z</time></trkpt><trkpt lat="37.97728605267627" lon="14.985058633395706"><ele>1198.0</ele><time>2026-05-02T14:20:46.999Z</time></trkpt><trkpt lat="37.97740130809125" lon="14.985017481633454"><ele>1198.0</ele><time>2026-05-02T14:20:47.999Z</time></trkpt><trkpt lat="37.9775120162068" lon="14.984976182862455"><ele>1197.0</ele><time>2026-05-02T14:20:48.999Z</time></trkpt><trkpt lat="37.97761698026187" lon="14.984928238574764"><ele>1196.0</ele><time>2026-05-02T14:20:49.999Z</time></trkpt><trkpt lat="37.97772560231072" lon="14.98487582773126"><ele>1195.0</ele><time>2026-05-02T14:20:50.999Z</time></trkpt><trkpt lat="37.97783338255975" lon="14.98482476320406"><ele>1194.0</ele><time>2026-05-02T14:20:51.999Z</time></trkpt><trkpt lat="37.97794139500173" lon="14.984778906532451"><ele>1194.0</ele><time>2026-05-02T14:20:52.999Z</time></trkpt><trkpt lat="37.97803579977074" lon="14.984744471508929"><ele>1194.0</ele><time>2026-05-02T14:20:53.999Z</time></trkpt><trkpt lat="37.97811134120365" lon="14.98469952913159"><ele>1194.0</ele><time>2026-05-02T14:20:54.999Z</time></trkpt><trkpt lat="37.97816392482484" lon="14.984637312533213"><ele>1194.0</ele><time>2026-05-02T14:20:55.999Z</time></trkpt><trkpt lat="37.97817426635268" lon="14.984549559488716"><ele>1194.0</ele><time>2026-05-02T14:20:56.999Z</time></trkpt><trkpt lat="37.97817502135796" lon="14.98445304402339"><ele>1194.0</ele><time>2026-05-02T14:20:57.999Z</time></trkpt><trkpt lat="37.978145292609184" lon="14.984370837973836"><ele>1194.0</ele><time>2026-05-02T14:20:58.999Z</time></trkpt><trkpt lat="37.97808527198166" lon="14.984305427727524"><ele>1194.0</ele><time>2026-05-02T14:20:59.999Z</time></trkpt><trkpt lat="37.97800295090031" lon="14.98425423666019"><ele>1194.0</ele><time>2026-05-02T14:21:00.999Z</time></trkpt><trkpt lat="37.977908262220446" lon="14.984223698614198"><ele>1194.0</ele><time>2026-05-02T14:21:01.999Z</time></trkpt><trkpt lat="37.97780438543853" lon="14.984195161042813"><ele>1194.0</ele><time>2026-05-02T14:21:02.998Z</time></trkpt><trkpt lat="37.97769806261248" lon="14.984150654645298"><ele>1192.6000000000001</ele><time>2026-05-02T14:21:03.998Z</time></trkpt><trkpt lat="37.977596586605614" lon="14.984118295757995"><ele>1191.2</ele><time>2026-05-02T14:21:04.998Z</time></trkpt><trkpt lat="37.97751173459161" lon="14.98407040012736"><ele>1189.8000000000002</ele><time>2026-05-02T14:21:05.998Z</time></trkpt><trkpt lat="37.97745857667117" lon="14.98397849365994"><ele>1188.4</ele><time>2026-05-02T14:21:06.998Z</time></trkpt><trkpt lat="37.97738560575593" lon="14.983899495134457"><ele>1187.0</ele><time>2026-05-02T14:21:07.998Z</time></trkpt><trkpt lat="37.977327860818704" lon="14.983794802701812"><ele>1187.2</ele><time>2026-05-02T14:21:08.998Z</time></trkpt><trkpt lat="37.977273961778145" lon="14.983682427723883"><ele>1187.4</ele><time>2026-05-02T14:21:09.998Z</time></trkpt><trkpt lat="37.97722128688012" lon="14.983564175753118"><ele>1187.6</ele><time>2026-05-02T14:21:10.998Z</time></trkpt><trkpt lat="37.977165177981654" lon="14.98345232994223"><ele>1187.8</ele><time>2026-05-02T14:21:11.998Z</time></trkpt><trkpt lat="37.97714208965388" lon="14.983332581998004"><ele>1188.0</ele><time>2026-05-02T14:21:12.998Z</time></trkpt><trkpt lat="37.97715144161579" lon="14.983224625588354"><ele>1188.0</ele><time>2026-05-02T14:21:13.998Z</time></trkpt><trkpt lat="37.977189155298994" lon="14.983123297656665"><ele>1188.0</ele><time>2026-05-02T14:21:14.998Z</time></trkpt><trkpt lat="37.977249798253716" lon="14.983040723533492"><ele>1188.0</ele><time>2026-05-02T14:21:15.998Z</time></trkpt><trkpt lat="37.97732471263434" lon="14.982985209300812"><ele>1188.0</ele><time>2026-05-02T14:21:16.998Z</time></trkpt><trkpt lat="37.97741766370013" lon="14.982938729505229"><ele>1188.0</ele><time>2026-05-02T14:21:17.998Z</time></trkpt><trkpt lat="37.977518169707494" lon="14.982893175746083"><ele>1189.25</ele><time>2026-05-02T14:21:18.998Z</time></trkpt><trkpt lat="37.97762136247085" lon="14.982838504384581"><ele>1190.5</ele><time>2026-05-02T14:21:19.998Z</time></trkpt><trkpt lat="37.97773048819497" lon="14.982787180948359"><ele>1191.75</ele><time>2026-05-02T14:21:20.998Z</time></trkpt><trkpt lat="37.97783771276691" lon="14.982734124064837"><ele>1193.0</ele><time>2026-05-02T14:21:21.998Z</time></trkpt><trkpt lat="37.97793722423243" lon="14.982680867438823"><ele>1193.0</ele><time>2026-05-02T14:21:22.998Z</time></trkpt><trkpt lat="37.978025493401375" lon="14.98261703097831"><ele>1193.0</ele><time>2026-05-02T14:21:23.998Z</time></trkpt><trkpt lat="37.97811050419853" lon="14.982543338191517"><ele>1193.0</ele><time>2026-05-02T14:21:24.998Z</time></trkpt><trkpt lat="37.978180775377744" lon="14.982447481538335"><ele>1193.0</ele><time>2026-05-02T14:21:25.998Z</time></trkpt><trkpt lat="37.978231793354155" lon="14.982337320318672"><ele>1193.0</ele><time>2026-05-02T14:21:26.998Z</time></trkpt><trkpt lat="37.978267344876215" lon="14.982221109240623"><ele>1193.0</ele><time>2026-05-02T14:21:27.998Z</time></trkpt><trkpt lat="37.97831205286509" lon="14.98211676842454"><ele>1193.0</ele><time>2026-05-02T14:21:28.998Z</time></trkpt><trkpt lat="37.978308623282594" lon="14.982012015066124"><ele>1193.0</ele><time>2026-05-02T14:21:29.998Z</time></trkpt><trkpt lat="37.97831431404244" lon="14.981928606289548"><ele>1193.0</ele><time>2026-05-02T14:21:30.998Z</time></trkpt><trkpt lat="37.97825686229538" lon="14.981848269277405"><ele>1193.0</ele><time>2026-05-02T14:21:31.998Z</time></trkpt><trkpt lat="37.97819056842376" lon="14.981776021696634"><ele>1193.0</ele><time>2026-05-02T14:21:32.998Z</time></trkpt><trkpt lat="37.97810884412178" lon="14.981728063364182"><ele>1193.0</ele><time>2026-05-02T14:21:33.998Z</time></trkpt><trkpt lat="37.97801028427605" lon="14.981702504517834"><ele>1193.0</ele><time>2026-05-02T14:21:34.998Z</time></trkpt><trkpt lat="37.97792468105285" lon="14.981650058522659"><ele>1193.0</ele><time>2026-05-02T14:21:35.998Z</time></trkpt><trkpt lat="37.977832822589185" lon="14.981583628017006"><ele>1193.0</ele><time>2026-05-02T14:21:36.998Z</time></trkpt><trkpt lat="37.977764301022056" lon="14.981493407204095"><ele>1193.0</ele><time>2026-05-02T14:21:37.998Z</time></trkpt><trkpt lat="37.97768532470202" lon="14.981399990737696"><ele>1193.4</ele><time>2026-05-02T14:21:38.998Z</time></trkpt><trkpt lat="37.97761136485048" lon="14.981310469304624"><ele>1193.8</ele><time>2026-05-02T14:21:39.998Z</time></trkpt><trkpt lat="37.97754171523416" lon="14.981206884969243"><ele>1194.2</ele><time>2026-05-02T14:21:40.998Z</time></trkpt><trkpt lat="37.97748002870322" lon="14.981088708643497"><ele>1194.6</ele><time>2026-05-02T14:21:41.998Z</time></trkpt><trkpt lat="37.97743720271516" lon="14.980956545061026"><ele>1195.0</ele><time>2026-05-02T14:21:42.998Z</time></trkpt><trkpt lat="37.97740950776217" lon="14.980826111661736"><ele>1195.0</ele><time>2026-05-02T14:21:43.998Z</time></trkpt><trkpt lat="37.97740899169551" lon="14.980699227018324"><ele>1195.0</ele><time>2026-05-02T14:21:44.998Z</time></trkpt><trkpt lat="37.97743515413628" lon="14.98057814071256"><ele>1195.0</ele><time>2026-05-02T14:21:45.998Z</time></trkpt><trkpt lat="37.977485517722" lon="14.980459431518922"><ele>1195.0</ele><time>2026-05-02T14:21:46.997Z</time></trkpt><trkpt lat="37.977547357130284" lon="14.980340822979114"><ele>1195.0</ele><time>2026-05-02T14:21:47.997Z</time></trkpt><trkpt lat="37.97762640236333" lon="14.980224784535158"><ele>1199.25</ele><time>2026-05-02T14:21:49Z</time></trkpt><trkpt lat="37.97771733488655" lon="14.980117220153675"><ele>1203.5</ele><time>2026-05-02T14:21:50Z</time></trkpt><trkpt lat="37.97780988001377" lon="14.980014071005108"><ele>1207.75</ele><time>2026-05-02T14:21:51Z</time></trkpt><trkpt lat="37.97790082224838" lon="14.979918313512425"><ele>1212.0</ele><time>2026-05-02T14:21:52Z</time></trkpt><trkpt lat="37.97799059271716" lon="14.979840645739051"><ele>1212.0</ele><time>2026-05-02T14:21:53Z</time></trkpt><trkpt lat="37.97808336655139" lon="14.979786920153199"><ele>1212.0</ele><time>2026-05-02T14:21:54Z</time></trkpt><trkpt lat="37.97818828897962" lon="14.979756195591495"><ele>1212.0</ele><time>2026-05-02T14:21:55Z</time></trkpt><trkpt lat="37.978294003775744" lon="14.979738907591036"><ele>1212.0</ele><time>2026-05-02T14:21:56Z</time></trkpt><trkpt lat="37.97840278401729" lon="14.979730249843637"><ele>1212.0</ele><time>2026-05-02T14:21:57Z</time></trkpt><trkpt lat="37.97850132756095" lon="14.979721338567044"><ele>1213.0</ele><time>2026-05-02T14:21:58Z</time></trkpt><trkpt lat="37.97859596199938" lon="14.979719125839395"><ele>1214.0</ele><time>2026-05-02T14:21:59Z</time></trkpt><trkpt lat="37.97869525852529" lon="14.979697842697615"><ele>1215.0</ele><time>2026-05-02T14:22:00Z</time></trkpt><trkpt lat="37.97879147873873" lon="14.97967859858685"><ele>1216.0</ele><time>2026-05-02T14:22:01Z</time></trkpt><trkpt lat="37.97888372272962" lon="14.979650974752392"><ele>1217.0</ele><time>2026-05-02T14:22:02Z</time></trkpt><trkpt lat="37.978972887017186" lon="14.979614633980077"><ele>1217.0</ele><time>2026-05-02T14:22:03Z</time></trkpt><trkpt lat="37.97905824633419" lon="14.97956902581544"><ele>1217.0</ele><time>2026-05-02T14:22:04Z</time></trkpt><trkpt lat="37.97914498479509" lon="14.979517469000362"><ele>1217.0</ele><time>2026-05-02T14:22:05Z</time></trkpt><trkpt lat="37.9792299237645" lon="14.979468111474054"><ele>1217.0</ele><time>2026-05-02T14:22:06Z</time></trkpt><trkpt lat="37.97931570950686" lon="14.97942254233255"><ele>1217.0</ele><time>2026-05-02T14:22:07Z</time></trkpt><trkpt lat="37.97938994300643" lon="14.979391991733879"><ele>1220.6</ele><time>2026-05-02T14:22:08Z</time></trkpt><trkpt lat="37.979479803138084" lon="14.979399739490798"><ele>1224.2</ele><time>2026-05-02T14:22:09Z</time></trkpt><trkpt lat="37.979570730731496" lon="14.9793866662619"><ele>1227.8</ele><time>2026-05-02T14:22:10Z</time></trkpt><trkpt lat="37.979665454310506" lon="14.979400877550166"><ele>1231.4</ele><time>2026-05-02T14:22:11Z</time></trkpt><trkpt lat="37.979761276723785" lon="14.979396819202709"><ele>1235.0</ele><time>2026-05-02T14:22:12Z</time></trkpt><trkpt lat="37.97985136700517" lon="14.979352217599851"><ele>1235.0</ele><time>2026-05-02T14:22:13Z</time></trkpt><trkpt lat="37.97994068759048" lon="14.97928023047594"><ele>1235.0</ele><time>2026-05-02T14:22:14Z</time></trkpt><trkpt lat="37.9800241460075" lon="14.979197638413845"><ele>1235.0</ele><time>2026-05-02T14:22:15Z</time></trkpt><trkpt lat="37.98011556975197" lon="14.979125103452297"><ele>1235.0</ele><time>2026-05-02T14:22:16Z</time></trkpt><trkpt lat="37.9802257608197" lon="14.979085072374348"><ele>1235.0</ele><time>2026-05-02T14:22:17Z</time></trkpt><trkpt lat="37.980340246524555" lon="14.979055193540562"><ele>1234.75</ele><time>2026-05-02T14:22:18Z</time></trkpt><trkpt lat="37.98045899305484" lon="14.979039984943979"><ele>1234.5</ele><time>2026-05-02T14:22:19Z</time></trkpt><trkpt lat="37.98057957722793" lon="14.979025342666738"><ele>1234.25</ele><time>2026-05-02T14:22:20Z</time></trkpt><trkpt lat="37.98069523108987" lon="14.979008874545483"><ele>1234.0</ele><time>2026-05-02T14:22:20.999Z</time></trkpt><trkpt lat="37.980800551454955" lon="14.97896531134606"><ele>1235.6000000000001</ele><time>2026-05-02T14:22:21.999Z</time></trkpt><trkpt lat="37.980896250084186" lon="14.978943952003519"><ele>1237.2</ele><time>2026-05-02T14:22:22.999Z</time></trkpt><trkpt lat="37.98097827627469" lon="14.978880301752781"><ele>1238.8000000000002</ele><time>2026-05-02T14:22:23.999Z</time></trkpt><trkpt lat="37.98105633572672" lon="14.97878657572697"><ele>1240.4</ele><time>2026-05-02T14:22:24.999Z</time></trkpt><trkpt lat="37.98112810753326" lon="14.97868903070167"><ele>1242.0</ele><time>2026-05-02T14:22:25.999Z</time></trkpt><trkpt lat="37.981193726135956" lon="14.978575232362532"><ele>1242.0</ele><time>2026-05-02T14:22:26.999Z</time></trkpt><trkpt lat="37.98125742345721" lon="14.978458881585007"><ele>1242.0</ele><time>2026-05-02T14:22:27.999Z</time></trkpt><trkpt lat="37.98130355013441" lon="14.978356605141517"><ele>1242.0</ele><time>2026-05-02T14:22:28.999Z</time></trkpt><trkpt lat="37.981316582707265" lon="14.978234577460292"><ele>1242.0</ele><time>2026-05-02T14:22:29.999Z</time></trkpt><trkpt lat="37.98129419133627" lon="14.978099116459523"><ele>1242.0</ele><time>2026-05-02T14:22:30.999Z</time></trkpt><trkpt lat="37.9812609188225" lon="14.97796574277932"><ele>1240.0</ele><time>2026-05-02T14:22:31.999Z</time></trkpt><trkpt lat="37.981223840537076" lon="14.977841546912893"><ele>1238.0</ele><time>2026-05-02T14:22:32.999Z</time></trkpt><trkpt lat="37.981220184829745" lon="14.977737776868443"><ele>1236.0</ele><time>2026-05-02T14:22:33.999Z</time></trkpt><trkpt lat="37.98123608281369" lon="14.977656264358327"><ele>1234.0</ele><time>2026-05-02T14:22:34.999Z</time></trkpt><trkpt lat="37.98133728908981" lon="14.977628014419802"><ele>1232.0</ele><time>2026-05-02T14:22:36.999Z</time></trkpt><trkpt lat="37.981398878674426" lon="14.977686310200838"><ele>1230.0</ele><time>2026-05-02T14:22:37.999Z</time></trkpt><trkpt lat="37.98139442657846" lon="14.977796079402184"><ele>1230.0</ele><time>2026-05-02T14:22:38.999Z</time></trkpt><trkpt lat="37.98142528790094" lon="14.977904440919534"><ele>1230.0</ele><time>2026-05-02T14:22:39.999Z</time></trkpt><trkpt lat="37.98146191661027" lon="14.978043783859833"><ele>1230.0</ele><time>2026-05-02T14:22:40.999Z</time></trkpt><trkpt lat="37.98150122583856" lon="14.978193324556216"><ele>1230.0</ele><time>2026-05-02T14:22:41.999Z</time></trkpt><trkpt lat="37.98153711399592" lon="14.978327966721999"><ele>1230.0</ele><time>2026-05-02T14:22:42.999Z</time></trkpt><trkpt lat="37.98158621904344" lon="14.978449683158779"><ele>1229.5</ele><time>2026-05-02T14:22:43.999Z</time></trkpt><trkpt lat="37.98161340121273" lon="14.97859914630908"><ele>1229.0</ele><time>2026-05-02T14:22:44.999Z</time></trkpt><trkpt lat="37.981651463701425" lon="14.978740595560765"><ele>1228.5</ele><time>2026-05-02T14:22:45.999Z</time></trkpt><trkpt lat="37.98169125133082" lon="14.978880372783358"><ele>1228.0</ele><time>2026-05-02T14:22:46.999Z</time></trkpt><trkpt lat="37.98172923432029" lon="14.979016782893499"><ele>1228.0</ele><time>2026-05-02T14:22:47.999Z</time></trkpt><trkpt lat="37.98176547390202" lon="14.979154773448936"><ele>1228.0</ele><time>2026-05-02T14:22:48.999Z</time></trkpt><trkpt lat="37.981807406083405" lon="14.979283368253608"><ele>1228.0</ele><time>2026-05-02T14:22:49.999Z</time></trkpt><trkpt lat="37.98185003595309" lon="14.979412847564726"><ele>1228.0</ele><time>2026-05-02T14:22:50.999Z</time></trkpt><trkpt lat="37.98189426273318" lon="14.979541050607887"><ele>1228.0</ele><time>2026-05-02T14:22:51.999Z</time></trkpt><trkpt lat="37.981933502564" lon="14.979663805988315"><ele>1231.25</ele><time>2026-05-02T14:22:52.999Z</time></trkpt><trkpt lat="37.98197619423726" lon="14.979799044714248"><ele>1234.5</ele><time>2026-05-02T14:22:53.999Z</time></trkpt><trkpt lat="37.98200763820406" lon="14.979936980739893"><ele>1237.75</ele><time>2026-05-02T14:22:54.999Z</time></trkpt><trkpt lat="37.9820467112745" lon="14.980072066112323"><ele>1241.0</ele><time>2026-05-02T14:22:55.999Z</time></trkpt><trkpt lat="37.9820475718973" lon="14.980209366855442"><ele>1242.6</ele><time>2026-05-02T14:22:56.999Z</time></trkpt><trkpt lat="37.98203264635791" lon="14.980339805151797"><ele>1244.1999999999998</ele><time>2026-05-02T14:22:57.999Z</time></trkpt><trkpt lat="37.98202082044706" lon="14.980474735125668"><ele>1245.8000000000002</ele><time>2026-05-02T14:22:58.999Z</time></trkpt><trkpt lat="37.98202497628639" lon="14.980599749331908"><ele>1247.4</ele><time>2026-05-02T14:22:59.999Z</time></trkpt><trkpt lat="37.98204570271614" lon="14.980722028614734"><ele>1249.0</ele><time>2026-05-02T14:23:00.999Z</time></trkpt><trkpt lat="37.98209368687792" lon="14.980829993274087"><ele>1250.8333333333333</ele><time>2026-05-02T14:23:01.999Z</time></trkpt><trkpt lat="37.98215100860858" lon="14.98091640874716"><ele>1252.6666666666665</ele><time>2026-05-02T14:23:02.999Z</time></trkpt><trkpt lat="37.982203835505814" lon="14.980979168617276"><ele>1254.5</ele><time>2026-05-02T14:23:03.999Z</time></trkpt><trkpt lat="37.982272099715" lon="14.981030445984459"><ele>1256.3333333333333</ele><time>2026-05-02T14:23:05.999Z</time></trkpt><trkpt lat="37.98232933284569" lon="14.981112381887385"><ele>1258.1666666666667</ele><time>2026-05-02T14:23:11.998Z</time></trkpt><trkpt lat="37.98240207528933" lon="14.981200871892076"><ele>1260.0</ele><time>2026-05-02T14:23:13.998Z</time></trkpt><trkpt lat="37.98254093030746" lon="14.981076076380004"><ele>1259.4</ele><time>2026-05-02T14:23:14.998Z</time></trkpt><trkpt lat="37.98264513956961" lon="14.98098993359082"><ele>1258.8</ele><time>2026-05-02T14:23:16.998Z</time></trkpt><trkpt lat="37.982709036727776" lon="14.980926149711912"><ele>1258.2</ele><time>2026-05-02T14:23:17.998Z</time></trkpt><trkpt lat="37.982780043736305" lon="14.980858668493909"><ele>1257.6</ele><time>2026-05-02T14:23:18.998Z</time></trkpt><trkpt lat="37.98285887005989" lon="14.980784393367262"><ele>1257.0</ele><time>2026-05-02T14:23:19.998Z</time></trkpt><trkpt lat="37.982942856217875" lon="14.980703227503081"><ele>1257.0</ele><time>2026-05-02T14:23:20.998Z</time></trkpt><trkpt lat="37.9830285473717" lon="14.98061312177055"><ele>1257.0</ele><time>2026-05-02T14:23:21.998Z</time></trkpt><trkpt lat="37.98311886542219" lon="14.980525578814394"><ele>1257.0</ele><time>2026-05-02T14:23:22.998Z</time></trkpt><trkpt lat="37.983207943918785" lon="14.980439616099321"><ele>1257.0</ele><time>2026-05-02T14:23:23.998Z</time></trkpt><trkpt lat="37.98329938264901" lon="14.980363392102914"><ele>1257.0</ele><time>2026-05-02T14:23:24.998Z</time></trkpt><trkpt lat="37.98338555566996" lon="14.980277622497184"><ele>1257.25</ele><time>2026-05-02T14:23:25.998Z</time></trkpt><trkpt lat="37.983464648908736" lon="14.9801776604825"><ele>1257.5</ele><time>2026-05-02T14:23:26.998Z</time></trkpt><trkpt lat="37.98353228801036" lon="14.980058017028623"><ele>1257.75</ele><time>2026-05-02T14:23:27.998Z</time></trkpt><trkpt lat="37.98358678041345" lon="14.979927775304"><ele>1258.0</ele><time>2026-05-02T14:23:28.998Z</time></trkpt><trkpt lat="37.98363394504616" lon="14.979786525251422"><ele>1258.0</ele><time>2026-05-02T14:23:29.998Z</time></trkpt><trkpt lat="37.983686248135335" lon="14.9796409473284"><ele>1258.0</ele><time>2026-05-02T14:23:30.998Z</time></trkpt><trkpt lat="37.98374936656537" lon="14.97949962533176"><ele>1258.0</ele><time>2026-05-02T14:23:31.998Z</time></trkpt><trkpt lat="37.9838324804448" lon="14.97936750847041"><ele>1258.0</ele><time>2026-05-02T14:23:32.998Z</time></trkpt><trkpt lat="37.983929032078024" lon="14.979244815045963"><ele>1258.6</ele><time>2026-05-02T14:23:33.998Z</time></trkpt><trkpt lat="37.984037433853054" lon="14.979127942686459"><ele>1259.1999999999998</ele><time>2026-05-02T14:23:34.998Z</time></trkpt><trkpt lat="37.984133933560585" lon="14.979035369702096"><ele>1259.8</ele><time>2026-05-02T14:23:35.998Z</time></trkpt><trkpt lat="37.98421089844819" lon="14.978955817800177"><ele>1260.3999999999999</ele><time>2026-05-02T14:23:36.998Z</time></trkpt><trkpt lat="37.98427839590701" lon="14.978892315208098"><ele>1261.0</ele><time>2026-05-02T14:23:37.998Z</time></trkpt><trkpt lat="37.98434044493728" lon="14.978832288920968"><ele>1261.0</ele><time>2026-05-02T14:23:38.998Z</time></trkpt><trkpt lat="37.98439539945944" lon="14.978777938859055"><ele>1261.0</ele><time>2026-05-02T14:23:39.998Z</time></trkpt><trkpt lat="37.98446036208997" lon="14.978711543315905"><ele>1261.0</ele><time>2026-05-02T14:23:41.998Z</time></trkpt><trkpt lat="37.984509077121814" lon="14.978660831019742"><ele>1261.0</ele><time>2026-05-02T14:23:46.998Z</time></trkpt><trkpt lat="37.98457582163615" lon="14.97858190263568"><ele>1261.0</ele><time>2026-05-02T14:23:48.998Z</time></trkpt><trkpt lat="37.98462685777561" lon="14.978522469213376"><ele>1261.0</ele><time>2026-05-02T14:23:49.998Z</time></trkpt><trkpt lat="37.984684891760104" lon="14.97845264014668"><ele>1261.0</ele><time>2026-05-02T14:23:50.998Z</time></trkpt><trkpt lat="37.98473974694597" lon="14.978361778941624"><ele>1261.0</ele><time>2026-05-02T14:23:51.997Z</time></trkpt><trkpt lat="37.984794032663565" lon="14.978258788352631"><ele>1261.0</ele><time>2026-05-02T14:23:52.997Z</time></trkpt><trkpt lat="37.984843893001795" lon="14.978139431557095"><ele>1261.0</ele><time>2026-05-02T14:23:53.997Z</time></trkpt><trkpt lat="37.98489402796043" lon="14.978009280399055"><ele>1261.0</ele><time>2026-05-02T14:23:55Z</time></trkpt><trkpt lat="37.9849462780035" lon="14.97787188264477"><ele>1261.25</ele><time>2026-05-02T14:23:56Z</time></trkpt><trkpt lat="37.98500336482558" lon="14.977734465496072"><ele>1261.5</ele><time>2026-05-02T14:23:57Z</time></trkpt><trkpt lat="37.98506084481928" lon="14.977586541809774"><ele>1261.75</ele><time>2026-05-02T14:23:58Z</time></trkpt><trkpt lat="37.98511660665011" lon="14.977432928677626"><ele>1262.0</ele><time>2026-05-02T14:23:59Z</time></trkpt><trkpt lat="37.985175276960526" lon="14.97728162284868"><ele>1261.25</ele><time>2026-05-02T14:24:00Z</time></trkpt><trkpt lat="37.98523618135039" lon="14.977128299341643"><ele>1260.5</ele><time>2026-05-02T14:24:01Z</time></trkpt><trkpt lat="37.985297410290855" lon="14.976970474147837"><ele>1259.75</ele><time>2026-05-02T14:24:02Z</time></trkpt><trkpt lat="37.98535905791261" lon="14.976806504480736"><ele>1259.0</ele><time>2026-05-02T14:24:03Z</time></trkpt><trkpt lat="37.98542214722401" lon="14.976638126957258"><ele>1257.25</ele><time>2026-05-02T14:24:04Z</time></trkpt><trkpt lat="37.98548755999981" lon="14.976467785047289"><ele>1255.5</ele><time>2026-05-02T14:24:05Z</time></trkpt><trkpt lat="37.98554817310304" lon="14.976297836832176"><ele>1253.75</ele><time>2026-05-02T14:24:06Z</time></trkpt><trkpt lat="37.98560617566875" lon="14.976136156690536"><ele>1252.0</ele><time>2026-05-02T14:24:07Z</time></trkpt><trkpt lat="37.98566523864594" lon="14.9759926180714"><ele>1252.0</ele><time>2026-05-02T14:24:08Z</time></trkpt><trkpt lat="37.98571817577741" lon="14.9758569357059"><ele>1252.0</ele><time>2026-05-02T14:24:09Z</time></trkpt><trkpt lat="37.98577025923628" lon="14.975732666609737"><ele>1252.0</ele><time>2026-05-02T14:24:10Z</time></trkpt><trkpt lat="37.9858128782864" lon="14.975624287239588"><ele>1252.0</ele><time>2026-05-02T14:24:11Z</time></trkpt><trkpt lat="37.98585109923939" lon="14.97552733043504"><ele>1252.0</ele><time>2026-05-02T14:24:12Z</time></trkpt><trkpt lat="37.98588712364027" lon="14.975439966206334"><ele>1250.4</ele><time>2026-05-02T14:24:13Z</time></trkpt><trkpt lat="37.98592104056108" lon="14.975358038623172"><ele>1248.8000000000002</ele><time>2026-05-02T14:24:14Z</time></trkpt><trkpt lat="37.985949186041864" lon="14.975283813844507"><ele>1247.2</ele><time>2026-05-02T14:24:15Z</time></trkpt><trkpt lat="37.98599787392325" lon="14.975158883871782"><ele>1245.6000000000001</ele><time>2026-05-02T14:24:17Z</time></trkpt><trkpt lat="37.98603702465329" lon="14.975033566030636"><ele>1244.0</ele><time>2026-05-02T14:24:19Z</time></trkpt><trkpt lat="37.98607443585193" lon="14.974915412336602"><ele>1242.1666666666667</ele><time>2026-05-02T14:24:21Z</time></trkpt><trkpt lat="37.98617541088581" lon="14.974840991186534"><ele>1240.3333333333335</ele><time>2026-05-02T14:24:24Z</time></trkpt><trkpt lat="37.98624709469584" lon="14.974823697586501"><ele>1238.5</ele><time>2026-05-02T14:24:26Z</time></trkpt><trkpt lat="37.98630926977125" lon="14.974808009582622"><ele>1236.6666666666667</ele><time>2026-05-02T14:24:27.999Z</time></trkpt><trkpt lat="37.98637524319364" lon="14.974791650511172"><ele>1234.8333333333333</ele><time>2026-05-02T14:55:34Z</time></trkpt><trkpt lat="37.986319060949064" lon="14.97474179233213"><ele>1233.0</ele><time>2026-05-02T14:57:15.998Z</time></trkpt><trkpt lat="37.98624835894697" lon="14.974763934619705"><ele>1233.0</ele><time>2026-05-02T14:57:21.998Z</time></trkpt><trkpt lat="37.986182497296696" lon="14.974772732857305"><ele>1233.0</ele><time>2026-05-02T14:57:25.998Z</time></trkpt><trkpt lat="37.986113230304134" lon="14.974771173956935"><ele>1233.0</ele><time>2026-05-02T14:57:32Z</time></trkpt><trkpt lat="37.98605309729992" lon="14.974822697918897"><ele>1233.0</ele><time>2026-05-02T14:57:43Z</time></trkpt><trkpt lat="37.98602085487749" lon="14.974894744338512"><ele>1233.0</ele><time>2026-05-02T14:57:45Z</time></trkpt><trkpt lat="37.98600103527563" lon="14.975009397637658"><ele>1233.0</ele><time>2026-05-02T14:57:47Z</time></trkpt><trkpt lat="37.98596919098879" lon="14.975139295022585"><ele>1234.8333333333333</ele><time>2026-05-02T14:57:49Z</time></trkpt><trkpt lat="37.98592490642929" lon="14.975209821139712"><ele>1236.6666666666667</ele><time>2026-05-02T14:57:50Z</time></trkpt><trkpt lat="37.98590941271575" lon="14.975306589522985"><ele>1238.5</ele><time>2026-05-02T14:57:51Z</time></trkpt><trkpt lat="37.98587724674828" lon="14.975391103266006"><ele>1240.3333333333335</ele><time>2026-05-02T14:57:52Z</time></trkpt><trkpt lat="37.98583993070868" lon="14.975482085998133"><ele>1242.1666666666667</ele><time>2026-05-02T14:57:53Z</time></trkpt><trkpt lat="37.98580235959078" lon="14.975578688646266"><ele>1244.0</ele><time>2026-05-02T14:57:54Z</time></trkpt><trkpt lat="37.98576518251189" lon="14.975682663271161"><ele>1244.0</ele><time>2026-05-02T14:57:55Z</time></trkpt><trkpt lat="37.98572404495991" lon="14.975789793007689"><ele>1244.0</ele><time>2026-05-02T14:57:56Z</time></trkpt><trkpt lat="37.98565857437696" lon="14.97588683396782"><ele>1244.0</ele><time>2026-05-02T14:57:57Z</time></trkpt><trkpt lat="37.98561341674889" lon="14.97600440318888"><ele>1244.0</ele><time>2026-05-02T14:57:58Z</time></trkpt><trkpt lat="37.98558714415288" lon="14.976144674739693"><ele>1244.0</ele><time>2026-05-02T14:57:59Z</time></trkpt><trkpt lat="37.98553685003002" lon="14.976272046393156"><ele>1246.0</ele><time>2026-05-02T14:58:00Z</time></trkpt><trkpt lat="37.98548724016944" lon="14.97639966315459"><ele>1248.0</ele><time>2026-05-02T14:58:01Z</time></trkpt><trkpt lat="37.98543526214061" lon="14.976530850879165"><ele>1250.0</ele><time>2026-05-02T14:58:02Z</time></trkpt><trkpt lat="37.985364815546895" lon="14.976651643678863"><ele>1252.0</ele><time>2026-05-02T14:58:03Z</time></trkpt><trkpt lat="37.9853136876439" lon="14.976784756664118"><ele>1253.75</ele><time>2026-05-02T14:58:04Z</time></trkpt><trkpt lat="37.98526232516294" lon="14.976917675603376"><ele>1255.5</ele><time>2026-05-02T14:58:05Z</time></trkpt><trkpt lat="37.9852107767783" lon="14.977049989326614"><ele>1257.25</ele><time>2026-05-02T14:58:06Z</time></trkpt><trkpt lat="37.985159542304594" lon="14.977181497305113"><ele>1259.0</ele><time>2026-05-02T14:58:07Z</time></trkpt><trkpt lat="37.9851081673976" lon="14.977315046263687"><ele>1259.0</ele><time>2026-05-02T14:58:08Z</time></trkpt><trkpt lat="37.985055914496776" lon="14.977451506431462"><ele>1259.0</ele><time>2026-05-02T14:58:09Z</time></trkpt><trkpt lat="37.98500252146324" lon="14.97759094408766"><ele>1259.0</ele><time>2026-05-02T14:58:10Z</time></trkpt><trkpt lat="37.98494947282422" lon="14.977729482318693"><ele>1259.0</ele><time>2026-05-02T14:58:11Z</time></trkpt><trkpt lat="37.984898106981795" lon="14.977867064391466"><ele>1259.5</ele><time>2026-05-02T14:58:12Z</time></trkpt><trkpt lat="37.98484666952724" lon="14.978004942593337"><ele>1260.0</ele><time>2026-05-02T14:58:13Z</time></trkpt><trkpt lat="37.98479986133562" lon="14.97814207563579"><ele>1260.5</ele><time>2026-05-02T14:58:14Z</time></trkpt><trkpt lat="37.984745464450725" lon="14.978276693542702"><ele>1261.0</ele><time>2026-05-02T14:58:15Z</time></trkpt><trkpt lat="37.98466456690731" lon="14.978385194626554"><ele>1261.0</ele><time>2026-05-02T14:58:16Z</time></trkpt><trkpt lat="37.98457957052819" lon="14.978490606607032"><ele>1261.0</ele><time>2026-05-02T14:58:17Z</time></trkpt><trkpt lat="37.98448661933389" lon="14.978593122653107"><ele>1261.0</ele><time>2026-05-02T14:58:18Z</time></trkpt><trkpt lat="37.98439091037567" lon="14.978695088214502"><ele>1261.0</ele><time>2026-05-02T14:58:19Z</time></trkpt><trkpt lat="37.98429290370131" lon="14.978794060632442"><ele>1261.0</ele><time>2026-05-02T14:58:20Z</time></trkpt><trkpt lat="37.984197634214" lon="14.97889026893557"><ele>1261.0</ele><time>2026-05-02T14:58:20.999Z</time></trkpt><trkpt lat="37.98409954745647" lon="14.978991233785846"><ele>1261.0</ele><time>2026-05-02T14:58:21.999Z</time></trkpt><trkpt lat="37.98400557689301" lon="14.979089536214014"><ele>1261.0</ele><time>2026-05-02T14:58:22.999Z</time></trkpt><trkpt lat="37.983919678443776" lon="14.97920701461214"><ele>1260.25</ele><time>2026-05-02T14:58:23.999Z</time></trkpt><trkpt lat="37.983813499642174" lon="14.979296688948244"><ele>1259.5</ele><time>2026-05-02T14:58:24.999Z</time></trkpt><trkpt lat="37.98372962958551" lon="14.979422766135674"><ele>1258.75</ele><time>2026-05-02T14:58:25.999Z</time></trkpt><trkpt lat="37.98366394941517" lon="14.979554710696547"><ele>1258.0</ele><time>2026-05-02T14:58:26.999Z</time></trkpt><trkpt lat="37.98360583071022" lon="14.979697577293686"><ele>1258.0</ele><time>2026-05-02T14:58:27.999Z</time></trkpt><trkpt lat="37.98356009012818" lon="14.979848430487872"><ele>1258.0</ele><time>2026-05-02T14:58:28.999Z</time></trkpt><trkpt lat="37.98352215249994" lon="14.979999506868761"><ele>1258.0</ele><time>2026-05-02T14:58:29.999Z</time></trkpt><trkpt lat="37.983447970106425" lon="14.980136820132325"><ele>1258.0</ele><time>2026-05-02T14:58:30.999Z</time></trkpt><trkpt lat="37.983346833229604" lon="14.980239820612384"><ele>1257.75</ele><time>2026-05-02T14:58:31.999Z</time></trkpt><trkpt lat="37.98324587718323" lon="14.980343567210648"><ele>1257.5</ele><time>2026-05-02T14:58:32.999Z</time></trkpt><trkpt lat="37.983138893110066" lon="14.980441049385368"><ele>1257.25</ele><time>2026-05-02T14:58:33.999Z</time></trkpt><trkpt lat="37.98303031245771" lon="14.980541630734077"><ele>1257.0</ele><time>2026-05-02T14:58:34.999Z</time></trkpt><trkpt lat="37.98292207308822" lon="14.980647778186517"><ele>1257.0</ele><time>2026-05-02T14:58:35.999Z</time></trkpt><trkpt lat="37.982814029583224" lon="14.980753993597315"><ele>1257.0</ele><time>2026-05-02T14:58:36.999Z</time></trkpt><trkpt lat="37.9827142101851" lon="14.980873271219773"><ele>1257.0</ele><time>2026-05-02T14:58:37.999Z</time></trkpt><trkpt lat="37.98260442610065" lon="14.980966422243343"><ele>1257.0</ele><time>2026-05-02T14:58:38.999Z</time></trkpt><trkpt lat="37.98249997467146" lon="14.981061928716748"><ele>1257.75</ele><time>2026-05-02T14:58:39.999Z</time></trkpt><trkpt lat="37.982397886195564" lon="14.98115184757569"><ele>1258.5</ele><time>2026-05-02T14:58:40.999Z</time></trkpt><trkpt lat="37.98231213395296" lon="14.981272398601574"><ele>1259.25</ele><time>2026-05-02T14:58:41.999Z</time></trkpt><trkpt lat="37.982245294728294" lon="14.981409115789967"><ele>1260.0</ele><time>2026-05-02T14:58:42.999Z</time></trkpt><trkpt lat="37.98219494473651" lon="14.981553907392499"><ele>1260.25</ele><time>2026-05-02T14:58:43.999Z</time></trkpt><trkpt lat="37.98217000051514" lon="14.981710735293483"><ele>1260.5</ele><time>2026-05-02T14:58:44.999Z</time></trkpt><trkpt lat="37.98214103531541" lon="14.981855789137054"><ele>1260.75</ele><time>2026-05-02T14:58:45.999Z</time></trkpt><trkpt lat="37.982110237125404" lon="14.981986147386165"><ele>1261.0</ele><time>2026-05-02T14:58:46.999Z</time></trkpt><trkpt lat="37.982139625885246" lon="14.982111939335828"><ele>1261.0</ele><time>2026-05-02T14:58:47.999Z</time></trkpt><trkpt lat="37.98217491327861" lon="14.982222100285737"><ele>1261.0</ele><time>2026-05-02T14:58:48.999Z</time></trkpt><trkpt lat="37.982226907541" lon="14.982327137265333"><ele>1261.0</ele><time>2026-05-02T14:58:49.999Z</time></trkpt><trkpt lat="37.98229300272906" lon="14.982423833197108"><ele>1261.0</ele><time>2026-05-02T14:58:50.999Z</time></trkpt><trkpt lat="37.98236068174172" lon="14.982524008044681"><ele>1261.0</ele><time>2026-05-02T14:58:51.999Z</time></trkpt><trkpt lat="37.98241524854314" lon="14.982642184608059"><ele>1260.5</ele><time>2026-05-02T14:58:52.999Z</time></trkpt><trkpt lat="37.98245411928992" lon="14.982778582335927"><ele>1260.0</ele><time>2026-05-02T14:58:53.999Z</time></trkpt><trkpt lat="37.98246793622687" lon="14.982925627807196"><ele>1259.5</ele><time>2026-05-02T14:58:54.999Z</time></trkpt><trkpt lat="37.982465369507814" lon="14.983076442061677"><ele>1259.0</ele><time>2026-05-02T14:58:55.999Z</time></trkpt><trkpt lat="37.98245217194022" lon="14.983229127507752"><ele>1259.25</ele><time>2026-05-02T14:58:56.999Z</time></trkpt><trkpt lat="37.98243459290252" lon="14.983384130317942"><ele>1259.5</ele><time>2026-05-02T14:58:57.999Z</time></trkpt><trkpt lat="37.98241467768719" lon="14.983538246273636"><ele>1259.75</ele><time>2026-05-02T14:58:58.999Z</time></trkpt><trkpt lat="37.982391504921154" lon="14.98369114867358"><ele>1260.0</ele><time>2026-05-02T14:58:59.999Z</time></trkpt><trkpt lat="37.98236172122333" lon="14.983844189027081"><ele>1260.0</ele><time>2026-05-02T14:59:00.999Z</time></trkpt><trkpt lat="37.9823330815287" lon="14.983997667663832"><ele>1260.0</ele><time>2026-05-02T14:59:01.999Z</time></trkpt><trkpt lat="37.98230592691454" lon="14.984156586617535"><ele>1260.0</ele><time>2026-05-02T14:59:02.999Z</time></trkpt><trkpt lat="37.98227310863777" lon="14.98431321376055"><ele>1260.0</ele><time>2026-05-02T14:59:03.999Z</time></trkpt><trkpt lat="37.982250716310205" lon="14.984476437962483"><ele>1260.0</ele><time>2026-05-02T14:59:04.999Z</time></trkpt><trkpt lat="37.982233064760514" lon="14.984637331928566"><ele>1260.0</ele><time>2026-05-02T14:59:05.999Z</time></trkpt><trkpt lat="37.98221779171248" lon="14.984790149945201"><ele>1260.0</ele><time>2026-05-02T14:59:06.999Z</time></trkpt><trkpt lat="37.98220430639829" lon="14.984941165030047"><ele>1260.0</ele><time>2026-05-02T14:59:07.999Z</time></trkpt><trkpt lat="37.98219277100244" lon="14.985085112706452"><ele>1258.4</ele><time>2026-05-02T14:59:08.998Z</time></trkpt><trkpt lat="37.982194787593606" lon="14.98522322107011"><ele>1256.8</ele><time>2026-05-02T14:59:09.998Z</time></trkpt><trkpt lat="37.98221661093707" lon="14.985355993889694"><ele>1255.2</ele><time>2026-05-02T14:59:10.998Z</time></trkpt><trkpt lat="37.98225757822337" lon="14.985482166379969"><ele>1253.6</ele><time>2026-05-02T14:59:11.998Z</time></trkpt><trkpt lat="37.982309842302584" lon="14.985607345615922"><ele>1252.0</ele><time>2026-05-02T14:59:12.998Z</time></trkpt><trkpt lat="37.982375778931036" lon="14.985727975180751"><ele>1249.75</ele><time>2026-05-02T14:59:13.998Z</time></trkpt><trkpt lat="37.98244267397323" lon="14.985849304356575"><ele>1247.5</ele><time>2026-05-02T14:59:14.998Z</time></trkpt><trkpt lat="37.98251106582642" lon="14.985972103016477"><ele>1245.25</ele><time>2026-05-02T14:59:15.998Z</time></trkpt><trkpt lat="37.982588103479145" lon="14.98608250478895"><ele>1243.0</ele><time>2026-05-02T14:59:16.998Z</time></trkpt><trkpt lat="37.98267461443172" lon="14.98617420975416"><ele>1243.0</ele><time>2026-05-02T14:59:17.998Z</time></trkpt><trkpt lat="37.98277337004922" lon="14.986242941839539"><ele>1243.0</ele><time>2026-05-02T14:59:18.998Z</time></trkpt><trkpt lat="37.982883498231544" lon="14.986297745980753"><ele>1243.0</ele><time>2026-05-02T14:59:19.998Z</time></trkpt><trkpt lat="37.982995323053935" lon="14.986359480847854"><ele>1243.0</ele><time>2026-05-02T14:59:20.998Z</time></trkpt><trkpt lat="37.98311220851343" lon="14.986413378888336"><ele>1243.0</ele><time>2026-05-02T14:59:21.998Z</time></trkpt><trkpt lat="37.983232454072166" lon="14.986467775176553"><ele>1243.0</ele><time>2026-05-02T14:59:22.998Z</time></trkpt><trkpt lat="37.98335522666162" lon="14.98651900294592"><ele>1243.0</ele><time>2026-05-02T14:59:23.998Z</time></trkpt><trkpt lat="37.98347801148706" lon="14.986572105357663"><ele>1243.0</ele><time>2026-05-02T14:59:24.998Z</time></trkpt><trkpt lat="37.98359353625539" lon="14.986629694639866"><ele>1241.0</ele><time>2026-05-02T14:59:25.998Z</time></trkpt><trkpt lat="37.98370296890538" lon="14.986707806680572"><ele>1239.0</ele><time>2026-05-02T14:59:26.998Z</time></trkpt><trkpt lat="37.98380444861623" lon="14.986809306503842"><ele>1237.0</ele><time>2026-05-02T14:59:27.998Z</time></trkpt><trkpt lat="37.983896859934184" lon="14.986928351862572"><ele>1235.0</ele><time>2026-05-02T14:59:28.998Z</time></trkpt><trkpt lat="37.98396422967669" lon="14.987081382468515"><ele>1235.0</ele><time>2026-05-02T14:59:29.998Z</time></trkpt><trkpt lat="37.9840497103252" lon="14.987224110598158"><ele>1235.0</ele><time>2026-05-02T14:59:30.998Z</time></trkpt><trkpt lat="37.98414712080909" lon="14.987363514299066"><ele>1235.0</ele><time>2026-05-02T14:59:31.998Z</time></trkpt><trkpt lat="37.98423242556662" lon="14.987519126994503"><ele>1235.0</ele><time>2026-05-02T14:59:32.998Z</time></trkpt><trkpt lat="37.984321836933475" lon="14.987679061738929"><ele>1236.0</ele><time>2026-05-02T14:59:33.998Z</time></trkpt><trkpt lat="37.98441563058038" lon="14.987833560040961"><ele>1237.0</ele><time>2026-05-02T14:59:34.998Z</time></trkpt><trkpt lat="37.98450537676766" lon="14.987990847689643"><ele>1238.0</ele><time>2026-05-02T14:59:35.998Z</time></trkpt><trkpt lat="37.984602479440895" lon="14.988155774381172"><ele>1238.0</ele><time>2026-05-02T14:59:37.001Z</time></trkpt><trkpt lat="37.984698478545724" lon="14.988315058134472"><ele>1238.0</ele><time>2026-05-02T14:59:38.001Z</time></trkpt><trkpt lat="37.98479146569173" lon="14.988467750533243"><ele>1238.0</ele><time>2026-05-02T14:59:39.001Z</time></trkpt><trkpt lat="37.984869216436906" lon="14.988627630037966"><ele>1239.0</ele><time>2026-05-02T14:59:40.001Z</time></trkpt><trkpt lat="37.98497228233622" lon="14.988761997319987"><ele>1240.0</ele><time>2026-05-02T14:59:41.001Z</time></trkpt><trkpt lat="37.98505503934849" lon="14.98890241057814"><ele>1241.0</ele><time>2026-05-02T14:59:42Z</time></trkpt><trkpt lat="37.985132877751184" lon="14.989035652521606"><ele>1242.0</ele><time>2026-05-02T14:59:43Z</time></trkpt><trkpt lat="37.98520946521606" lon="14.98916714252036"><ele>1241.25</ele><time>2026-05-02T14:59:44Z</time></trkpt><trkpt lat="37.98527948075734" lon="14.98929701147352"><ele>1240.5</ele><time>2026-05-02T14:59:45Z</time></trkpt><trkpt lat="37.98533170271955" lon="14.989428736986524"><ele>1239.75</ele><time>2026-05-02T14:59:46Z</time></trkpt><trkpt lat="37.98536134339537" lon="14.989566241596435"><ele>1239.0</ele><time>2026-05-02T14:59:47Z</time></trkpt><trkpt lat="37.98535182922827" lon="14.989707067577742"><ele>1239.0</ele><time>2026-05-02T14:59:48Z</time></trkpt><trkpt lat="37.98533976065377" lon="14.989848835755781"><ele>1239.0</ele><time>2026-05-02T14:59:49Z</time></trkpt><trkpt lat="37.98531293999943" lon="14.989996812820825"><ele>1239.0</ele><time>2026-05-02T14:59:50Z</time></trkpt><trkpt lat="37.98528270891167" lon="14.990145358026309"><ele>1239.0</ele><time>2026-05-02T14:59:51Z</time></trkpt><trkpt lat="37.98525083412067" lon="14.990301979622757"><ele>1237.5</ele><time>2026-05-02T14:59:52Z</time></trkpt><trkpt lat="37.98523402834372" lon="14.99046497499835"><ele>1236.0</ele><time>2026-05-02T14:59:53Z</time></trkpt><trkpt lat="37.98519752028329" lon="14.99061000847458"><ele>1234.5</ele><time>2026-05-02T14:59:54Z</time></trkpt><trkpt lat="37.98517034170836" lon="14.99074642134621"><ele>1233.0</ele><time>2026-05-02T14:59:55Z</time></trkpt><trkpt lat="37.98515746667617" lon="14.990883420820136"><ele>1231.2</ele><time>2026-05-02T14:59:56Z</time></trkpt><trkpt lat="37.985164072539135" lon="14.991017268623128"><ele>1229.4</ele><time>2026-05-02T14:59:57Z</time></trkpt><trkpt lat="37.985198546042845" lon="14.991146217302084"><ele>1227.6000000000001</ele><time>2026-05-02T14:59:58Z</time></trkpt><trkpt lat="37.9852530321069" lon="14.991269952240167"><ele>1225.8</ele><time>2026-05-02T14:59:59Z</time></trkpt><trkpt lat="37.98532432141951" lon="14.991394109975277"><ele>1224.0</ele><time>2026-05-02T15:00:00Z</time></trkpt><trkpt lat="37.985409916324635" lon="14.991522274788965"><ele>1224.0</ele><time>2026-05-02T15:00:01Z</time></trkpt><trkpt lat="37.98550197167172" lon="14.99165859855695"><ele>1224.0</ele><time>2026-05-02T15:00:02Z</time></trkpt><trkpt lat="37.98559996136133" lon="14.991800703704348"><ele>1224.0</ele><time>2026-05-02T15:00:03Z</time></trkpt><trkpt lat="37.98569918677029" lon="14.991946865778141"><ele>1224.0</ele><time>2026-05-02T15:00:04Z</time></trkpt><trkpt lat="37.985795468023255" lon="14.99208493439719"><ele>1224.25</ele><time>2026-05-02T15:00:05Z</time></trkpt><trkpt lat="37.9858821362472" lon="14.992216512550495"><ele>1224.5</ele><time>2026-05-02T15:00:06Z</time></trkpt><trkpt lat="37.98595611100984" lon="14.992347816879825"><ele>1224.75</ele><time>2026-05-02T15:00:07Z</time></trkpt><trkpt lat="37.986017546473" lon="14.99248309171839"><ele>1225.0</ele><time>2026-05-02T15:00:08Z</time></trkpt><trkpt lat="37.98606345619165" lon="14.992625542594865"><ele>1225.0</ele><time>2026-05-02T15:00:09Z</time></trkpt><trkpt lat="37.9860981272633" lon="14.992769391873873"><ele>1225.0</ele><time>2026-05-02T15:00:10Z</time></trkpt><trkpt lat="37.9861215745192" lon="14.99291856904968"><ele>1225.0</ele><time>2026-05-02T15:00:11Z</time></trkpt><trkpt lat="37.986129346095765" lon="14.993067145440708"><ele>1225.0</ele><time>2026-05-02T15:00:12Z</time></trkpt><trkpt lat="37.98610694220087" lon="14.993222807818299"><ele>1225.0</ele><time>2026-05-02T15:00:13Z</time></trkpt><trkpt lat="37.986066126386106" lon="14.993365815649595"><ele>1225.0</ele><time>2026-05-02T15:00:14Z</time></trkpt><trkpt lat="37.98599670930917" lon="14.993502891013769"><ele>1225.0</ele><time>2026-05-02T15:00:15Z</time></trkpt><trkpt lat="37.9859485915516" lon="14.993660316717628"><ele>1225.0</ele><time>2026-05-02T15:00:16Z</time></trkpt><trkpt lat="37.985882849810636" lon="14.993798218884015"><ele>1219.25</ele><time>2026-05-02T15:00:17Z</time></trkpt><trkpt lat="37.98582370399031" lon="14.993935528410827"><ele>1213.5</ele><time>2026-05-02T15:00:18Z</time></trkpt><trkpt lat="37.98577081119723" lon="14.99406838553312"><ele>1207.75</ele><time>2026-05-02T15:00:19Z</time></trkpt><trkpt lat="37.98571924857653" lon="14.994194797284772"><ele>1202.0</ele><time>2026-05-02T15:00:20Z</time></trkpt><trkpt lat="37.98566213828714" lon="14.994321479387052"><ele>1200.25</ele><time>2026-05-02T15:00:20.999Z</time></trkpt><trkpt lat="37.985588486807735" lon="14.994442921482658"><ele>1198.5</ele><time>2026-05-02T15:00:21.999Z</time></trkpt><trkpt lat="37.98549234089083" lon="14.99453587975142"><ele>1196.75</ele><time>2026-05-02T15:00:22.999Z</time></trkpt><trkpt lat="37.985404848188516" lon="14.994633728346445"><ele>1195.0</ele><time>2026-05-02T15:00:23.999Z</time></trkpt><trkpt lat="37.98529265469827" lon="14.99471788451093"><ele>1195.0</ele><time>2026-05-02T15:00:24.999Z</time></trkpt><trkpt lat="37.98517283440952" lon="14.994796070832413"><ele>1195.0</ele><time>2026-05-02T15:00:25.999Z</time></trkpt><trkpt lat="37.98504167418244" lon="14.99485639203199"><ele>1195.0</ele><time>2026-05-02T15:00:26.999Z</time></trkpt><trkpt lat="37.98492364887171" lon="14.994955796390718"><ele>1195.0</ele><time>2026-05-02T15:00:27.999Z</time></trkpt><trkpt lat="37.984794380269584" lon="14.9950353330256"><ele>1195.0</ele><time>2026-05-02T15:00:28.999Z</time></trkpt><trkpt lat="37.98466606583267" lon="14.995111934360136"><ele>1195.0</ele><time>2026-05-02T15:00:29.999Z</time></trkpt><trkpt lat="37.984537362088346" lon="14.995189093901388"><ele>1195.0</ele><time>2026-05-02T15:00:30.999Z</time></trkpt><trkpt lat="37.98441685070498" lon="14.995288331795948"><ele>1195.0</ele><time>2026-05-02T15:00:31.999Z</time></trkpt><trkpt lat="37.98429277010802" lon="14.995376520542697"><ele>1194.5</ele><time>2026-05-02T15:00:32.999Z</time></trkpt><trkpt lat="37.98417603315211" lon="14.995474836509201"><ele>1194.0</ele><time>2026-05-02T15:00:33.999Z</time></trkpt><trkpt lat="37.9840672138646" lon="14.995582969816114"><ele>1193.5</ele><time>2026-05-02T15:00:34.999Z</time></trkpt><trkpt lat="37.98396079005568" lon="14.99570713349963"><ele>1193.0</ele><time>2026-05-02T15:00:35.999Z</time></trkpt><trkpt lat="37.9838570954253" lon="14.99583338504706"><ele>1192.5</ele><time>2026-05-02T15:00:36.999Z</time></trkpt><trkpt lat="37.98375182594772" lon="14.99595811879401"><ele>1192.0</ele><time>2026-05-02T15:00:37.999Z</time></trkpt><trkpt lat="37.98365018817785" lon="14.99607574437689"><ele>1191.5</ele><time>2026-05-02T15:00:38.999Z</time></trkpt><trkpt lat="37.98355371000647" lon="14.996185485587102"><ele>1191.0</ele><time>2026-05-02T15:00:39.999Z</time></trkpt><trkpt lat="37.98346751158524" lon="14.996301286852573"><ele>1191.0</ele><time>2026-05-02T15:00:40.999Z</time></trkpt><trkpt lat="37.98339753917624" lon="14.9964225948659"><ele>1191.0</ele><time>2026-05-02T15:00:41.999Z</time></trkpt><trkpt lat="37.9833531199261" lon="14.996555907908633"><ele>1191.0</ele><time>2026-05-02T15:00:42.999Z</time></trkpt><trkpt lat="37.98334115795313" lon="14.996693785410946"><ele>1191.0</ele><time>2026-05-02T15:00:43.999Z</time></trkpt><trkpt lat="37.983355843561704" lon="14.996829332451385"><ele>1187.0</ele><time>2026-05-02T15:00:44.999Z</time></trkpt><trkpt lat="37.983396933459474" lon="14.996958952223737"><ele>1183.0</ele><time>2026-05-02T15:00:45.999Z</time></trkpt><trkpt lat="37.98345922015392" lon="14.997082417793878"><ele>1179.0</ele><time>2026-05-02T15:00:46.999Z</time></trkpt><trkpt lat="37.98353938884759" lon="14.997201595902755"><ele>1175.0</ele><time>2026-05-02T15:00:47.999Z</time></trkpt><trkpt lat="37.98362655289395" lon="14.997326121752964"><ele>1175.0</ele><time>2026-05-02T15:00:48.999Z</time></trkpt><trkpt lat="37.98371607472487" lon="14.997457305114969"><ele>1175.0</ele><time>2026-05-02T15:00:49.999Z</time></trkpt><trkpt lat="37.9838133039151" lon="14.997590589117397"><ele>1175.0</ele><time>2026-05-02T15:00:50.999Z</time></trkpt><trkpt lat="37.983903291941665" lon="14.99772875626211"><ele>1175.0</ele><time>2026-05-02T15:00:51.999Z</time></trkpt><trkpt lat="37.983978177365806" lon="14.997866564949437"><ele>1174.75</ele><time>2026-05-02T15:00:52.999Z</time></trkpt><trkpt lat="37.984007419750064" lon="14.998031423472737"><ele>1174.5</ele><time>2026-05-02T15:00:53.999Z</time></trkpt><trkpt lat="37.98402107138603" lon="14.998200622236846"><ele>1174.25</ele><time>2026-05-02T15:00:54.999Z</time></trkpt><trkpt lat="37.98401830019212" lon="14.998374485702836"><ele>1174.0</ele><time>2026-05-02T15:00:55.999Z</time></trkpt><trkpt lat="37.98401489247437" lon="14.998556769544498"><ele>1174.0</ele><time>2026-05-02T15:00:56.999Z</time></trkpt><trkpt lat="37.98401993762191" lon="14.998744614642444"><ele>1174.0</ele><time>2026-05-02T15:00:57.999Z</time></trkpt><trkpt lat="37.984025494970126" lon="14.998929753038325"><ele>1174.0</ele><time>2026-05-02T15:00:58.999Z</time></trkpt><trkpt lat="37.984039718934234" lon="14.99911163535218"><ele>1174.0</ele><time>2026-05-02T15:00:59.999Z</time></trkpt><trkpt lat="37.984033182413796" lon="14.999286241835403"><ele>1172.75</ele><time>2026-05-02T15:01:00.999Z</time></trkpt><trkpt lat="37.984031672781335" lon="14.999459014086604"><ele>1171.5</ele><time>2026-05-02T15:01:01.999Z</time></trkpt><trkpt lat="37.98403326261528" lon="14.999626618180262"><ele>1170.25</ele><time>2026-05-02T15:01:02.999Z</time></trkpt><trkpt lat="37.98405422328633" lon="14.999782395495126"><ele>1169.0</ele><time>2026-05-02T15:01:03.999Z</time></trkpt><trkpt lat="37.98408722170466" lon="14.999931627603585"><ele>1169.0</ele><time>2026-05-02T15:01:04.998Z</time></trkpt><trkpt lat="37.984164398776144" lon="15.000046289956908"><ele>1169.0</ele><time>2026-05-02T15:01:05.998Z</time></trkpt><trkpt lat="37.98423912527987" lon="15.000154553469674"><ele>1169.0</ele><time>2026-05-02T15:01:06.998Z</time></trkpt><trkpt lat="37.98431953359335" lon="15.000251929432686"><ele>1169.0</ele><time>2026-05-02T15:01:07.998Z</time></trkpt><trkpt lat="37.984397842663505" lon="15.000345764658944"><ele>1170.0</ele><time>2026-05-02T15:01:08.998Z</time></trkpt><trkpt lat="37.98447473408431" lon="15.000440252166378"><ele>1171.0</ele><time>2026-05-02T15:01:09.998Z</time></trkpt><trkpt lat="37.984544616835144" lon="15.000549147856225"><ele>1172.0</ele><time>2026-05-02T15:01:10.998Z</time></trkpt><trkpt lat="37.984633162512026" lon="15.0006399213024"><ele>1173.0</ele><time>2026-05-02T15:01:11.998Z</time></trkpt><trkpt lat="37.98475104004622" lon="15.000682944364168"><ele>1173.0</ele><time>2026-05-02T15:01:12.998Z</time></trkpt><trkpt lat="37.9848593790319" lon="15.00073871525129"><ele>1173.0</ele><time>2026-05-02T15:01:13.998Z</time></trkpt><trkpt lat="37.984977881331176" lon="15.000780800572572"><ele>1173.0</ele><time>2026-05-02T15:01:14.998Z</time></trkpt><trkpt lat="37.985098954086176" lon="15.000821812450829"><ele>1173.0</ele><time>2026-05-02T15:01:15.998Z</time></trkpt><trkpt lat="37.98522220298956" lon="15.000864966770013"><ele>1172.75</ele><time>2026-05-02T15:01:16.998Z</time></trkpt><trkpt lat="37.9853407921936" lon="15.00091469624438"><ele>1172.5</ele><time>2026-05-02T15:01:17.998Z</time></trkpt><trkpt lat="37.98545763915012" lon="15.00096951834855"><ele>1172.25</ele><time>2026-05-02T15:01:18.998Z</time></trkpt><trkpt lat="37.98557613186045" lon="15.0010140082727"><ele>1172.0</ele><time>2026-05-02T15:01:19.998Z</time></trkpt><trkpt lat="37.98568853770181" lon="15.00106328001536"><ele>1172.0</ele><time>2026-05-02T15:01:20.998Z</time></trkpt><trkpt lat="37.98580039924939" lon="15.001115583975213"><ele>1172.0</ele><time>2026-05-02T15:01:21.998Z</time></trkpt><trkpt lat="37.98591330891708" lon="15.00116588615331"><ele>1172.0</ele><time>2026-05-02T15:01:22.998Z</time></trkpt><trkpt lat="37.98602807662012" lon="15.00121872791044"><ele>1172.0</ele><time>2026-05-02T15:01:23.998Z</time></trkpt><trkpt lat="37.98613150351834" lon="15.00127587114719"><ele>1169.75</ele><time>2026-05-02T15:01:24.998Z</time></trkpt><trkpt lat="37.9862542834083" lon="15.001310800519336"><ele>1167.5</ele><time>2026-05-02T15:01:25.998Z</time></trkpt><trkpt lat="37.98636660411703" lon="15.001361087648828"><ele>1165.25</ele><time>2026-05-02T15:01:26.998Z</time></trkpt><trkpt lat="37.9864894924258" lon="15.001411590230513"><ele>1163.0</ele><time>2026-05-02T15:01:27.998Z</time></trkpt><trkpt lat="37.986606995931936" lon="15.00145990049244"><ele>1162.0</ele><time>2026-05-02T15:01:28.998Z</time></trkpt><trkpt lat="37.986716402226456" lon="15.001517034495809"><ele>1161.0</ele><time>2026-05-02T15:01:29.998Z</time></trkpt><trkpt lat="37.98682448050317" lon="15.001583457367783"><ele>1160.0</ele><time>2026-05-02T15:01:30.998Z</time></trkpt><trkpt lat="37.98693739606737" lon="15.001658867068992"><ele>1159.0</ele><time>2026-05-02T15:01:31.998Z</time></trkpt><trkpt lat="37.98704913115249" lon="15.001730503688025"><ele>1161.0</ele><time>2026-05-02T15:01:32.998Z</time></trkpt><trkpt lat="37.98716040500153" lon="15.001794735837613"><ele>1163.0</ele><time>2026-05-02T15:01:33.998Z</time></trkpt><trkpt lat="37.987253655961126" lon="15.001870666211866"><ele>1165.0</ele><time>2026-05-02T15:01:34.998Z</time></trkpt><trkpt lat="37.98735651210568" lon="15.00190732335792"><ele>1167.0</ele><time>2026-05-02T15:01:35.998Z</time></trkpt><trkpt lat="37.98746092498894" lon="15.001919249846528"><ele>1169.0</ele><time>2026-05-02T15:01:36.998Z</time></trkpt><trkpt lat="37.98756938635764" lon="15.001894033716914"><ele>1169.0</ele><time>2026-05-02T15:01:37.998Z</time></trkpt><trkpt lat="37.98768752231296" lon="15.001818579844858"><ele>1169.0</ele><time>2026-05-02T15:01:38.998Z</time></trkpt><trkpt lat="37.9877903860641" lon="15.001766896171926"><ele>1169.0</ele><time>2026-05-02T15:01:39.998Z</time></trkpt><trkpt lat="37.98789274584921" lon="15.001758192818224"><ele>1169.0</ele><time>2026-05-02T15:01:40.998Z</time></trkpt><trkpt lat="37.988003218305586" lon="15.001785704922856"><ele>1169.0</ele><time>2026-05-02T15:01:41.998Z</time></trkpt><trkpt lat="37.98810094768636" lon="15.001857187089973"><ele>1169.0</ele><time>2026-05-02T15:01:43Z</time></trkpt><trkpt lat="37.98821131085213" lon="15.001912563898514"><ele>1169.0</ele><time>2026-05-02T15:01:44Z</time></trkpt><trkpt lat="37.98833786415024" lon="15.001979491995314"><ele>1169.0</ele><time>2026-05-02T15:01:45Z</time></trkpt><trkpt lat="37.988465047008624" lon="15.002046207783218"><ele>1164.25</ele><time>2026-05-02T15:01:46Z</time></trkpt><trkpt lat="37.988589722538755" lon="15.002118420755517"><ele>1159.5</ele><time>2026-05-02T15:01:47Z</time></trkpt><trkpt lat="37.988703197576704" lon="15.002171992825955"><ele>1154.75</ele><time>2026-05-02T15:01:48Z</time></trkpt><trkpt lat="37.988811735175" lon="15.002219492631186"><ele>1150.0</ele><time>2026-05-02T15:01:49Z</time></trkpt><trkpt lat="37.98891101272124" lon="15.00227668786992"><ele>1150.0</ele><time>2026-05-02T15:01:50Z</time></trkpt><trkpt lat="37.98898548150519" lon="15.002353924649986"><ele>1150.0</ele><time>2026-05-02T15:01:51Z</time></trkpt><trkpt lat="37.989044156193444" lon="15.002445455457893"><ele>1150.0</ele><time>2026-05-02T15:01:52Z</time></trkpt><trkpt lat="37.98910113789569" lon="15.00257544081938"><ele>1150.0</ele><time>2026-05-02T15:01:53Z</time></trkpt><trkpt lat="37.98913831729625" lon="15.002706704499998"><ele>1150.0</ele><time>2026-05-02T15:01:54Z</time></trkpt><trkpt lat="37.98914814265215" lon="15.002843757293986"><ele>1148.0</ele><time>2026-05-02T15:01:55Z</time></trkpt><trkpt lat="37.989155298544716" lon="15.002988825084138"><ele>1146.0</ele><time>2026-05-02T15:01:56Z</time></trkpt><trkpt lat="37.989160485632866" lon="15.003135598936975"><ele>1144.0</ele><time>2026-05-02T15:01:57Z</time></trkpt><trkpt lat="37.989165634838706" lon="15.003281660832974"><ele>1142.0</ele><time>2026-05-02T15:01:58Z</time></trkpt><trkpt lat="37.98918043831097" lon="15.00345065419483"><ele>1142.0</ele><time>2026-05-02T15:01:59Z</time></trkpt><trkpt lat="37.98917524897605" lon="15.003614603439233"><ele>1142.0</ele><time>2026-05-02T15:02:00Z</time></trkpt><trkpt lat="37.98918451484798" lon="15.003758597563627"><ele>1142.0</ele><time>2026-05-02T15:02:01Z</time></trkpt><trkpt lat="37.98919327800901" lon="15.003892356960987"><ele>1142.0</ele><time>2026-05-02T15:02:02Z</time></trkpt><trkpt lat="37.989187120391854" lon="15.004027147424443"><ele>1142.0</ele><time>2026-05-02T15:02:03Z</time></trkpt><trkpt lat="37.98919605943133" lon="15.004139653139577"><ele>1142.0</ele><time>2026-05-02T15:02:04Z</time></trkpt><trkpt lat="37.98923760511907" lon="15.004235417296758"><ele>1142.0</ele><time>2026-05-02T15:02:05Z</time></trkpt><trkpt lat="37.989305031318324" lon="15.004313862544944"><ele>1142.0</ele><time>2026-05-02T15:02:06Z</time></trkpt><trkpt lat="37.989375164240855" lon="15.004387128944634"><ele>1142.0</ele><time>2026-05-02T15:02:07Z</time></trkpt><trkpt lat="37.98946543831219" lon="15.004426767788965"><ele>1146.5</ele><time>2026-05-02T15:02:08Z</time></trkpt><trkpt lat="37.98958331897987" lon="15.004420275008767"><ele>1151.0</ele><time>2026-05-02T15:02:09Z</time></trkpt><trkpt lat="37.98969772768112" lon="15.004377395411872"><ele>1155.5</ele><time>2026-05-02T15:02:10Z</time></trkpt><trkpt lat="37.989807567883524" lon="15.004323094013259"><ele>1160.0</ele><time>2026-05-02T15:02:11Z</time></trkpt><trkpt lat="37.989913363028464" lon="15.00426719341746"><ele>1158.4</ele><time>2026-05-02T15:02:12Z</time></trkpt><trkpt lat="37.990021856370724" lon="15.004203637234648"><ele>1156.8</ele><time>2026-05-02T15:02:13Z</time></trkpt><trkpt lat="37.990118930390906" lon="15.004148899430335"><ele>1155.2</ele><time>2026-05-02T15:02:14Z</time></trkpt><trkpt lat="37.99022113300868" lon="15.004110097816683"><ele>1153.6</ele><time>2026-05-02T15:02:15Z</time></trkpt><trkpt lat="37.99031953593698" lon="15.004104388441963"><ele>1152.0</ele><time>2026-05-02T15:02:16Z</time></trkpt><trkpt lat="37.990413397715145" lon="15.00414620169357"><ele>1152.0</ele><time>2026-05-02T15:02:17Z</time></trkpt><trkpt lat="37.99049349614844" lon="15.004205558781212"><ele>1152.0</ele><time>2026-05-02T15:02:18Z</time></trkpt><trkpt lat="37.9905673058844" lon="15.004295832393435"><ele>1152.0</ele><time>2026-05-02T15:02:19Z</time></trkpt><trkpt lat="37.990626705582194" lon="15.004404099961027"><ele>1152.0</ele><time>2026-05-02T15:02:20Z</time></trkpt><trkpt lat="37.990693663796236" lon="15.004525616587836"><ele>1152.0</ele><time>2026-05-02T15:02:21Z</time></trkpt><trkpt lat="37.990764512456934" lon="15.004651295083642"><ele>1152.0</ele><time>2026-05-02T15:02:22Z</time></trkpt><trkpt lat="37.99083537040059" lon="15.004762158982226"><ele>1152.0</ele><time>2026-05-02T15:02:23Z</time></trkpt><trkpt lat="37.9908755321161" lon="15.004884765666898"><ele>1152.0</ele><time>2026-05-02T15:02:24Z</time></trkpt><trkpt lat="37.99088675181827" lon="15.005019989701678"><ele>1152.0</ele><time>2026-05-02T15:02:25Z</time></trkpt><trkpt lat="37.9908459757566" lon="15.005161541638286"><ele>1152.0</ele><time>2026-05-02T15:02:25.999Z</time></trkpt><trkpt lat="37.990839735778785" lon="15.005313121816105"><ele>1147.25</ele><time>2026-05-02T15:02:26.999Z</time></trkpt><trkpt lat="37.99085297500072" lon="15.005473201543133"><ele>1142.5</ele><time>2026-05-02T15:02:27.999Z</time></trkpt><trkpt lat="37.9908780408339" lon="15.005625662565249"><ele>1137.75</ele><time>2026-05-02T15:02:28.999Z</time></trkpt><trkpt lat="37.9909197293686" lon="15.005769751915757"><ele>1133.0</ele><time>2026-05-02T15:02:29.999Z</time></trkpt><trkpt lat="37.99093448158828" lon="15.005914814018446"><ele>1133.0</ele><time>2026-05-02T15:02:30.999Z</time></trkpt><trkpt lat="37.9909488511094" lon="15.006059612456436"><ele>1133.0</ele><time>2026-05-02T15:02:31.999Z</time></trkpt><trkpt lat="37.99096354823311" lon="15.006204702895365"><ele>1133.0</ele><time>2026-05-02T15:02:32.999Z</time></trkpt><trkpt lat="37.99097813772846" lon="15.006335568960248"><ele>1133.0</ele><time>2026-05-02T15:02:33.999Z</time></trkpt><trkpt lat="37.99102050344512" lon="15.006431173284957"><ele>1133.0</ele><time>2026-05-02T15:02:34.999Z</time></trkpt><trkpt lat="37.991087922571005" lon="15.006504754768905"><ele>1133.0</ele><time>2026-05-02T15:02:35.999Z</time></trkpt><trkpt lat="37.99116971300333" lon="15.0065383195452"><ele>1133.0</ele><time>2026-05-02T15:02:36.999Z</time></trkpt><trkpt lat="37.99125831930011" lon="15.006539227861005"><ele>1133.0</ele><time>2026-05-02T15:02:37.999Z</time></trkpt><trkpt lat="37.9913596956544" lon="15.006509103604332"><ele>1133.0</ele><time>2026-05-02T15:02:38.999Z</time></trkpt><trkpt lat="37.991460367259215" lon="15.006469669377308"><ele>1133.0</ele><time>2026-05-02T15:02:39.999Z</time></trkpt><trkpt lat="37.991559721776056" lon="15.006394461920129"><ele>1133.0</ele><time>2026-05-02T15:02:40.999Z</time></trkpt><trkpt lat="37.991644918955195" lon="15.00629369963533"><ele>1133.0</ele><time>2026-05-02T15:02:41.999Z</time></trkpt><trkpt lat="37.991722210972014" lon="15.006202070349776"><ele>1133.0</ele><time>2026-05-02T15:02:42.999Z</time></trkpt><trkpt lat="37.99181163054851" lon="15.006124718626651"><ele>1133.0</ele><time>2026-05-02T15:02:43.999Z</time></trkpt><trkpt lat="37.99189604653222" lon="15.006052184057149"><ele>1133.0</ele><time>2026-05-02T15:02:44.999Z</time></trkpt><trkpt lat="37.99199675569353" lon="15.006011066159889"><ele>1129.6</ele><time>2026-05-02T15:02:45.999Z</time></trkpt><trkpt lat="37.992080794222844" lon="15.006006364818251"><ele>1126.1999999999998</ele><time>2026-05-02T15:02:46.999Z</time></trkpt><trkpt lat="37.99218022896353" lon="15.006050492244661"><ele>1122.8</ele><time>2026-05-02T15:02:47.999Z</time></trkpt><trkpt lat="37.99227330805303" lon="15.006125428483735"><ele>1119.3999999999999</ele><time>2026-05-02T15:02:48.999Z</time></trkpt><trkpt lat="37.99236752972204" lon="15.00621691746353"><ele>1116.0</ele><time>2026-05-02T15:02:49.999Z</time></trkpt><trkpt lat="37.9924591402573" lon="15.006304104736532"><ele>1112.2</ele><time>2026-05-02T15:02:50.999Z</time></trkpt><trkpt lat="37.99253736818118" lon="15.006392693623647"><ele>1108.3999999999999</ele><time>2026-05-02T15:02:51.999Z</time></trkpt><trkpt lat="37.99259726811836" lon="15.006487363984396"><ele>1104.6</ele><time>2026-05-02T15:02:52.999Z</time></trkpt><trkpt lat="37.992644033280435" lon="15.006606284897648"><ele>1100.8</ele><time>2026-05-02T15:02:53.999Z</time></trkpt><trkpt lat="37.99265833911914" lon="15.006744911397657"><ele>1097.0</ele><time>2026-05-02T15:02:54.999Z</time></trkpt><trkpt lat="37.99267987213812" lon="15.00688709579523"><ele>1097.0</ele><time>2026-05-02T15:02:55.999Z</time></trkpt><trkpt lat="37.9926920190225" lon="15.007034680950804"><ele>1097.0</ele><time>2026-05-02T15:02:56.999Z</time></trkpt><trkpt lat="37.9927095429586" lon="15.007174776263831"><ele>1097.0</ele><time>2026-05-02T15:02:57.999Z</time></trkpt><trkpt lat="37.99273467248827" lon="15.007303866851132"><ele>1097.0</ele><time>2026-05-02T15:02:58.999Z</time></trkpt><trkpt lat="37.99277415688299" lon="15.007425261864183"><ele>1097.0</ele><time>2026-05-02T15:02:59.999Z</time></trkpt><trkpt lat="37.99284457709266" lon="15.007505597597453"><ele>1099.4</ele><time>2026-05-02T15:03:00.999Z</time></trkpt><trkpt lat="37.99291561492258" lon="15.007583842417597"><ele>1101.8000000000002</ele><time>2026-05-02T15:03:01.999Z</time></trkpt><trkpt lat="37.99300234200015" lon="15.00762406619843"><ele>1104.2</ele><time>2026-05-02T15:03:02.999Z</time></trkpt><trkpt lat="37.99307101518691" lon="15.007701830063613"><ele>1106.6000000000001</ele><time>2026-05-02T15:03:03.999Z</time></trkpt><trkpt lat="37.993121354326114" lon="15.00779963032513"><ele>1109.0</ele><time>2026-05-02T15:03:04.999Z</time></trkpt><trkpt lat="37.993130604865975" lon="15.00791214141617"><ele>1109.0</ele><time>2026-05-02T15:03:05.999Z</time></trkpt><trkpt lat="37.99313693015662" lon="15.00803819614578"><ele>1109.0</ele><time>2026-05-02T15:03:06.999Z</time></trkpt><trkpt lat="37.99313626667817" lon="15.008176098829278"><ele>1109.0</ele><time>2026-05-02T15:03:07.999Z</time></trkpt><trkpt lat="37.99315456074834" lon="15.008323703799748"><ele>1109.0</ele><time>2026-05-02T15:03:08.999Z</time></trkpt><trkpt lat="37.99314713041702" lon="15.00847253795509"><ele>1109.0</ele><time>2026-05-02T15:03:09.998Z</time></trkpt><trkpt lat="37.993145021674295" lon="15.008613209396458"><ele>1108.25</ele><time>2026-05-02T15:03:10.998Z</time></trkpt><trkpt lat="37.99314783484812" lon="15.008754692525327"><ele>1107.5</ele><time>2026-05-02T15:03:11.998Z</time></trkpt><trkpt lat="37.993142012012015" lon="15.008899337259761"><ele>1106.75</ele><time>2026-05-02T15:03:12.998Z</time></trkpt><trkpt lat="37.993119661154495" lon="15.009040310865615"><ele>1106.0</ele><time>2026-05-02T15:03:13.998Z</time></trkpt><trkpt lat="37.99306389637886" lon="15.009168386260253"><ele>1106.0</ele><time>2026-05-02T15:03:14.998Z</time></trkpt><trkpt lat="37.99300945357122" lon="15.009290533322616"><ele>1106.0</ele><time>2026-05-02T15:03:15.998Z</time></trkpt><trkpt lat="37.992939294724" lon="15.009404307644644"><ele>1106.0</ele><time>2026-05-02T15:03:16.998Z</time></trkpt><trkpt lat="37.99284981872178" lon="15.009493626398628"><ele>1106.0</ele><time>2026-05-02T15:03:17.998Z</time></trkpt><trkpt lat="37.992751008606305" lon="15.00957564516537"><ele>1106.0</ele><time>2026-05-02T15:03:18.998Z</time></trkpt><trkpt lat="37.9926367925611" lon="15.009628643094917"><ele>1106.0</ele><time>2026-05-02T15:03:19.998Z</time></trkpt><trkpt lat="37.99252451872801" lon="15.009684825098695"><ele>1106.0</ele><time>2026-05-02T15:03:20.998Z</time></trkpt><trkpt lat="37.99240728723519" lon="15.009745350401536"><ele>1106.0</ele><time>2026-05-02T15:03:21.998Z</time></trkpt><trkpt lat="37.99228134731226" lon="15.00976464017606"><ele>1112.75</ele><time>2026-05-02T15:03:22.998Z</time></trkpt><trkpt lat="37.992154440715105" lon="15.009778301826428"><ele>1119.5</ele><time>2026-05-02T15:03:23.998Z</time></trkpt><trkpt lat="37.992029865497386" lon="15.009794525189191"><ele>1126.25</ele><time>2026-05-02T15:03:24.998Z</time></trkpt><trkpt lat="37.991912584758985" lon="15.009833224421728"><ele>1133.0</ele><time>2026-05-02T15:03:25.998Z</time></trkpt><trkpt lat="37.991807264644414" lon="15.009894940385369"><ele>1133.0</ele><time>2026-05-02T15:03:26.998Z</time></trkpt><trkpt lat="37.99170312741249" lon="15.00996343367971"><ele>1133.0</ele><time>2026-05-02T15:03:27.998Z</time></trkpt><trkpt lat="37.99160466838453" lon="15.010048628706599"><ele>1133.0</ele><time>2026-05-02T15:03:28.998Z</time></trkpt><trkpt lat="37.99148434823665" lon="15.010075397701257"><ele>1133.0</ele><time>2026-05-02T15:03:29.998Z</time></trkpt><trkpt lat="37.991365306575425" lon="15.010124014165756"><ele>1127.5</ele><time>2026-05-02T15:03:30.998Z</time></trkpt><trkpt lat="37.99124288427445" lon="15.010139202664655"><ele>1122.0</ele><time>2026-05-02T15:03:31.998Z</time></trkpt><trkpt lat="37.9911164441341" lon="15.010160462137494"><ele>1116.5</ele><time>2026-05-02T15:03:32.998Z</time></trkpt><trkpt lat="37.990999790471385" lon="15.010192306597908"><ele>1111.0</ele><time>2026-05-02T15:03:33.998Z</time></trkpt><trkpt lat="37.990874039733626" lon="15.010216039622946"><ele>1113.0</ele><time>2026-05-02T15:03:34.998Z</time></trkpt><trkpt lat="37.99075334693712" lon="15.010245785324258"><ele>1115.0</ele><time>2026-05-02T15:03:35.998Z</time></trkpt><trkpt lat="37.99064034254655" lon="15.010276461050413"><ele>1117.0</ele><time>2026-05-02T15:03:36.998Z</time></trkpt><trkpt lat="37.99053170058444" lon="15.010286938597634"><ele>1119.0</ele><time>2026-05-02T15:03:37.998Z</time></trkpt><trkpt lat="37.99043954525658" lon="15.01028703555215"><ele>1121.0</ele><time>2026-05-02T15:03:38.998Z</time></trkpt><trkpt lat="37.99035636214489" lon="15.010264969914923"><ele>1121.0</ele><time>2026-05-02T15:03:39.998Z</time></trkpt><trkpt lat="37.99026509118506" lon="15.01024757516541"><ele>1121.0</ele><time>2026-05-02T15:03:40.998Z</time></trkpt><trkpt lat="37.99017098920099" lon="15.010224939039569"><ele>1121.0</ele><time>2026-05-02T15:03:41.998Z</time></trkpt><trkpt lat="37.99007757054057" lon="15.010183690077067"><ele>1121.0</ele><time>2026-05-02T15:03:42.998Z</time></trkpt><trkpt lat="37.98999417140641" lon="15.01010871583762"><ele>1121.0</ele><time>2026-05-02T15:03:43.998Z</time></trkpt><trkpt lat="37.989918115717806" lon="15.010019969956923"><ele>1127.3999999999999</ele><time>2026-05-02T15:03:44.998Z</time></trkpt><trkpt lat="37.98983496720589" lon="15.009946728560566"><ele>1133.8</ele><time>2026-05-02T15:03:45.998Z</time></trkpt><trkpt lat="37.98975234804125" lon="15.009899439916627"><ele>1140.1999999999998</ele><time>2026-05-02T15:03:46.998Z</time></trkpt><trkpt lat="37.989670006679" lon="15.009873976395166"><ele>1146.6</ele><time>2026-05-02T15:03:47.998Z</time></trkpt><trkpt lat="37.98957531088673" lon="15.009885247827455"><ele>1153.0</ele><time>2026-05-02T15:03:49Z</time></trkpt><trkpt lat="37.98947874294293" lon="15.009918508968564"><ele>1153.0</ele><time>2026-05-02T15:03:50Z</time></trkpt><trkpt lat="37.989377946518225" lon="15.009957986967354"><ele>1153.0</ele><time>2026-05-02T15:03:51Z</time></trkpt><trkpt lat="37.98927206088726" lon="15.009953066282725"><ele>1153.0</ele><time>2026-05-02T15:03:52Z</time></trkpt><trkpt lat="37.98917266865947" lon="15.009887842161262"><ele>1153.0</ele><time>2026-05-02T15:03:53Z</time></trkpt><trkpt lat="37.98907955372556" lon="15.009865062485932"><ele>1153.0</ele><time>2026-05-02T15:03:54Z</time></trkpt><trkpt lat="37.988998409018286" lon="15.00986636655969"><ele>1152.0</ele><time>2026-05-02T15:03:55Z</time></trkpt><trkpt lat="37.98893471405493" lon="15.009916566021122"><ele>1151.0</ele><time>2026-05-02T15:03:56Z</time></trkpt><trkpt lat="37.98888686907128" lon="15.00999675591577"><ele>1150.0</ele><time>2026-05-02T15:03:57Z</time></trkpt><trkpt lat="37.98883815874958" lon="15.010094597114586"><ele>1149.0</ele><time>2026-05-02T15:03:58Z</time></trkpt><trkpt lat="37.98880544449858" lon="15.010218963621424"><ele>1148.0</ele><time>2026-05-02T15:03:59Z</time></trkpt><trkpt lat="37.98880199353215" lon="15.01035638025412"><ele>1140.0</ele><time>2026-05-02T15:04:00Z</time></trkpt><trkpt lat="37.98878592955654" lon="15.010492747963848"><ele>1132.0</ele><time>2026-05-02T15:04:01Z</time></trkpt><trkpt lat="37.988780535651664" lon="15.010632316322896"><ele>1124.0</ele><time>2026-05-02T15:04:02Z</time></trkpt><trkpt lat="37.98879477517165" lon="15.010769857322432"><ele>1116.0</ele><time>2026-05-02T15:04:03Z</time></trkpt><trkpt lat="37.98884383970305" lon="15.010896456824174"><ele>1108.0</ele><time>2026-05-02T15:04:04Z</time></trkpt><trkpt lat="37.988891799807824" lon="15.011015246744698"><ele>1104.0</ele><time>2026-05-02T15:04:05Z</time></trkpt><trkpt lat="37.98894710473189" lon="15.01113376029243"><ele>1100.0</ele><time>2026-05-02T15:04:06Z</time></trkpt><trkpt lat="37.98900142812841" lon="15.011259021377592"><ele>1096.0</ele><time>2026-05-02T15:04:07Z</time></trkpt><trkpt lat="37.98906020004909" lon="15.011385685347165"><ele>1092.0</ele><time>2026-05-02T15:04:08Z</time></trkpt><trkpt lat="37.98912680006587" lon="15.011504996367274"><ele>1088.2</ele><time>2026-05-02T15:04:09Z</time></trkpt><trkpt lat="37.98918152538384" lon="15.01162771899241"><ele>1084.4</ele><time>2026-05-02T15:04:10Z</time></trkpt><trkpt lat="37.98923692890625" lon="15.011744679427627"><ele>1080.6</ele><time>2026-05-02T15:04:11Z</time></trkpt><trkpt lat="37.98928587889477" lon="15.011861127670565"><ele>1076.8</ele><time>2026-05-02T15:04:12Z</time></trkpt><trkpt lat="37.98931177970189" lon="15.011969710095439"><ele>1073.0</ele><time>2026-05-02T15:04:13Z</time></trkpt><trkpt lat="37.989298535647" lon="15.012085794352206"><ele>1072.6</ele><time>2026-05-02T15:04:14Z</time></trkpt><trkpt lat="37.98927593559798" lon="15.01220075453718"><ele>1072.1999999999998</ele><time>2026-05-02T15:04:15Z</time></trkpt><trkpt lat="37.98924855304859" lon="15.012329345427444"><ele>1071.8</ele><time>2026-05-02T15:04:16Z</time></trkpt><trkpt lat="37.98921903855632" lon="15.012467667901959"><ele>1071.3999999999999</ele><time>2026-05-02T15:04:17Z</time></trkpt><trkpt lat="37.989187488699855" lon="15.012615480621712"><ele>1071.0</ele><time>2026-05-02T15:04:18Z</time></trkpt><trkpt lat="37.98915422104985" lon="15.0127642191561"><ele>1076.3999999999999</ele><time>2026-05-02T15:04:19Z</time></trkpt><trkpt lat="37.989123037183724" lon="15.012912732093735"><ele>1081.8</ele><time>2026-05-02T15:04:20Z</time></trkpt><trkpt lat="37.989094894872174" lon="15.013050931116803"><ele>1087.1999999999998</ele><time>2026-05-02T15:04:21Z</time></trkpt><trkpt lat="37.989069884307014" lon="15.01317356335834"><ele>1092.6</ele><time>2026-05-02T15:04:22Z</time></trkpt><trkpt lat="37.98904401777358" lon="15.013300314285221"><ele>1098.0</ele><time>2026-05-02T15:04:23Z</time></trkpt><trkpt lat="37.9890185000518" lon="15.013429467459703"><ele>1098.0</ele><time>2026-05-02T15:04:24Z</time></trkpt><trkpt lat="37.98900051255117" lon="15.013560811522243"><ele>1098.0</ele><time>2026-05-02T15:04:25Z</time></trkpt><trkpt lat="37.988954053536645" lon="15.013679630605365"><ele>1098.0</ele><time>2026-05-02T15:04:25.999Z</time></trkpt><trkpt lat="37.9889000689406" lon="15.013799169634252"><ele>1098.0</ele><time>2026-05-02T15:04:26.999Z</time></trkpt><trkpt lat="37.98883560889313" lon="15.013914153197259"><ele>1098.0</ele><time>2026-05-02T15:04:27.999Z</time></trkpt><trkpt lat="37.98875737525172" lon="15.014012528109964"><ele>1098.0</ele><time>2026-05-02T15:04:28.999Z</time></trkpt><trkpt lat="37.98867401946129" lon="15.014108973252364"><ele>1098.0</ele><time>2026-05-02T15:04:29.999Z</time></trkpt><trkpt lat="37.988577708341964" lon="15.0141850374126"><ele>1098.0</ele><time>2026-05-02T15:04:30.999Z</time></trkpt><trkpt lat="37.988472201236625" lon="15.014240612545759"><ele>1098.0</ele><time>2026-05-02T15:04:31.999Z</time></trkpt><trkpt lat="37.98837033667988" lon="15.01431403173709"><ele>1100.5</ele><time>2026-05-02T15:04:32.999Z</time></trkpt><trkpt lat="37.988278319501" lon="15.01439923606212"><ele>1103.0</ele><time>2026-05-02T15:04:33.999Z</time></trkpt><trkpt lat="37.988178491173514" lon="15.01446966503264"><ele>1105.5</ele><time>2026-05-02T15:04:34.999Z</time></trkpt><trkpt lat="37.988068432283214" lon="15.014500486023072"><ele>1108.0</ele><time>2026-05-02T15:04:35.999Z</time></trkpt><trkpt lat="37.987958489675336" lon="15.014547161958909"><ele>1108.0</ele><time>2026-05-02T15:04:36.999Z</time></trkpt><trkpt lat="37.98784453520442" lon="15.01459276480958"><ele>1108.0</ele><time>2026-05-02T15:04:37.999Z</time></trkpt><trkpt lat="37.987736025294524" lon="15.014661033089915"><ele>1108.0</ele><time>2026-05-02T15:04:38.999Z</time></trkpt><trkpt lat="37.98761473033504" lon="15.014724631567105"><ele>1108.0</ele><time>2026-05-02T15:04:39.999Z</time></trkpt><trkpt lat="37.98751715295957" lon="15.01480415492666"><ele>1105.2</ele><time>2026-05-02T15:04:40.999Z</time></trkpt><trkpt lat="37.987417668347724" lon="15.014867115961337"><ele>1102.4</ele><time>2026-05-02T15:04:41.999Z</time></trkpt><trkpt lat="37.98731450783464" lon="15.01492798148289"><ele>1099.6000000000001</ele><time>2026-05-02T15:04:42.999Z</time></trkpt><trkpt lat="37.987214696705244" lon="15.014994093634423"><ele>1096.8</ele><time>2026-05-02T15:04:43.999Z</time></trkpt><trkpt lat="37.987119105809654" lon="15.01504552045003"><ele>1094.0</ele><time>2026-05-02T15:04:44.999Z</time></trkpt><trkpt lat="37.987030194376096" lon="15.015085147104537"><ele>1094.0</ele><time>2026-05-02T15:04:45.999Z</time></trkpt><trkpt lat="37.986950667409445" lon="15.015132336425651"><ele>1094.0</ele><time>2026-05-02T15:04:46.999Z</time></trkpt><trkpt lat="37.98688169968171" lon="15.015180677712353"><ele>1094.0</ele><time>2026-05-02T15:04:47.999Z</time></trkpt><trkpt lat="37.98683110853021" lon="15.015248696896698"><ele>1094.0</ele><time>2026-05-02T15:04:48.999Z</time></trkpt><trkpt lat="37.98679998383657" lon="15.015335826239717"><ele>1094.0</ele><time>2026-05-02T15:04:49.999Z</time></trkpt><trkpt lat="37.986792375299" lon="15.015442470279853"><ele>1094.0</ele><time>2026-05-02T15:04:50.999Z</time></trkpt><trkpt lat="37.98679626222355" lon="15.01556029622596"><ele>1094.0</ele><time>2026-05-02T15:04:51.999Z</time></trkpt><trkpt lat="37.98680946267887" lon="15.01567706732383"><ele>1094.0</ele><time>2026-05-02T15:04:52.999Z</time></trkpt><trkpt lat="37.986842816002365" lon="15.01580581792411"><ele>1094.0</ele><time>2026-05-02T15:04:53.999Z</time></trkpt><trkpt lat="37.98690714447758" lon="15.015907601957663"><ele>1094.0</ele><time>2026-05-02T15:04:54.999Z</time></trkpt><trkpt lat="37.986992780211054" lon="15.01599349176242"><ele>1094.0</ele><time>2026-05-02T15:04:55.999Z</time></trkpt><trkpt lat="37.98706948869987" lon="15.016083004648562"><ele>1089.8333333333335</ele><time>2026-05-02T15:04:56.999Z</time></trkpt><trkpt lat="37.9871326446621" lon="15.016169370600473"><ele>1085.6666666666667</ele><time>2026-05-02T15:04:57.999Z</time></trkpt><trkpt lat="37.98715116206141" lon="15.016281593763173"><ele>1081.5</ele><time>2026-05-02T15:04:58.999Z</time></trkpt><trkpt lat="37.98712576578871" lon="15.01638566983088"><ele>1077.3333333333333</ele><time>2026-05-02T15:04:59.999Z</time></trkpt><trkpt lat="37.98708242699538" lon="15.016477945272248"><ele>1073.1666666666665</ele><time>2026-05-02T15:05:00.999Z</time></trkpt><trkpt lat="37.98702003774659" lon="15.016569501275224"><ele>1069.0</ele><time>2026-05-02T15:05:01.999Z</time></trkpt><trkpt lat="37.98696896827319" lon="15.016675802089901"><ele>1067.25</ele><time>2026-05-02T15:05:02.999Z</time></trkpt><trkpt lat="37.98689908957607" lon="15.016782311441201"><ele>1065.5</ele><time>2026-05-02T15:05:03.999Z</time></trkpt><trkpt lat="37.986824922198856" lon="15.016892973751995"><ele>1063.75</ele><time>2026-05-02T15:05:04.999Z</time></trkpt><trkpt lat="37.98674202477402" lon="15.01700050385684"><ele>1062.0</ele><time>2026-05-02T15:05:05.999Z</time></trkpt><trkpt lat="37.986657415468144" lon="15.017087575683906"><ele>1069.8333333333333</ele><time>2026-05-02T15:05:06.999Z</time></trkpt><trkpt lat="37.98658035977437" lon="15.017156127836605"><ele>1077.6666666666667</ele><time>2026-05-02T15:05:07.999Z</time></trkpt><trkpt lat="37.9865125664625" lon="15.017217044193519"><ele>1085.5</ele><time>2026-05-02T15:05:08.998Z</time></trkpt><trkpt lat="37.98646262760872" lon="15.017285628161732"><ele>1093.3333333333335</ele><time>2026-05-02T15:05:09.998Z</time></trkpt><trkpt lat="37.98642118068075" lon="15.017350529434518"><ele>1101.1666666666667</ele><time>2026-05-02T15:05:10.998Z</time></trkpt><trkpt lat="37.98641298671272" lon="15.017437141750966"><ele>1109.0</ele><time>2026-05-02T15:05:11.998Z</time></trkpt><trkpt lat="37.986441504566315" lon="15.017534401759523"><ele>1109.0</ele><time>2026-05-02T15:05:12.998Z</time></trkpt><trkpt lat="37.98651111764815" lon="15.017610166972695"><ele>1109.0</ele><time>2026-05-02T15:05:13.998Z</time></trkpt><trkpt lat="37.98659825797282" lon="15.01765845890711"><ele>1109.0</ele><time>2026-05-02T15:05:14.998Z</time></trkpt><trkpt lat="37.98668375631204" lon="15.017743673259984"><ele>1109.0</ele><time>2026-05-02T15:05:15.998Z</time></trkpt><trkpt lat="37.986780653837144" lon="15.017802747464035"><ele>1109.0</ele><time>2026-05-02T15:05:16.998Z</time></trkpt><trkpt lat="37.98688084844051" lon="15.017852899642097"><ele>1100.2</ele><time>2026-05-02T15:05:17.998Z</time></trkpt><trkpt lat="37.98698763366836" lon="15.017907285619902"><ele>1091.4</ele><time>2026-05-02T15:05:18.998Z</time></trkpt><trkpt lat="37.98707655194095" lon="15.017962052138106"><ele>1082.6</ele><time>2026-05-02T15:05:19.998Z</time></trkpt><trkpt lat="37.98713810338636" lon="15.018034012901532"><ele>1073.8</ele><time>2026-05-02T15:05:20.998Z</time></trkpt><trkpt lat="37.987180061563414" lon="15.018121092156948"><ele>1065.0</ele><time>2026-05-02T15:05:21.998Z</time></trkpt><trkpt lat="37.98716633561568" lon="15.018245706294483"><ele>1067.3333333333333</ele><time>2026-05-02T15:05:22.998Z</time></trkpt><trkpt lat="37.98714246066696" lon="15.018358102878247"><ele>1069.6666666666667</ele><time>2026-05-02T15:05:23.998Z</time></trkpt><trkpt lat="37.987125445818776" lon="15.018469055500384"><ele>1072.0</ele><time>2026-05-02T15:05:24.998Z</time></trkpt><trkpt lat="37.9871197984091" lon="15.018570339799242"><ele>1074.3333333333335</ele><time>2026-05-02T15:05:25.998Z</time></trkpt><trkpt lat="37.98712785952392" lon="15.018663676846066"><ele>1076.6666666666667</ele><time>2026-05-02T15:05:26.998Z</time></trkpt><trkpt lat="37.98716220488151" lon="15.01875103861979"><ele>1079.0</ele><time>2026-05-02T15:05:27.998Z</time></trkpt><trkpt lat="37.98722643891256" lon="15.01883113383606"><ele>1079.0</ele><time>2026-05-02T15:05:28.998Z</time></trkpt><trkpt lat="37.98733412133484" lon="15.018852289223975"><ele>1079.0</ele><time>2026-05-02T15:05:29.998Z</time></trkpt><trkpt lat="37.98744736089767" lon="15.018878304173818"><ele>1079.0</ele><time>2026-05-02T15:05:30.998Z</time></trkpt><trkpt lat="37.987580429774525" lon="15.01889381668371"><ele>1079.0</ele><time>2026-05-02T15:05:31.998Z</time></trkpt><trkpt lat="37.98771532372727" lon="15.018917877811099"><ele>1073.5</ele><time>2026-05-02T15:05:32.998Z</time></trkpt><trkpt lat="37.98785417259635" lon="15.018947302828751"><ele>1068.0</ele><time>2026-05-02T15:05:33.998Z</time></trkpt><trkpt lat="37.987979439123066" lon="15.018971649620415"><ele>1062.5</ele><time>2026-05-02T15:05:34.998Z</time></trkpt><trkpt lat="37.98810491765543" lon="15.019006212937342"><ele>1057.0</ele><time>2026-05-02T15:05:35.998Z</time></trkpt><trkpt lat="37.98822629486801" lon="15.019034581941222"><ele>1057.0</ele><time>2026-05-02T15:05:36.998Z</time></trkpt><trkpt lat="37.98833630507011" lon="15.01905230521507"><ele>1057.0</ele><time>2026-05-02T15:05:37.998Z</time></trkpt><trkpt lat="37.988444820666174" lon="15.019062305665221"><ele>1057.0</ele><time>2026-05-02T15:05:38.998Z</time></trkpt><trkpt lat="37.98853958026861" lon="15.01903219473587"><ele>1057.0</ele><time>2026-05-02T15:05:39.998Z</time></trkpt><trkpt lat="37.988631176673074" lon="15.018980819600088"><ele>1057.0</ele><time>2026-05-02T15:05:40.998Z</time></trkpt><trkpt lat="37.98871099590536" lon="15.018904966660271"><ele>1058.5</ele><time>2026-05-02T15:05:41.998Z</time></trkpt><trkpt lat="37.98877491101365" lon="15.018815707724245"><ele>1060.0</ele><time>2026-05-02T15:05:42.998Z</time></trkpt><trkpt lat="37.98882602499612" lon="15.018729273729475"><ele>1061.5</ele><time>2026-05-02T15:05:43.998Z</time></trkpt><trkpt lat="37.988882358373836" lon="15.018654867432426"><ele>1063.0</ele><time>2026-05-02T15:05:44.998Z</time></trkpt><trkpt lat="37.98896120410777" lon="15.018606300469884"><ele>1064.5</ele><time>2026-05-02T15:05:45.998Z</time></trkpt><trkpt lat="37.989056139446895" lon="15.018580994378365"><ele>1066.0</ele><time>2026-05-02T15:05:46.998Z</time></trkpt><trkpt lat="37.98916903196905" lon="15.01861427833991"><ele>1065.0</ele><time>2026-05-02T15:05:47.998Z</time></trkpt><trkpt lat="37.989290915307436" lon="15.018631798967554"><ele>1064.0</ele><time>2026-05-02T15:05:48.998Z</time></trkpt><trkpt lat="37.989413153074615" lon="15.018675814904167"><ele>1063.0</ele><time>2026-05-02T15:05:49.998Z</time></trkpt><trkpt lat="37.989548804570525" lon="15.018726500603723"><ele>1062.0</ele><time>2026-05-02T15:05:50.998Z</time></trkpt><trkpt lat="37.98968605874204" lon="15.018771425957924"><ele>1062.0</ele><time>2026-05-02T15:05:51.998Z</time></trkpt><trkpt lat="37.98981548947021" lon="15.018807262684318"><ele>1062.0</ele><time>2026-05-02T15:05:52.997Z</time></trkpt><trkpt lat="37.98994040299536" lon="15.01883850737449"><ele>1062.0</ele><time>2026-05-02T15:05:53.997Z</time></trkpt><trkpt lat="37.99006601966518" lon="15.018864505669939"><ele>1062.0</ele><time>2026-05-02T15:05:55Z</time></trkpt><trkpt lat="37.99018883780866" lon="15.018878029840952"><ele>1060.2</ele><time>2026-05-02T15:05:56Z</time></trkpt><trkpt lat="37.99030228307794" lon="15.018883247459812"><ele>1058.4</ele><time>2026-05-02T15:05:57Z</time></trkpt><trkpt lat="37.99040886058876" lon="15.018887256988206"><ele>1056.6</ele><time>2026-05-02T15:05:58Z</time></trkpt><trkpt lat="37.99050797695702" lon="15.018903241616858"><ele>1054.8</ele><time>2026-05-02T15:05:59Z</time></trkpt><trkpt lat="37.990607374301966" lon="15.018952347207785"><ele>1053.0</ele><time>2026-05-02T15:06:00Z</time></trkpt><trkpt lat="37.990681702164295" lon="15.019017938942149"><ele>1053.0</ele><time>2026-05-02T15:06:01Z</time></trkpt><trkpt lat="37.99074708283838" lon="15.019125698790624"><ele>1053.0</ele><time>2026-05-02T15:06:02Z</time></trkpt><trkpt lat="37.9908020309977" lon="15.019253471738223"><ele>1053.0</ele><time>2026-05-02T15:06:03Z</time></trkpt><trkpt lat="37.990887125206974" lon="15.019368161253551"><ele>1053.0</ele><time>2026-05-02T15:06:04Z</time></trkpt><trkpt lat="37.99095979370744" lon="15.019500981872488"><ele>1052.75</ele><time>2026-05-02T15:06:05Z</time></trkpt><trkpt lat="37.99104146130758" lon="15.019639127598497"><ele>1052.5</ele><time>2026-05-02T15:06:06Z</time></trkpt><trkpt lat="37.99112188835992" lon="15.019780062448024"><ele>1052.25</ele><time>2026-05-02T15:06:07Z</time></trkpt><trkpt lat="37.9912056626311" lon="15.019923040542905"><ele>1052.0</ele><time>2026-05-02T15:06:08Z</time></trkpt><trkpt lat="37.99128445702202" lon="15.020052625519874"><ele>1052.0</ele><time>2026-05-02T15:06:09Z</time></trkpt><trkpt lat="37.99135755983711" lon="15.020171190962351"><ele>1052.0</ele><time>2026-05-02T15:06:10Z</time></trkpt><trkpt lat="37.99142188478736" lon="15.020285582016747"><ele>1052.0</ele><time>2026-05-02T15:06:11Z</time></trkpt><trkpt lat="37.99148815266236" lon="15.020390323527343"><ele>1052.0</ele><time>2026-05-02T15:06:12Z</time></trkpt><trkpt lat="37.99156125898231" lon="15.020484963348256"><ele>1052.0</ele><time>2026-05-02T15:06:13Z</time></trkpt><trkpt lat="37.99163943789084" lon="15.020567967555309"><ele>1053.0</ele><time>2026-05-02T15:06:14Z</time></trkpt><trkpt lat="37.99173111096764" lon="15.020638656192165"><ele>1054.0</ele><time>2026-05-02T15:06:15Z</time></trkpt><trkpt lat="37.99182652535926" lon="15.020708347758154"><ele>1055.0</ele><time>2026-05-02T15:06:16Z</time></trkpt><trkpt lat="37.991909646928264" lon="15.020773636746931"><ele>1056.0</ele><time>2026-05-02T15:06:17Z</time></trkpt><trkpt lat="37.991986551701814" lon="15.020825314483355"><ele>1057.0</ele><time>2026-05-02T15:06:18Z</time></trkpt><trkpt lat="37.992058181188774" lon="15.02085938583738"><ele>1057.0</ele><time>2026-05-02T15:06:19Z</time></trkpt><trkpt lat="37.99213827041837" lon="15.02085110177624"><ele>1057.0</ele><time>2026-05-02T15:06:20Z</time></trkpt><trkpt lat="37.99222068367246" lon="15.020806771690832"><ele>1057.0</ele><time>2026-05-02T15:06:21Z</time></trkpt><trkpt lat="37.99228829724392" lon="15.02073570553588"><ele>1057.0</ele><time>2026-05-02T15:06:22Z</time></trkpt><trkpt lat="37.99234647315652" lon="15.020648095183436"><ele>1057.0</ele><time>2026-05-02T15:06:23Z</time></trkpt><trkpt lat="37.99239786466818" lon="15.020541370600391"><ele>1057.0</ele><time>2026-05-02T15:06:24Z</time></trkpt><trkpt lat="37.9924464075447" lon="15.020424939095411"><ele>1057.0</ele><time>2026-05-02T15:06:25Z</time></trkpt><trkpt lat="37.99248823467518" lon="15.020300081744034"><ele>1057.0</ele><time>2026-05-02T15:06:26Z</time></trkpt><trkpt lat="37.992529203125464" lon="15.020163065292078"><ele>1057.0</ele><time>2026-05-02T15:06:27Z</time></trkpt><trkpt lat="37.99257193660337" lon="15.020024282431866"><ele>1057.0</ele><time>2026-05-02T15:06:28Z</time></trkpt><trkpt lat="37.992615860821665" lon="15.019885302707543"><ele>1061.0</ele><time>2026-05-02T15:06:29Z</time></trkpt><trkpt lat="37.99266159613869" lon="15.019749535348856"><ele>1065.0</ele><time>2026-05-02T15:06:29.999Z</time></trkpt><trkpt lat="37.99270655675136" lon="15.019613839723794"><ele>1069.0</ele><time>2026-05-02T15:06:30.999Z</time></trkpt><trkpt lat="37.99274632611728" lon="15.019482458700189"><ele>1073.0</ele><time>2026-05-02T15:06:31.999Z</time></trkpt><trkpt lat="37.99278254933181" lon="15.01935475340923"><ele>1073.0</ele><time>2026-05-02T15:06:32.999Z</time></trkpt><trkpt lat="37.99281765067793" lon="15.019230271488388"><ele>1073.0</ele><time>2026-05-02T15:06:33.999Z</time></trkpt><trkpt lat="37.99285609780225" lon="15.019110580476253"><ele>1073.0</ele><time>2026-05-02T15:06:34.999Z</time></trkpt><trkpt lat="37.99289652946682" lon="15.018986506414432"><ele>1073.0</ele><time>2026-05-02T15:06:35.999Z</time></trkpt><trkpt lat="37.99294306695352" lon="15.018854802286494"><ele>1073.0</ele><time>2026-05-02T15:06:36.999Z</time></trkpt><trkpt lat="37.9929904880148" lon="15.018722937307501"><ele>1068.0</ele><time>2026-05-02T15:06:37.999Z</time></trkpt><trkpt lat="37.99303421036215" lon="15.01859032031298"><ele>1063.0</ele><time>2026-05-02T15:06:38.999Z</time></trkpt><trkpt lat="37.99310019529849" lon="15.018473261348923"><ele>1058.0</ele><time>2026-05-02T15:06:39.999Z</time></trkpt><trkpt lat="37.9931591316914" lon="15.018349036561705"><ele>1053.0</ele><time>2026-05-02T15:06:40.999Z</time></trkpt><trkpt lat="37.99324929644241" lon="15.018240806927347"><ele>1050.0</ele><time>2026-05-02T15:06:41.999Z</time></trkpt><trkpt lat="37.99334376830497" lon="15.018136759563358"><ele>1047.0</ele><time>2026-05-02T15:06:42.999Z</time></trkpt><trkpt lat="37.993430424282124" lon="15.018046774204082"><ele>1044.0</ele><time>2026-05-02T15:06:43.999Z</time></trkpt><trkpt lat="37.993529291480044" lon="15.017988307940207"><ele>1041.0</ele><time>2026-05-02T15:06:44.999Z</time></trkpt><trkpt lat="37.99363370646689" lon="15.017949917972464"><ele>1041.0</ele><time>2026-05-02T15:06:45.999Z</time></trkpt><trkpt lat="37.99374253532608" lon="15.017957804379806"><ele>1041.0</ele><time>2026-05-02T15:06:46.999Z</time></trkpt><trkpt lat="37.99386040448942" lon="15.017935998250382"><ele>1041.0</ele><time>2026-05-02T15:06:47.999Z</time></trkpt><trkpt lat="37.99398293689959" lon="15.01792448269533"><ele>1041.0</ele><time>2026-05-02T15:06:48.999Z</time></trkpt><trkpt lat="37.994118939801034" lon="15.017918279514632"><ele>1040.0</ele><time>2026-05-02T15:06:49.999Z</time></trkpt><trkpt lat="37.99426523884227" lon="15.017909694803041"><ele>1039.0</ele><time>2026-05-02T15:06:50.999Z</time></trkpt><trkpt lat="37.99442039559135" lon="15.01789479658214"><ele>1038.0</ele><time>2026-05-02T15:06:51.999Z</time></trkpt><trkpt lat="37.99458141561491" lon="15.017880652744173"><ele>1038.0</ele><time>2026-05-02T15:06:52.999Z</time></trkpt><trkpt lat="37.99474407298722" lon="15.017857336567864"><ele>1038.0</ele><time>2026-05-02T15:06:53.999Z</time></trkpt><trkpt lat="37.994901631437926" lon="15.017852413810386"><ele>1038.0</ele><time>2026-05-02T15:06:54.999Z</time></trkpt><trkpt lat="37.99504905746817" lon="15.017839479102275"><ele>1037.25</ele><time>2026-05-02T15:06:55.999Z</time></trkpt><trkpt lat="37.9951938810701" lon="15.017824359101137"><ele>1036.5</ele><time>2026-05-02T15:06:56.999Z</time></trkpt><trkpt lat="37.9953362791882" lon="15.017807286768278"><ele>1035.75</ele><time>2026-05-02T15:06:57.999Z</time></trkpt><trkpt lat="37.99547825071306" lon="15.017790274902156"><ele>1035.0</ele><time>2026-05-02T15:06:58.999Z</time></trkpt><trkpt lat="37.995614416748325" lon="15.017776076175183"><ele>1035.0</ele><time>2026-05-02T15:06:59.999Z</time></trkpt><trkpt lat="37.99574348375964" lon="15.017763064630898"><ele>1035.0</ele><time>2026-05-02T15:07:00.999Z</time></trkpt><trkpt lat="37.99586804787896" lon="15.01776059334372"><ele>1035.0</ele><time>2026-05-02T15:07:01.999Z</time></trkpt><trkpt lat="37.99599531970431" lon="15.017784989893551"><ele>1035.0</ele><time>2026-05-02T15:07:02.999Z</time></trkpt><trkpt lat="37.99612105717882" lon="15.017814039127188"><ele>1034.25</ele><time>2026-05-02T15:07:03.999Z</time></trkpt><trkpt lat="37.996251740528045" lon="15.017844296258767"><ele>1033.5</ele><time>2026-05-02T15:07:04.999Z</time></trkpt><trkpt lat="37.99638656582619" lon="15.017861747821174"><ele>1032.75</ele><time>2026-05-02T15:07:05.999Z</time></trkpt><trkpt lat="37.99652937655194" lon="15.017899551932773"><ele>1032.0</ele><time>2026-05-02T15:07:06.999Z</time></trkpt><trkpt lat="37.99667714470955" lon="15.017916096313911"><ele>1030.5</ele><time>2026-05-02T15:07:07.999Z</time></trkpt><trkpt lat="37.996818471808005" lon="15.017931008937188"><ele>1029.0</ele><time>2026-05-02T15:07:08.999Z</time></trkpt><trkpt lat="37.99695828977452" lon="15.01792838517896"><ele>1027.5</ele><time>2026-05-02T15:07:09.999Z</time></trkpt><trkpt lat="37.997090422434745" lon="15.01794578710982"><ele>1026.0</ele><time>2026-05-02T15:07:10.999Z</time></trkpt><trkpt lat="37.99720603236652" lon="15.01793427811121"><ele>1026.0</ele><time>2026-05-02T15:07:11.999Z</time></trkpt><trkpt lat="37.99732054157614" lon="15.017903035811177"><ele>1026.0</ele><time>2026-05-02T15:07:12.999Z</time></trkpt><trkpt lat="37.99742571962687" lon="15.017895822378176"><ele>1026.0</ele><time>2026-05-02T15:07:13.998Z</time></trkpt><trkpt lat="37.99751531276236" lon="15.017885063838351"><ele>1026.0</ele><time>2026-05-02T15:07:14.998Z</time></trkpt><trkpt lat="37.99760264007664" lon="15.017903099491281"><ele>1026.0</ele><time>2026-05-02T15:07:15.998Z</time></trkpt><trkpt lat="37.997652620659174" lon="15.017973900301877"><ele>1023.0</ele><time>2026-05-02T15:07:16.998Z</time></trkpt><trkpt lat="37.99762578699049" lon="15.018064069255946"><ele>1019.9999999999999</ele><time>2026-05-02T15:07:17.998Z</time></trkpt><trkpt lat="37.99761434503793" lon="15.01817706351404"><ele>1016.9999999999999</ele><time>2026-05-02T15:07:18.998Z</time></trkpt><trkpt lat="37.9976035454603" lon="15.018321834191557"><ele>1014.0</ele><time>2026-05-02T15:07:19.998Z</time></trkpt><trkpt lat="37.9975896674499" lon="15.01848285777511"><ele>1011.0</ele><time>2026-05-02T15:07:20.998Z</time></trkpt><trkpt lat="37.99757656633756" lon="15.018652143353458"><ele>1009.25</ele><time>2026-05-02T15:07:21.998Z</time></trkpt><trkpt lat="37.99756744672328" lon="15.01882644809569"><ele>1007.5</ele><time>2026-05-02T15:07:22.998Z</time></trkpt><trkpt lat="37.99757979969571" lon="15.018994654838277"><ele>1005.75</ele><time>2026-05-02T15:07:23.998Z</time></trkpt><trkpt lat="37.99758194146021" lon="15.019163669354825"><ele>1004.0</ele><time>2026-05-02T15:07:24.998Z</time></trkpt><trkpt lat="37.99759968360908" lon="15.01931104039743"><ele>1001.8000000000001</ele><time>2026-05-02T15:07:25.998Z</time></trkpt><trkpt lat="37.997611638441875" lon="15.0194452222715"><ele>999.6000000000001</ele><time>2026-05-02T15:07:26.998Z</time></trkpt><trkpt lat="37.99760073692401" lon="15.019565484051816"><ele>997.4</ele><time>2026-05-02T15:07:27.998Z</time></trkpt><trkpt lat="37.997548568668364" lon="15.019668147406195"><ele>995.2</ele><time>2026-05-02T15:07:28.998Z</time></trkpt><trkpt lat="37.99747779706251" lon="15.0197558900908"><ele>993.0</ele><time>2026-05-02T15:07:29.998Z</time></trkpt><trkpt lat="37.99740298818476" lon="15.019866039239053"><ele>1001.5</ele><time>2026-05-02T15:07:30.998Z</time></trkpt><trkpt lat="37.997321761619965" lon="15.019983658873349"><ele>1010.0</ele><time>2026-05-02T15:07:31.998Z</time></trkpt><trkpt lat="37.997234040551305" lon="15.020109803765795"><ele>1018.5</ele><time>2026-05-02T15:07:32.998Z</time></trkpt><trkpt lat="37.99715482058641" lon="15.020252342879695"><ele>1027.0</ele><time>2026-05-02T15:07:33.998Z</time></trkpt><trkpt lat="37.9970557689162" lon="15.02037835258913"><ele>1027.0</ele><time>2026-05-02T15:07:34.998Z</time></trkpt><trkpt lat="37.996962623345006" lon="15.020507642318885"><ele>1027.0</ele><time>2026-05-02T15:07:35.998Z</time></trkpt><trkpt lat="37.996884272568465" lon="15.020634006640996"><ele>1027.0</ele><time>2026-05-02T15:07:36.998Z</time></trkpt><trkpt lat="37.99681276065952" lon="15.020773607353703"><ele>1027.0</ele><time>2026-05-02T15:07:37.998Z</time></trkpt><trkpt lat="37.9967480762184" lon="15.020911455488262"><ele>1030.0</ele><time>2026-05-02T15:07:38.998Z</time></trkpt><trkpt lat="37.996693164509495" lon="15.02103824303936"><ele>1033.0</ele><time>2026-05-02T15:07:39.998Z</time></trkpt><trkpt lat="37.99664788216433" lon="15.021162111457864"><ele>1036.0</ele><time>2026-05-02T15:07:40.998Z</time></trkpt><trkpt lat="37.996581200359444" lon="15.02127778834101"><ele>1039.0</ele><time>2026-05-02T15:07:41.998Z</time></trkpt><trkpt lat="37.99650614409665" lon="15.021396190632855"><ele>1039.0</ele><time>2026-05-02T15:07:42.998Z</time></trkpt><trkpt lat="37.99643133244707" lon="15.021522316483791"><ele>1039.0</ele><time>2026-05-02T15:07:43.998Z</time></trkpt><trkpt lat="37.99633531633678" lon="15.021629289432912"><ele>1039.0</ele><time>2026-05-02T15:07:44.998Z</time></trkpt><trkpt lat="37.99625477865671" lon="15.02174731479898"><ele>1039.0</ele><time>2026-05-02T15:07:45.998Z</time></trkpt><trkpt lat="37.996171629464264" lon="15.021869167357004"><ele>1041.0</ele><time>2026-05-02T15:07:46.998Z</time></trkpt><trkpt lat="37.99609232258985" lon="15.02199215955444"><ele>1043.0</ele><time>2026-05-02T15:07:47.998Z</time></trkpt><trkpt lat="37.99600052420468" lon="15.022100910086989"><ele>1045.0</ele><time>2026-05-02T15:07:48.998Z</time></trkpt><trkpt lat="37.99591203882933" lon="15.022215429644742"><ele>1047.0</ele><time>2026-05-02T15:07:49.998Z</time></trkpt><trkpt lat="37.99582699033369" lon="15.02232023566112"><ele>1047.0</ele><time>2026-05-02T15:07:50.998Z</time></trkpt><trkpt lat="37.99574811128063" lon="15.022419316295622"><ele>1047.0</ele><time>2026-05-02T15:07:51.998Z</time></trkpt><trkpt lat="37.99567483659195" lon="15.02250879326771"><ele>1047.0</ele><time>2026-05-02T15:07:52.998Z</time></trkpt><trkpt lat="37.99561694725549" lon="15.022616383594883"><ele>1047.0</ele><time>2026-05-02T15:07:53.998Z</time></trkpt><trkpt lat="37.99557370195362" lon="15.022731294922892"><ele>1047.0</ele><time>2026-05-02T15:07:54.998Z</time></trkpt><trkpt lat="37.99553153652781" lon="15.022857525684692"><ele>1041.75</ele><time>2026-05-02T15:07:55.998Z</time></trkpt><trkpt lat="37.99549099538176" lon="15.02299447928742"><ele>1036.5</ele><time>2026-05-02T15:07:56.997Z</time></trkpt><trkpt lat="37.995447309156035" lon="15.023131456070212"><ele>1031.25</ele><time>2026-05-02T15:07:57.997Z</time></trkpt><trkpt lat="37.99539874276357" lon="15.023265448794218"><ele>1026.0</ele><time>2026-05-02T15:07:58.997Z</time></trkpt><trkpt lat="37.995336595203106" lon="15.023392393141341"><ele>1022.0</ele><time>2026-05-02T15:07:59.997Z</time></trkpt><trkpt lat="37.995267426075884" lon="15.0235198398549"><ele>1018.0</ele><time>2026-05-02T15:08:01Z</time></trkpt><trkpt lat="37.99518967721356" lon="15.02365063236182"><ele>1014.0</ele><time>2026-05-02T15:08:02Z</time></trkpt><trkpt lat="37.995105512795966" lon="15.023784632892554"><ele>1010.0</ele><time>2026-05-02T15:08:03Z</time></trkpt><trkpt lat="37.995026917219484" lon="15.023921552726229"><ele>1012.25</ele><time>2026-05-02T15:08:04Z</time></trkpt><trkpt lat="37.99494575930211" lon="15.024058768273747"><ele>1014.5</ele><time>2026-05-02T15:08:05Z</time></trkpt><trkpt lat="37.99486301830633" lon="15.024193356914807"><ele>1016.75</ele><time>2026-05-02T15:08:06Z</time></trkpt><trkpt lat="37.994789450498125" lon="15.024331461358344"><ele>1019.0</ele><time>2026-05-02T15:08:07Z</time></trkpt><trkpt lat="37.99472132348745" lon="15.02447455599453"><ele>1019.0</ele><time>2026-05-02T15:08:08Z</time></trkpt><trkpt lat="37.99466162322686" lon="15.024627241477697"><ele>1019.0</ele><time>2026-05-02T15:08:09Z</time></trkpt><trkpt lat="37.99460983010884" lon="15.024787673620475"><ele>1019.0</ele><time>2026-05-02T15:08:10Z</time></trkpt><trkpt lat="37.99454954619465" lon="15.024943110574988"><ele>1019.0</ele><time>2026-05-02T15:08:11Z</time></trkpt><trkpt lat="37.99449376506896" lon="15.025101090404416"><ele>1014.5</ele><time>2026-05-02T15:08:12Z</time></trkpt><trkpt lat="37.99443932650928" lon="15.025249076893079"><ele>1010.0</ele><time>2026-05-02T15:08:13Z</time></trkpt><trkpt lat="37.99438313998093" lon="15.025394636909732"><ele>1005.5</ele><time>2026-05-02T15:08:14Z</time></trkpt><trkpt lat="37.99433312210394" lon="15.02554898021146"><ele>1001.0</ele><time>2026-05-02T15:08:15Z</time></trkpt><trkpt lat="37.994286635529406" lon="15.025695670613267"><ele>1004.75</ele><time>2026-05-02T15:08:16Z</time></trkpt><trkpt lat="37.99422601729285" lon="15.025824627509506"><ele>1008.5</ele><time>2026-05-02T15:08:17Z</time></trkpt><trkpt lat="37.99417446939929" lon="15.025949860772783"><ele>1012.25</ele><time>2026-05-02T15:08:18Z</time></trkpt><trkpt lat="37.99408158078074" lon="15.026039685096219"><ele>1016.0</ele><time>2026-05-02T15:08:19Z</time></trkpt><trkpt lat="37.993992594362716" lon="15.026145358961761"><ele>1016.0</ele><time>2026-05-02T15:08:20Z</time></trkpt><trkpt lat="37.99390691532112" lon="15.026250455439461"><ele>1016.0</ele><time>2026-05-02T15:08:21Z</time></trkpt><trkpt lat="37.993842296645354" lon="15.02636570790818"><ele>1016.0</ele><time>2026-05-02T15:08:22Z</time></trkpt><trkpt lat="37.993780503980574" lon="15.026493663321041"><ele>1016.0</ele><time>2026-05-02T15:08:23Z</time></trkpt><trkpt lat="37.993723916255796" lon="15.026632224397387"><ele>1012.25</ele><time>2026-05-02T15:08:24Z</time></trkpt><trkpt lat="37.99367318583704" lon="15.026775769379666"><ele>1008.5</ele><time>2026-05-02T15:08:25Z</time></trkpt><trkpt lat="37.99361793476095" lon="15.026923490919065"><ele>1004.75</ele><time>2026-05-02T15:08:26Z</time></trkpt><trkpt lat="37.9935594699078" lon="15.027074277720171"><ele>1001.0</ele><time>2026-05-02T15:08:27Z</time></trkpt><trkpt lat="37.993505696548425" lon="15.027209528989303"><ele>1001.0</ele><time>2026-05-02T15:08:28Z</time></trkpt><trkpt lat="37.993440205346516" lon="15.02732964709391"><ele>1000.9999999999999</ele><time>2026-05-02T15:08:29Z</time></trkpt><trkpt lat="37.99339871012744" lon="15.027437386452577"><ele>1000.9999999999999</ele><time>2026-05-02T15:08:30Z</time></trkpt><trkpt lat="37.99339220876781" lon="15.027528740175706"><ele>1001.0</ele><time>2026-05-02T15:08:31Z</time></trkpt><trkpt lat="37.99341833070978" lon="15.027627859864205"><ele>1001.0</ele><time>2026-05-02T15:08:32Z</time></trkpt><trkpt lat="37.9934686643624" lon="15.027718487048478"><ele>998.8</ele><time>2026-05-02T15:08:32.999Z</time></trkpt><trkpt lat="37.99354014333194" lon="15.0277816823359"><ele>996.5999999999999</ele><time>2026-05-02T15:08:33.999Z</time></trkpt><trkpt lat="37.993647164044106" lon="15.027827649969051"><ele>994.4</ele><time>2026-05-02T15:08:34.999Z</time></trkpt><trkpt lat="37.993764835800555" lon="15.027872753969877"><ele>992.2</ele><time>2026-05-02T15:08:35.999Z</time></trkpt><trkpt lat="37.993850404841105" lon="15.02794447819818"><ele>990.0</ele><time>2026-05-02T15:08:36.999Z</time></trkpt><trkpt lat="37.993899458918555" lon="15.028028131519298"><ele>990.0</ele><time>2026-05-02T15:08:37.999Z</time></trkpt><trkpt lat="37.99391888369652" lon="15.028168129295992"><ele>990.0</ele><time>2026-05-02T15:08:38.999Z</time></trkpt><trkpt lat="37.99395659751065" lon="15.028329278833237"><ele>990.0</ele><time>2026-05-02T15:08:39.999Z</time></trkpt><trkpt lat="37.99398261769439" lon="15.02848283443518"><ele>990.0</ele><time>2026-05-02T15:08:40.999Z</time></trkpt><trkpt lat="37.99398618429289" lon="15.028598465676534"><ele>991.8</ele><time>2026-05-02T15:08:41.999Z</time></trkpt><trkpt lat="37.99408944538096" lon="15.028694939073196"><ele>993.6</ele><time>2026-05-02T15:08:43.999Z</time></trkpt><trkpt lat="37.994171289310366" lon="15.02871638443116"><ele>995.4000000000001</ele><time>2026-05-02T15:08:44.999Z</time></trkpt><trkpt lat="37.994256488826245" lon="15.028652292989213"><ele>997.2</ele><time>2026-05-02T15:08:45.999Z</time></trkpt><trkpt lat="37.99436166275159" lon="15.02861722140771"><ele>999.0</ele><time>2026-05-02T15:08:46.999Z</time></trkpt><trkpt lat="37.994472203603905" lon="15.02855280791714"><ele>1000.6</ele><time>2026-05-02T15:08:47.999Z</time></trkpt><trkpt lat="37.99458382038" lon="15.028493725442862"><ele>1002.2</ele><time>2026-05-02T15:08:48.999Z</time></trkpt><trkpt lat="37.994696865826924" lon="15.028434725047951"><ele>1003.8000000000001</ele><time>2026-05-02T15:08:49.999Z</time></trkpt><trkpt lat="37.99478882788296" lon="15.028386387089935"><ele>1005.4000000000001</ele><time>2026-05-02T15:08:50.999Z</time></trkpt><trkpt lat="37.994864419491336" lon="15.02834513966862"><ele>1007.0</ele><time>2026-05-02T15:08:51.999Z</time></trkpt><trkpt lat="37.99492395473341" lon="15.028283120028153"><ele>1008.2</ele><time>2026-05-02T15:08:52.999Z</time></trkpt><trkpt lat="37.994956953431085" lon="15.028192714155006"><ele>1009.4000000000001</ele><time>2026-05-02T15:08:53.999Z</time></trkpt><trkpt lat="37.994976575963875" lon="15.028068243134934"><ele>1010.5999999999999</ele><time>2026-05-02T15:08:54.999Z</time></trkpt><trkpt lat="37.99499652534337" lon="15.027948914053008"><ele>1011.8</ele><time>2026-05-02T15:08:55.999Z</time></trkpt><trkpt lat="37.99501673383018" lon="15.027838886296149"><ele>1013.0</ele><time>2026-05-02T15:08:56.999Z</time></trkpt><trkpt lat="37.99506113238008" lon="15.027742204888591"><ele>1013.0000000000001</ele><time>2026-05-02T15:08:57.999Z</time></trkpt><trkpt lat="37.995123017648616" lon="15.027663006445033"><ele>1013.0</ele><time>2026-05-02T15:08:58.999Z</time></trkpt><trkpt lat="37.99521391755842" lon="15.027630901816446"><ele>1013.0</ele><time>2026-05-02T15:08:59.999Z</time></trkpt><trkpt lat="37.99528481627621" lon="15.027579975815547"><ele>1013.0</ele><time>2026-05-02T15:09:00.999Z</time></trkpt><trkpt lat="37.995348159612576" lon="15.027546318790247"><ele>1013.0000000000001</ele><time>2026-05-02T15:09:01.999Z</time></trkpt><trkpt lat="37.99538360983451" lon="15.027443114185736"><ele>1013.0</ele><time>2026-05-02T15:09:03.999Z</time></trkpt><trkpt lat="37.99539927611211" lon="15.027361853036233"><ele>1009.0</ele><time>2026-05-02T15:09:04.999Z</time></trkpt><trkpt lat="37.99543771806963" lon="15.027272108161643"><ele>1005.0</ele><time>2026-05-02T15:09:05.999Z</time></trkpt><trkpt lat="37.99552415660243" lon="15.027195677359073"><ele>1001.0</ele><time>2026-05-02T15:09:06.999Z</time></trkpt><trkpt lat="37.995591330381366" lon="15.027111548316329"><ele>997.0</ele><time>2026-05-02T15:09:07.999Z</time></trkpt><trkpt lat="37.995659968240005" lon="15.027025585581749"><ele>993.0</ele><time>2026-05-02T15:09:08.999Z</time></trkpt><trkpt lat="37.99571750519293" lon="15.026947425052123"><ele>993.0</ele><time>2026-05-02T15:09:09.999Z</time></trkpt><trkpt lat="37.995760642007916" lon="15.026840964365409"><ele>993.0</ele><time>2026-05-02T15:09:10.999Z</time></trkpt><trkpt lat="37.99576128233194" lon="15.026720637817117"><ele>993.0</ele><time>2026-05-02T15:09:11.999Z</time></trkpt><trkpt lat="37.99577715776691" lon="15.02661114845205"><ele>993.0</ele><time>2026-05-02T15:09:12.999Z</time></trkpt><trkpt lat="37.995810868142094" lon="15.026503769768434"><ele>993.0</ele><time>2026-05-02T15:09:13.999Z</time></trkpt><trkpt lat="37.995828249158315" lon="15.026398497497912"><ele>991.5</ele><time>2026-05-02T15:09:14.999Z</time></trkpt><trkpt lat="37.99585344048524" lon="15.026314282498314"><ele>990.0</ele><time>2026-05-02T15:09:15.999Z</time></trkpt><trkpt lat="37.995900821846284" lon="15.026235938777685"><ele>988.5</ele><time>2026-05-02T15:09:16.999Z</time></trkpt><trkpt lat="37.99597117737208" lon="15.026182818737711"><ele>987.0</ele><time>2026-05-02T15:09:17.998Z</time></trkpt><trkpt lat="37.99606096630202" lon="15.026146324004548"><ele>985.5</ele><time>2026-05-02T15:09:18.998Z</time></trkpt><trkpt lat="37.9961588816513" lon="15.02609463525502"><ele>984.0</ele><time>2026-05-02T15:09:19.998Z</time></trkpt><trkpt lat="37.99626251657341" lon="15.026062607139547"><ele>984.0</ele><time>2026-05-02T15:09:20.998Z</time></trkpt><trkpt lat="37.996358129346014" lon="15.02597787693948"><ele>984.0</ele><time>2026-05-02T15:09:21.998Z</time></trkpt><trkpt lat="37.99646065366842" lon="15.025906036414366"><ele>984.0</ele><time>2026-05-02T15:09:22.998Z</time></trkpt><trkpt lat="37.996559604567665" lon="15.025826123670507"><ele>984.0</ele><time>2026-05-02T15:09:23.998Z</time></trkpt><trkpt lat="37.99666281147824" lon="15.025751626130353"><ele>978.25</ele><time>2026-05-02T15:09:24.998Z</time></trkpt><trkpt lat="37.996774976778255" lon="15.025691410302308"><ele>972.5</ele><time>2026-05-02T15:09:25.998Z</time></trkpt><trkpt lat="37.99689778223944" lon="15.025673983256176"><ele>966.75</ele><time>2026-05-02T15:09:26.998Z</time></trkpt><trkpt lat="37.997017393400576" lon="15.025630282383876"><ele>961.0</ele><time>2026-05-02T15:09:27.998Z</time></trkpt><trkpt lat="37.99713952020553" lon="15.025617805015852"><ele>961.0</ele><time>2026-05-02T15:09:28.998Z</time></trkpt><trkpt lat="37.99725959095638" lon="15.02559734542901"><ele>961.0</ele><time>2026-05-02T15:09:29.998Z</time></trkpt><trkpt lat="37.997380393928864" lon="15.025572190473854"><ele>961.0</ele><time>2026-05-02T15:09:30.998Z</time></trkpt><trkpt lat="37.99750191216353" lon="15.025545525578371"><ele>961.0</ele><time>2026-05-02T15:09:31.998Z</time></trkpt><trkpt lat="37.99762246675843" lon="15.02551609344142"><ele>963.0</ele><time>2026-05-02T15:09:32.998Z</time></trkpt><trkpt lat="37.997741916980736" lon="15.025478528373398"><ele>964.9999999999999</ele><time>2026-05-02T15:09:33.998Z</time></trkpt><trkpt lat="37.99785834020359" lon="15.025459326521391"><ele>966.9999999999999</ele><time>2026-05-02T15:09:34.998Z</time></trkpt><trkpt lat="37.99796220389537" lon="15.025440043921648"><ele>969.0</ele><time>2026-05-02T15:09:35.998Z</time></trkpt><trkpt lat="37.99805855009024" lon="15.025420139296015"><ele>971.0</ele><time>2026-05-02T15:09:36.998Z</time></trkpt><trkpt lat="37.99814987315859" lon="15.025401953368952"><ele>971.0000000000001</ele><time>2026-05-02T15:09:37.998Z</time></trkpt><trkpt lat="37.99823843043075" lon="15.025381563020332"><ele>971.0</ele><time>2026-05-02T15:09:38.998Z</time></trkpt><trkpt lat="37.99831463530925" lon="15.02535464955199"><ele>971.0</ele><time>2026-05-02T15:09:39.998Z</time></trkpt><trkpt lat="37.99838683244012" lon="15.025309818120116"><ele>971.0</ele><time>2026-05-02T15:09:40.998Z</time></trkpt><trkpt lat="37.99845446135536" lon="15.025252500857599"><ele>971.0000000000001</ele><time>2026-05-02T15:09:41.998Z</time></trkpt><trkpt lat="37.99852922088603" lon="15.02521635311975"><ele>971.0</ele><time>2026-05-02T15:09:42.998Z</time></trkpt><trkpt lat="37.99859795185657" lon="15.025172197069162"><ele>973.6666666666667</ele><time>2026-05-02T15:09:43.998Z</time></trkpt><trkpt lat="37.99866175013295" lon="15.025114841224662"><ele>976.3333333333334</ele><time>2026-05-02T15:09:44.998Z</time></trkpt><trkpt lat="37.998723322215206" lon="15.02505737647695"><ele>979.0</ele><time>2026-05-02T15:09:45.998Z</time></trkpt><trkpt lat="37.998784480522275" lon="15.024996817607633"><ele>981.6666666666667</ele><time>2026-05-02T15:09:46.998Z</time></trkpt><trkpt lat="37.99887650089426" lon="15.024917625629094"><ele>984.3333333333334</ele><time>2026-05-02T15:09:48.998Z</time></trkpt><trkpt lat="37.99896169568834" lon="15.024865704202915"><ele>987.0</ele><time>2026-05-02T15:09:50.998Z</time></trkpt><trkpt lat="37.999031172183216" lon="15.024832426238671"><ele>983.8333333333334</ele><time>2026-05-02T15:09:53.998Z</time></trkpt><trkpt lat="37.99912172345188" lon="15.024778882283954"><ele>980.6666666666667</ele><time>2026-05-02T15:09:57.998Z</time></trkpt><trkpt lat="37.999192207344166" lon="15.024764286614113"><ele>977.5</ele><time>2026-05-02T15:09:59.998Z</time></trkpt><trkpt lat="37.99925945207904" lon="15.024711892684573"><ele>974.3333333333334</ele><time>2026-05-02T15:10:01.997Z</time></trkpt><trkpt lat="37.99935539964099" lon="15.024667633790598"><ele>971.1666666666667</ele><time>2026-05-02T15:10:03.997Z</time></trkpt><trkpt lat="37.99941425786745" lon="15.024631547087562"><ele>968.0</ele><time>2026-05-02T15:10:04.997Z</time></trkpt><trkpt lat="37.99947379187832" lon="15.02459682748542"><ele>968.0</ele><time>2026-05-02T15:10:05.997Z</time></trkpt><trkpt lat="37.999532540983715" lon="15.024565471168113"><ele>968.0</ele><time>2026-05-02T15:10:07Z</time></trkpt><trkpt lat="37.99963701420821" lon="15.024514978460683"><ele>968.0</ele><time>2026-05-02T15:10:09Z</time></trkpt><trkpt lat="37.99974403069202" lon="15.024459810312068"><ele>968.0</ele><time>2026-05-02T15:10:11Z</time></trkpt><trkpt lat="37.99981257627134" lon="15.024421508300287"><ele>968.0</ele><time>2026-05-02T15:10:12Z</time></trkpt><trkpt lat="37.99989107185558" lon="15.024379264222828"><ele>968.0000000000001</ele><time>2026-05-02T15:10:13Z</time></trkpt><trkpt lat="37.99997167113117" lon="15.024323808895305"><ele>968.0</ele><time>2026-05-02T15:10:14Z</time></trkpt><trkpt lat="38.000054275570925" lon="15.024255404839428"><ele>968.0</ele><time>2026-05-02T15:10:15Z</time></trkpt><trkpt lat="38.00013173627374" lon="15.024195416879383"><ele>968.0</ele><time>2026-05-02T15:10:16Z</time></trkpt><trkpt lat="38.00020693051797" lon="15.024147716837808"><ele>968.0000000000001</ele><time>2026-05-02T15:10:17Z</time></trkpt><trkpt lat="38.0002848021176" lon="15.024115475431731"><ele>968.0</ele><time>2026-05-02T15:10:18Z</time></trkpt><trkpt lat="38.00036829536995" lon="15.024089778420576"><ele>964.4285714285713</ele><time>2026-05-02T15:10:19Z</time></trkpt><trkpt lat="38.0004530078138" lon="15.024076788026644"><ele>960.8571428571428</ele><time>2026-05-02T15:10:20Z</time></trkpt><trkpt lat="38.00053097864609" lon="15.024083528756721"><ele>957.2857142857142</ele><time>2026-05-02T15:10:21Z</time></trkpt><trkpt lat="38.000601238785706" lon="15.024071585835527"><ele>953.7142857142858</ele><time>2026-05-02T15:10:22Z</time></trkpt><trkpt lat="38.00066008616777" lon="15.024035135196721"><ele>950.1428571428572</ele><time>2026-05-02T15:10:23Z</time></trkpt><trkpt lat="38.00069981991954" lon="15.023965535170278"><ele>946.5714285714287</ele><time>2026-05-02T15:10:24Z</time></trkpt><trkpt lat="38.00072791011453" lon="15.023869803128145"><ele>943.0</ele><time>2026-05-02T15:10:25Z</time></trkpt><trkpt lat="38.00074200836708" lon="15.023760728523039"><ele>942.9999999999999</ele><time>2026-05-02T15:10:26Z</time></trkpt><trkpt lat="38.00077240320996" lon="15.023672743325305"><ele>943.0</ele><time>2026-05-02T15:10:27Z</time></trkpt><trkpt lat="38.00082567464688" lon="15.023583762071352"><ele>943.0</ele><time>2026-05-02T15:10:28Z</time></trkpt><trkpt lat="38.000892883345" lon="15.023504268658627"><ele>943.0</ele><time>2026-05-02T15:10:29Z</time></trkpt><trkpt lat="38.000963956645954" lon="15.02343470845227"><ele>942.9999999999999</ele><time>2026-05-02T15:10:30Z</time></trkpt><trkpt lat="38.00104007973983" lon="15.023353661518264"><ele>943.0</ele><time>2026-05-02T15:10:31Z</time></trkpt><trkpt lat="38.001120019121664" lon="15.023276066129023"><ele>943.2</ele><time>2026-05-02T15:10:32Z</time></trkpt><trkpt lat="38.001196550461785" lon="15.023199266787055"><ele>943.4</ele><time>2026-05-02T15:10:33Z</time></trkpt><trkpt lat="38.00126552307456" lon="15.023126898622683"><ele>943.6000000000001</ele><time>2026-05-02T15:10:34Z</time></trkpt><trkpt lat="38.00133211669323" lon="15.023057110815323"><ele>943.8000000000001</ele><time>2026-05-02T15:10:35Z</time></trkpt><trkpt lat="38.001401017535485" lon="15.022983471577406"><ele>944.0</ele><time>2026-05-02T15:10:36Z</time></trkpt><trkpt lat="38.00147263618378" lon="15.022909792729745"><ele>944.0</ele><time>2026-05-02T15:10:37Z</time></trkpt><trkpt lat="38.00154456417373" lon="15.022837925996239"><ele>944.0000000000001</ele><time>2026-05-02T15:10:38Z</time></trkpt><trkpt lat="38.00161735756718" lon="15.02276288986258"><ele>944.0000000000001</ele><time>2026-05-02T15:10:38.999Z</time></trkpt><trkpt lat="38.001693179161926" lon="15.022691583109705"><ele>944.0</ele><time>2026-05-02T15:10:39.999Z</time></trkpt><trkpt lat="38.00176368658528" lon="15.022621026558301"><ele>944.0</ele><time>2026-05-02T15:10:40.999Z</time></trkpt><trkpt lat="38.00182336141567" lon="15.022547345290238"><ele>945.1428571428571</ele><time>2026-05-02T15:10:41.999Z</time></trkpt><trkpt lat="38.00187568393157" lon="15.022471990266432"><ele>946.2857142857143</ele><time>2026-05-02T15:10:42.999Z</time></trkpt><trkpt lat="38.00192265184604" lon="15.02239303508875"><ele>947.4285714285714</ele><time>2026-05-02T15:10:43.999Z</time></trkpt><trkpt lat="38.001963694264674" lon="15.022314391782313"><ele>948.5714285714286</ele><time>2026-05-02T15:10:44.999Z</time></trkpt><trkpt lat="38.00200258868305" lon="15.02223774539764"><ele>949.7142857142858</ele><time>2026-05-02T15:10:45.999Z</time></trkpt><trkpt lat="38.002039055908774" lon="15.022164131472392"><ele>950.8571428571429</ele><time>2026-05-02T15:10:46.999Z</time></trkpt><trkpt lat="38.00208285699989" lon="15.0220897224927"><ele>952.0</ele><time>2026-05-02T15:10:47.999Z</time></trkpt><trkpt lat="38.00211514884796" lon="15.022001933447724"><ele>951.9999999999999</ele><time>2026-05-02T15:10:48.999Z</time></trkpt><trkpt lat="38.0021672023224" lon="15.021921399570022"><ele>952.0</ele><time>2026-05-02T15:10:49.999Z</time></trkpt><trkpt lat="38.00222796841349" lon="15.021852647370116"><ele>952.0</ele><time>2026-05-02T15:10:50.999Z</time></trkpt><trkpt lat="38.00228933318858" lon="15.021780618359472"><ele>952.0</ele><time>2026-05-02T15:10:51.999Z</time></trkpt><trkpt lat="38.002361696596196" lon="15.021715159008876"><ele>951.9999999999999</ele><time>2026-05-02T15:10:52.999Z</time></trkpt><trkpt lat="38.002444501693596" lon="15.021648573634844"><ele>952.0</ele><time>2026-05-02T15:10:53.999Z</time></trkpt><trkpt lat="38.00254928297666" lon="15.02160843116731"><ele>951.2</ele><time>2026-05-02T15:10:54.999Z</time></trkpt><trkpt lat="38.002647681200386" lon="15.021573901997588"><ele>950.4000000000001</ele><time>2026-05-02T15:10:55.999Z</time></trkpt><trkpt lat="38.00274385784658" lon="15.021541866277676"><ele>949.5999999999999</ele><time>2026-05-02T15:10:56.999Z</time></trkpt><trkpt lat="38.00283637152754" lon="15.021520890752145"><ele>948.8</ele><time>2026-05-02T15:10:57.999Z</time></trkpt><trkpt lat="38.002919353002575" lon="15.021502958539331"><ele>948.0</ele><time>2026-05-02T15:10:58.999Z</time></trkpt><trkpt lat="38.00300560743961" lon="15.021511231238643"><ele>947.9999999999999</ele><time>2026-05-02T15:10:59.999Z</time></trkpt><trkpt lat="38.00308547622384" lon="15.021516690116188"><ele>948.0</ele><time>2026-05-02T15:11:00.999Z</time></trkpt><trkpt lat="38.0031575004971" lon="15.02149872504262"><ele>947.9999999999999</ele><time>2026-05-02T15:11:01.999Z</time></trkpt><trkpt lat="38.00321795370975" lon="15.021459790514584"><ele>947.9999999999999</ele><time>2026-05-02T15:11:02.999Z</time></trkpt><trkpt lat="38.00327718259813" lon="15.021432232828003"><ele>948.0</ele><time>2026-05-02T15:11:03.999Z</time></trkpt><trkpt lat="38.00334180030353" lon="15.021401405236704"><ele>947.9999999999999</ele><time>2026-05-02T15:11:04.999Z</time></trkpt><trkpt lat="38.0034046679195" lon="15.021366552756293"><ele>947.9999999999999</ele><time>2026-05-02T15:11:05.999Z</time></trkpt><trkpt lat="38.00346359165692" lon="15.021331178964004"><ele>949.3333333333334</ele><time>2026-05-02T15:11:06.999Z</time></trkpt><trkpt lat="38.00352094093524" lon="15.021294281644058"><ele>950.6666666666667</ele><time>2026-05-02T15:11:07.999Z</time></trkpt><trkpt lat="38.003581250188184" lon="15.021252250149038"><ele>952.0</ele><time>2026-05-02T15:11:08.999Z</time></trkpt><trkpt lat="38.00364695023015" lon="15.02120845672709"><ele>953.3333333333334</ele><time>2026-05-02T15:11:09.999Z</time></trkpt><trkpt lat="38.00371650412926" lon="15.021159641379544"><ele>954.6666666666667</ele><time>2026-05-02T15:11:10.999Z</time></trkpt><trkpt lat="38.00379227873554" lon="15.021105137294537"><ele>956.0</ele><time>2026-05-02T15:11:11.999Z</time></trkpt><trkpt lat="38.00387369715888" lon="15.021051282976412"><ele>956.0</ele><time>2026-05-02T15:11:12.999Z</time></trkpt><trkpt lat="38.00395900102845" lon="15.020992649523347"><ele>955.9999999999999</ele><time>2026-05-02T15:11:13.999Z</time></trkpt><trkpt lat="38.004051276878016" lon="15.020941638897325"><ele>955.9999999999999</ele><time>2026-05-02T15:11:14.999Z</time></trkpt><trkpt lat="38.00414527383033" lon="15.020886619528602"><ele>956.0</ele><time>2026-05-02T15:11:15.999Z</time></trkpt><trkpt lat="38.00423079982561" lon="15.020845282042348"><ele>956.0</ele><time>2026-05-02T15:11:16.999Z</time></trkpt><trkpt lat="38.00431090475344" lon="15.020805639711725"><ele>953.5000000000001</ele><time>2026-05-02T15:11:17.999Z</time></trkpt><trkpt lat="38.004386457119224" lon="15.020766806208913"><ele>951.0</ele><time>2026-05-02T15:11:18.999Z</time></trkpt><trkpt lat="38.004465792050674" lon="15.020738085611658"><ele>948.5</ele><time>2026-05-02T15:11:19.999Z</time></trkpt><trkpt lat="38.00454570346785" lon="15.020703927075227"><ele>946.0</ele><time>2026-05-02T15:11:20.999Z</time></trkpt><trkpt lat="38.004628603437226" lon="15.020672328716422"><ele>943.5000000000001</ele><time>2026-05-02T15:11:21.999Z</time></trkpt><trkpt lat="38.00471044590717" lon="15.020638003089827"><ele>941.0</ele><time>2026-05-02T15:11:22.999Z</time></trkpt><trkpt lat="38.004793803187965" lon="15.020602359810534"><ele>941.0</ele><time>2026-05-02T15:11:23.999Z</time></trkpt><trkpt lat="38.00488100034254" lon="15.020571329374008"><ele>940.9999999999999</ele><time>2026-05-02T15:11:24.999Z</time></trkpt><trkpt lat="38.00497026965757" lon="15.020534855762047"><ele>940.9999999999999</ele><time>2026-05-02T15:11:25.998Z</time></trkpt><trkpt lat="38.00506266877029" lon="15.020506161712975"><ele>941.0</ele><time>2026-05-02T15:11:26.998Z</time></trkpt><trkpt lat="38.00515465484006" lon="15.020475541534426"><ele>941.0</ele><time>2026-05-02T15:11:27.998Z</time></trkpt><trkpt lat="38.00524647615967" lon="15.020453370596178"><ele>942.8</ele><time>2026-05-02T15:11:28.998Z</time></trkpt><trkpt lat="38.00534115628188" lon="15.02043195976174"><ele>944.5999999999999</ele><time>2026-05-02T15:11:29.998Z</time></trkpt><trkpt lat="38.005437561573444" lon="15.020405062103704"><ele>946.4</ele><time>2026-05-02T15:11:30.998Z</time></trkpt><trkpt lat="38.0055320660342" lon="15.02038064598371"><ele>948.2</ele><time>2026-05-02T15:11:31.998Z</time></trkpt><trkpt lat="38.00562454161648" lon="15.020353952843893"><ele>950.0</ele><time>2026-05-02T15:11:32.998Z</time></trkpt><trkpt lat="38.005711294150174" lon="15.02032460863625"><ele>950.0000000000001</ele><time>2026-05-02T15:11:33.998Z</time></trkpt><trkpt lat="38.00580123985095" lon="15.020300476564836"><ele>950.0</ele><time>2026-05-02T15:11:34.998Z</time></trkpt><trkpt lat="38.00588854747869" lon="15.02027863303453"><ele>950.0</ele><time>2026-05-02T15:11:35.998Z</time></trkpt><trkpt lat="38.00597597132214" lon="15.020257173306389"><ele>950.0</ele><time>2026-05-02T15:11:36.998Z</time></trkpt><trkpt lat="38.00605991509343" lon="15.020233170592597"><ele>950.0000000000001</ele><time>2026-05-02T15:11:37.998Z</time></trkpt><trkpt lat="38.006138395952036" lon="15.020212634042986"><ele>950.0</ele><time>2026-05-02T15:11:38.998Z</time></trkpt><trkpt lat="38.00621162987965" lon="15.02019427380611"><ele>951.1666666666667</ele><time>2026-05-02T15:11:39.998Z</time></trkpt><trkpt lat="38.00628012060215" lon="15.020176169046879"><ele>952.3333333333334</ele><time>2026-05-02T15:11:40.998Z</time></trkpt><trkpt lat="38.006351839916775" lon="15.020158274860297"><ele>953.5</ele><time>2026-05-02T15:11:41.998Z</time></trkpt><trkpt lat="38.006425786089885" lon="15.020139056140797"><ele>954.6666666666667</ele><time>2026-05-02T15:11:42.998Z</time></trkpt><trkpt lat="38.006503387891996" lon="15.020119045200424"><ele>955.8333333333334</ele><time>2026-05-02T15:11:43.998Z</time></trkpt><trkpt lat="38.006585734837564" lon="15.020101403478684"><ele>957.0</ele><time>2026-05-02T15:11:44.998Z</time></trkpt><trkpt lat="38.00667138075265" lon="15.020080689754845"><ele>957.8</ele><time>2026-05-02T15:11:45.998Z</time></trkpt><trkpt lat="38.006761647328766" lon="15.020060005149979"><ele>958.6</ele><time>2026-05-02T15:11:46.998Z</time></trkpt><trkpt lat="38.00685615954723" lon="15.020047573626938"><ele>959.3999999999999</ele><time>2026-05-02T15:11:47.998Z</time></trkpt><trkpt lat="38.006953219625736" lon="15.020037841355553"><ele>960.1999999999999</ele><time>2026-05-02T15:11:48.998Z</time></trkpt><trkpt lat="38.0070520015635" lon="15.020029038602868"><ele>961.0</ele><time>2026-05-02T15:11:49.998Z</time></trkpt><trkpt lat="38.007150595875544" lon="15.020027022771275"><ele>960.9999999999999</ele><time>2026-05-02T15:11:50.998Z</time></trkpt><trkpt lat="38.00724570436696" lon="15.020025629595027"><ele>961.0</ele><time>2026-05-02T15:11:51.998Z</time></trkpt><trkpt lat="38.0073365100635" lon="15.020025718354649"><ele>961.0</ele><time>2026-05-02T15:11:52.998Z</time></trkpt><trkpt lat="38.00742472080063" lon="15.020027511255323"><ele>961.0</ele><time>2026-05-02T15:11:53.998Z</time></trkpt><trkpt lat="38.00751350918295" lon="15.020036607420327"><ele>960.9999999999999</ele><time>2026-05-02T15:11:54.998Z</time></trkpt><trkpt lat="38.0075989929518" lon="15.020047340478225"><ele>961.0</ele><time>2026-05-02T15:11:55.998Z</time></trkpt><trkpt lat="38.00768434019112" lon="15.020061216633982"><ele>961.1999999999999</ele><time>2026-05-02T15:11:56.998Z</time></trkpt><trkpt lat="38.00776640912375" lon="15.020075764961387"><ele>961.3999999999999</ele><time>2026-05-02T15:11:57.998Z</time></trkpt><trkpt lat="38.0078462701895" lon="15.020092864998055"><ele>961.6</ele><time>2026-05-02T15:11:58.998Z</time></trkpt><trkpt lat="38.00791863639035" lon="15.020114147959461"><ele>961.8</ele><time>2026-05-02T15:11:59.998Z</time></trkpt><trkpt lat="38.00802642989594" lon="15.020173126904982"><ele>962.0</ele><time>2026-05-02T15:12:01.998Z</time></trkpt><trkpt lat="38.00807182025524" lon="15.02030220936285"><ele>962.0000000000001</ele><time>2026-05-02T15:12:03.998Z</time></trkpt><trkpt lat="38.00804846957736" lon="15.020440582449616"><ele>962.0</ele><time>2026-05-02T15:12:05.998Z</time></trkpt><trkpt lat="38.008023080620866" lon="15.020521625848453"><ele>962.0</ele><time>2026-05-02T15:12:06.998Z</time></trkpt><trkpt lat="38.007997001475296" lon="15.020609683713191"><ele>962.0</ele><time>2026-05-02T15:12:07.998Z</time></trkpt><trkpt lat="38.00796909622936" lon="15.020699811464597"><ele>962.0000000000001</ele><time>2026-05-02T15:12:08.998Z</time></trkpt><trkpt lat="38.00793949141473" lon="15.020785946172833"><ele>962.0</ele><time>2026-05-02T15:12:09.998Z</time></trkpt><trkpt lat="38.00790789821801" lon="15.020872756306577"><ele>963.4285714285713</ele><time>2026-05-02T15:12:10.997Z</time></trkpt><trkpt lat="38.00787718438848" lon="15.020954297994745"><ele>964.8571428571429</ele><time>2026-05-02T15:12:11.997Z</time></trkpt><trkpt lat="38.00784610487405" lon="15.021036197329593"><ele>966.2857142857142</ele><time>2026-05-02T15:12:13Z</time></trkpt><trkpt lat="38.00783031753585" lon="15.021123893633094"><ele>967.7142857142857</ele><time>2026-05-02T15:12:14Z</time></trkpt><trkpt lat="38.007794038038064" lon="15.02119771169171"><ele>969.1428571428571</ele><time>2026-05-02T15:12:15Z</time></trkpt><trkpt lat="38.00775267668839" lon="15.021279936167614"><ele>970.5714285714286</ele><time>2026-05-02T15:12:16Z</time></trkpt><trkpt lat="38.00770517368311" lon="15.021360060231917"><ele>972.0</ele><time>2026-05-02T15:12:17Z</time></trkpt><trkpt lat="38.00765589951664" lon="15.021435446062174"><ele>972.0</ele><time>2026-05-02T15:12:18Z</time></trkpt><trkpt lat="38.007596775470844" lon="15.021501320374137"><ele>972.0</ele><time>2026-05-02T15:12:19Z</time></trkpt><trkpt lat="38.007568247731236" lon="15.021595515040492"><ele>972.0</ele><time>2026-05-02T15:12:20Z</time></trkpt><trkpt lat="38.007529507624845" lon="15.02167616613743"><ele>972.0</ele><time>2026-05-02T15:12:21Z</time></trkpt><trkpt lat="38.00748629668182" lon="15.021744583463448"><ele>972.0</ele><time>2026-05-02T15:12:22Z</time></trkpt><trkpt lat="38.007450119492425" lon="15.021838004558445"><ele>972.0</ele><time>2026-05-02T15:12:23Z</time></trkpt><trkpt lat="38.0074066355378" lon="15.021913087222776"><ele>974.1666666666666</ele><time>2026-05-02T15:12:24Z</time></trkpt><trkpt lat="38.00735277165097" lon="15.021976935334095"><ele>976.3333333333333</ele><time>2026-05-02T15:12:25Z</time></trkpt><trkpt lat="38.00729351347626" lon="15.02203661931321"><ele>978.5</ele><time>2026-05-02T15:12:26Z</time></trkpt><trkpt lat="38.00722058681821" lon="15.022086510005668"><ele>980.6666666666666</ele><time>2026-05-02T15:12:27Z</time></trkpt><trkpt lat="38.00715836160553" lon="15.022163766795043"><ele>982.8333333333333</ele><time>2026-05-02T15:12:28Z</time></trkpt><trkpt lat="38.00711170626454" lon="15.022258524474841"><ele>985.0</ele><time>2026-05-02T15:12:29Z</time></trkpt><trkpt lat="38.007070014313" lon="15.022345021377546"><ele>984.9999999999999</ele><time>2026-05-02T15:12:30Z</time></trkpt><trkpt lat="38.007032982026466" lon="15.02243013566824"><ele>985.0</ele><time>2026-05-02T15:12:31Z</time></trkpt><trkpt lat="38.006996576902765" lon="15.022520065871428"><ele>985.0</ele><time>2026-05-02T15:12:32Z</time></trkpt><trkpt lat="38.00692386161013" lon="15.022568162793036"><ele>985.0</ele><time>2026-05-02T15:12:33Z</time></trkpt><trkpt lat="38.00687233309179" lon="15.022641409675861"><ele>984.9999999999999</ele><time>2026-05-02T15:12:34Z</time></trkpt><trkpt lat="38.006811066779306" lon="15.022695305835665"><ele>985.0</ele><time>2026-05-02T15:12:35Z</time></trkpt><trkpt lat="38.00675725939022" lon="15.022749342113316"><ele>986.2</ele><time>2026-05-02T15:12:36Z</time></trkpt><trkpt lat="38.006717059381366" lon="15.022813998342007"><ele>987.4</ele><time>2026-05-02T15:12:37Z</time></trkpt><trkpt lat="38.006661158421714" lon="15.02294102387398"><ele>988.5999999999999</ele><time>2026-05-02T15:12:39Z</time></trkpt><trkpt lat="38.00663835640359" lon="15.023071108238033"><ele>989.8</ele><time>2026-05-02T15:12:41Z</time></trkpt><trkpt lat="38.00663510606888" lon="15.02319404242301"><ele>991.0</ele><time>2026-05-02T15:12:42.999Z</time></trkpt><trkpt lat="38.00668067566956" lon="15.023319880671707"><ele>986.1428571428573</ele><time>2026-05-02T15:12:44.999Z</time></trkpt><trkpt lat="38.006739793415484" lon="15.023361285805326"><ele>981.2857142857143</ele><time>2026-05-02T15:12:45.999Z</time></trkpt><trkpt lat="38.00679722004247" lon="15.023394844316224"><ele>976.4285714285716</ele><time>2026-05-02T15:12:46.999Z</time></trkpt><trkpt lat="38.00686390138317" lon="15.0234156544065"><ele>971.5714285714287</ele><time>2026-05-02T15:12:47.999Z</time></trkpt><trkpt lat="38.00691783839824" lon="15.023471138212392"><ele>966.7142857142858</ele><time>2026-05-02T15:12:48.999Z</time></trkpt><trkpt lat="38.006968509880814" lon="15.023544905918774"><ele>961.8571428571429</ele><time>2026-05-02T15:12:49.999Z</time></trkpt><trkpt lat="38.006985784502845" lon="15.023647085761867"><ele>957.0</ele><time>2026-05-02T15:12:50.999Z</time></trkpt><trkpt lat="38.00701008075383" lon="15.023745918107972"><ele>957.0</ele><time>2026-05-02T15:12:51.999Z</time></trkpt><trkpt lat="38.00704853109373" lon="15.023839477833176"><ele>957.0</ele><time>2026-05-02T15:12:52.999Z</time></trkpt><trkpt lat="38.007067231019256" lon="15.02393799833712"><ele>957.0</ele><time>2026-05-02T15:12:53.999Z</time></trkpt><trkpt lat="38.00709048840757" lon="15.024029076989807"><ele>957.0</ele><time>2026-05-02T15:12:54.999Z</time></trkpt><trkpt lat="38.00712095082249" lon="15.02410743563382"><ele>957.0</ele><time>2026-05-02T15:12:55.999Z</time></trkpt><trkpt lat="38.00715318587085" lon="15.02418935381725"><ele>957.0</ele><time>2026-05-02T15:12:56.999Z</time></trkpt><trkpt lat="38.00721598737352" lon="15.024232015327067"><ele>956.8333333333334</ele><time>2026-05-02T15:12:57.999Z</time></trkpt><trkpt lat="38.00729003590318" lon="15.024229641551809"><ele>956.6666666666667</ele><time>2026-05-02T15:12:58.999Z</time></trkpt><trkpt lat="38.007365638034564" lon="15.024251305755856"><ele>956.5</ele><time>2026-05-02T15:12:59.999Z</time></trkpt><trkpt lat="38.00743053864427" lon="15.024218937598949"><ele>956.3333333333334</ele><time>2026-05-02T15:13:00.999Z</time></trkpt><trkpt lat="38.00750589216277" lon="15.024204424690845"><ele>956.1666666666667</ele><time>2026-05-02T15:13:01.999Z</time></trkpt><trkpt lat="38.00758241387008" lon="15.024173310476753"><ele>956.0</ele><time>2026-05-02T15:13:02.999Z</time></trkpt><trkpt lat="38.00765167449148" lon="15.024130483099"><ele>954.1428571428573</ele><time>2026-05-02T15:13:03.999Z</time></trkpt><trkpt lat="38.00771385354514" lon="15.02407944578964"><ele>952.2857142857143</ele><time>2026-05-02T15:13:04.999Z</time></trkpt><trkpt lat="38.00777474341935" lon="15.024025794896932"><ele>950.4285714285716</ele><time>2026-05-02T15:13:05.999Z</time></trkpt><trkpt lat="38.00783418142641" lon="15.023966895920196"><ele>948.5714285714287</ele><time>2026-05-02T15:13:06.999Z</time></trkpt><trkpt lat="38.00789124446719" lon="15.023907551287532"><ele>946.7142857142858</ele><time>2026-05-02T15:13:07.999Z</time></trkpt><trkpt lat="38.007947546405845" lon="15.02384677877799"><ele>944.8571428571429</ele><time>2026-05-02T15:13:08.999Z</time></trkpt><trkpt lat="38.00800461501135" lon="15.023785891464819"><ele>943.0</ele><time>2026-05-02T15:13:09.999Z</time></trkpt><trkpt lat="38.00806372763768" lon="15.023724870799976"><ele>942.9999999999999</ele><time>2026-05-02T15:13:10.999Z</time></trkpt><trkpt lat="38.00812179441102" lon="15.023663036639535"><ele>943.0</ele><time>2026-05-02T15:13:11.999Z</time></trkpt><trkpt lat="38.00817706613765" lon="15.023606297863443"><ele>943.0</ele><time>2026-05-02T15:13:12.999Z</time></trkpt><trkpt lat="38.00823649542712" lon="15.023558063951157"><ele>943.0</ele><time>2026-05-02T15:13:13.999Z</time></trkpt><trkpt lat="38.00829828153024" lon="15.02351352483461"><ele>942.9999999999999</ele><time>2026-05-02T15:13:14.999Z</time></trkpt><trkpt lat="38.00835748353109" lon="15.023481404020343"><ele>943.0</ele><time>2026-05-02T15:13:15.999Z</time></trkpt><trkpt lat="38.008467617063026" lon="15.02341835290199"><ele>943.1666666666666</ele><time>2026-05-02T15:13:17.999Z</time></trkpt><trkpt lat="38.008585674608106" lon="15.023362731779114"><ele>943.3333333333333</ele><time>2026-05-02T15:13:19.999Z</time></trkpt><trkpt lat="38.00864697946807" lon="15.023333835457501"><ele>943.5</ele><time>2026-05-02T15:13:20.999Z</time></trkpt><trkpt lat="38.008713238245036" lon="15.023321950790459"><ele>943.6666666666667</ele><time>2026-05-02T15:13:21.999Z</time></trkpt><trkpt lat="38.008782783991755" lon="15.023326794494071"><ele>943.8333333333334</ele><time>2026-05-02T15:13:22.999Z</time></trkpt><trkpt lat="38.00889504919643" lon="15.02335520695521"><ele>944.0</ele><time>2026-05-02T15:13:24.999Z</time></trkpt><trkpt lat="38.00900513407314" lon="15.023375319566853"><ele>944.0000000000001</ele><time>2026-05-02T15:13:26.999Z</time></trkpt><trkpt lat="38.00912968295376" lon="15.023403665785143"><ele>944.0</ele><time>2026-05-02T15:13:28.998Z</time></trkpt><trkpt lat="38.009193528856564" lon="15.023421644113585"><ele>944.0</ele><time>2026-05-02T15:13:29.998Z</time></trkpt><trkpt lat="38.009260221513976" lon="15.023448345304342"><ele>944.0</ele><time>2026-05-02T15:13:30.998Z</time></trkpt><trkpt lat="38.009333327238984" lon="15.023483134080347"><ele>944.0000000000001</ele><time>2026-05-02T15:13:31.998Z</time></trkpt><trkpt lat="38.00940860992576" lon="15.02352556169301"><ele>944.0</ele><time>2026-05-02T15:13:32.998Z</time></trkpt><trkpt lat="38.00948461815194" lon="15.023570551484921"><ele>944.3333333333334</ele><time>2026-05-02T15:13:33.998Z</time></trkpt><trkpt lat="38.0095624606084" lon="15.023620810664585"><ele>944.6666666666667</ele><time>2026-05-02T15:13:34.998Z</time></trkpt><trkpt lat="38.00964053509607" lon="15.023668329423328"><ele>945.0</ele><time>2026-05-02T15:13:35.998Z</time></trkpt><trkpt lat="38.00972219841733" lon="15.02370929590983"><ele>945.3333333333333</ele><time>2026-05-02T15:13:36.998Z</time></trkpt><trkpt lat="38.00980578646338" lon="15.02375467221341"><ele>945.6666666666666</ele><time>2026-05-02T15:13:37.998Z</time></trkpt><trkpt lat="38.00988440091903" lon="15.023803382724058"><ele>946.0</ele><time>2026-05-02T15:13:38.998Z</time></trkpt><trkpt lat="38.009950048756025" lon="15.023870919327312"><ele>943.3333333333333</ele><time>2026-05-02T15:13:39.998Z</time></trkpt><trkpt lat="38.010023365403036" lon="15.023927467809704"><ele>940.6666666666666</ele><time>2026-05-02T15:13:40.998Z</time></trkpt><trkpt lat="38.010094731533776" lon="15.02399561752088"><ele>938.0</ele><time>2026-05-02T15:13:41.998Z</time></trkpt><trkpt lat="38.0101599006328" lon="15.02404930212226"><ele>935.3333333333333</ele><time>2026-05-02T15:13:42.998Z</time></trkpt><trkpt lat="38.010228367501284" lon="15.024078898182713"><ele>932.6666666666666</ele><time>2026-05-02T15:13:43.998Z</time></trkpt><trkpt lat="38.010304056451524" lon="15.024101144734077"><ele>930.0</ele><time>2026-05-02T15:13:44.998Z</time></trkpt><trkpt lat="38.010378067240964" lon="15.024046973162932"><ele>930.0</ele><time>2026-05-02T15:13:45.998Z</time></trkpt><trkpt lat="38.01044713828513" lon="15.023982446695909"><ele>930.0</ele><time>2026-05-02T15:13:46.998Z</time></trkpt><trkpt lat="38.010504860408545" lon="15.023912393839739"><ele>930.0</ele><time>2026-05-02T15:13:47.998Z</time></trkpt><trkpt lat="38.01056281827491" lon="15.023837840145136"><ele>930.0</ele><time>2026-05-02T15:13:48.998Z</time></trkpt><trkpt lat="38.01062575579353" lon="15.023763496414999"><ele>930.0</ele><time>2026-05-02T15:13:49.998Z</time></trkpt><trkpt lat="38.01069551051657" lon="15.02369815143667"><ele>930.0</ele><time>2026-05-02T15:13:50.998Z</time></trkpt><trkpt lat="38.01077377440441" lon="15.023647249052052"><ele>930.0</ele><time>2026-05-02T15:13:51.998Z</time></trkpt><trkpt lat="38.01085592311485" lon="15.023611392036297"><ele>930.0</ele><time>2026-05-02T15:13:52.998Z</time></trkpt><trkpt lat="38.01093677106589" lon="15.02355743834845"><ele>930.0</ele><time>2026-05-02T15:13:53.998Z</time></trkpt><trkpt lat="38.01101299822163" lon="15.023497363273467"><ele>930.0</ele><time>2026-05-02T15:13:54.998Z</time></trkpt><trkpt lat="38.01108726157219" lon="15.023437374193325"><ele>930.0</ele><time>2026-05-02T15:13:55.998Z</time></trkpt><trkpt lat="38.011163148916495" lon="15.02338460125071"><ele>930.0</ele><time>2026-05-02T15:13:56.998Z</time></trkpt><trkpt lat="38.01124486012189" lon="15.023344880858103"><ele>930.0</ele><time>2026-05-02T15:13:57.998Z</time></trkpt><trkpt lat="38.0113294056495" lon="15.023320293126323"><ele>930.0</ele><time>2026-05-02T15:13:58.998Z</time></trkpt><trkpt lat="38.01141874307297" lon="15.023315119332416"><ele>930.0</ele><time>2026-05-02T15:13:59.998Z</time></trkpt><trkpt lat="38.01149618657577" lon="15.023317519446378"><ele>930.0</ele><time>2026-05-02T15:14:00.998Z</time></trkpt><trkpt lat="38.011568244193086" lon="15.023305894653827"><ele>930.0</ele><time>2026-05-02T15:14:01.998Z</time></trkpt><trkpt lat="38.01163162052559" lon="15.023280518857746"><ele>930.0</ele><time>2026-05-02T15:14:02.998Z</time></trkpt><trkpt lat="38.01169086862225" lon="15.023240376141814"><ele>928.0</ele><time>2026-05-02T15:14:03.998Z</time></trkpt><trkpt lat="38.011754813997086" lon="15.02319399298035"><ele>926.0</ele><time>2026-05-02T15:14:04.998Z</time></trkpt><trkpt lat="38.01182330562989" lon="15.023141765180215"><ele>924.0</ele><time>2026-05-02T15:14:05.998Z</time></trkpt><trkpt lat="38.01189269594495" lon="15.023087724550079"><ele>922.0</ele><time>2026-05-02T15:14:06.998Z</time></trkpt><trkpt lat="38.01196190216841" lon="15.023024888578083"><ele>920.0</ele><time>2026-05-02T15:14:07.998Z</time></trkpt><trkpt lat="38.01203008367078" lon="15.022967566581627"><ele>918.0</ele><time>2026-05-02T15:14:08.998Z</time></trkpt><trkpt lat="38.012098688863475" lon="15.022920001755791"><ele>918.0</ele><time>2026-05-02T15:14:09.998Z</time></trkpt><trkpt lat="38.0121711742119" lon="15.022882951609567"><ele>918.0</ele><time>2026-05-02T15:14:10.998Z</time></trkpt><trkpt lat="38.012242090143026" lon="15.02286613346951"><ele>918.0</ele><time>2026-05-02T15:14:11.998Z</time></trkpt><trkpt lat="38.012309451095184" lon="15.022863260928366"><ele>918.0</ele><time>2026-05-02T15:14:12.998Z</time></trkpt><trkpt lat="38.01237159504543" lon="15.022878449421292"><ele>918.0</ele><time>2026-05-02T15:14:13.998Z</time></trkpt><trkpt lat="38.01243475901023" lon="15.022904424658966"><ele>918.0</ele><time>2026-05-02T15:14:14.997Z</time></trkpt><trkpt lat="38.0125027507907" lon="15.022911996438008"><ele>918.0</ele><time>2026-05-02T15:14:15.997Z</time></trkpt><trkpt lat="38.012568146063515" lon="15.02289774318532"><ele>919.5714285714287</ele><time>2026-05-02T15:14:16.997Z</time></trkpt><trkpt lat="38.01263371956814" lon="15.022859231146775"><ele>921.1428571428571</ele><time>2026-05-02T15:14:17.997Z</time></trkpt><trkpt lat="38.01268929329841" lon="15.022803526346953"><ele>922.7142857142858</ele><time>2026-05-02T15:14:19Z</time></trkpt><trkpt lat="38.01274421899904" lon="15.022746429754443"><ele>924.2857142857143</ele><time>2026-05-02T15:14:20Z</time></trkpt><trkpt lat="38.012808145845895" lon="15.02271332239379"><ele>925.8571428571429</ele><time>2026-05-02T15:14:21Z</time></trkpt><trkpt lat="38.012877353243994" lon="15.022694546974632"><ele>927.4285714285714</ele><time>2026-05-02T15:14:22Z</time></trkpt><trkpt lat="38.01294802230175" lon="15.022695591934554"><ele>929.0</ele><time>2026-05-02T15:14:23Z</time></trkpt><trkpt lat="38.013021069326314" lon="15.022723202380671"><ele>929.0000000000001</ele><time>2026-05-02T15:14:24Z</time></trkpt><trkpt lat="38.0130976471277" lon="15.022755236669738"><ele>929.0</ele><time>2026-05-02T15:14:25Z</time></trkpt><trkpt lat="38.01317326760998" lon="15.022769290897006"><ele>929.0</ele><time>2026-05-02T15:14:26Z</time></trkpt><trkpt lat="38.01324762286071" lon="15.022760131702487"><ele>929.0</ele><time>2026-05-02T15:14:27Z</time></trkpt><trkpt lat="38.013312864064304" lon="15.022733667583914"><ele>929.0000000000001</ele><time>2026-05-02T15:14:28Z</time></trkpt><trkpt lat="38.01337560803701" lon="15.02271708671465"><ele>929.0</ele><time>2026-05-02T15:14:29Z</time></trkpt><trkpt lat="38.013505536966356" lon="15.022751527390838"><ele>928.7142857142858</ele><time>2026-05-02T15:14:31Z</time></trkpt><trkpt lat="38.01356826341758" lon="15.022797131163621"><ele>928.4285714285716</ele><time>2026-05-02T15:14:32Z</time></trkpt><trkpt lat="38.01363588276836" lon="15.02284332371604"><ele>928.1428571428571</ele><time>2026-05-02T15:14:33Z</time></trkpt><trkpt lat="38.01370209436335" lon="15.022893764936367"><ele>927.8571428571429</ele><time>2026-05-02T15:14:34Z</time></trkpt><trkpt lat="38.01377086343947" lon="15.022946250259988"><ele>927.5714285714286</ele><time>2026-05-02T15:14:35Z</time></trkpt><trkpt lat="38.01383195919097" lon="15.02298999752027"><ele>927.2857142857142</ele><time>2026-05-02T15:14:36Z</time></trkpt><trkpt lat="38.01389222078005" lon="15.023037598045097"><ele>926.9999999999999</ele><time>2026-05-02T15:14:37Z</time></trkpt><trkpt lat="38.01394999278837" lon="15.023081832965142"><ele>926.9999999999999</ele><time>2026-05-02T15:14:38Z</time></trkpt><trkpt lat="38.01401248591959" lon="15.023118484970455"><ele>927.0</ele><time>2026-05-02T15:14:39Z</time></trkpt><trkpt lat="38.01408083869397" lon="15.02314194761258"><ele>926.9999999999999</ele><time>2026-05-02T15:14:40Z</time></trkpt><trkpt lat="38.01415267273124" lon="15.023153132220346"><ele>926.9999999999999</ele><time>2026-05-02T15:14:41Z</time></trkpt><trkpt lat="38.01422407212624" lon="15.023154390589402"><ele>927.0</ele><time>2026-05-02T15:14:42Z</time></trkpt><trkpt lat="38.01429600391871" lon="15.02315894519816"><ele>926.9999999999999</ele><time>2026-05-02T15:14:43Z</time></trkpt><trkpt lat="38.01436994987148" lon="15.023163469296465"><ele>926.9999999999999</ele><time>2026-05-02T15:14:44Z</time></trkpt><trkpt lat="38.01444101667287" lon="15.023168245148048"><ele>925.0</ele><time>2026-05-02T15:14:45Z</time></trkpt><trkpt lat="38.01456704824045" lon="15.023178558070978"><ele>923.0</ele><time>2026-05-02T15:14:47Z</time></trkpt><trkpt lat="38.014683505536446" lon="15.023182120185567"><ele>921.0</ele><time>2026-05-02T15:14:49Z</time></trkpt><trkpt lat="38.014792314774134" lon="15.02312241479102"><ele>919.0</ele><time>2026-05-02T15:14:51Z</time></trkpt><trkpt lat="38.01486991456387" lon="15.023007394362425"><ele>919.0</ele><time>2026-05-02T15:14:53Z</time></trkpt><trkpt lat="38.014897019645055" lon="15.022865840527848"><ele>919.0000000000001</ele><time>2026-05-02T15:14:54.999Z</time></trkpt><trkpt lat="38.014890902885966" lon="15.02278608409054"><ele>919.0000000000001</ele><time>2026-05-02T15:14:55.999Z</time></trkpt><trkpt lat="38.01485945942653" lon="15.022625838808501"><ele>919.0</ele><time>2026-05-02T15:14:57.999Z</time></trkpt><trkpt lat="38.01484036848794" lon="15.02254147506052"><ele>919.0</ele><time>2026-05-02T15:14:58.999Z</time></trkpt><trkpt lat="38.014819576902426" lon="15.022452888967806"><ele>917.1428571428571</ele><time>2026-05-02T15:14:59.999Z</time></trkpt><trkpt lat="38.01480001905978" lon="15.022364368397463"><ele>915.2857142857142</ele><time>2026-05-02T15:15:00.999Z</time></trkpt><trkpt lat="38.014783674745125" lon="15.022274463964544"><ele>913.4285714285713</ele><time>2026-05-02T15:15:01.999Z</time></trkpt><trkpt lat="38.01477116978552" lon="15.022184298625422"><ele>911.5714285714284</ele><time>2026-05-02T15:15:02.999Z</time></trkpt><trkpt lat="38.01476492501604" lon="15.022093275500655"><ele>909.7142857142857</ele><time>2026-05-02T15:15:03.999Z</time></trkpt><trkpt lat="38.014759536005066" lon="15.02199536673201"><ele>907.8571428571427</ele><time>2026-05-02T15:15:04.999Z</time></trkpt><trkpt lat="38.014755242569045" lon="15.02189197915679"><ele>905.9999999999999</ele><time>2026-05-02T15:15:05.999Z</time></trkpt><trkpt lat="38.014752795563936" lon="15.021783542854983"><ele>906.0</ele><time>2026-05-02T15:15:06.999Z</time></trkpt><trkpt lat="38.01474915665379" lon="15.021668234463176"><ele>905.9999999999999</ele><time>2026-05-02T15:15:07.999Z</time></trkpt><trkpt lat="38.01474680773713" lon="15.021547053879399"><ele>905.9999999999999</ele><time>2026-05-02T15:15:08.999Z</time></trkpt><trkpt lat="38.014741974880245" lon="15.02142653743909"><ele>906.0</ele><time>2026-05-02T15:15:09.999Z</time></trkpt><trkpt lat="38.01473874913733" lon="15.02130370615753"><ele>906.0</ele><time>2026-05-02T15:15:10.999Z</time></trkpt><trkpt lat="38.01473598677679" lon="15.021179641068333"><ele>906.3333333333334</ele><time>2026-05-02T15:15:11.999Z</time></trkpt><trkpt lat="38.01473530923812" lon="15.021060970923207"><ele>906.6666666666667</ele><time>2026-05-02T15:15:12.999Z</time></trkpt><trkpt lat="38.01473163707459" lon="15.020945419168326"><ele>907.0</ele><time>2026-05-02T15:15:13.999Z</time></trkpt><trkpt lat="38.01472889118376" lon="15.020837084568063"><ele>907.3333333333334</ele><time>2026-05-02T15:15:14.999Z</time></trkpt><trkpt lat="38.0147259381051" lon="15.020730240530188"><ele>907.6666666666667</ele><time>2026-05-02T15:15:15.999Z</time></trkpt><trkpt lat="38.01472098210532" lon="15.02062566368052"><ele>908.0</ele><time>2026-05-02T15:15:16.999Z</time></trkpt><trkpt lat="38.01471739559906" lon="15.020522519162979"><ele>910.5000000000001</ele><time>2026-05-02T15:15:17.999Z</time></trkpt><trkpt lat="38.014712632074" lon="15.020425703114606"><ele>913.0</ele><time>2026-05-02T15:15:18.999Z</time></trkpt><trkpt lat="38.014707186459" lon="15.020329034471043"><ele>915.5</ele><time>2026-05-02T15:15:19.999Z</time></trkpt><trkpt lat="38.01469357731745" lon="15.020237224885463"><ele>918.0</ele><time>2026-05-02T15:15:20.999Z</time></trkpt><trkpt lat="38.01466372026717" lon="15.020152646455704"><ele>920.5000000000001</ele><time>2026-05-02T15:15:21.999Z</time></trkpt><trkpt lat="38.01461407724065" lon="15.020078427049206"><ele>923.0</ele><time>2026-05-02T15:15:22.999Z</time></trkpt><trkpt lat="38.014548545010946" lon="15.020016671943647"><ele>924.0000000000001</ele><time>2026-05-02T15:15:23.999Z</time></trkpt><trkpt lat="38.014472632603486" lon="15.019962174982513"><ele>925.0</ele><time>2026-05-02T15:15:24.999Z</time></trkpt><trkpt lat="38.01439880062922" lon="15.019907305101977"><ele>926.0</ele><time>2026-05-02T15:15:25.999Z</time></trkpt><trkpt lat="38.01432548646309" lon="15.019853578015047"><ele>927.0</ele><time>2026-05-02T15:15:26.999Z</time></trkpt><trkpt lat="38.01424849126273" lon="15.019794328216438"><ele>928.0000000000001</ele><time>2026-05-02T15:15:27.999Z</time></trkpt><trkpt lat="38.01417059677426" lon="15.019738933247565"><ele>929.0</ele><time>2026-05-02T15:15:28.999Z</time></trkpt><trkpt lat="38.01409042024832" lon="15.019689682580163"><ele>929.0000000000001</ele><time>2026-05-02T15:15:29.999Z</time></trkpt><trkpt lat="38.01400487383669" lon="15.019652725615197"><ele>929.0</ele><time>2026-05-02T15:15:30.999Z</time></trkpt><trkpt lat="38.01391997489811" lon="15.019623255249616"><ele>929.0</ele><time>2026-05-02T15:15:31.999Z</time></trkpt><trkpt lat="38.01383249381054" lon="15.019601952012193"><ele>929.0</ele><time>2026-05-02T15:15:32.999Z</time></trkpt><trkpt lat="38.013756138304295" lon="15.019582702966328"><ele>929.0000000000001</ele><time>2026-05-02T15:15:33.999Z</time></trkpt><trkpt lat="38.013680526377634" lon="15.019561349916241"><ele>929.0</ele><time>2026-05-02T15:15:34.999Z</time></trkpt><trkpt lat="38.01360869538151" lon="15.019532147354925"><ele>929.0000000000001</ele><time>2026-05-02T15:15:35.999Z</time></trkpt><trkpt lat="38.01354240457466" lon="15.019494834311553"><ele>929.0</ele><time>2026-05-02T15:15:36.999Z</time></trkpt><trkpt lat="38.01347641857079" lon="15.01944656016595"><ele>929.0</ele><time>2026-05-02T15:15:37.999Z</time></trkpt><trkpt lat="38.01340788822042" lon="15.019395367757465"><ele>929.0</ele><time>2026-05-02T15:15:38.999Z</time></trkpt><trkpt lat="38.01333802927538" lon="15.019344467423977"><ele>929.0000000000001</ele><time>2026-05-02T15:15:39.999Z</time></trkpt><trkpt lat="38.013271451671265" lon="15.019292671081068"><ele>929.0</ele><time>2026-05-02T15:15:40.999Z</time></trkpt><trkpt lat="38.01321204836502" lon="15.01924162035156"><ele>925.6666666666667</ele><time>2026-05-02T15:15:41.998Z</time></trkpt><trkpt lat="38.01315713606773" lon="15.019184108539157"><ele>922.3333333333334</ele><time>2026-05-02T15:15:42.998Z</time></trkpt><trkpt lat="38.013089125619466" lon="15.019061257891765"><ele>919.0</ele><time>2026-05-02T15:15:44.998Z</time></trkpt><trkpt lat="38.01307145935386" lon="15.018981472762004"><ele>915.6666666666667</ele><time>2026-05-02T15:15:45.998Z</time></trkpt><trkpt lat="38.01305091907512" lon="15.018896868657016"><ele>912.3333333333334</ele><time>2026-05-02T15:15:46.998Z</time></trkpt><trkpt lat="38.01302976795977" lon="15.018805817366978"><ele>909.0</ele><time>2026-05-02T15:15:47.998Z</time></trkpt><trkpt lat="38.013003543896396" lon="15.018712811944534"><ele>909.0</ele><time>2026-05-02T15:15:48.998Z</time></trkpt><trkpt lat="38.01296958947014" lon="15.018619817856067"><ele>909.0</ele><time>2026-05-02T15:15:49.998Z</time></trkpt><trkpt lat="38.01294423224951" lon="15.018514995912827"><ele>909.0</ele><time>2026-05-02T15:15:50.998Z</time></trkpt><trkpt lat="38.01289889267146" lon="15.018421951908367"><ele>909.0</ele><time>2026-05-02T15:15:51.998Z</time></trkpt><trkpt lat="38.012839429505334" lon="15.01834386341783"><ele>909.0</ele><time>2026-05-02T15:15:52.998Z</time></trkpt><trkpt lat="38.01279089717444" lon="15.018256640369856"><ele>909.0</ele><time>2026-05-02T15:15:53.998Z</time></trkpt><trkpt lat="38.01274782456134" lon="15.018173415464679"><ele>908.6666666666666</ele><time>2026-05-02T15:15:54.998Z</time></trkpt><trkpt lat="38.0127207612677" lon="15.018089565486084"><ele>908.3333333333333</ele><time>2026-05-02T15:15:55.998Z</time></trkpt><trkpt lat="38.01271855392907" lon="15.017997103722863"><ele>908.0</ele><time>2026-05-02T15:15:56.998Z</time></trkpt><trkpt lat="38.01273637087132" lon="15.017905201808459"><ele>907.6666666666666</ele><time>2026-05-02T15:15:57.998Z</time></trkpt><trkpt lat="38.012770634389" lon="15.017813085855993"><ele>907.3333333333333</ele><time>2026-05-02T15:15:58.998Z</time></trkpt><trkpt lat="38.01281263278396" lon="15.017721001492335"><ele>907.0</ele><time>2026-05-02T15:15:59.998Z</time></trkpt><trkpt lat="38.01285962116473" lon="15.017632318192936"><ele>907.0</ele><time>2026-05-02T15:16:00.998Z</time></trkpt><trkpt lat="38.01291991525125" lon="15.017555833503128"><ele>907.0</ele><time>2026-05-02T15:16:01.998Z</time></trkpt><trkpt lat="38.01299374891598" lon="15.017487449971302"><ele>907.0</ele><time>2026-05-02T15:16:02.998Z</time></trkpt><trkpt lat="38.0130735709828" lon="15.01742974925944"><ele>907.0</ele><time>2026-05-02T15:16:03.998Z</time></trkpt><trkpt lat="38.013159500080455" lon="15.017385408276638"><ele>907.0</ele><time>2026-05-02T15:16:04.998Z</time></trkpt><trkpt lat="38.01324155735219" lon="15.017335528852557"><ele>906.9999999999999</ele><time>2026-05-02T15:16:05.998Z</time></trkpt><trkpt lat="38.01332444926884" lon="15.017290093593544"><ele>907.0</ele><time>2026-05-02T15:16:06.998Z</time></trkpt><trkpt lat="38.01340349146328" lon="15.017238163433666"><ele>907.0</ele><time>2026-05-02T15:16:07.998Z</time></trkpt><trkpt lat="38.01347750935427" lon="15.017188394131487"><ele>907.0</ele><time>2026-05-02T15:16:08.998Z</time></trkpt><trkpt lat="38.013545880871796" lon="15.01713688043347"><ele>906.9999999999999</ele><time>2026-05-02T15:16:09.998Z</time></trkpt><trkpt lat="38.01361165382909" lon="15.017087808609174"><ele>907.0</ele><time>2026-05-02T15:16:10.998Z</time></trkpt><trkpt lat="38.013672055674306" lon="15.017029907335111"><ele>906.9999999999999</ele><time>2026-05-02T15:16:11.998Z</time></trkpt><trkpt lat="38.01372881386146" lon="15.01697351033691"><ele>907.0</ele><time>2026-05-02T15:16:12.998Z</time></trkpt><trkpt lat="38.013785569882494" lon="15.016911288974073"><ele>907.0</ele><time>2026-05-02T15:16:13.998Z</time></trkpt><trkpt lat="38.01384138221584" lon="15.01684509166516"><ele>907.0</ele><time>2026-05-02T15:16:14.998Z</time></trkpt><trkpt lat="38.013901553565276" lon="15.016795345142508"><ele>906.9999999999999</ele><time>2026-05-02T15:16:15.998Z</time></trkpt><trkpt lat="38.013972960299775" lon="15.016746066921176"><ele>907.0</ele><time>2026-05-02T15:16:16.998Z</time></trkpt><trkpt lat="38.01405550096846" lon="15.01672251719013"><ele>906.9999999999999</ele><time>2026-05-02T15:16:17.998Z</time></trkpt><trkpt lat="38.01414205252203" lon="15.016713568457602"><ele>907.0</ele><time>2026-05-02T15:16:18.998Z</time></trkpt><trkpt lat="38.014231987895606" lon="15.016697310030127"><ele>907.0</ele><time>2026-05-02T15:16:19.998Z</time></trkpt><trkpt lat="38.0143175624116" lon="15.01667614557146"><ele>907.0</ele><time>2026-05-02T15:16:20.998Z</time></trkpt><trkpt lat="38.014402459574825" lon="15.016649463182716"><ele>906.9999999999999</ele><time>2026-05-02T15:16:21.998Z</time></trkpt><trkpt lat="38.01447583054916" lon="15.01662469975647"><ele>907.0</ele><time>2026-05-02T15:16:22.998Z</time></trkpt><trkpt lat="38.01454029920759" lon="15.01659086785345"><ele>904.6666666666666</ele><time>2026-05-02T15:16:23.998Z</time></trkpt><trkpt lat="38.01460068232682" lon="15.016540252301262"><ele>902.3333333333333</ele><time>2026-05-02T15:16:25Z</time></trkpt><trkpt lat="38.014644233879984" lon="15.016471586435344"><ele>900.0</ele><time>2026-05-02T15:16:26Z</time></trkpt><trkpt lat="38.0146741224818" lon="15.016397177870664"><ele>897.6666666666667</ele><time>2026-05-02T15:16:27Z</time></trkpt><trkpt lat="38.014690357318614" lon="15.01631576472329"><ele>895.3333333333334</ele><time>2026-05-02T15:16:28Z</time></trkpt><trkpt lat="38.01470096972382" lon="15.01623635622501"><ele>893.0</ele><time>2026-05-02T15:16:29Z</time></trkpt><trkpt lat="38.01473501808255" lon="15.016089274043049"><ele>893.0000000000001</ele><time>2026-05-02T15:16:31Z</time></trkpt><trkpt lat="38.014776235762945" lon="15.016022506905713"><ele>893.0</ele><time>2026-05-02T15:16:32Z</time></trkpt><trkpt lat="38.01483793711729" lon="15.0159668038616"><ele>893.0</ele><time>2026-05-02T15:16:33Z</time></trkpt><trkpt lat="38.01491136084066" lon="15.015930388081786"><ele>893.0</ele><time>2026-05-02T15:16:34Z</time></trkpt><trkpt lat="38.01499102895938" lon="15.015896869208722"><ele>893.0000000000001</ele><time>2026-05-02T15:16:35Z</time></trkpt><trkpt lat="38.01507723806618" lon="15.01586644547603"><ele>893.0</ele><time>2026-05-02T15:16:36Z</time></trkpt><trkpt lat="38.015166478409036" lon="15.01583802667261"><ele>890.6666666666667</ele><time>2026-05-02T15:16:37Z</time></trkpt><trkpt lat="38.0152525419737" lon="15.015811134829242"><ele>888.3333333333334</ele><time>2026-05-02T15:16:38Z</time></trkpt><trkpt lat="38.01533662250953" lon="15.015778738802865"><ele>886.0</ele><time>2026-05-02T15:16:39Z</time></trkpt><trkpt lat="38.01541601025601" lon="15.015736313432848"><ele>883.6666666666667</ele><time>2026-05-02T15:16:40Z</time></trkpt><trkpt lat="38.015494906134265" lon="15.015685829565134"><ele>881.3333333333334</ele><time>2026-05-02T15:16:41Z</time></trkpt><trkpt lat="38.015569767357825" lon="15.015632950432911"><ele>879.0</ele><time>2026-05-02T15:16:42Z</time></trkpt><trkpt lat="38.01564115431555" lon="15.015585801003319"><ele>879.0</ele><time>2026-05-02T15:16:43Z</time></trkpt><trkpt lat="38.01570402424743" lon="15.015539928041374"><ele>879.0</ele><time>2026-05-02T15:16:44Z</time></trkpt><trkpt lat="38.0157647979232" lon="15.015500545113966"><ele>879.0</ele><time>2026-05-02T15:16:45Z</time></trkpt><trkpt lat="38.01582180659185" lon="15.015462088748118"><ele>879.0</ele><time>2026-05-02T15:16:46Z</time></trkpt><trkpt lat="38.01588052108623" lon="15.015427006466682"><ele>879.0</ele><time>2026-05-02T15:16:47Z</time></trkpt><trkpt lat="38.01594669062287" lon="15.015407472889295"><ele>879.0</ele><time>2026-05-02T15:16:48Z</time></trkpt><trkpt lat="38.01601697215713" lon="15.015400738757526"><ele>879.0</ele><time>2026-05-02T15:16:49Z</time></trkpt><trkpt lat="38.01608854806773" lon="15.015408021293215"><ele>880.7142857142858</ele><time>2026-05-02T15:16:50Z</time></trkpt><trkpt lat="38.016156380742764" lon="15.01542857761"><ele>882.4285714285714</ele><time>2026-05-02T15:16:51Z</time></trkpt><trkpt lat="38.01622330256325" lon="15.015443158593929"><ele>884.1428571428571</ele><time>2026-05-02T15:16:52Z</time></trkpt><trkpt lat="38.01629341066489" lon="15.015441360462694"><ele>885.8571428571429</ele><time>2026-05-02T15:16:53Z</time></trkpt><trkpt lat="38.01636431407064" lon="15.01541679329328"><ele>887.5714285714286</ele><time>2026-05-02T15:16:54Z</time></trkpt><trkpt lat="38.01643868785867" lon="15.015376703316262"><ele>889.2857142857143</ele><time>2026-05-02T15:16:55Z</time></trkpt><trkpt lat="38.016516474557754" lon="15.015328026594908"><ele>891.0</ele><time>2026-05-02T15:16:56Z</time></trkpt><trkpt lat="38.01659238792352" lon="15.0152789027482"><ele>893.1666666666666</ele><time>2026-05-02T15:16:57Z</time></trkpt><trkpt lat="38.016667044919274" lon="15.015230139120533"><ele>895.3333333333333</ele><time>2026-05-02T15:16:57.999Z</time></trkpt><trkpt lat="38.01673857395256" lon="15.01518134796047"><ele>897.5</ele><time>2026-05-02T15:16:58.999Z</time></trkpt><trkpt lat="38.01680679441308" lon="15.015130131602625"><ele>899.6666666666666</ele><time>2026-05-02T15:16:59.999Z</time></trkpt><trkpt lat="38.0168713537135" lon="15.015084895809824"><ele>901.8333333333333</ele><time>2026-05-02T15:17:00.999Z</time></trkpt><trkpt lat="38.01694340042791" lon="15.01505351490817"><ele>904.0</ele><time>2026-05-02T15:17:01.999Z</time></trkpt><trkpt lat="38.0170237846832" lon="15.015033648100273"><ele>903.9999999999999</ele><time>2026-05-02T15:17:02.999Z</time></trkpt><trkpt lat="38.01710792175347" lon="15.015032408526581"><ele>904.0</ele><time>2026-05-02T15:17:03.999Z</time></trkpt><trkpt lat="38.01719154982355" lon="15.01505749204011"><ele>904.0</ele><time>2026-05-02T15:17:04.999Z</time></trkpt><trkpt lat="38.01726655755299" lon="15.015090434338656"><ele>904.0</ele><time>2026-05-02T15:17:05.999Z</time></trkpt><trkpt lat="38.01733714762209" lon="15.015135210913662"><ele>903.9999999999999</ele><time>2026-05-02T15:17:06.999Z</time></trkpt><trkpt lat="38.01740481088754" lon="15.01519160237638"><ele>904.0</ele><time>2026-05-02T15:17:07.999Z</time></trkpt><trkpt lat="38.017460942539316" lon="15.015253420371685"><ele>903.7142857142858</ele><time>2026-05-02T15:17:08.999Z</time></trkpt><trkpt lat="38.01751026601916" lon="15.015316703326318"><ele>903.4285714285713</ele><time>2026-05-02T15:17:09.999Z</time></trkpt><trkpt lat="38.01755329315602" lon="15.015388578861543"><ele>903.1428571428571</ele><time>2026-05-02T15:17:10.999Z</time></trkpt><trkpt lat="38.0175954684142" lon="15.015462207845545"><ele>902.8571428571429</ele><time>2026-05-02T15:17:11.999Z</time></trkpt><trkpt lat="38.01763322988085" lon="15.015538224879684"><ele>902.5714285714287</ele><time>2026-05-02T15:17:12.999Z</time></trkpt><trkpt lat="38.017655214301435" lon="15.015621324568905"><ele>902.2857142857142</ele><time>2026-05-02T15:17:13.999Z</time></trkpt><trkpt lat="38.017652883563585" lon="15.01571279147347"><ele>902.0</ele><time>2026-05-02T15:17:14.999Z</time></trkpt><trkpt lat="38.017625496808996" lon="15.015798364956705"><ele>903.6666666666667</ele><time>2026-05-02T15:17:15.999Z</time></trkpt><trkpt lat="38.017592920226306" lon="15.015879274963993"><ele>905.3333333333334</ele><time>2026-05-02T15:17:16.999Z</time></trkpt><trkpt lat="38.01755663883449" lon="15.015966812064026"><ele>907.0</ele><time>2026-05-02T15:17:17.999Z</time></trkpt><trkpt lat="38.0175210608247" lon="15.01605630497837"><ele>908.6666666666667</ele><time>2026-05-02T15:17:18.999Z</time></trkpt><trkpt lat="38.01748454692028" lon="15.016143525678904"><ele>910.3333333333334</ele><time>2026-05-02T15:17:19.999Z</time></trkpt><trkpt lat="38.01744563868577" lon="15.01622485934115"><ele>912.0</ele><time>2026-05-02T15:17:20.999Z</time></trkpt><trkpt lat="38.01740325012444" lon="15.016300689667087"><ele>913.0</ele><time>2026-05-02T15:17:21.999Z</time></trkpt><trkpt lat="38.017359997379906" lon="15.016374436465371"><ele>914.0</ele><time>2026-05-02T15:17:22.999Z</time></trkpt><trkpt lat="38.01731569494726" lon="15.016450129912952"><ele>915.0</ele><time>2026-05-02T15:17:23.999Z</time></trkpt><trkpt lat="38.017270801245175" lon="15.016525794670423"><ele>916.0</ele><time>2026-05-02T15:17:24.999Z</time></trkpt><trkpt lat="38.01723369877998" lon="15.016605923751595"><ele>917.0</ele><time>2026-05-02T15:17:25.999Z</time></trkpt><trkpt lat="38.0171892348236" lon="15.016684900040904"><ele>918.0</ele><time>2026-05-02T15:17:26.999Z</time></trkpt><trkpt lat="38.0171785866481" lon="15.016784570579572"><ele>918.0</ele><time>2026-05-02T15:17:27.999Z</time></trkpt><trkpt lat="38.017192091104306" lon="15.016880489085171"><ele>918.0</ele><time>2026-05-02T15:17:28.999Z</time></trkpt><trkpt lat="38.017238861068485" lon="15.016964952641205"><ele>918.0</ele><time>2026-05-02T15:17:29.999Z</time></trkpt><trkpt lat="38.01727342094372" lon="15.017057627659126"><ele>918.0</ele><time>2026-05-02T15:17:30.999Z</time></trkpt><trkpt lat="38.01731084738128" lon="15.01714782369004"><ele>918.0</ele><time>2026-05-02T15:17:31.999Z</time></trkpt><trkpt lat="38.017348733759114" lon="15.017234422204982"><ele>918.0</ele><time>2026-05-02T15:17:32.999Z</time></trkpt><trkpt lat="38.017385679340634" lon="15.017323982454917"><ele>918.0</ele><time>2026-05-02T15:17:33.999Z</time></trkpt><trkpt lat="38.017421778053155" lon="15.017411092038136"><ele>918.0</ele><time>2026-05-02T15:17:34.999Z</time></trkpt><trkpt lat="38.01745839123421" lon="15.017494241725766"><ele>918.0</ele><time>2026-05-02T15:17:35.999Z</time></trkpt><trkpt lat="38.01750656232593" lon="15.017568941104155"><ele>918.0</ele><time>2026-05-02T15:17:36.999Z</time></trkpt><trkpt lat="38.01757025067863" lon="15.017647443487716"><ele>918.0</ele><time>2026-05-02T15:17:37.999Z</time></trkpt><trkpt lat="38.01764836042631" lon="15.017654694770014"><ele>918.0</ele><time>2026-05-02T15:17:38.999Z</time></trkpt><trkpt lat="38.017755479717884" lon="15.017644070294766"><ele>916.2</ele><time>2026-05-02T15:17:39.999Z</time></trkpt><trkpt lat="38.017858824237344" lon="15.01760620579974"><ele>914.4</ele><time>2026-05-02T15:17:40.999Z</time></trkpt><trkpt lat="38.017952922030034" lon="15.017556091265616"><ele>912.6000000000001</ele><time>2026-05-02T15:17:41.999Z</time></trkpt><trkpt lat="38.01805005999219" lon="15.017513825742185"><ele>910.8000000000001</ele><time>2026-05-02T15:17:42.999Z</time></trkpt><trkpt lat="38.01813696314568" lon="15.01747934986583"><ele>909.0</ele><time>2026-05-02T15:17:43.998Z</time></trkpt><trkpt lat="38.018221969376306" lon="15.017444208016226"><ele>908.2</ele><time>2026-05-02T15:17:44.998Z</time></trkpt><trkpt lat="38.018316395706584" lon="15.01740682427208"><ele>907.4000000000001</ele><time>2026-05-02T15:17:45.998Z</time></trkpt><trkpt lat="38.01840707748135" lon="15.017367859340416"><ele>906.6</ele><time>2026-05-02T15:17:46.998Z</time></trkpt><trkpt lat="38.01849443434436" lon="15.017325342547252"><ele>905.8</ele><time>2026-05-02T15:17:47.998Z</time></trkpt><trkpt lat="38.018580108700476" lon="15.017280563907446"><ele>905.0</ele><time>2026-05-02T15:17:48.998Z</time></trkpt><trkpt lat="38.01866138050499" lon="15.017238135878877"><ele>903.5000000000001</ele><time>2026-05-02T15:17:49.998Z</time></trkpt><trkpt lat="38.01873767875369" lon="15.01719953081931"><ele>902.0</ele><time>2026-05-02T15:17:50.998Z</time></trkpt><trkpt lat="38.01881065641863" lon="15.01716261779009"><ele>900.5</ele><time>2026-05-02T15:17:51.998Z</time></trkpt><trkpt lat="38.01887808995524" lon="15.017118909025973"><ele>899.0</ele><time>2026-05-02T15:17:52.998Z</time></trkpt><trkpt lat="38.018960011987986" lon="15.017057574280374"><ele>897.5000000000001</ele><time>2026-05-02T15:17:54.998Z</time></trkpt><trkpt lat="38.019031379189826" lon="15.016972814029259"><ele>896.0</ele><time>2026-05-02T15:17:56.998Z</time></trkpt><trkpt lat="38.01911828153768" lon="15.01685757311674"><ele>896.5714285714286</ele><time>2026-05-02T15:17:58.998Z</time></trkpt><trkpt lat="38.01916872902433" lon="15.016789775216942"><ele>897.1428571428571</ele><time>2026-05-02T15:17:59.998Z</time></trkpt><trkpt lat="38.0192207589835" lon="15.016722496311331"><ele>897.7142857142858</ele><time>2026-05-02T15:18:00.998Z</time></trkpt><trkpt lat="38.019276678918786" lon="15.016667503092366"><ele>898.2857142857143</ele><time>2026-05-02T15:18:01.998Z</time></trkpt><trkpt lat="38.019346299757764" lon="15.016642302913445"><ele>898.8571428571429</ele><time>2026-05-02T15:18:02.998Z</time></trkpt><trkpt lat="38.01942238516201" lon="15.016632910594259"><ele>899.4285714285716</ele><time>2026-05-02T15:18:03.998Z</time></trkpt><trkpt lat="38.01949634830129" lon="15.016664185108546"><ele>900.0000000000001</ele><time>2026-05-02T15:18:04.998Z</time></trkpt><trkpt lat="38.01956986190903" lon="15.016719549751143"><ele>900.0000000000001</ele><time>2026-05-02T15:18:05.998Z</time></trkpt><trkpt lat="38.01961935456977" lon="15.016804233264365"><ele>900.0</ele><time>2026-05-02T15:18:06.998Z</time></trkpt><trkpt lat="38.01966860302855" lon="15.016880587862332"><ele>900.0000000000001</ele><time>2026-05-02T15:18:07.998Z</time></trkpt><trkpt lat="38.019708895930876" lon="15.016961003976816"><ele>900.0000000000001</ele><time>2026-05-02T15:18:08.998Z</time></trkpt><trkpt lat="38.01976069904318" lon="15.017029285546853"><ele>900.0</ele><time>2026-05-02T15:18:09.998Z</time></trkpt><trkpt lat="38.01978063189777" lon="15.01710898368931"><ele>900.0000000000001</ele><time>2026-05-02T15:18:10.998Z</time></trkpt><trkpt lat="38.019824349415316" lon="15.017170923784642"><ele>900.0000000000001</ele><time>2026-05-02T15:18:11.998Z</time></trkpt><trkpt lat="38.01985651584979" lon="15.017245068478402"><ele>900.0000000000001</ele><time>2026-05-02T15:18:12.998Z</time></trkpt><trkpt lat="38.01988537528664" lon="15.017330442207895"><ele>900.0</ele><time>2026-05-02T15:18:13.998Z</time></trkpt><trkpt lat="38.01990707374194" lon="15.017422387773975"><ele>900.0000000000001</ele><time>2026-05-02T15:18:14.998Z</time></trkpt><trkpt lat="38.01992943370183" lon="15.017513643144465"><ele>900.0000000000001</ele><time>2026-05-02T15:18:15.998Z</time></trkpt><trkpt lat="38.01993558438828" lon="15.017610826377817"><ele>900.0</ele><time>2026-05-02T15:18:16.998Z</time></trkpt><trkpt lat="38.019974438169335" lon="15.01769205704183"><ele>900.0000000000001</ele><time>2026-05-02T15:18:17.998Z</time></trkpt><trkpt lat="38.0199985875625" lon="15.017775384177286"><ele>900.0000000000001</ele><time>2026-05-02T15:18:18.998Z</time></trkpt><trkpt lat="38.02002630329209" lon="15.01785378267621"><ele>900.4285714285716</ele><time>2026-05-02T15:18:19.998Z</time></trkpt><trkpt lat="38.02006434196262" lon="15.017926694890456"><ele>900.8571428571429</ele><time>2026-05-02T15:18:20.998Z</time></trkpt><trkpt lat="38.0201221100647" lon="15.017977163040332"><ele>901.2857142857143</ele><time>2026-05-02T15:18:21.998Z</time></trkpt><trkpt lat="38.02019046084302" lon="15.01800167603841"><ele>901.7142857142858</ele><time>2026-05-02T15:18:22.998Z</time></trkpt><trkpt lat="38.020259681459756" lon="15.018007304215194"><ele>902.1428571428571</ele><time>2026-05-02T15:18:23.998Z</time></trkpt><trkpt lat="38.02032554559911" lon="15.017990763119624"><ele>902.5714285714286</ele><time>2026-05-02T15:18:24.998Z</time></trkpt><trkpt lat="38.02038597944851" lon="15.017963045358199"><ele>903.0</ele><time>2026-05-02T15:18:25.998Z</time></trkpt><trkpt lat="38.02049345565758" lon="15.017897703092851"><ele>903.0</ele><time>2026-05-02T15:18:27.998Z</time></trkpt><trkpt lat="38.02055174383877" lon="15.017861544290069"><ele>903.0</ele><time>2026-05-02T15:18:28.998Z</time></trkpt><trkpt lat="38.02060959587388" lon="15.017825262967765"><ele>903.0</ele><time>2026-05-02T15:18:29.997Z</time></trkpt><trkpt lat="38.020666067359635" lon="15.017785710024832"><ele>903.0</ele><time>2026-05-02T15:18:31Z</time></trkpt><trkpt lat="38.020759556243306" lon="15.017724525082505"><ele>903.0</ele><time>2026-05-02T15:18:33Z</time></trkpt><trkpt lat="38.02084289730464" lon="15.017693195473342"><ele>903.0</ele><time>2026-05-02T15:18:35Z</time></trkpt><trkpt lat="38.02090876828871" lon="15.017678215443263"><ele>902.6666666666666</ele><time>2026-05-02T15:18:37Z</time></trkpt><trkpt lat="38.021004213070555" lon="15.017662940197683"><ele>902.3333333333333</ele><time>2026-05-02T15:18:39Z</time></trkpt><trkpt lat="38.02105219459614" lon="15.017601312039467"><ele>902.0</ele><time>2026-05-02T15:18:40Z</time></trkpt><trkpt lat="38.021157306960035" lon="15.017540238062095"><ele>901.6666666666666</ele><time>2026-05-02T15:18:42Z</time></trkpt><trkpt lat="38.02121833555978" lon="15.017519950850536"><ele>901.3333333333333</ele><time>2026-05-02T15:18:43Z</time></trkpt><trkpt lat="38.02128641300583" lon="15.01751231932619"><ele>901.0</ele><time>2026-05-02T15:18:44Z</time></trkpt><trkpt lat="38.021358518833686" lon="15.017509856496575"><ele>900.9999999999999</ele><time>2026-05-02T15:18:45Z</time></trkpt><trkpt lat="38.021437304275395" lon="15.017509643080752"><ele>901.0</ele><time>2026-05-02T15:18:46Z</time></trkpt><trkpt lat="38.02152003450597" lon="15.01751083883077"><ele>901.0</ele><time>2026-05-02T15:18:47Z</time></trkpt><trkpt lat="38.02160369602155" lon="15.017511850981984"><ele>901.0</ele><time>2026-05-02T15:18:48Z</time></trkpt><trkpt lat="38.021692080663044" lon="15.017519887377277"><ele>900.9999999999999</ele><time>2026-05-02T15:18:49Z</time></trkpt><trkpt lat="38.02176741630367" lon="15.017522656525328"><ele>901.0</ele><time>2026-05-02T15:18:50Z</time></trkpt><trkpt lat="38.021833867985805" lon="15.017520492366224"><ele>901.1666666666666</ele><time>2026-05-02T15:18:51Z</time></trkpt><trkpt lat="38.02190520100967" lon="15.017509024682091"><ele>901.3333333333333</ele><time>2026-05-02T15:18:52Z</time></trkpt><trkpt lat="38.02197418508903" lon="15.017492274553788"><ele>901.5</ele><time>2026-05-02T15:18:53Z</time></trkpt><trkpt lat="38.022041147142794" lon="15.017470561197738"><ele>901.6666666666667</ele><time>2026-05-02T15:18:54Z</time></trkpt><trkpt lat="38.02210716010378" lon="15.017449102842848"><ele>901.8333333333334</ele><time>2026-05-02T15:18:55Z</time></trkpt><trkpt lat="38.02218385356983" lon="15.017414329674455"><ele>902.0</ele><time>2026-05-02T15:18:56Z</time></trkpt><trkpt lat="38.022263933835035" lon="15.017365556982405"><ele>900.8333333333334</ele><time>2026-05-02T15:18:57Z</time></trkpt><trkpt lat="38.022339719782046" lon="15.017310801471238"><ele>899.6666666666667</ele><time>2026-05-02T15:18:58Z</time></trkpt><trkpt lat="38.02240462036687" lon="15.017250912014587"><ele>898.5</ele><time>2026-05-02T15:18:59Z</time></trkpt><trkpt lat="38.022463047448696" lon="15.017183578501863"><ele>897.3333333333333</ele><time>2026-05-02T15:19:00Z</time></trkpt><trkpt lat="38.02251506015077" lon="15.01711480666438"><ele>896.1666666666666</ele><time>2026-05-02T15:19:01Z</time></trkpt><trkpt lat="38.02256202307751" lon="15.01703707984068"><ele>895.0</ele><time>2026-05-02T15:19:02Z</time></trkpt><trkpt lat="38.02261021045909" lon="15.016953093944302"><ele>894.3333333333333</ele><time>2026-05-02T15:19:03Z</time></trkpt><trkpt lat="38.0226584633165" lon="15.016864204531181"><ele>893.6666666666666</ele><time>2026-05-02T15:19:04Z</time></trkpt><trkpt lat="38.02270712483476" lon="15.016777073580398"><ele>893.0</ele><time>2026-05-02T15:19:05Z</time></trkpt><trkpt lat="38.02275111125351" lon="15.016701960284815"><ele>892.3333333333333</ele><time>2026-05-02T15:19:06Z</time></trkpt><trkpt lat="38.022803473514294" lon="15.01663779774233"><ele>891.6666666666666</ele><time>2026-05-02T15:19:06.999Z</time></trkpt><trkpt lat="38.022870910863965" lon="15.016588551610422"><ele>891.0</ele><time>2026-05-02T15:19:07.999Z</time></trkpt><trkpt lat="38.02294663357861" lon="15.01655461373972"><ele>889.6666666666666</ele><time>2026-05-02T15:19:08.999Z</time></trkpt><trkpt lat="38.02302532436685" lon="15.01654654300726"><ele>888.3333333333333</ele><time>2026-05-02T15:19:09.999Z</time></trkpt><trkpt lat="38.02310320356175" lon="15.016558496586708"><ele>887.0</ele><time>2026-05-02T15:19:10.999Z</time></trkpt><trkpt lat="38.02317813693504" lon="15.016576558946273"><ele>885.6666666666666</ele><time>2026-05-02T15:19:11.999Z</time></trkpt><trkpt lat="38.023255404813646" lon="15.016597133728867"><ele>884.3333333333333</ele><time>2026-05-02T15:19:12.999Z</time></trkpt><trkpt lat="38.023330673567436" lon="15.016616839797631"><ele>883.0</ele><time>2026-05-02T15:19:13.999Z</time></trkpt><trkpt lat="38.023405404665176" lon="15.016637839064227"><ele>883.6666666666666</ele><time>2026-05-02T15:19:14.999Z</time></trkpt><trkpt lat="38.023480628708526" lon="15.016657900705082"><ele>884.3333333333333</ele><time>2026-05-02T15:19:15.999Z</time></trkpt><trkpt lat="38.02355504454533" lon="15.016676367773053"><ele>885.0</ele><time>2026-05-02T15:19:16.999Z</time></trkpt><trkpt lat="38.02362815698426" lon="15.01669851540535"><ele>885.6666666666667</ele><time>2026-05-02T15:19:17.999Z</time></trkpt><trkpt lat="38.023699928716894" lon="15.016717318403135"><ele>886.3333333333334</ele><time>2026-05-02T15:19:18.999Z</time></trkpt><trkpt lat="38.02376911022015" lon="15.016756388372254"><ele>887.0</ele><time>2026-05-02T15:19:19.999Z</time></trkpt><trkpt lat="38.02382798022465" lon="15.016816346430026"><ele>887.0000000000001</ele><time>2026-05-02T15:19:20.999Z</time></trkpt><trkpt lat="38.023883367065054" lon="15.01687859298203"><ele>887.0</ele><time>2026-05-02T15:19:21.999Z</time></trkpt><trkpt lat="38.02392711250321" lon="15.016954384659414"><ele>887.0</ele><time>2026-05-02T15:19:22.999Z</time></trkpt><trkpt lat="38.023986655872264" lon="15.016995640553308"><ele>887.0</ele><time>2026-05-02T15:19:23.999Z</time></trkpt><trkpt lat="38.024073122319585" lon="15.01709404888277"><ele>887.0000000000001</ele><time>2026-05-02T15:19:25.999Z</time></trkpt><trkpt lat="38.024172827036246" lon="15.017171688636672"><ele>887.0</ele><time>2026-05-02T15:19:27.999Z</time></trkpt><trkpt lat="38.02424767260512" lon="15.017167403062414"><ele>887.2</ele><time>2026-05-02T15:19:28.999Z</time></trkpt><trkpt lat="38.02435409298338" lon="15.01716354066454"><ele>887.4000000000001</ele><time>2026-05-02T15:19:30.999Z</time></trkpt><trkpt lat="38.02441311494465" lon="15.017284771208217"><ele>887.5999999999999</ele><time>2026-05-02T15:19:31.999Z</time></trkpt><trkpt lat="38.02443626512924" lon="15.017373434918253"><ele>887.8</ele><time>2026-05-02T15:19:32.999Z</time></trkpt><trkpt lat="38.0244349917787" lon="15.017477493972105"><ele>888.0</ele><time>2026-05-02T15:19:33.999Z</time></trkpt><trkpt lat="38.02440559873074" lon="15.01757683990395"><ele>888.0</ele><time>2026-05-02T15:19:34.999Z</time></trkpt><trkpt lat="38.02438185307682" lon="15.017678161952126"><ele>888.0</ele><time>2026-05-02T15:19:35.999Z</time></trkpt><trkpt lat="38.024366693635635" lon="15.017779356694033"><ele>888.0</ele><time>2026-05-02T15:19:36.999Z</time></trkpt><trkpt lat="38.02435339909907" lon="15.017874306219797"><ele>888.0</ele><time>2026-05-02T15:19:37.999Z</time></trkpt><trkpt lat="38.02435142239331" lon="15.017971634399125"><ele>888.0</ele><time>2026-05-02T15:19:38.999Z</time></trkpt><trkpt lat="38.024390285605755" lon="15.018062451639002"><ele>888.0</ele><time>2026-05-02T15:19:39.999Z</time></trkpt><trkpt lat="38.02445304232271" lon="15.018119238574847"><ele>888.0</ele><time>2026-05-02T15:19:40.999Z</time></trkpt><trkpt lat="38.0245735035764" lon="15.018092418551412"><ele>888.0</ele><time>2026-05-02T15:19:42.999Z</time></trkpt><trkpt lat="38.02463803514005" lon="15.018071901220948"><ele>888.0</ele><time>2026-05-02T15:19:43.999Z</time></trkpt><trkpt lat="38.02470851734841" lon="15.018044345307082"><ele>888.0</ele><time>2026-05-02T15:19:44.999Z</time></trkpt><trkpt lat="38.02477225842537" lon="15.018010090213874"><ele>888.0</ele><time>2026-05-02T15:19:45.999Z</time></trkpt><trkpt lat="38.02483285220331" lon="15.017956134673993"><ele>888.0</ele><time>2026-05-02T15:19:46.999Z</time></trkpt><trkpt lat="38.02487697268305" lon="15.017884126522853"><ele>888.0</ele><time>2026-05-02T15:19:47.999Z</time></trkpt><trkpt lat="38.02489437731904" lon="15.017797273044314"><ele>888.0</ele><time>2026-05-02T15:19:48.999Z</time></trkpt><trkpt lat="38.024891005096805" lon="15.017707175099451"><ele>888.0</ele><time>2026-05-02T15:19:49.999Z</time></trkpt><trkpt lat="38.02489172284999" lon="15.017617232603873"><ele>888.0</ele><time>2026-05-02T15:19:50.999Z</time></trkpt><trkpt lat="38.02489422841795" lon="15.017526892081994"><ele>888.0</ele><time>2026-05-02T15:19:51.999Z</time></trkpt><trkpt lat="38.02491247921102" lon="15.017443884396094"><ele>888.0</ele><time>2026-05-02T15:19:52.998Z</time></trkpt><trkpt lat="38.025000355316095" lon="15.017343610567437"><ele>882.5999999999999</ele><time>2026-05-02T15:19:54.998Z</time></trkpt><trkpt lat="38.025099996251335" lon="15.01730035730537"><ele>877.1999999999999</ele><time>2026-05-02T15:19:56.998Z</time></trkpt><trkpt lat="38.02521300376457" lon="15.017378714248952"><ele>871.8</ele><time>2026-05-02T15:19:58.998Z</time></trkpt><trkpt lat="38.02528600435764" lon="15.01736757198381"><ele>866.4</ele><time>2026-05-02T15:19:59.998Z</time></trkpt><trkpt lat="38.02537336375802" lon="15.017358421053228"><ele>861.0</ele><time>2026-05-02T15:20:00.998Z</time></trkpt><trkpt lat="38.02547385828498" lon="15.017333237440374"><ele>861.0</ele><time>2026-05-02T15:20:01.998Z</time></trkpt><trkpt lat="38.02558143138531" lon="15.017282769024483"><ele>860.9999999999999</ele><time>2026-05-02T15:20:02.998Z</time></trkpt><trkpt lat="38.02567047025401" lon="15.017239494311509"><ele>860.9999999999999</ele><time>2026-05-02T15:20:03.998Z</time></trkpt><trkpt lat="38.02575045870564" lon="15.01720728876061"><ele>861.0</ele><time>2026-05-02T15:20:04.998Z</time></trkpt><trkpt lat="38.02581737748128" lon="15.017177465419593"><ele>861.0</ele><time>2026-05-02T15:20:05.998Z</time></trkpt><trkpt lat="38.02589737959117" lon="15.017139311841547"><ele>861.0</ele><time>2026-05-02T15:20:07.998Z</time></trkpt><trkpt lat="38.02596244671923" lon="15.01712788127558"><ele>861.0</ele><time>2026-05-02T15:20:55Z</time></trkpt><trkpt lat="38.025900701996754" lon="15.017153294049436"><ele>861.0</ele><time>2026-05-02T15:28:30.998Z</time></trkpt><trkpt lat="38.02580317492137" lon="15.017183358883084"><ele>861.0</ele><time>2026-05-02T15:28:32.998Z</time></trkpt><trkpt lat="38.025740959073026" lon="15.017205454507453"><ele>861.0</ele><time>2026-05-02T15:28:33.998Z</time></trkpt><trkpt lat="38.02568059567605" lon="15.017239029537958"><ele>861.0</ele><time>2026-05-02T15:28:34.998Z</time></trkpt><trkpt lat="38.02548835217537" lon="15.017281187477154"><ele>861.0</ele><time>2026-05-02T15:28:35.998Z</time></trkpt><trkpt lat="38.02539785679933" lon="15.017372055483092"><ele>861.0</ele><time>2026-05-02T15:28:38.998Z</time></trkpt><trkpt lat="38.02533307975623" lon="15.017376127759087"><ele>861.0</ele><time>2026-05-02T15:28:39.998Z</time></trkpt><trkpt lat="38.02525506345096" lon="15.017413092968123"><ele>861.0</ele><time>2026-05-02T15:28:42.998Z</time></trkpt><trkpt lat="38.02519400803188" lon="15.017392574128614"><ele>861.0</ele><time>2026-05-02T15:31:26Z</time></trkpt><trkpt lat="38.02517502688394" lon="15.017309288919243"><ele>861.0</ele><time>2026-05-02T15:31:34Z</time></trkpt><trkpt lat="38.025139517127016" lon="15.017243035048233"><ele>861.0</ele><time>2026-05-02T15:31:40Z</time></trkpt><trkpt lat="38.025106104095656" lon="15.017170363055186"><ele>861.0</ele><time>2026-05-02T15:31:43.999Z</time></trkpt><trkpt lat="38.02508502883021" lon="15.017073781932904"><ele>861.0</ele><time>2026-05-02T15:31:46.999Z</time></trkpt><trkpt lat="38.02508781507129" lon="15.016954498173035"><ele>861.0</ele><time>2026-05-02T15:31:47.999Z</time></trkpt><trkpt lat="38.025079448475225" lon="15.016865655572289"><ele>861.0</ele><time>2026-05-02T15:31:48.999Z</time></trkpt><trkpt lat="38.02505823553632" lon="15.016775330056305"><ele>861.0</ele><time>2026-05-02T15:31:49.999Z</time></trkpt><trkpt lat="38.02503881898265" lon="15.016681455927005"><ele>861.6666666666666</ele><time>2026-05-02T15:31:50.999Z</time></trkpt><trkpt lat="38.02502075360899" lon="15.01658338084723"><ele>862.3333333333333</ele><time>2026-05-02T15:31:51.999Z</time></trkpt><trkpt lat="38.025004722302086" lon="15.016478969900529"><ele>863.0</ele><time>2026-05-02T15:31:52.999Z</time></trkpt><trkpt lat="38.02498424600245" lon="15.01637701150181"><ele>863.6666666666666</ele><time>2026-05-02T15:31:53.999Z</time></trkpt><trkpt lat="38.02495362006332" lon="15.016273796693026"><ele>864.3333333333333</ele><time>2026-05-02T15:31:54.999Z</time></trkpt><trkpt lat="38.024903507918424" lon="15.016185588398772"><ele>865.0</ele><time>2026-05-02T15:31:55.999Z</time></trkpt><trkpt lat="38.02485306815073" lon="15.016130955003721"><ele>865.0</ele><time>2026-05-02T15:31:56.999Z</time></trkpt><trkpt lat="38.024798192143926" lon="15.016074750537104"><ele>865.0</ele><time>2026-05-02T15:31:57.999Z</time></trkpt><trkpt lat="38.02473891453627" lon="15.01602422860268"><ele>865.0</ele><time>2026-05-02T15:31:58.999Z</time></trkpt><trkpt lat="38.02467364932627" lon="15.015965320331006"><ele>865.0</ele><time>2026-05-02T15:31:59.999Z</time></trkpt><trkpt lat="38.0246253492236" lon="15.015891132667537"><ele>865.0</ele><time>2026-05-02T15:32:00.999Z</time></trkpt><trkpt lat="38.02456253311595" lon="15.015837867511674"><ele>865.0</ele><time>2026-05-02T15:32:01.999Z</time></trkpt><trkpt lat="38.02450174092812" lon="15.015786318577478"><ele>865.0</ele><time>2026-05-02T15:32:02.999Z</time></trkpt><trkpt lat="38.02444246443183" lon="15.015734239807522"><ele>864.4285714285714</ele><time>2026-05-02T15:32:03.999Z</time></trkpt><trkpt lat="38.02438020649714" lon="15.015676557646717"><ele>863.8571428571429</ele><time>2026-05-02T15:32:04.999Z</time></trkpt><trkpt lat="38.024318260943616" lon="15.01561916568769"><ele>863.2857142857142</ele><time>2026-05-02T15:32:05.999Z</time></trkpt><trkpt lat="38.02425744037581" lon="15.015566332298377"><ele>862.7142857142858</ele><time>2026-05-02T15:32:06.999Z</time></trkpt><trkpt lat="38.02422980594686" lon="15.01548655851719"><ele>862.1428571428571</ele><time>2026-05-02T15:32:07.999Z</time></trkpt><trkpt lat="38.02420410316203" lon="15.015401855110127"><ele>861.5714285714286</ele><time>2026-05-02T15:32:08.999Z</time></trkpt><trkpt lat="38.0241745053948" lon="15.015326043655568"><ele>861.0</ele><time>2026-05-02T15:32:09.999Z</time></trkpt><trkpt lat="38.024179048685305" lon="15.01522569755112"><ele>861.0</ele><time>2026-05-02T15:32:10.999Z</time></trkpt><trkpt lat="38.024149209428224" lon="15.015141895075306"><ele>861.0</ele><time>2026-05-02T15:32:11.999Z</time></trkpt><trkpt lat="38.024118496979284" lon="15.0150556409005"><ele>861.0</ele><time>2026-05-02T15:32:12.999Z</time></trkpt><trkpt lat="38.02408572166247" lon="15.014960061431246"><ele>861.0</ele><time>2026-05-02T15:32:13.999Z</time></trkpt><trkpt lat="38.024052492818626" lon="15.014862775069481"><ele>861.0</ele><time>2026-05-02T15:32:14.999Z</time></trkpt><trkpt lat="38.02402164610373" lon="15.014772343263823"><ele>861.0</ele><time>2026-05-02T15:32:15.999Z</time></trkpt><trkpt lat="38.02399271285067" lon="15.014687499945158"><ele>862.2857142857143</ele><time>2026-05-02T15:32:16.999Z</time></trkpt><trkpt lat="38.0239654304609" lon="15.014607497553754"><ele>863.5714285714286</ele><time>2026-05-02T15:32:17.999Z</time></trkpt><trkpt lat="38.02393850059604" lon="15.014528528905394"><ele>864.8571428571429</ele><time>2026-05-02T15:32:18.999Z</time></trkpt><trkpt lat="38.02391166505411" lon="15.014449837003715"><ele>866.1428571428571</ele><time>2026-05-02T15:32:19.999Z</time></trkpt><trkpt lat="38.023885475896904" lon="15.014371994132583"><ele>867.4285714285714</ele><time>2026-05-02T15:32:20.999Z</time></trkpt><trkpt lat="38.02384646006799" lon="15.014257625394348"><ele>868.7142857142858</ele><time>2026-05-02T15:32:22.999Z</time></trkpt><trkpt lat="38.023819741524036" lon="15.014179101703306"><ele>870.0</ele><time>2026-05-02T15:32:24.999Z</time></trkpt><trkpt lat="38.023779169567625" lon="15.014061583472476"><ele>870.0</ele><time>2026-05-02T15:32:26.998Z</time></trkpt><trkpt lat="38.02369547605231" lon="15.013942027824998"><ele>870.0</ele><time>2026-05-02T15:32:28.998Z</time></trkpt><trkpt lat="38.023681441822134" lon="15.013863957920393"><ele>870.0</ele><time>2026-05-02T15:32:29.998Z</time></trkpt><trkpt lat="38.02365519662438" lon="15.013790488340806"><ele>870.0</ele><time>2026-05-02T15:32:30.998Z</time></trkpt><trkpt lat="38.02360432009902" lon="15.013644490313743"><ele>870.0</ele><time>2026-05-02T15:32:32.998Z</time></trkpt><trkpt lat="38.02355475304221" lon="15.01351529914203"><ele>870.0</ele><time>2026-05-02T15:32:34.998Z</time></trkpt><trkpt lat="38.02352102874673" lon="15.013423812006602"><ele>870.0</ele><time>2026-05-02T15:32:36.998Z</time></trkpt><trkpt lat="38.02347352251872" lon="15.013353784997003"><ele>870.0</ele><time>2026-05-02T15:32:39.998Z</time></trkpt><trkpt lat="38.023364557042385" lon="15.013452543206364"><ele>870.0</ele><time>2026-05-02T15:32:45.998Z</time></trkpt><trkpt lat="38.023334748864265" lon="15.013533595607608"><ele>870.0</ele><time>2026-05-02T15:32:47.998Z</time></trkpt><trkpt lat="38.023301069295506" lon="15.013628052662042"><ele>870.0</ele><time>2026-05-02T15:32:50.998Z</time></trkpt><trkpt lat="38.02326526627073" lon="15.013721758441354"><ele>867.4</ele><time>2026-05-02T15:32:53.998Z</time></trkpt><trkpt lat="38.023231193931494" lon="15.013826613804023"><ele>864.8</ele><time>2026-05-02T15:32:56.998Z</time></trkpt><trkpt lat="38.02320892432108" lon="15.01390194395519"><ele>862.2</ele><time>2026-05-02T15:32:58.998Z</time></trkpt><trkpt lat="38.02316137162291" lon="15.013992307506845"><ele>859.6</ele><time>2026-05-02T15:33:01.998Z</time></trkpt><trkpt lat="38.0230416949068" lon="15.013897679519534"><ele>857.0</ele><time>2026-05-02T15:33:09.997Z</time></trkpt><trkpt lat="38.02296836616652" lon="15.013850351791783"><ele>857.0000000000001</ele><time>2026-05-02T15:33:11.997Z</time></trkpt><trkpt lat="38.0229293368356" lon="15.013766221550151"><ele>857.0</ele><time>2026-05-02T15:33:14Z</time></trkpt><trkpt lat="38.022881254486045" lon="15.013686093954638"><ele>857.0</ele><time>2026-05-02T15:33:16Z</time></trkpt><trkpt lat="38.02293129986225" lon="15.013588403940457"><ele>857.0</ele><time>2026-05-02T15:33:18Z</time></trkpt><trkpt lat="38.02297153586994" lon="15.013450302818498"><ele>857.0000000000001</ele><time>2026-05-02T15:33:20Z</time></trkpt><trkpt lat="38.02300854275325" lon="15.013382816631806"><ele>857.0</ele><time>2026-05-02T15:33:22Z</time></trkpt><trkpt lat="38.02302589742807" lon="15.013287484409323"><ele>857.3333333333334</ele><time>2026-05-02T15:33:25Z</time></trkpt><trkpt lat="38.023011545160806" lon="15.013185332816391"><ele>857.6666666666667</ele><time>2026-05-02T15:37:29.999Z</time></trkpt><trkpt lat="38.02299460195516" lon="15.013083690950012"><ele>858.0</ele><time>2026-05-02T15:37:33.999Z</time></trkpt><trkpt lat="38.02296525552763" lon="15.012992780166048"><ele>858.3333333333333</ele><time>2026-05-02T15:37:36.999Z</time></trkpt><trkpt lat="38.022958209727136" lon="15.012885775921072"><ele>858.6666666666666</ele><time>2026-05-02T15:37:38.999Z</time></trkpt><trkpt lat="38.02290293060171" lon="15.012946984412286"><ele>859.0</ele><time>2026-05-02T15:37:42.999Z</time></trkpt><trkpt lat="38.0229835911336" lon="15.013021116893851"><ele>858.9999999999999</ele><time>2026-05-02T15:37:44.999Z</time></trkpt><trkpt lat="38.02300019118483" lon="15.01311545318005"><ele>859.0</ele><time>2026-05-02T15:37:46.999Z</time></trkpt><trkpt lat="38.02301713789888" lon="15.01321176020683"><ele>859.0</ele><time>2026-05-02T15:37:48.999Z</time></trkpt><trkpt lat="38.02302105853243" lon="15.01331992641218"><ele>859.0</ele><time>2026-05-02T15:37:51.999Z</time></trkpt><trkpt lat="38.02303822866672" lon="15.013397196581108"><ele>859.0</ele><time>2026-05-02T15:37:54.999Z</time></trkpt><trkpt lat="38.02300246485047" lon="15.013463476359638"><ele>858.9999999999999</ele><time>2026-05-02T15:37:56.999Z</time></trkpt><trkpt lat="38.022958195958985" lon="15.013540335639817"><ele>859.0</ele><time>2026-05-02T15:38:18.999Z</time></trkpt><trkpt lat="38.02292479836" lon="15.013611173551716"><ele>858.6</ele><time>2026-05-02T15:38:21.999Z</time></trkpt><trkpt lat="38.022908654286795" lon="15.013725480769155"><ele>858.2</ele><time>2026-05-02T15:38:24.999Z</time></trkpt><trkpt lat="38.02301324111704" lon="15.01387542146469"><ele>857.8000000000001</ele><time>2026-05-02T15:38:30.999Z</time></trkpt><trkpt lat="38.02304300866284" lon="15.013952953897718"><ele>857.4000000000001</ele><time>2026-05-02T15:38:43.998Z</time></trkpt><trkpt lat="38.0231413786833" lon="15.013958901630282"><ele>857.0</ele><time>2026-05-02T15:47:07.999Z</time></trkpt><trkpt lat="38.02313529669874" lon="15.014056515632275"><ele>857.0</ele><time>2026-05-02T15:56:30Z</time></trkpt><trkpt lat="38.02310570485044" lon="15.013983135816705"><ele>857.0</ele><time>2026-05-02T15:56:40Z</time></trkpt><trkpt lat="38.02306145904164" lon="15.013922209474757"><ele>857.0</ele><time>2026-05-02T15:56:42Z</time></trkpt><trkpt lat="38.0230036757528" lon="15.013857278949313"><ele>857.0</ele><time>2026-05-02T15:56:45Z</time></trkpt><trkpt lat="38.022952463258626" lon="15.013794697536655"><ele>857.0</ele><time>2026-05-02T15:56:48Z</time></trkpt><trkpt lat="38.02290373803881" lon="15.013734953221661"><ele>857.0</ele><time>2026-05-02T15:56:50Z</time></trkpt><trkpt lat="38.02286227990114" lon="15.013628657602036"><ele>857.0</ele><time>2026-05-02T15:56:52Z</time></trkpt><trkpt lat="38.02291471939826" lon="15.01355908355167"><ele>857.0</ele><time>2026-05-02T15:56:54Z</time></trkpt><trkpt lat="38.022965049619295" lon="15.013412229325859"><ele>857.0</ele><time>2026-05-02T15:56:55.999Z</time></trkpt><trkpt lat="38.023018055162375" lon="15.013284996753317"><ele>857.0</ele><time>2026-05-02T15:56:57.999Z</time></trkpt><trkpt lat="38.02300791672576" lon="15.013189088965797"><ele>857.0</ele><time>2026-05-02T15:56:59.999Z</time></trkpt><trkpt lat="38.022985693152414" lon="15.013102922443494"><ele>857.0</ele><time>2026-05-02T15:57:03.999Z</time></trkpt><trkpt lat="38.022970024496786" lon="15.013018377208713"><ele>857.4000000000001</ele><time>2026-05-02T15:57:07.999Z</time></trkpt><trkpt lat="38.02295478412265" lon="15.012923457412827"><ele>857.8000000000001</ele><time>2026-05-02T15:57:12.999Z</time></trkpt><trkpt lat="38.022937114051366" lon="15.012798856316772"><ele>858.2</ele><time>2026-05-02T15:57:15.999Z</time></trkpt><trkpt lat="38.02292228115569" lon="15.012687219524416"><ele>858.6</ele><time>2026-05-02T15:57:17.999Z</time></trkpt><trkpt lat="38.022899019001066" lon="15.01255759714478"><ele>859.0</ele><time>2026-05-02T15:57:19.999Z</time></trkpt><trkpt lat="38.022871872065004" lon="15.012425586654059"><ele>858.9999999999999</ele><time>2026-05-02T15:57:21.999Z</time></trkpt><trkpt lat="38.02284365823052" lon="15.012324648395989"><ele>859.0</ele><time>2026-05-02T15:57:23.999Z</time></trkpt><trkpt lat="38.022791254296926" lon="15.012252040244684"><ele>859.0</ele><time>2026-05-02T15:57:25.999Z</time></trkpt><trkpt lat="38.0227277004188" lon="15.012219835439879"><ele>859.0</ele><time>2026-05-02T15:57:27.999Z</time></trkpt><trkpt lat="38.02267618055079" lon="15.012159685313804"><ele>859.0</ele><time>2026-05-02T15:57:29.999Z</time></trkpt><trkpt lat="38.02267666821049" lon="15.01207274468361"><ele>858.9999999999999</ele><time>2026-05-02T15:57:31.999Z</time></trkpt><trkpt lat="38.022678018111954" lon="15.011979420460401"><ele>859.0</ele><time>2026-05-02T15:57:33.999Z</time></trkpt><trkpt lat="38.02267588127175" lon="15.011889060424911"><ele>859.0</ele><time>2026-05-02T15:57:35.999Z</time></trkpt><trkpt lat="38.02268242226781" lon="15.011807666046396"><ele>859.0000000000001</ele><time>2026-05-02T15:57:39.999Z</time></trkpt><trkpt lat="38.0225511924318" lon="15.011727675187785"><ele>859.0000000000001</ele><time>2026-05-02T15:57:49.998Z</time></trkpt><trkpt lat="38.0224885720352" lon="15.011701383398632"><ele>859.0</ele><time>2026-05-02T15:57:52.998Z</time></trkpt><trkpt lat="38.022486227557835" lon="15.011550036803484"><ele>859.0</ele><time>2026-05-02T15:57:56.998Z</time></trkpt><trkpt lat="38.022442705003186" lon="15.011462605267374"><ele>856.6666666666666</ele><time>2026-05-02T15:57:58.998Z</time></trkpt><trkpt lat="38.02241892977427" lon="15.011377030255826"><ele>854.3333333333333</ele><time>2026-05-02T15:58:00.998Z</time></trkpt><trkpt lat="38.02237901336609" lon="15.01129120806212"><ele>852.0</ele><time>2026-05-02T15:58:03.998Z</time></trkpt><trkpt lat="38.02231791066363" lon="15.011199371883208"><ele>849.6666666666667</ele><time>2026-05-02T15:58:06.998Z</time></trkpt><trkpt lat="38.022270759204304" lon="15.011126262140955"><ele>847.3333333333334</ele><time>2026-05-02T15:58:08.998Z</time></trkpt><trkpt lat="38.022250501553906" lon="15.011047910094845"><ele>845.0</ele><time>2026-05-02T15:58:12.998Z</time></trkpt><trkpt lat="38.022184533080654" lon="15.011047701474112"><ele>845.0000000000001</ele><time>2026-05-02T15:58:15.998Z</time></trkpt><trkpt lat="38.02210223232458" lon="15.011080016822666"><ele>845.0</ele><time>2026-05-02T15:58:18.998Z</time></trkpt><trkpt lat="38.02205683009163" lon="15.010997825742502"><ele>845.0</ele><time>2026-05-02T15:58:21.998Z</time></trkpt><trkpt lat="38.02202921176355" lon="15.010903578120649"><ele>845.0</ele><time>2026-05-02T15:58:26Z</time></trkpt><trkpt lat="38.02196593095265" lon="15.010844943085873"><ele>845.0000000000001</ele><time>2026-05-02T15:58:29Z</time></trkpt><trkpt lat="38.02198724167283" lon="15.010755109706688"><ele>845.0</ele><time>2026-05-02T15:58:31Z</time></trkpt><trkpt lat="38.022039613630014" lon="15.010669727582574"><ele>845.4285714285713</ele><time>2026-05-02T15:58:33Z</time></trkpt><trkpt lat="38.02209354634538" lon="15.010612711642827"><ele>845.8571428571429</ele><time>2026-05-02T15:58:35Z</time></trkpt><trkpt lat="38.02215710355141" lon="15.010560907708056"><ele>846.2857142857142</ele><time>2026-05-02T15:58:37Z</time></trkpt><trkpt lat="38.022230806460726" lon="15.01053033475166"><ele>846.7142857142857</ele><time>2026-05-02T15:58:39Z</time></trkpt><trkpt lat="38.02229537774841" lon="15.010481347554236"><ele>847.1428571428571</ele><time>2026-05-02T15:58:41Z</time></trkpt><trkpt lat="38.02235524886073" lon="15.010443543035104"><ele>847.5714285714286</ele><time>2026-05-02T15:58:43Z</time></trkpt><trkpt lat="38.0224258567753" lon="15.010427158015995"><ele>848.0</ele><time>2026-05-02T15:58:45Z</time></trkpt><trkpt lat="38.02249962382842" lon="15.010381777927366"><ele>848.0000000000001</ele><time>2026-05-02T15:58:47Z</time></trkpt><trkpt lat="38.02257872615845" lon="15.010309035091666"><ele>848.0</ele><time>2026-05-02T15:58:49Z</time></trkpt><trkpt lat="38.02265284812286" lon="15.01022445548117"><ele>848.0</ele><time>2026-05-02T15:58:51Z</time></trkpt><trkpt lat="38.02273636607129" lon="15.0101709535082"><ele>848.0</ele><time>2026-05-02T15:58:53Z</time></trkpt><trkpt lat="38.02278655046151" lon="15.010100010489841"><ele>848.0000000000001</ele><time>2026-05-02T15:58:55Z</time></trkpt><trkpt lat="38.022820756860064" lon="15.010005025252232"><ele>848.0</ele><time>2026-05-02T15:58:57Z</time></trkpt><trkpt lat="38.022814573294575" lon="15.009867749126684"><ele>845.4</ele><time>2026-05-02T15:58:59Z</time></trkpt><trkpt lat="38.022811722784965" lon="15.009738681983281"><ele>842.8</ele><time>2026-05-02T15:59:01Z</time></trkpt><trkpt lat="38.02284863747989" lon="15.009631805623966"><ele>840.2</ele><time>2026-05-02T15:59:02.999Z</time></trkpt><trkpt lat="38.02287053769435" lon="15.009532702464346"><ele>837.6</ele><time>2026-05-02T15:59:04.999Z</time></trkpt><trkpt lat="38.02297629785967" lon="15.009516225120967"><ele>835.0</ele><time>2026-05-02T15:59:05.999Z</time></trkpt><trkpt lat="38.02303970392376" lon="15.009483108643416"><ele>834.9999999999999</ele><time>2026-05-02T15:59:06.999Z</time></trkpt><trkpt lat="38.02310527180699" lon="15.00946028772167"><ele>835.0</ele><time>2026-05-02T15:59:07.999Z</time></trkpt><trkpt lat="38.02317275341346" lon="15.009431899226563"><ele>835.0</ele><time>2026-05-02T15:59:08.999Z</time></trkpt><trkpt lat="38.02324315596738" lon="15.009393799480232"><ele>835.0</ele><time>2026-05-02T15:59:09.999Z</time></trkpt><trkpt lat="38.02332167784374" lon="15.009354725388013"><ele>834.9999999999999</ele><time>2026-05-02T15:59:10.999Z</time></trkpt><trkpt lat="38.02339993705683" lon="15.009309585303495"><ele>835.0</ele><time>2026-05-02T15:59:11.999Z</time></trkpt><trkpt lat="38.023480006951836" lon="15.009261029540355"><ele>835.0</ele><time>2026-05-02T15:59:12.999Z</time></trkpt><trkpt lat="38.02356048996307" lon="15.009205403459907"><ele>835.0</ele><time>2026-05-02T15:59:13.999Z</time></trkpt><trkpt lat="38.023641475238584" lon="15.009146641335226"><ele>835.0</ele><time>2026-05-02T15:59:14.999Z</time></trkpt><trkpt lat="38.02372461157625" lon="15.009089376120276"><ele>835.0</ele><time>2026-05-02T15:59:15.999Z</time></trkpt><trkpt lat="38.02381000448176" lon="15.009023395426553"><ele>835.0</ele><time>2026-05-02T15:59:16.999Z</time></trkpt><trkpt lat="38.02390145561091" lon="15.00895988228688"><ele>835.0</ele><time>2026-05-02T15:59:17.999Z</time></trkpt><trkpt lat="38.02399261692215" lon="15.008893529733774"><ele>835.0</ele><time>2026-05-02T15:59:18.999Z</time></trkpt><trkpt lat="38.024083116762526" lon="15.00882329719149"><ele>835.0</ele><time>2026-05-02T15:59:19.999Z</time></trkpt><trkpt lat="38.02416655375727" lon="15.008725055657656"><ele>835.0</ele><time>2026-05-02T15:59:20.999Z</time></trkpt><trkpt lat="38.024241042880575" lon="15.008616992111586"><ele>835.0</ele><time>2026-05-02T15:59:21.999Z</time></trkpt><trkpt lat="38.02431219821253" lon="15.008491629539106"><ele>833.4999999999999</ele><time>2026-05-02T15:59:22.999Z</time></trkpt><trkpt lat="38.02437320506406" lon="15.008380757019136"><ele>832.0</ele><time>2026-05-02T15:59:23.999Z</time></trkpt><trkpt lat="38.02442897995063" lon="15.008284026380936"><ele>830.5</ele><time>2026-05-02T15:59:24.999Z</time></trkpt><trkpt lat="38.02448703742585" lon="15.008212484970054"><ele>829.0</ele><time>2026-05-02T15:59:25.999Z</time></trkpt><trkpt lat="38.02454065134151" lon="15.00814657104379"><ele>827.4999999999999</ele><time>2026-05-02T15:59:26.999Z</time></trkpt><trkpt lat="38.02460811626485" lon="15.008084881255444"><ele>826.0</ele><time>2026-05-02T15:59:27.999Z</time></trkpt><trkpt lat="38.02468317480691" lon="15.008034841520093"><ele>825.9999999999999</ele><time>2026-05-02T15:59:28.999Z</time></trkpt><trkpt lat="38.024749744739246" lon="15.007974463460577"><ele>826.0</ele><time>2026-05-02T15:59:29.999Z</time></trkpt><trkpt lat="38.024822353247934" lon="15.007930005359198"><ele>826.0</ele><time>2026-05-02T15:59:30.999Z</time></trkpt><trkpt lat="38.02489596519921" lon="15.00788465172205"><ele>826.0</ele><time>2026-05-02T15:59:31.999Z</time></trkpt><trkpt lat="38.024972710658716" lon="15.007849385300856"><ele>825.9999999999999</ele><time>2026-05-02T15:59:32.999Z</time></trkpt><trkpt lat="38.02505409150275" lon="15.00783151235241"><ele>826.0</ele><time>2026-05-02T15:59:33.999Z</time></trkpt><trkpt lat="38.02513620154779" lon="15.007837107713856"><ele>828.5999999999999</ele><time>2026-05-02T15:59:34.999Z</time></trkpt><trkpt lat="38.02522020247904" lon="15.007848636727013"><ele>831.2</ele><time>2026-05-02T15:59:35.999Z</time></trkpt><trkpt lat="38.02531539171849" lon="15.007867692680586"><ele>833.8</ele><time>2026-05-02T15:59:36.999Z</time></trkpt><trkpt lat="38.02542116042642" lon="15.007865212822582"><ele>836.4000000000001</ele><time>2026-05-02T15:59:37.999Z</time></trkpt><trkpt lat="38.02553567092486" lon="15.007882700270903"><ele>839.0</ele><time>2026-05-02T15:59:38.999Z</time></trkpt><trkpt lat="38.02565512552704" lon="15.007898308241483"><ele>839.0</ele><time>2026-05-02T15:59:39.999Z</time></trkpt><trkpt lat="38.02577753016978" lon="15.007901708640356"><ele>839.0</ele><time>2026-05-02T15:59:40.999Z</time></trkpt><trkpt lat="38.02589477439762" lon="15.007906304223962"><ele>839.0</ele><time>2026-05-02T15:59:41.999Z</time></trkpt><trkpt lat="38.02599713083617" lon="15.007905719227024"><ele>839.0</ele><time>2026-05-02T15:59:42.999Z</time></trkpt><trkpt lat="38.02607713240116" lon="15.007901883519837"><ele>839.0</ele><time>2026-05-02T15:59:43.999Z</time></trkpt><trkpt lat="38.02618610621053" lon="15.007882425812054"><ele>839.8000000000001</ele><time>2026-05-02T15:59:45.999Z</time></trkpt><trkpt lat="38.026260289690526" lon="15.007882001403965"><ele>840.6</ele><time>2026-05-02T15:59:47.999Z</time></trkpt><trkpt lat="38.02632752248769" lon="15.007928645039204"><ele>841.4</ele><time>2026-05-02T15:59:50.998Z</time></trkpt><trkpt lat="38.0262246553521" lon="15.007938262126663"><ele>842.2</ele><time>2026-05-02T15:59:54.998Z</time></trkpt><trkpt lat="38.026112196457476" lon="15.00796476021301"><ele>843.0</ele><time>2026-05-02T15:59:56.998Z</time></trkpt><trkpt lat="38.0260210587309" lon="15.008014779796962"><ele>843.0</ele><time>2026-05-02T15:59:58.998Z</time></trkpt><trkpt lat="38.0259749956161" lon="15.008102735876873"><ele>843.0</ele><time>2026-05-02T16:00:00.998Z</time></trkpt><trkpt lat="38.02590987514633" lon="15.00815098240082"><ele>843.0</ele><time>2026-05-02T16:00:02.998Z</time></trkpt><trkpt lat="38.02585024685195" lon="15.008214149256343"><ele>843.0</ele><time>2026-05-02T16:00:04.998Z</time></trkpt><trkpt lat="38.02577556417588" lon="15.008265005723148"><ele>843.0</ele><time>2026-05-02T16:00:06.998Z</time></trkpt><trkpt lat="38.02570989543672" lon="15.00832696138713"><ele>843.0</ele><time>2026-05-02T16:00:08.998Z</time></trkpt><trkpt lat="38.02564892713651" lon="15.008369159724422"><ele>846.6666666666666</ele><time>2026-05-02T16:00:12.998Z</time></trkpt><trkpt lat="38.02559201103102" lon="15.008453446284626"><ele>850.3333333333333</ele><time>2026-05-02T16:00:15.998Z</time></trkpt><trkpt lat="38.02553664661989" lon="15.008494792695519"><ele>854.0</ele><time>2026-05-02T16:00:17.998Z</time></trkpt><trkpt lat="38.025448932125066" lon="15.008484832813751"><ele>857.6666666666666</ele><time>2026-05-02T16:00:20.998Z</time></trkpt><trkpt lat="38.02537167634146" lon="15.008457521768731"><ele>861.3333333333333</ele><time>2026-05-02T16:00:22.998Z</time></trkpt><trkpt lat="38.025305747236" lon="15.008488570259294"><ele>865.0</ele><time>2026-05-02T16:00:49Z</time></trkpt><trkpt lat="38.02524270329818" lon="15.008494101226649"><ele>864.9999999999999</ele><time>2026-05-02T16:00:59Z</time></trkpt><trkpt lat="38.02516340463984" lon="15.008555852143818"><ele>865.0</ele><time>2026-05-02T16:01:16.999Z</time></trkpt><trkpt lat="38.025098015407316" lon="15.008598434042332"><ele>865.0</ele><time>2026-05-02T16:01:35.999Z</time></trkpt><trkpt lat="38.0250259823935" lon="15.008576907478384"><ele>865.0</ele><time>2026-05-02T16:01:37.999Z</time></trkpt><trkpt lat="38.02496819959276" lon="15.008632496861475"><ele>864.9999999999999</ele><time>2026-05-02T16:01:40.999Z</time></trkpt><trkpt lat="38.024912329915914" lon="15.008584797169117"><ele>865.0</ele><time>2026-05-02T16:01:56.998Z</time></trkpt><trkpt lat="38.0249645304253" lon="15.008517376823553"><ele>846.0</ele><time>2026-05-02T16:02:33.998Z</time></trkpt></trkseg></trk></gpx>